﻿<?xml version="1.0" encoding="utf-8"?><gpx creator="Garmin Desktop App" version="1.1" xsi:schemaLocation="http://www.topografix.com/GPX/1/1 http://www.topografix.com/GPX/1/1/gpx.xsd http://www.garmin.com/xmlschemas/WaypointExtension/v1 http://www8.garmin.com/xmlschemas/WaypointExtensionv1.xsd http://www.garmin.com/xmlschemas/TrackPointExtension/v1 http://www.garmin.com/xmlschemas/TrackPointExtensionv1.xsd http://www.garmin.com/xmlschemas/GpxExtensions/v3 http://www8.garmin.com/xmlschemas/GpxExtensionsv3.xsd http://www.garmin.com/xmlschemas/ActivityExtension/v1 http://www8.garmin.com/xmlschemas/ActivityExtensionv1.xsd http://www.garmin.com/xmlschemas/AdventuresExtensions/v1 http://www8.garmin.com/xmlschemas/AdventuresExtensionv1.xsd http://www.garmin.com/xmlschemas/PressureExtension/v1 http://www.garmin.com/xmlschemas/PressureExtensionv1.xsd http://www.garmin.com/xmlschemas/TripExtensions/v1 http://www.garmin.com/xmlschemas/TripExtensionsv1.xsd http://www.garmin.com/xmlschemas/TripMetaDataExtensions/v1 http://www.garmin.com/xmlschemas/TripMetaDataExtensionsv1.xsd http://www.garmin.com/xmlschemas/ViaPointTransportationModeExtensions/v1 http://www.garmin.com/xmlschemas/ViaPointTransportationModeExtensionsv1.xsd http://www.garmin.com/xmlschemas/CreationTimeExtension/v1 http://www.garmin.com/xmlschemas/CreationTimeExtensionsv1.xsd http://www.garmin.com/xmlschemas/AccelerationExtension/v1 http://www.garmin.com/xmlschemas/AccelerationExtensionv1.xsd http://www.garmin.com/xmlschemas/PowerExtension/v1 http://www.garmin.com/xmlschemas/PowerExtensionv1.xsd http://www.garmin.com/xmlschemas/VideoExtension/v1 http://www.garmin.com/xmlschemas/VideoExtensionv1.xsd" xmlns="http://www.topografix.com/GPX/1/1" xmlns:xsi="http://www.w3.org/2001/XMLSchema-instance" xmlns:wptx1="http://www.garmin.com/xmlschemas/WaypointExtension/v1" xmlns:gpxtrx="http://www.garmin.com/xmlschemas/GpxExtensions/v3" xmlns:gpxtpx="http://www.garmin.com/xmlschemas/TrackPointExtension/v1" xmlns:gpxx="http://www.garmin.com/xmlschemas/GpxExtensions/v3" xmlns:trp="http://www.garmin.com/xmlschemas/TripExtensions/v1" xmlns:adv="http://www.garmin.com/xmlschemas/AdventuresExtensions/v1" xmlns:prs="http://www.garmin.com/xmlschemas/PressureExtension/v1" xmlns:tmd="http://www.garmin.com/xmlschemas/TripMetaDataExtensions/v1" xmlns:vptm="http://www.garmin.com/xmlschemas/ViaPointTransportationModeExtensions/v1" xmlns:ctx="http://www.garmin.com/xmlschemas/CreationTimeExtension/v1" xmlns:gpxacc="http://www.garmin.com/xmlschemas/AccelerationExtension/v1" xmlns:gpxpx="http://www.garmin.com/xmlschemas/PowerExtension/v1" xmlns:vidx1="http://www.garmin.com/xmlschemas/VideoExtension/v1">

  <metadata>
    <link href="http://www.garmin.com">
      <text>Garmin International</text>
    </link>
    <time>2021-08-02T07:16:43Z</time>
    <bounds maxlat="46.435859072953463" maxlon="8.405601158738136" minlat="46.420436538755894" minlon="8.350753672420979" />
  </metadata>

  <trk>
    <name>Rifugio Somma 50° CAI GAZZADA SCHIANNO 01-08-2021</name>
    <extensions>
      <gpxx:TrackExtension>
        <gpxx:DisplayColor>Cyan</gpxx:DisplayColor>
      </gpxx:TrackExtension>
      <gpxtrkx:TrackStatsExtension xmlns:gpxtrkx="http://www.garmin.com/xmlschemas/TrackStatsExtension/v1">
        <gpxtrkx:Distance>12825</gpxtrkx:Distance>
        <gpxtrkx:TimerTime>32847</gpxtrkx:TimerTime>
        <gpxtrkx:TotalElapsedTime>32857</gpxtrkx:TotalElapsedTime>
        <gpxtrkx:MovingSpeed>0.833</gpxtrkx:MovingSpeed>
        <gpxtrkx:MaxElevation>2571.4</gpxtrkx:MaxElevation>
        <gpxtrkx:MinElevation>1745.2</gpxtrkx:MinElevation>
        <gpxtrkx:Ascent>913</gpxtrkx:Ascent>
        <gpxtrkx:Descent>930</gpxtrkx:Descent>
        <gpxtrkx:Calories>789</gpxtrkx:Calories>
      </gpxtrkx:TrackStatsExtension>
    </extensions>
    <trkseg>
      <trkpt lat="46.424965029582381" lon="8.405585484579206">
        <ele>1745.8900000000001</ele>
        <time>2021-08-01T06:51:46Z</time>
      </trkpt>
      <trkpt lat="46.424964359030128" lon="8.405584981665015">
        <ele>1745.8900000000001</ele>
        <time>2021-08-01T06:51:47Z</time>
      </trkpt>
      <trkpt lat="46.424976428970695" lon="8.405601158738136">
        <ele>1747.8099999999999</ele>
        <time>2021-08-01T06:52:02Z</time>
      </trkpt>
      <trkpt lat="46.424981122836471" lon="8.405579281970859">
        <ele>1746.3699999999999</ele>
        <time>2021-08-01T06:52:11Z</time>
      </trkpt>
      <trkpt lat="46.425004675984383" lon="8.405548855662346">
        <ele>1745.8900000000001</ele>
        <time>2021-08-01T06:52:18Z</time>
      </trkpt>
      <trkpt lat="46.424998473376036" lon="8.405547766014934">
        <ele>1745.8900000000001</ele>
        <time>2021-08-01T06:52:31Z</time>
      </trkpt>
      <trkpt lat="46.424996880814433" lon="8.405551789328456">
        <ele>1745.8900000000001</ele>
        <time>2021-08-01T06:53:05Z</time>
      </trkpt>
      <trkpt lat="46.424967963248491" lon="8.405567966401577">
        <ele>1745.8900000000001</ele>
        <time>2021-08-01T06:53:30Z</time>
      </trkpt>
      <trkpt lat="46.425003167241812" lon="8.405565032735467">
        <ele>1745.8900000000001</ele>
        <time>2021-08-01T06:53:40Z</time>
      </trkpt>
      <trkpt lat="46.425007022917271" lon="8.405544077977538">
        <ele>1745.8900000000001</ele>
        <time>2021-08-01T06:53:56Z</time>
      </trkpt>
      <trkpt lat="46.425006184726954" lon="8.405536785721779">
        <ele>1745.8900000000001</ele>
        <time>2021-08-01T06:54:08Z</time>
      </trkpt>
      <trkpt lat="46.424977434799075" lon="8.40550216846168">
        <ele>1745.8900000000001</ele>
        <time>2021-08-01T06:54:14Z</time>
      </trkpt>
      <trkpt lat="46.424970896914601" lon="8.405476519837976">
        <ele>1745.8900000000001</ele>
        <time>2021-08-01T06:54:18Z</time>
      </trkpt>
      <trkpt lat="46.424991516396403" lon="8.405414242297411">
        <ele>1746.3699999999999</ele>
        <time>2021-08-01T06:54:23Z</time>
      </trkpt>
      <trkpt lat="46.425040299072862" lon="8.405336625874043">
        <ele>1746.8499999999999</ele>
        <time>2021-08-01T06:54:31Z</time>
      </trkpt>
      <trkpt lat="46.425058236345649" lon="8.405332770198584">
        <ele>1748.29</ele>
        <time>2021-08-01T06:54:42Z</time>
      </trkpt>
      <trkpt lat="46.425061672925949" lon="8.40532036498189">
        <ele>1748.78</ele>
        <time>2021-08-01T06:54:43Z</time>
      </trkpt>
      <trkpt lat="46.425067037343979" lon="8.4053042717278">
        <ele>1748.78</ele>
        <time>2021-08-01T06:54:44Z</time>
      </trkpt>
      <trkpt lat="46.425073156133294" lon="8.405288178473711">
        <ele>1748.78</ele>
        <time>2021-08-01T06:54:45Z</time>
      </trkpt>
      <trkpt lat="46.425079274922609" lon="8.405274264514446">
        <ele>1748.78</ele>
        <time>2021-08-01T06:54:46Z</time>
      </trkpt>
      <trkpt lat="46.425097296014428" lon="8.405230678617954">
        <ele>1748.78</ele>
        <time>2021-08-01T06:54:49Z</time>
      </trkpt>
      <trkpt lat="46.425102660432458" lon="8.40521433390677">
        <ele>1748.78</ele>
        <time>2021-08-01T06:54:50Z</time>
      </trkpt>
      <trkpt lat="46.425107270479202" lon="8.405198575928807">
        <ele>1748.78</ele>
        <time>2021-08-01T06:54:51Z</time>
      </trkpt>
      <trkpt lat="46.425115149468184" lon="8.405185835435987">
        <ele>1748.29</ele>
        <time>2021-08-01T06:54:52Z</time>
      </trkpt>
      <trkpt lat="46.425136690959334" lon="8.405168736353517">
        <ele>1748.29</ele>
        <time>2021-08-01T06:54:54Z</time>
      </trkpt>
      <trkpt lat="46.425145240500569" lon="8.405155995860696">
        <ele>1748.29</ele>
        <time>2021-08-01T06:54:55Z</time>
      </trkpt>
      <trkpt lat="46.425201147794724" lon="8.405068572610617">
        <ele>1748.78</ele>
        <time>2021-08-01T06:55:02Z</time>
      </trkpt>
      <trkpt lat="46.42526987940073" lon="8.404965391382575">
        <ele>1748.78</ele>
        <time>2021-08-01T06:55:11Z</time>
      </trkpt>
      <trkpt lat="46.425309022888541" lon="8.404894648119807">
        <ele>1749.26</ele>
        <time>2021-08-01T06:55:18Z</time>
      </trkpt>
      <trkpt lat="46.425342634320259" lon="8.404790293425322">
        <ele>1750.7</ele>
        <time>2021-08-01T06:55:27Z</time>
      </trkpt>
      <trkpt lat="46.425377335399389" lon="8.404739750549197">
        <ele>1751.6600000000001</ele>
        <time>2021-08-01T06:55:35Z</time>
      </trkpt>
      <trkpt lat="46.425436092540622" lon="8.404699685052037">
        <ele>1752.6199999999999</ele>
        <time>2021-08-01T06:55:43Z</time>
      </trkpt>
      <trkpt lat="46.425451263785362" lon="8.404682334512472">
        <ele>1752.6199999999999</ele>
        <time>2021-08-01T06:55:45Z</time>
      </trkpt>
      <trkpt lat="46.425508931279182" lon="8.404652243480086">
        <ele>1753.5799999999999</ele>
        <time>2021-08-01T06:55:53Z</time>
      </trkpt>
      <trkpt lat="46.425550086423755" lon="8.404602874070406">
        <ele>1755.02</ele>
        <time>2021-08-01T06:56:00Z</time>
      </trkpt>
      <trkpt lat="46.425585877150297" lon="8.404555432498455">
        <ele>1755.99</ele>
        <time>2021-08-01T06:56:06Z</time>
      </trkpt>
      <trkpt lat="46.425625858828425" lon="8.404453760012984">
        <ele>1757.4300000000001</ele>
        <time>2021-08-01T06:56:15Z</time>
      </trkpt>
      <trkpt lat="46.425654860213399" lon="8.404371617361903">
        <ele>1759.3499999999999</ele>
        <time>2021-08-01T06:56:26Z</time>
      </trkpt>
      <trkpt lat="46.425675395876169" lon="8.404332138597965">
        <ele>1760.3099999999999</ele>
        <time>2021-08-01T06:56:33Z</time>
      </trkpt>
      <trkpt lat="46.425719317048788" lon="8.404301041737199">
        <ele>1762.23</ele>
        <time>2021-08-01T06:56:43Z</time>
      </trkpt>
      <trkpt lat="46.425733985379338" lon="8.404256366193295">
        <ele>1763.6800000000001</ele>
        <time>2021-08-01T06:56:52Z</time>
      </trkpt>
      <trkpt lat="46.425739182159305" lon="8.404228622093797">
        <ele>1764.1600000000001</ele>
        <time>2021-08-01T06:56:55Z</time>
      </trkpt>
      <trkpt lat="46.425749491900206" lon="8.404221329838038">
        <ele>1764.1600000000001</ele>
        <time>2021-08-01T06:56:56Z</time>
      </trkpt>
      <trkpt lat="46.425760891288519" lon="8.404214372858405">
        <ele>1764.6400000000001</ele>
        <time>2021-08-01T06:56:57Z</time>
      </trkpt>
      <trkpt lat="46.425771787762642" lon="8.404206577688456">
        <ele>1764.6400000000001</ele>
        <time>2021-08-01T06:56:58Z</time>
      </trkpt>
      <trkpt lat="46.425781762227416" lon="8.404195094481111">
        <ele>1764.6400000000001</ele>
        <time>2021-08-01T06:56:59Z</time>
      </trkpt>
      <trkpt lat="46.425835741683841" lon="8.404026785865426">
        <ele>1765.5999999999999</ele>
        <time>2021-08-01T06:57:10Z</time>
      </trkpt>
      <trkpt lat="46.425827359780669" lon="8.40398102067411">
        <ele>1766.5599999999999</ele>
        <time>2021-08-01T06:57:19Z</time>
      </trkpt>
      <trkpt lat="46.425800370052457" lon="8.403955036774278">
        <ele>1766.5599999999999</ele>
        <time>2021-08-01T06:57:22Z</time>
      </trkpt>
      <trkpt lat="46.425769021734595" lon="8.403885969892144">
        <ele>1766.5599999999999</ele>
        <time>2021-08-01T06:57:28Z</time>
      </trkpt>
      <trkpt lat="46.425779247656465" lon="8.403827464208007">
        <ele>1767.04</ele>
        <time>2021-08-01T06:57:32Z</time>
      </trkpt>
      <trkpt lat="46.425779247656465" lon="8.403789829462767">
        <ele>1767.04</ele>
        <time>2021-08-01T06:57:35Z</time>
      </trkpt>
      <trkpt lat="46.425769189372659" lon="8.403735179454088">
        <ele>1768</ele>
        <time>2021-08-01T06:57:39Z</time>
      </trkpt>
      <trkpt lat="46.425769692286849" lon="8.403718499466777">
        <ele>1768</ele>
        <time>2021-08-01T06:57:40Z</time>
      </trkpt>
      <trkpt lat="46.425770195201039" lon="8.403701651841402">
        <ele>1768</ele>
        <time>2021-08-01T06:57:41Z</time>
      </trkpt>
      <trkpt lat="46.425764327868819" lon="8.403576258569956">
        <ele>1769.4400000000001</ele>
        <time>2021-08-01T06:57:49Z</time>
      </trkpt>
      <trkpt lat="46.425767680630088" lon="8.403536025434732">
        <ele>1769.9200000000001</ele>
        <time>2021-08-01T06:57:52Z</time>
      </trkpt>
      <trkpt lat="46.425772374495864" lon="8.403506772592664">
        <ele>1770.4100000000001</ele>
        <time>2021-08-01T06:57:54Z</time>
      </trkpt>
      <trkpt lat="46.425765166059136" lon="8.403373416513205">
        <ele>1771.3699999999999</ele>
        <time>2021-08-01T06:58:03Z</time>
      </trkpt>
      <trkpt lat="46.425766758620739" lon="8.40323687531054">
        <ele>1772.8099999999999</ele>
        <time>2021-08-01T06:58:12Z</time>
      </trkpt>
      <trkpt lat="46.425764076411724" lon="8.403207287192345">
        <ele>1773.29</ele>
        <time>2021-08-01T06:58:14Z</time>
      </trkpt>
      <trkpt lat="46.425757119432092" lon="8.403098741546273">
        <ele>1773.77</ele>
        <time>2021-08-01T06:58:22Z</time>
      </trkpt>
      <trkpt lat="46.425762483850121" lon="8.402949627488852">
        <ele>1775.6900000000001</ele>
        <time>2021-08-01T06:58:33Z</time>
      </trkpt>
      <trkpt lat="46.425756616517901" lon="8.402816355228424">
        <ele>1777.6099999999999</ele>
        <time>2021-08-01T06:58:42Z</time>
      </trkpt>
      <trkpt lat="46.425735745579004" lon="8.402677634730935">
        <ele>1779.54</ele>
        <time>2021-08-01T06:58:52Z</time>
      </trkpt>
      <trkpt lat="46.425730967894197" lon="8.402653746306896">
        <ele>1780.02</ele>
        <time>2021-08-01T06:58:54Z</time>
      </trkpt>
      <trkpt lat="46.425726190209389" lon="8.402539417147636">
        <ele>1780.98</ele>
        <time>2021-08-01T06:59:03Z</time>
      </trkpt>
      <trkpt lat="46.425746139138937" lon="8.402452832087874">
        <ele>1782.4200000000001</ele>
        <time>2021-08-01T06:59:10Z</time>
      </trkpt>
      <trkpt lat="46.425751922652125" lon="8.402438666671515">
        <ele>1782.4200000000001</ele>
        <time>2021-08-01T06:59:11Z</time>
      </trkpt>
      <trkpt lat="46.425787629559636" lon="8.402346298098564">
        <ele>1783.3800000000001</ele>
        <time>2021-08-01T06:59:20Z</time>
      </trkpt>
      <trkpt lat="46.425799364224076" lon="8.402317631989718">
        <ele>1784.3399999999999</ele>
        <time>2021-08-01T06:59:28Z</time>
      </trkpt>
      <trkpt lat="46.425824761390686" lon="8.402217552065849">
        <ele>1784.8199999999999</ele>
        <time>2021-08-01T06:59:37Z</time>
      </trkpt>
      <trkpt lat="46.425848482176661" lon="8.402129961177707">
        <ele>1786.27</ele>
        <time>2021-08-01T06:59:47Z</time>
      </trkpt>
      <trkpt lat="46.425867760553956" lon="8.402060139924288">
        <ele>1787.71</ele>
        <time>2021-08-01T06:59:56Z</time>
      </trkpt>
      <trkpt lat="46.425919225439429" lon="8.4020094294101">
        <ele>1788.6700000000001</ele>
        <time>2021-08-01T07:00:04Z</time>
      </trkpt>
      <trkpt lat="46.425942778587341" lon="8.401965424418449">
        <ele>1789.6300000000001</ele>
        <time>2021-08-01T07:00:11Z</time>
      </trkpt>
      <trkpt lat="46.425977647304535" lon="8.40193273499608">
        <ele>1790.1099999999999</ele>
        <time>2021-08-01T07:00:20Z</time>
      </trkpt>
      <trkpt lat="46.426020730286837" lon="8.401861069723964">
        <ele>1790.5899999999999</ele>
        <time>2021-08-01T07:00:28Z</time>
      </trkpt>
      <trkpt lat="46.426046378910542" lon="8.401798121631146">
        <ele>1792.52</ele>
        <time>2021-08-01T07:00:36Z</time>
      </trkpt>
      <trkpt lat="46.42608736641705" lon="8.401737352833152">
        <ele>1794.4400000000001</ele>
        <time>2021-08-01T07:00:46Z</time>
      </trkpt>
      <trkpt lat="46.426111254841089" lon="8.401690078899264">
        <ele>1796.3599999999999</ele>
        <time>2021-08-01T07:00:54Z</time>
      </trkpt>
      <trkpt lat="46.426135478541255" lon="8.401621431112289">
        <ele>1797.8</ele>
        <time>2021-08-01T07:01:05Z</time>
      </trkpt>
      <trkpt lat="46.426148889586329" lon="8.401595279574394">
        <ele>1799.24</ele>
        <time>2021-08-01T07:01:14Z</time>
      </trkpt>
      <trkpt lat="46.426186440512538" lon="8.401542641222477">
        <ele>1800.6900000000001</ele>
        <time>2021-08-01T07:01:23Z</time>
      </trkpt>
      <trkpt lat="46.426197169348598" lon="8.401503497734666">
        <ele>1801.1700000000001</ele>
        <time>2021-08-01T07:01:27Z</time>
      </trkpt>
      <trkpt lat="46.426208233460784" lon="8.401480196043849">
        <ele>1802.1300000000001</ele>
        <time>2021-08-01T07:01:29Z</time>
      </trkpt>
      <trkpt lat="46.426273277029395" lon="8.401370728388429">
        <ele>1803.5699999999999</ele>
        <time>2021-08-01T07:01:39Z</time>
      </trkpt>
      <trkpt lat="46.426321556791663" lon="8.401318090036511">
        <ele>1804.05</ele>
        <time>2021-08-01T07:01:48Z</time>
      </trkpt>
      <trkpt lat="46.426377044990659" lon="8.401280455291271">
        <ele>1805.01</ele>
        <time>2021-08-01T07:01:57Z</time>
      </trkpt>
      <trkpt lat="46.426432952284813" lon="8.401250867173076">
        <ele>1807.4200000000001</ele>
        <time>2021-08-01T07:02:06Z</time>
      </trkpt>
      <trkpt lat="46.426500342786312" lon="8.401270564645529">
        <ele>1809.3399999999999</ele>
        <time>2021-08-01T07:02:15Z</time>
      </trkpt>
      <trkpt lat="46.426550298929214" lon="8.401202168315649">
        <ele>1810.3</ele>
        <time>2021-08-01T07:02:25Z</time>
      </trkpt>
      <trkpt lat="46.42657108604908" lon="8.401160929352045">
        <ele>1811.74</ele>
        <time>2021-08-01T07:02:32Z</time>
      </trkpt>
      <trkpt lat="46.426605619490147" lon="8.40110694989562">
        <ele>1813.1800000000001</ele>
        <time>2021-08-01T07:02:47Z</time>
      </trkpt>
      <trkpt lat="46.426647277548909" lon="8.401079624891281">
        <ele>1814.6300000000001</ele>
        <time>2021-08-01T07:02:58Z</time>
      </trkpt>
      <trkpt lat="46.426676865667105" lon="8.401098316535354">
        <ele>1817.03</ele>
        <time>2021-08-01T07:03:06Z</time>
      </trkpt>
      <trkpt lat="46.426695054396987" lon="8.401080630719662">
        <ele>1817.99</ele>
        <time>2021-08-01T07:03:09Z</time>
      </trkpt>
      <trkpt lat="46.426705196499825" lon="8.401053724810481">
        <ele>1818.47</ele>
        <time>2021-08-01T07:03:11Z</time>
      </trkpt>
      <trkpt lat="46.426710896193981" lon="8.401039391756058">
        <ele>1818.95</ele>
        <time>2021-08-01T07:03:12Z</time>
      </trkpt>
      <trkpt lat="46.42671718262136" lon="8.401025980710983">
        <ele>1818.95</ele>
        <time>2021-08-01T07:03:13Z</time>
      </trkpt>
      <trkpt lat="46.426782561466098" lon="8.400873094797134">
        <ele>1820.3900000000001</ele>
        <time>2021-08-01T07:03:24Z</time>
      </trkpt>
      <trkpt lat="46.426743417978287" lon="8.400737475603819">
        <ele>1821.3499999999999</ele>
        <time>2021-08-01T07:03:33Z</time>
      </trkpt>
      <trkpt lat="46.426661275327206" lon="8.400555336847901">
        <ele>1822.8</ele>
        <time>2021-08-01T07:03:45Z</time>
      </trkpt>
      <trkpt lat="46.426573432981968" lon="8.400375880300999">
        <ele>1821.3499999999999</ele>
        <time>2021-08-01T07:03:58Z</time>
      </trkpt>
      <trkpt lat="46.426509981974959" lon="8.400238249450922">
        <ele>1820.8699999999999</ele>
        <time>2021-08-01T07:04:08Z</time>
      </trkpt>
      <trkpt lat="46.426419038325548" lon="8.400080250576139">
        <ele>1820.3900000000001</ele>
        <time>2021-08-01T07:04:20Z</time>
      </trkpt>
      <trkpt lat="46.42634779214859" lon="8.399992827326059">
        <ele>1820.3900000000001</ele>
        <time>2021-08-01T07:04:29Z</time>
      </trkpt>
      <trkpt lat="46.426246035844088" lon="8.399914540350437">
        <ele>1820.3900000000001</ele>
        <time>2021-08-01T07:04:38Z</time>
      </trkpt>
      <trkpt lat="46.426207227632403" lon="8.399759978055954">
        <ele>1820.8699999999999</ele>
        <time>2021-08-01T07:04:48Z</time>
      </trkpt>
      <trkpt lat="46.426211837679148" lon="8.399733826518059">
        <ele>1820.8699999999999</ele>
        <time>2021-08-01T07:04:50Z</time>
      </trkpt>
      <trkpt lat="46.426262883469462" lon="8.39968353509903">
        <ele>1819.9100000000001</ele>
        <time>2021-08-01T07:04:57Z</time>
      </trkpt>
      <trkpt lat="46.426289370283484" lon="8.39966207742691">
        <ele>1819.9100000000001</ele>
        <time>2021-08-01T07:05:01Z</time>
      </trkpt>
      <trkpt lat="46.426321472972631" lon="8.39964204467833">
        <ele>1819.4300000000001</ele>
        <time>2021-08-01T07:05:04Z</time>
      </trkpt>
      <trkpt lat="46.426332537084818" lon="8.399635339155793">
        <ele>1819.4300000000001</ele>
        <time>2021-08-01T07:05:05Z</time>
      </trkpt>
      <trkpt lat="46.426343852654099" lon="8.399624945595861">
        <ele>1819.4300000000001</ele>
        <time>2021-08-01T07:05:06Z</time>
      </trkpt>
      <trkpt lat="46.426354832947254" lon="8.399613378569484">
        <ele>1819.4300000000001</ele>
        <time>2021-08-01T07:05:07Z</time>
      </trkpt>
      <trkpt lat="46.426364472135901" lon="8.39960147626698">
        <ele>1819.4300000000001</ele>
        <time>2021-08-01T07:05:08Z</time>
      </trkpt>
      <trkpt lat="46.426427755504847" lon="8.399460660293698">
        <ele>1819.4300000000001</ele>
        <time>2021-08-01T07:05:20Z</time>
      </trkpt>
      <trkpt lat="46.426482740789652" lon="8.399333925917745">
        <ele>1819.4300000000001</ele>
        <time>2021-08-01T07:05:31Z</time>
      </trkpt>
      <trkpt lat="46.426554070785642" lon="8.399143824353814">
        <ele>1819.9100000000001</ele>
        <time>2021-08-01T07:05:43Z</time>
      </trkpt>
      <trkpt lat="46.426580557599664" lon="8.398964870721102">
        <ele>1819.9100000000001</ele>
        <time>2021-08-01T07:05:54Z</time>
      </trkpt>
      <trkpt lat="46.426589861512184" lon="8.398796478286386">
        <ele>1820.3900000000001</ele>
        <time>2021-08-01T07:06:05Z</time>
      </trkpt>
      <trkpt lat="46.426586844027042" lon="8.398777199909091">
        <ele>1820.3900000000001</ele>
        <time>2021-08-01T07:06:07Z</time>
      </trkpt>
      <trkpt lat="46.426581647247076" lon="8.398764794692397">
        <ele>1820.3900000000001</ele>
        <time>2021-08-01T07:06:08Z</time>
      </trkpt>
      <trkpt lat="46.426572762429714" lon="8.398752054199576">
        <ele>1820.3900000000001</ele>
        <time>2021-08-01T07:06:09Z</time>
      </trkpt>
      <trkpt lat="46.426562117412686" lon="8.398739481344819">
        <ele>1820.3900000000001</ele>
        <time>2021-08-01T07:06:10Z</time>
      </trkpt>
      <trkpt lat="46.4265510533005" lon="8.398727746680379">
        <ele>1820.3900000000001</ele>
        <time>2021-08-01T07:06:11Z</time>
      </trkpt>
      <trkpt lat="46.426541162654757" lon="8.398713078349829">
        <ele>1820.3900000000001</ele>
        <time>2021-08-01T07:06:12Z</time>
      </trkpt>
      <trkpt lat="46.426532529294491" lon="8.398696733638644">
        <ele>1820.3900000000001</ele>
        <time>2021-08-01T07:06:13Z</time>
      </trkpt>
      <trkpt lat="46.42647729255259" lon="8.398515097796917">
        <ele>1820.8699999999999</ele>
        <time>2021-08-01T07:06:23Z</time>
      </trkpt>
      <trkpt lat="46.426473688334227" lon="8.398406049236655">
        <ele>1820.3900000000001</ele>
        <time>2021-08-01T07:06:29Z</time>
      </trkpt>
      <trkpt lat="46.426476622000337" lon="8.398210080340505">
        <ele>1820.8699999999999</ele>
        <time>2021-08-01T07:06:38Z</time>
      </trkpt>
      <trkpt lat="46.426515094935894" lon="8.39796356856823">
        <ele>1820.8699999999999</ele>
        <time>2021-08-01T07:06:50Z</time>
      </trkpt>
      <trkpt lat="46.426563961431384" lon="8.397798361256719">
        <ele>1820.3900000000001</ele>
        <time>2021-08-01T07:06:59Z</time>
      </trkpt>
      <trkpt lat="46.426567398011684" lon="8.397787883877754">
        <ele>1820.3900000000001</ele>
        <time>2021-08-01T07:07:00Z</time>
      </trkpt>
      <trkpt lat="46.426570080220699" lon="8.39775687083602">
        <ele>1820.3900000000001</ele>
        <time>2021-08-01T07:07:02Z</time>
      </trkpt>
      <trkpt lat="46.426571756601334" lon="8.397736335173249">
        <ele>1820.8699999999999</ele>
        <time>2021-08-01T07:07:03Z</time>
      </trkpt>
      <trkpt lat="46.426555160433054" lon="8.397464258596301">
        <ele>1821.3499999999999</ele>
        <time>2021-08-01T07:07:17Z</time>
      </trkpt>
      <trkpt lat="46.426552981138229" lon="8.39742997661233">
        <ele>1821.3499999999999</ele>
        <time>2021-08-01T07:07:19Z</time>
      </trkpt>
      <trkpt lat="46.426552729681134" lon="8.397379349917173">
        <ele>1821.8399999999999</ele>
        <time>2021-08-01T07:07:26Z</time>
      </trkpt>
      <trkpt lat="46.426553316414356" lon="8.397353449836373">
        <ele>1821.8399999999999</ele>
        <time>2021-08-01T07:07:29Z</time>
      </trkpt>
      <trkpt lat="46.426555160433054" lon="8.397340374067426">
        <ele>1821.8399999999999</ele>
        <time>2021-08-01T07:07:30Z</time>
      </trkpt>
      <trkpt lat="46.426557088270783" lon="8.397323777899146">
        <ele>1821.3499999999999</ele>
        <time>2021-08-01T07:07:31Z</time>
      </trkpt>
      <trkpt lat="46.426560021936893" lon="8.397306762635708">
        <ele>1821.3499999999999</ele>
        <time>2021-08-01T07:07:32Z</time>
      </trkpt>
      <trkpt lat="46.426564045250416" lon="8.397288741543889">
        <ele>1821.3499999999999</ele>
        <time>2021-08-01T07:07:33Z</time>
      </trkpt>
      <trkpt lat="46.42658474855125" lon="8.397247921675444">
        <ele>1821.3499999999999</ele>
        <time>2021-08-01T07:07:36Z</time>
      </trkpt>
      <trkpt lat="46.426588352769613" lon="8.397232750430703">
        <ele>1821.3499999999999</ele>
        <time>2021-08-01T07:07:37Z</time>
      </trkpt>
      <trkpt lat="46.426626071333885" lon="8.397042397409678">
        <ele>1821.3499999999999</ele>
        <time>2021-08-01T07:07:49Z</time>
      </trkpt>
      <trkpt lat="46.426652893424034" lon="8.396878363564611">
        <ele>1821.8399999999999</ele>
        <time>2021-08-01T07:08:00Z</time>
      </trkpt>
      <trkpt lat="46.426681475713849" lon="8.396731177344918">
        <ele>1821.8399999999999</ele>
        <time>2021-08-01T07:08:09Z</time>
      </trkpt>
      <trkpt lat="46.426727827638388" lon="8.396584494039416">
        <ele>1822.3199999999999</ele>
        <time>2021-08-01T07:08:18Z</time>
      </trkpt>
      <trkpt lat="46.426817430183291" lon="8.396411240100861">
        <ele>1822.3199999999999</ele>
        <time>2021-08-01T07:08:29Z</time>
      </trkpt>
      <trkpt lat="46.426919689401984" lon="8.396215438842773">
        <ele>1821.8399999999999</ele>
        <time>2021-08-01T07:08:42Z</time>
      </trkpt>
      <trkpt lat="46.426996970549226" lon="8.396099684759975">
        <ele>1821.8399999999999</ele>
        <time>2021-08-01T07:08:51Z</time>
      </trkpt>
      <trkpt lat="46.427079448476434" lon="8.395907487720251">
        <ele>1821.3499999999999</ele>
        <time>2021-08-01T07:09:04Z</time>
      </trkpt>
      <trkpt lat="46.427154885604978" lon="8.395761223509908">
        <ele>1821.8399999999999</ele>
        <time>2021-08-01T07:09:14Z</time>
      </trkpt>
      <trkpt lat="46.427229987457395" lon="8.395564081147313">
        <ele>1821.8399999999999</ele>
        <time>2021-08-01T07:09:26Z</time>
      </trkpt>
      <trkpt lat="46.427275752648711" lon="8.395454864948988">
        <ele>1821.8399999999999</ele>
        <time>2021-08-01T07:09:33Z</time>
      </trkpt>
      <trkpt lat="46.427278770133853" lon="8.395436089485884">
        <ele>1821.8399999999999</ele>
        <time>2021-08-01T07:09:34Z</time>
      </trkpt>
      <trkpt lat="46.427282877266407" lon="8.395416978746653">
        <ele>1821.8399999999999</ele>
        <time>2021-08-01T07:09:35Z</time>
      </trkpt>
      <trkpt lat="46.427288576960564" lon="8.39539879001677">
        <ele>1821.8399999999999</ele>
        <time>2021-08-01T07:09:36Z</time>
      </trkpt>
      <trkpt lat="46.427295450121164" lon="8.395382864400744">
        <ele>1821.8399999999999</ele>
        <time>2021-08-01T07:09:37Z</time>
      </trkpt>
      <trkpt lat="46.427302323281765" lon="8.395366435870528">
        <ele>1821.8399999999999</ele>
        <time>2021-08-01T07:09:38Z</time>
      </trkpt>
      <trkpt lat="46.427309699356556" lon="8.395351599901915">
        <ele>1821.8399999999999</ele>
        <time>2021-08-01T07:09:39Z</time>
      </trkpt>
      <trkpt lat="46.427415646612644" lon="8.395163174718618">
        <ele>1822.3199999999999</ele>
        <time>2021-08-01T07:09:52Z</time>
      </trkpt>
      <trkpt lat="46.427507344633341" lon="8.395020850002766">
        <ele>1821.8399999999999</ele>
        <time>2021-08-01T07:10:03Z</time>
      </trkpt>
      <trkpt lat="46.427613878622651" lon="8.394811889156699">
        <ele>1821.8399999999999</ele>
        <time>2021-08-01T07:10:17Z</time>
      </trkpt>
      <trkpt lat="46.427694680169225" lon="8.394622122868896">
        <ele>1822.3199999999999</ele>
        <time>2021-08-01T07:10:29Z</time>
      </trkpt>
      <trkpt lat="46.427771374583244" lon="8.394407043233514">
        <ele>1822.8</ele>
        <time>2021-08-01T07:10:42Z</time>
      </trkpt>
      <trkpt lat="46.427849242463708" lon="8.394175199791789">
        <ele>1822.8</ele>
        <time>2021-08-01T07:10:56Z</time>
      </trkpt>
      <trkpt lat="46.427899450063705" lon="8.394018458202481">
        <ele>1823.76</ele>
        <time>2021-08-01T07:11:06Z</time>
      </trkpt>
      <trkpt lat="46.427982850000262" lon="8.393862387165427">
        <ele>1824.72</ele>
        <time>2021-08-01T07:11:17Z</time>
      </trkpt>
      <trkpt lat="46.428078738972545" lon="8.393705980852246">
        <ele>1824.72</ele>
        <time>2021-08-01T07:11:29Z</time>
      </trkpt>
      <trkpt lat="46.428142692893744" lon="8.393546473234892">
        <ele>1825.6800000000001</ele>
        <time>2021-08-01T07:11:40Z</time>
      </trkpt>
      <trkpt lat="46.428222740069032" lon="8.393377158790827">
        <ele>1825.2</ele>
        <time>2021-08-01T07:11:51Z</time>
      </trkpt>
      <trkpt lat="46.428303038701415" lon="8.39323416352272">
        <ele>1826.6400000000001</ele>
        <time>2021-08-01T07:12:01Z</time>
      </trkpt>
      <trkpt lat="46.428318880498409" lon="8.393206922337413">
        <ele>1826.6400000000001</ele>
        <time>2021-08-01T07:12:04Z</time>
      </trkpt>
      <trkpt lat="46.428324496373534" lon="8.393195187672973">
        <ele>1826.6400000000001</ele>
        <time>2021-08-01T07:12:05Z</time>
      </trkpt>
      <trkpt lat="46.428331453353167" lon="8.393182195723057">
        <ele>1826.6400000000001</ele>
        <time>2021-08-01T07:12:06Z</time>
      </trkpt>
      <trkpt lat="46.428339835256338" lon="8.393169371411204">
        <ele>1826.1600000000001</ele>
        <time>2021-08-01T07:12:07Z</time>
      </trkpt>
      <trkpt lat="46.428348468616605" lon="8.393156379461289">
        <ele>1826.1600000000001</ele>
        <time>2021-08-01T07:12:08Z</time>
      </trkpt>
      <trkpt lat="46.428357269614935" lon="8.393143387511373">
        <ele>1826.1600000000001</ele>
        <time>2021-08-01T07:12:09Z</time>
      </trkpt>
      <trkpt lat="46.428365651518106" lon="8.393129138275981">
        <ele>1826.1600000000001</ele>
        <time>2021-08-01T07:12:10Z</time>
      </trkpt>
      <trkpt lat="46.428373279049993" lon="8.393113883212209">
        <ele>1826.1600000000001</ele>
        <time>2021-08-01T07:12:11Z</time>
      </trkpt>
      <trkpt lat="46.428380738943815" lon="8.393098376691341">
        <ele>1826.1600000000001</ele>
        <time>2021-08-01T07:12:12Z</time>
      </trkpt>
      <trkpt lat="46.42838828265667" lon="8.393083540722728">
        <ele>1826.1600000000001</ele>
        <time>2021-08-01T07:12:13Z</time>
      </trkpt>
      <trkpt lat="46.428495738655329" lon="8.392910789698362">
        <ele>1827.1199999999999</ele>
        <time>2021-08-01T07:12:26Z</time>
      </trkpt>
      <trkpt lat="46.428611325100064" lon="8.39278313331306">
        <ele>1827.1199999999999</ele>
        <time>2021-08-01T07:12:38Z</time>
      </trkpt>
      <trkpt lat="46.428681733086705" lon="8.392723957076669">
        <ele>1827.5999999999999</ele>
        <time>2021-08-01T07:12:45Z</time>
      </trkpt>
      <trkpt lat="46.428712327033281" lon="8.392689088359475">
        <ele>1827.5999999999999</ele>
        <time>2021-08-01T07:12:53Z</time>
      </trkpt>
      <trkpt lat="46.42872104421258" lon="8.392683640122414">
        <ele>1827.5999999999999</ele>
        <time>2021-08-01T07:12:54Z</time>
      </trkpt>
      <trkpt lat="46.428731186315417" lon="8.392677353695035">
        <ele>1827.5999999999999</ele>
        <time>2021-08-01T07:12:55Z</time>
      </trkpt>
      <trkpt lat="46.428741244599223" lon="8.392670480534434">
        <ele>1827.5999999999999</ele>
        <time>2021-08-01T07:12:56Z</time>
      </trkpt>
      <trkpt lat="46.428751554340124" lon="8.392663775011897">
        <ele>1827.5999999999999</ele>
        <time>2021-08-01T07:12:57Z</time>
      </trkpt>
      <trkpt lat="46.428835792466998" lon="8.392605353146792">
        <ele>1827.1199999999999</ele>
        <time>2021-08-01T07:13:05Z</time>
      </trkpt>
      <trkpt lat="46.428945092484355" lon="8.392545422539115">
        <ele>1827.5999999999999</ele>
        <time>2021-08-01T07:13:15Z</time>
      </trkpt>
      <trkpt lat="46.429057326167822" lon="8.392489599063993">
        <ele>1828.5599999999999</ele>
        <time>2021-08-01T07:13:25Z</time>
      </trkpt>
      <trkpt lat="46.429150868207216" lon="8.392434027045965">
        <ele>1828.0799999999999</ele>
        <time>2021-08-01T07:13:33Z</time>
      </trkpt>
      <trkpt lat="46.429236279800534" lon="8.392375772818923">
        <ele>1828.0799999999999</ele>
        <time>2021-08-01T07:13:41Z</time>
      </trkpt>
      <trkpt lat="46.429298557341099" lon="8.392319781705737">
        <ele>1828.5599999999999</ele>
        <time>2021-08-01T07:13:48Z</time>
      </trkpt>
      <trkpt lat="46.429400146007538" lon="8.392175193876028">
        <ele>1829.05</ele>
        <time>2021-08-01T07:14:00Z</time>
      </trkpt>
      <trkpt lat="46.429506847634912" lon="8.391995150595903">
        <ele>1830.01</ele>
        <time>2021-08-01T07:14:13Z</time>
      </trkpt>
      <trkpt lat="46.429610447958112" lon="8.391824495047331">
        <ele>1830.97</ele>
        <time>2021-08-01T07:14:25Z</time>
      </trkpt>
      <trkpt lat="46.429739780724049" lon="8.391678985208273">
        <ele>1831.45</ele>
        <time>2021-08-01T07:14:38Z</time>
      </trkpt>
      <trkpt lat="46.429858217015862" lon="8.391548227518797">
        <ele>1831.9300000000001</ele>
        <time>2021-08-01T07:14:50Z</time>
      </trkpt>
      <trkpt lat="46.429976653307676" lon="8.391419230028987">
        <ele>1832.4100000000001</ele>
        <time>2021-08-01T07:15:02Z</time>
      </trkpt>
      <trkpt lat="46.430096933618188" lon="8.391265086829662">
        <ele>1832.4100000000001</ele>
        <time>2021-08-01T07:15:15Z</time>
      </trkpt>
      <trkpt lat="46.43014688976109" lon="8.391201384365559">
        <ele>1832.8900000000001</ele>
        <time>2021-08-01T07:15:22Z</time>
      </trkpt>
      <trkpt lat="46.43015468493104" lon="8.391188643872738">
        <ele>1832.8900000000001</ele>
        <time>2021-08-01T07:15:23Z</time>
      </trkpt>
      <trkpt lat="46.430162731558084" lon="8.391175484284759">
        <ele>1832.8900000000001</ele>
        <time>2021-08-01T07:15:24Z</time>
      </trkpt>
      <trkpt lat="46.430278653278947" lon="8.391021676361561">
        <ele>1833.3699999999999</ele>
        <time>2021-08-01T07:15:37Z</time>
      </trkpt>
      <trkpt lat="46.430389545857906" lon="8.390880692750216">
        <ele>1834.3299999999999</ele>
        <time>2021-08-01T07:15:49Z</time>
      </trkpt>
      <trkpt lat="46.430499851703644" lon="8.390721771866083">
        <ele>1834.8099999999999</ele>
        <time>2021-08-01T07:16:02Z</time>
      </trkpt>
      <trkpt lat="46.430570846423507" lon="8.390625547617674">
        <ele>1834.8099999999999</ele>
        <time>2021-08-01T07:16:12Z</time>
      </trkpt>
      <trkpt lat="46.430647876113653" lon="8.39051784016192">
        <ele>1835.77</ele>
        <time>2021-08-01T07:16:22Z</time>
      </trkpt>
      <trkpt lat="46.430732952430844" lon="8.390404265373945">
        <ele>1837.22</ele>
        <time>2021-08-01T07:16:32Z</time>
      </trkpt>
      <trkpt lat="46.430743094533682" lon="8.390392865985632">
        <ele>1837.22</ele>
        <time>2021-08-01T07:16:33Z</time>
      </trkpt>
      <trkpt lat="46.430836468935013" lon="8.390279375016689">
        <ele>1837.7</ele>
        <time>2021-08-01T07:16:43Z</time>
      </trkpt>
      <trkpt lat="46.430887263268232" lon="8.390237633138895">
        <ele>1838.1800000000001</ele>
        <time>2021-08-01T07:16:49Z</time>
      </trkpt>
      <trkpt lat="46.430893633514643" lon="8.39022958651185">
        <ele>1838.1800000000001</ele>
        <time>2021-08-01T07:16:50Z</time>
      </trkpt>
      <trkpt lat="46.430900422856212" lon="8.390218019485474">
        <ele>1838.1800000000001</ele>
        <time>2021-08-01T07:16:51Z</time>
      </trkpt>
      <trkpt lat="46.430909223854542" lon="8.390208128839731">
        <ele>1838.1800000000001</ele>
        <time>2021-08-01T07:16:52Z</time>
      </trkpt>
      <trkpt lat="46.430918360128999" lon="8.390198741108179">
        <ele>1838.1800000000001</ele>
        <time>2021-08-01T07:16:53Z</time>
      </trkpt>
      <trkpt lat="46.430956749245524" lon="8.390162447467446">
        <ele>1838.1800000000001</ele>
        <time>2021-08-01T07:16:57Z</time>
      </trkpt>
      <trkpt lat="46.430979128926992" lon="8.390124561265111">
        <ele>1838.6600000000001</ele>
        <time>2021-08-01T07:17:00Z</time>
      </trkpt>
      <trkpt lat="46.43098876811564" lon="8.390116095542908">
        <ele>1838.6600000000001</ele>
        <time>2021-08-01T07:17:01Z</time>
      </trkpt>
      <trkpt lat="46.43101274035871" lon="8.39009472168982">
        <ele>1838.6600000000001</ele>
        <time>2021-08-01T07:17:04Z</time>
      </trkpt>
      <trkpt lat="46.431019529700279" lon="8.390083992853761">
        <ele>1838.6600000000001</ele>
        <time>2021-08-01T07:17:05Z</time>
      </trkpt>
      <trkpt lat="46.431026989594102" lon="8.390072174370289">
        <ele>1838.6600000000001</ele>
        <time>2021-08-01T07:17:06Z</time>
      </trkpt>
      <trkpt lat="46.431101337075233" lon="8.38996572420001">
        <ele>1839.6199999999999</ele>
        <time>2021-08-01T07:17:16Z</time>
      </trkpt>
      <trkpt lat="46.43112656660378" lon="8.389937644824386">
        <ele>1840.0999999999999</ele>
        <time>2021-08-01T07:17:24Z</time>
      </trkpt>
      <trkpt lat="46.431137630715966" lon="8.389911158010364">
        <ele>1840.0999999999999</ele>
        <time>2021-08-01T07:17:31Z</time>
      </trkpt>
      <trkpt lat="46.431143078953028" lon="8.389896741136909">
        <ele>1840.0999999999999</ele>
        <time>2021-08-01T07:17:32Z</time>
      </trkpt>
      <trkpt lat="46.431207032874227" lon="8.38974435813725">
        <ele>1840.5799999999999</ele>
        <time>2021-08-01T07:17:43Z</time>
      </trkpt>
      <trkpt lat="46.431299485266209" lon="8.389585521072149">
        <ele>1841.0599999999999</ele>
        <time>2021-08-01T07:17:55Z</time>
      </trkpt>
      <trkpt lat="46.431363020092249" lon="8.389447638764978">
        <ele>1841.54</ele>
        <time>2021-08-01T07:18:05Z</time>
      </trkpt>
      <trkpt lat="46.431423621252179" lon="8.389308918267489">
        <ele>1842.02</ele>
        <time>2021-08-01T07:18:15Z</time>
      </trkpt>
      <trkpt lat="46.431503836065531" lon="8.38916726410389">
        <ele>1842.5</ele>
        <time>2021-08-01T07:18:26Z</time>
      </trkpt>
      <trkpt lat="46.431583296507597" lon="8.389009768143296">
        <ele>1843.47</ele>
        <time>2021-08-01T07:18:37Z</time>
      </trkpt>
      <trkpt lat="46.431659320369363" lon="8.388854451477528">
        <ele>1843.95</ele>
        <time>2021-08-01T07:18:48Z</time>
      </trkpt>
      <trkpt lat="46.431746575981379" lon="8.388706091791391">
        <ele>1844.4300000000001</ele>
        <time>2021-08-01T07:18:59Z</time>
      </trkpt>
      <trkpt lat="46.431822432205081" lon="8.38852814398706">
        <ele>1844.4300000000001</ele>
        <time>2021-08-01T07:19:11Z</time>
      </trkpt>
      <trkpt lat="46.431888481602073" lon="8.388359835371375">
        <ele>1844.9100000000001</ele>
        <time>2021-08-01T07:19:22Z</time>
      </trkpt>
      <trkpt lat="46.431977581232786" lon="8.388190185651183">
        <ele>1845.3900000000001</ele>
        <time>2021-08-01T07:19:34Z</time>
      </trkpt>
      <trkpt lat="46.432087551802397" lon="8.388031264767051">
        <ele>1845.8699999999999</ele>
        <time>2021-08-01T07:19:47Z</time>
      </trkpt>
      <trkpt lat="46.432183859869838" lon="8.387900590896606">
        <ele>1846.3499999999999</ele>
        <time>2021-08-01T07:19:58Z</time>
      </trkpt>
      <trkpt lat="46.432287963107228" lon="8.387761451303959">
        <ele>1846.8299999999999</ele>
        <time>2021-08-01T07:20:10Z</time>
      </trkpt>
      <trkpt lat="46.432333141565323" lon="8.387598423287273">
        <ele>1847.3099999999999</ele>
        <time>2021-08-01T07:20:21Z</time>
      </trkpt>
      <trkpt lat="46.432364070788026" lon="8.387482585385442">
        <ele>1846.3499999999999</ele>
        <time>2021-08-01T07:20:29Z</time>
      </trkpt>
      <trkpt lat="46.432393072172999" lon="8.387358533218503">
        <ele>1844.9100000000001</ele>
        <time>2021-08-01T07:20:37Z</time>
      </trkpt>
      <trkpt lat="46.432414026930928" lon="8.387148063629866">
        <ele>1843.47</ele>
        <time>2021-08-01T07:20:49Z</time>
      </trkpt>
      <trkpt lat="46.432407237589359" lon="8.38695527985692">
        <ele>1842.5</ele>
        <time>2021-08-01T07:20:59Z</time>
      </trkpt>
      <trkpt lat="46.432428862899542" lon="8.386801052838564">
        <ele>1842.02</ele>
        <time>2021-08-01T07:21:08Z</time>
      </trkpt>
      <trkpt lat="46.43247127532959" lon="8.386640539392829">
        <ele>1842.98</ele>
        <time>2021-08-01T07:21:18Z</time>
      </trkpt>
      <trkpt lat="46.432511592283845" lon="8.386550769209862">
        <ele>1842.02</ele>
        <time>2021-08-01T07:21:26Z</time>
      </trkpt>
      <trkpt lat="46.432520477101207" lon="8.386542219668627">
        <ele>1840.5799999999999</ele>
        <time>2021-08-01T07:21:39Z</time>
      </trkpt>
      <trkpt lat="46.432524751871824" lon="8.386532329022884">
        <ele>1840.5799999999999</ele>
        <time>2021-08-01T07:21:40Z</time>
      </trkpt>
      <trkpt lat="46.432554256170988" lon="8.386429818347096">
        <ele>1839.6199999999999</ele>
        <time>2021-08-01T07:21:48Z</time>
      </trkpt>
      <trkpt lat="46.432557860389352" lon="8.386416742578149">
        <ele>1839.6199999999999</ele>
        <time>2021-08-01T07:21:49Z</time>
      </trkpt>
      <trkpt lat="46.432589627802372" lon="8.386268131434917">
        <ele>1837.7</ele>
        <time>2021-08-01T07:22:00Z</time>
      </trkpt>
      <trkpt lat="46.432616366073489" lon="8.386142235249281">
        <ele>1836.74</ele>
        <time>2021-08-01T07:22:08Z</time>
      </trkpt>
      <trkpt lat="46.432648217305541" lon="8.385926568880677">
        <ele>1835.29</ele>
        <time>2021-08-01T07:22:20Z</time>
      </trkpt>
      <trkpt lat="46.432684427127242" lon="8.385808970779181">
        <ele>1834.8099999999999</ele>
        <time>2021-08-01T07:22:27Z</time>
      </trkpt>
      <trkpt lat="46.432724576443434" lon="8.385706963017583">
        <ele>1833.8499999999999</ele>
        <time>2021-08-01T07:22:34Z</time>
      </trkpt>
      <trkpt lat="46.432764558121562" lon="8.385602021589875">
        <ele>1832.8900000000001</ele>
        <time>2021-08-01T07:22:41Z</time>
      </trkpt>
      <trkpt lat="46.432779897004366" lon="8.385580480098724">
        <ele>1832.4100000000001</ele>
        <time>2021-08-01T07:22:43Z</time>
      </trkpt>
      <trkpt lat="46.432789033278823" lon="8.385570757091045">
        <ele>1832.4100000000001</ele>
        <time>2021-08-01T07:22:44Z</time>
      </trkpt>
      <trkpt lat="46.432825326919556" lon="8.385540330782533">
        <ele>1831.9300000000001</ele>
        <time>2021-08-01T07:22:47Z</time>
      </trkpt>
      <trkpt lat="46.432839995250106" lon="8.385537816211581">
        <ele>1831.45</ele>
        <time>2021-08-01T07:22:48Z</time>
      </trkpt>
      <trkpt lat="46.432856256142259" lon="8.385536223649979">
        <ele>1831.45</ele>
        <time>2021-08-01T07:22:49Z</time>
      </trkpt>
      <trkpt lat="46.432883581146598" lon="8.385524488985539">
        <ele>1831.45</ele>
        <time>2021-08-01T07:22:51Z</time>
      </trkpt>
      <trkpt lat="46.432893890887499" lon="8.385512586683035">
        <ele>1830.97</ele>
        <time>2021-08-01T07:22:52Z</time>
      </trkpt>
      <trkpt lat="46.432903362438083" lon="8.385501522570849">
        <ele>1830.97</ele>
        <time>2021-08-01T07:22:53Z</time>
      </trkpt>
      <trkpt lat="46.432920042425394" lon="8.385482076555491">
        <ele>1830.97</ele>
        <time>2021-08-01T07:22:55Z</time>
      </trkpt>
      <trkpt lat="46.432924652472138" lon="8.385465061292052">
        <ele>1830.97</ele>
        <time>2021-08-01T07:22:56Z</time>
      </trkpt>
      <trkpt lat="46.432952731847763" lon="8.385359533131123">
        <ele>1830.01</ele>
        <time>2021-08-01T07:23:02Z</time>
      </trkpt>
      <trkpt lat="46.432962957769632" lon="8.38534427806735">
        <ele>1830.01</ele>
        <time>2021-08-01T07:23:03Z</time>
      </trkpt>
      <trkpt lat="46.43297309987247" lon="8.385328017175198">
        <ele>1830.01</ele>
        <time>2021-08-01T07:23:04Z</time>
      </trkpt>
      <trkpt lat="46.433018278330564" lon="8.385230284184218">
        <ele>1830.01</ele>
        <time>2021-08-01T07:23:11Z</time>
      </trkpt>
      <trkpt lat="46.433030348271132" lon="8.385200779885054">
        <ele>1830.01</ele>
        <time>2021-08-01T07:23:13Z</time>
      </trkpt>
      <trkpt lat="46.433073347434402" lon="8.385181752964854">
        <ele>1830.01</ele>
        <time>2021-08-01T07:23:20Z</time>
      </trkpt>
      <trkpt lat="46.433074939996004" lon="8.385208658874035">
        <ele>1830.49</ele>
        <time>2021-08-01T07:23:37Z</time>
      </trkpt>
      <trkpt lat="46.433091787621379" lon="8.385152667760849">
        <ele>1830.49</ele>
        <time>2021-08-01T07:23:46Z</time>
      </trkpt>
      <trkpt lat="46.43311089836061" lon="8.385143280029297">
        <ele>1830.97</ele>
        <time>2021-08-01T07:24:02Z</time>
      </trkpt>
      <trkpt lat="46.433087764307857" lon="8.385134479030967">
        <ele>1830.97</ele>
        <time>2021-08-01T07:24:13Z</time>
      </trkpt>
      <trkpt lat="46.433081980794668" lon="8.385139340534806">
        <ele>1830.49</ele>
        <time>2021-08-01T07:24:29Z</time>
      </trkpt>
      <trkpt lat="46.433077622205019" lon="8.385122492909432">
        <ele>1830.49</ele>
        <time>2021-08-01T07:24:49Z</time>
      </trkpt>
      <trkpt lat="46.433116933330894" lon="8.385097431018949">
        <ele>1830.49</ele>
        <time>2021-08-01T07:24:56Z</time>
      </trkpt>
      <trkpt lat="46.433182647451758" lon="8.385040769353509">
        <ele>1830.97</ele>
        <time>2021-08-01T07:25:05Z</time>
      </trkpt>
      <trkpt lat="46.433242075145245" lon="8.384977569803596">
        <ele>1831.9300000000001</ele>
        <time>2021-08-01T07:25:13Z</time>
      </trkpt>
      <trkpt lat="46.433308124542236" lon="8.384900875389576">
        <ele>1832.8900000000001</ele>
        <time>2021-08-01T07:25:22Z</time>
      </trkpt>
      <trkpt lat="46.433369982987642" lon="8.384832143783569">
        <ele>1833.8499999999999</ele>
        <time>2021-08-01T07:25:32Z</time>
      </trkpt>
      <trkpt lat="46.433434188365936" lon="8.384784031659365">
        <ele>1834.8099999999999</ele>
        <time>2021-08-01T07:25:40Z</time>
      </trkpt>
      <trkpt lat="46.433469643816352" lon="8.384753270074725">
        <ele>1834.8099999999999</ele>
        <time>2021-08-01T07:25:44Z</time>
      </trkpt>
      <trkpt lat="46.433521863073111" lon="8.384742457419634">
        <ele>1835.29</ele>
        <time>2021-08-01T07:25:49Z</time>
      </trkpt>
      <trkpt lat="46.433544158935547" lon="8.384664338082075">
        <ele>1836.26</ele>
        <time>2021-08-01T07:25:55Z</time>
      </trkpt>
      <trkpt lat="46.433576764538884" lon="8.384607341140509">
        <ele>1837.22</ele>
        <time>2021-08-01T07:25:59Z</time>
      </trkpt>
      <trkpt lat="46.433585816994309" lon="8.384592421352863">
        <ele>1837.22</ele>
        <time>2021-08-01T07:26:00Z</time>
      </trkpt>
      <trkpt lat="46.43359512090683" lon="8.384579680860043">
        <ele>1837.22</ele>
        <time>2021-08-01T07:26:01Z</time>
      </trkpt>
      <trkpt lat="46.433628480881453" lon="8.384521091356874">
        <ele>1837.7</ele>
        <time>2021-08-01T07:26:07Z</time>
      </trkpt>
      <trkpt lat="46.433667372912169" lon="8.384492341428995">
        <ele>1838.1800000000001</ele>
        <time>2021-08-01T07:26:15Z</time>
      </trkpt>
      <trkpt lat="46.433686232194304" lon="8.384505920112133">
        <ele>1837.7</ele>
        <time>2021-08-01T07:26:24Z</time>
      </trkpt>
      <trkpt lat="46.433722861111164" lon="8.384523941203952">
        <ele>1837.7</ele>
        <time>2021-08-01T07:26:37Z</time>
      </trkpt>
      <trkpt lat="46.433735769242048" lon="8.384523019194603">
        <ele>1837.22</ele>
        <time>2021-08-01T07:27:03Z</time>
      </trkpt>
      <trkpt lat="46.433741468936205" lon="8.384521091356874">
        <ele>1837.22</ele>
        <time>2021-08-01T07:27:04Z</time>
      </trkpt>
      <trkpt lat="46.433749850839376" lon="8.384520672261715">
        <ele>1837.22</ele>
        <time>2021-08-01T07:27:05Z</time>
      </trkpt>
      <trkpt lat="46.43378128297627" lon="8.384516397491098">
        <ele>1838.1800000000001</ele>
        <time>2021-08-01T07:27:10Z</time>
      </trkpt>
      <trkpt lat="46.433868454769254" lon="8.384508183225989">
        <ele>1839.1400000000001</ele>
        <time>2021-08-01T07:27:18Z</time>
      </trkpt>
      <trkpt lat="46.433897623792291" lon="8.38450575247407">
        <ele>1839.6199999999999</ele>
        <time>2021-08-01T07:27:22Z</time>
      </trkpt>
      <trkpt lat="46.433906257152557" lon="8.384507764130831">
        <ele>1839.6199999999999</ele>
        <time>2021-08-01T07:27:23Z</time>
      </trkpt>
      <trkpt lat="46.433915896341205" lon="8.384508267045021">
        <ele>1840.0999999999999</ele>
        <time>2021-08-01T07:27:24Z</time>
      </trkpt>
      <trkpt lat="46.433984125033021" lon="8.384490916505456">
        <ele>1840.5799999999999</ele>
        <time>2021-08-01T07:27:31Z</time>
      </trkpt>
      <trkpt lat="46.433994686231017" lon="8.38449795730412">
        <ele>1840.5799999999999</ele>
        <time>2021-08-01T07:27:32Z</time>
      </trkpt>
      <trkpt lat="46.434027459472418" lon="8.384508937597275">
        <ele>1841.0599999999999</ele>
        <time>2021-08-01T07:27:36Z</time>
      </trkpt>
      <trkpt lat="46.434053275734186" lon="8.384509943425655">
        <ele>1841.54</ele>
        <time>2021-08-01T07:27:40Z</time>
      </trkpt>
      <trkpt lat="46.434101555496454" lon="8.384523689746857">
        <ele>1842.5</ele>
        <time>2021-08-01T07:27:45Z</time>
      </trkpt>
      <trkpt lat="46.434147991240025" lon="8.384594433009625">
        <ele>1842.98</ele>
        <time>2021-08-01T07:27:51Z</time>
      </trkpt>
      <trkpt lat="46.43419518135488" lon="8.384691327810288">
        <ele>1844.4300000000001</ele>
        <time>2021-08-01T07:27:59Z</time>
      </trkpt>
      <trkpt lat="46.434208927676082" lon="8.384706079959869">
        <ele>1844.4300000000001</ele>
        <time>2021-08-01T07:28:01Z</time>
      </trkpt>
      <trkpt lat="46.43422937951982" lon="8.38471245020628">
        <ele>1844.4300000000001</ele>
        <time>2021-08-01T07:28:03Z</time>
      </trkpt>
      <trkpt lat="46.43427237868309" lon="8.384721083566546">
        <ele>1845.3900000000001</ele>
        <time>2021-08-01T07:28:08Z</time>
      </trkpt>
      <trkpt lat="46.434309426695108" lon="8.384722257032991">
        <ele>1846.3499999999999</ele>
        <time>2021-08-01T07:28:13Z</time>
      </trkpt>
      <trkpt lat="46.434384193271399" lon="8.384738266468048">
        <ele>1847.79</ele>
        <time>2021-08-01T07:28:21Z</time>
      </trkpt>
      <trkpt lat="46.434434484690428" lon="8.384763328358531">
        <ele>1848.27</ele>
        <time>2021-08-01T07:28:27Z</time>
      </trkpt>
      <trkpt lat="46.434480836614966" lon="8.384802052751184">
        <ele>1849.23</ele>
        <time>2021-08-01T07:28:33Z</time>
      </trkpt>
      <trkpt lat="46.434504222124815" lon="8.384837256744504">
        <ele>1850.1900000000001</ele>
        <time>2021-08-01T07:28:37Z</time>
      </trkpt>
      <trkpt lat="46.434537079185247" lon="8.384906575083733">
        <ele>1851.1600000000001</ele>
        <time>2021-08-01T07:28:45Z</time>
      </trkpt>
      <trkpt lat="46.434554094448686" lon="8.384921075776219">
        <ele>1851.6400000000001</ele>
        <time>2021-08-01T07:28:48Z</time>
      </trkpt>
      <trkpt lat="46.43459927290678" lon="8.384992824867368">
        <ele>1852.5999999999999</ele>
        <time>2021-08-01T07:28:55Z</time>
      </trkpt>
      <trkpt lat="46.434651659801602" lon="8.385039763525128">
        <ele>1853.0799999999999</ele>
        <time>2021-08-01T07:29:04Z</time>
      </trkpt>
      <trkpt lat="46.434719720855355" lon="8.385040098801255">
        <ele>1854.04</ele>
        <time>2021-08-01T07:29:12Z</time>
      </trkpt>
      <trkpt lat="46.434781327843666" lon="8.385057030245662">
        <ele>1855.96</ele>
        <time>2021-08-01T07:29:20Z</time>
      </trkpt>
      <trkpt lat="46.43484259955585" lon="8.385073877871037">
        <ele>1857.4000000000001</ele>
        <time>2021-08-01T07:29:29Z</time>
      </trkpt>
      <trkpt lat="46.434888448566198" lon="8.385088127106428">
        <ele>1858.8499999999999</ele>
        <time>2021-08-01T07:29:39Z</time>
      </trkpt>
      <trkpt lat="46.434922059997916" lon="8.38514344766736">
        <ele>1860.77</ele>
        <time>2021-08-01T07:29:47Z</time>
      </trkpt>
      <trkpt lat="46.434964137151837" lon="8.385202456265688">
        <ele>1862.6900000000001</ele>
        <time>2021-08-01T07:29:58Z</time>
      </trkpt>
      <trkpt lat="46.434983499348164" lon="8.385212179273367">
        <ele>1863.1700000000001</ele>
        <time>2021-08-01T07:30:03Z</time>
      </trkpt>
      <trkpt lat="46.435009147971869" lon="8.385237492620945">
        <ele>1864.1300000000001</ele>
        <time>2021-08-01T07:30:07Z</time>
      </trkpt>
      <trkpt lat="46.435027923434973" lon="8.385267499834299">
        <ele>1864.6099999999999</ele>
        <time>2021-08-01T07:30:10Z</time>
      </trkpt>
      <trkpt lat="46.43506882712245" lon="8.385264649987221">
        <ele>1865.5799999999999</ele>
        <time>2021-08-01T07:30:16Z</time>
      </trkpt>
      <trkpt lat="46.435087518766522" lon="8.385221231728792">
        <ele>1867.02</ele>
        <time>2021-08-01T07:30:23Z</time>
      </trkpt>
      <trkpt lat="46.435090033337474" lon="8.385163145139813">
        <ele>1868.46</ele>
        <time>2021-08-01T07:30:31Z</time>
      </trkpt>
      <trkpt lat="46.435092967003584" lon="8.385100532323122">
        <ele>1869.9000000000001</ele>
        <time>2021-08-01T07:30:40Z</time>
      </trkpt>
      <trkpt lat="46.435101348906755" lon="8.385000368580222">
        <ele>1871.8199999999999</ele>
        <time>2021-08-01T07:30:50Z</time>
      </trkpt>
      <trkpt lat="46.435103779658675" lon="8.384927781298757">
        <ele>1873.27</ele>
        <time>2021-08-01T07:30:59Z</time>
      </trkpt>
      <trkpt lat="46.435092128813267" lon="8.384857540950179">
        <ele>1874.71</ele>
        <time>2021-08-01T07:31:07Z</time>
      </trkpt>
      <trkpt lat="46.435089698061347" lon="8.384832395240665">
        <ele>1875.1900000000001</ele>
        <time>2021-08-01T07:31:10Z</time>
      </trkpt>
      <trkpt lat="46.435095146298409" lon="8.38479844853282">
        <ele>1876.1500000000001</ele>
        <time>2021-08-01T07:31:15Z</time>
      </trkpt>
      <trkpt lat="46.43511576578021" lon="8.384814457967877">
        <ele>1877.1099999999999</ele>
        <time>2021-08-01T07:31:21Z</time>
      </trkpt>
      <trkpt lat="46.4351543225348" lon="8.384899450466037">
        <ele>1878.55</ele>
        <time>2021-08-01T07:31:31Z</time>
      </trkpt>
      <trkpt lat="46.435185084119439" lon="8.384966757148504">
        <ele>1880</ele>
        <time>2021-08-01T07:31:40Z</time>
      </trkpt>
      <trkpt lat="46.435226490721107" lon="8.385033058002591">
        <ele>1881.4400000000001</ele>
        <time>2021-08-01T07:31:49Z</time>
      </trkpt>
      <trkpt lat="46.435242081061006" lon="8.385094916447997">
        <ele>1882.4000000000001</ele>
        <time>2021-08-01T07:31:57Z</time>
      </trkpt>
      <trkpt lat="46.43526429310441" lon="8.385169096291065">
        <ele>1883.8399999999999</ele>
        <time>2021-08-01T07:32:06Z</time>
      </trkpt>
      <trkpt lat="46.435294467955828" lon="8.385136490687728">
        <ele>1884.8</ele>
        <time>2021-08-01T07:32:15Z</time>
      </trkpt>
      <trkpt lat="46.435287678614259" lon="8.385136658325791">
        <ele>1885.76</ele>
        <time>2021-08-01T07:32:31Z</time>
      </trkpt>
      <trkpt lat="46.435294970870018" lon="8.385147973895073">
        <ele>1885.76</ele>
        <time>2021-08-01T07:32:50Z</time>
      </trkpt>
      <trkpt lat="46.435296982526779" lon="8.385105226188898">
        <ele>1885.76</ele>
        <time>2021-08-01T07:32:58Z</time>
      </trkpt>
      <trkpt lat="46.435299580916762" lon="8.38504864834249">
        <ele>1886.24</ele>
        <time>2021-08-01T07:33:03Z</time>
      </trkpt>
      <trkpt lat="46.435322631150484" lon="8.385001542046666">
        <ele>1886.72</ele>
        <time>2021-08-01T07:33:10Z</time>
      </trkpt>
      <trkpt lat="46.435338892042637" lon="8.384923674166203">
        <ele>1887.21</ele>
        <time>2021-08-01T07:33:18Z</time>
      </trkpt>
      <trkpt lat="46.435367055237293" lon="8.384857624769211">
        <ele>1889.1300000000001</ele>
        <time>2021-08-01T07:33:28Z</time>
      </trkpt>
      <trkpt lat="46.435400666669011" lon="8.38478964753449">
        <ele>1890.5699999999999</ele>
        <time>2021-08-01T07:33:37Z</time>
      </trkpt>
      <trkpt lat="46.435397481545806" lon="8.384711779654026">
        <ele>1891.53</ele>
        <time>2021-08-01T07:33:46Z</time>
      </trkpt>
      <trkpt lat="46.43536202609539" lon="8.38465771637857">
        <ele>1892.49</ele>
        <time>2021-08-01T07:33:54Z</time>
      </trkpt>
      <trkpt lat="46.435357164591551" lon="8.384591499343514">
        <ele>1893.45</ele>
        <time>2021-08-01T07:34:01Z</time>
      </trkpt>
      <trkpt lat="46.435362193733454" lon="8.384515475481749">
        <ele>1894.9000000000001</ele>
        <time>2021-08-01T07:34:09Z</time>
      </trkpt>
      <trkpt lat="46.435388261452317" lon="8.384445989504457">
        <ele>1895.8599999999999</ele>
        <time>2021-08-01T07:34:17Z</time>
      </trkpt>
      <trkpt lat="46.435408294200897" lon="8.384339120239019">
        <ele>1896.8199999999999</ele>
        <time>2021-08-01T07:34:27Z</time>
      </trkpt>
      <trkpt lat="46.435432936996222" lon="8.384267874062061">
        <ele>1897.3</ele>
        <time>2021-08-01T07:34:34Z</time>
      </trkpt>
      <trkpt lat="46.43545925617218" lon="8.384195454418659">
        <ele>1898.26</ele>
        <time>2021-08-01T07:34:43Z</time>
      </trkpt>
      <trkpt lat="46.435489682480693" lon="8.384142480790615">
        <ele>1899.7</ele>
        <time>2021-08-01T07:34:51Z</time>
      </trkpt>
      <trkpt lat="46.435513235628605" lon="8.384071653708816">
        <ele>1901.6300000000001</ele>
        <time>2021-08-01T07:35:00Z</time>
      </trkpt>
      <trkpt lat="46.435518264770508" lon="8.384012896567583">
        <ele>1902.1099999999999</ele>
        <time>2021-08-01T07:35:07Z</time>
      </trkpt>
      <trkpt lat="46.435507535934448" lon="8.383949780836701">
        <ele>1903.55</ele>
        <time>2021-08-01T07:35:15Z</time>
      </trkpt>
      <trkpt lat="46.435502842068672" lon="8.383947433903813">
        <ele>1904.99</ele>
        <time>2021-08-01T07:35:34Z</time>
      </trkpt>
      <trkpt lat="46.435498483479023" lon="8.383916672319174">
        <ele>1904.99</ele>
        <time>2021-08-01T07:36:00Z</time>
      </trkpt>
      <trkpt lat="46.435497561469674" lon="8.383849365636706">
        <ele>1904.99</ele>
        <time>2021-08-01T07:36:06Z</time>
      </trkpt>
      <trkpt lat="46.435506278648973" lon="8.383778957650065">
        <ele>1906.4300000000001</ele>
        <time>2021-08-01T07:36:13Z</time>
      </trkpt>
      <trkpt lat="46.435518935322762" lon="8.383693797513843">
        <ele>1907.3900000000001</ele>
        <time>2021-08-01T07:36:22Z</time>
      </trkpt>
      <trkpt lat="46.435551960021257" lon="8.383633447811008">
        <ele>1908.3499999999999</ele>
        <time>2021-08-01T07:36:31Z</time>
      </trkpt>
      <trkpt lat="46.435571489855647" lon="8.383548287674785">
        <ele>1909.3199999999999</ele>
        <time>2021-08-01T07:36:40Z</time>
      </trkpt>
      <trkpt lat="46.435589259490371" lon="8.383494224399328">
        <ele>1910.76</ele>
        <time>2021-08-01T07:36:47Z</time>
      </trkpt>
      <trkpt lat="46.435609040781856" lon="8.383411159738898">
        <ele>1912.2</ele>
        <time>2021-08-01T07:36:56Z</time>
      </trkpt>
      <trkpt lat="46.435644328594208" lon="8.383344355970621">
        <ele>1913.1600000000001</ele>
        <time>2021-08-01T07:37:05Z</time>
      </trkpt>
      <trkpt lat="46.435685651376843" lon="8.383270427584648">
        <ele>1914.5999999999999</ele>
        <time>2021-08-01T07:37:15Z</time>
      </trkpt>
      <trkpt lat="46.435725465416908" lon="8.38320261798799">
        <ele>1915.5599999999999</ele>
        <time>2021-08-01T07:37:25Z</time>
      </trkpt>
      <trkpt lat="46.435766620561481" lon="8.383128019049764">
        <ele>1917.97</ele>
        <time>2021-08-01T07:37:35Z</time>
      </trkpt>
      <trkpt lat="46.435783132910728" lon="8.383068256080151">
        <ele>1918.9300000000001</ele>
        <time>2021-08-01T07:37:42Z</time>
      </trkpt>
      <trkpt lat="46.435807859525084" lon="8.383019054308534">
        <ele>1919.8900000000001</ele>
        <time>2021-08-01T07:37:50Z</time>
      </trkpt>
      <trkpt lat="46.435791430994868" lon="8.382937917485833">
        <ele>1921.3299999999999</ele>
        <time>2021-08-01T07:37:59Z</time>
      </trkpt>
      <trkpt lat="46.435765530914068" lon="8.382861642166972">
        <ele>1921.8099999999999</ele>
        <time>2021-08-01T07:38:08Z</time>
      </trkpt>
      <trkpt lat="46.435746755450964" lon="8.382775140926242">
        <ele>1922.29</ele>
        <time>2021-08-01T07:38:18Z</time>
      </trkpt>
      <trkpt lat="46.435785898938775" lon="8.382724262773991">
        <ele>1923.74</ele>
        <time>2021-08-01T07:38:27Z</time>
      </trkpt>
      <trkpt lat="46.435804674401879" lon="8.382651843130589">
        <ele>1925.1800000000001</ele>
        <time>2021-08-01T07:38:36Z</time>
      </trkpt>
      <trkpt lat="46.435823533684015" lon="8.382556037977338">
        <ele>1926.1400000000001</ele>
        <time>2021-08-01T07:38:47Z</time>
      </trkpt>
      <trkpt lat="46.435831664130092" lon="8.382530976086855">
        <ele>1925.6600000000001</ele>
        <time>2021-08-01T07:38:49Z</time>
      </trkpt>
      <trkpt lat="46.435836274176836" lon="8.38251605629921">
        <ele>1925.6600000000001</ele>
        <time>2021-08-01T07:38:50Z</time>
      </trkpt>
      <trkpt lat="46.435842392966151" lon="8.382459646090865">
        <ele>1925.1800000000001</ele>
        <time>2021-08-01T07:38:57Z</time>
      </trkpt>
      <trkpt lat="46.435859072953463" lon="8.382417485117912">
        <ele>1925.1800000000001</ele>
        <time>2021-08-01T07:39:04Z</time>
      </trkpt>
      <trkpt lat="46.435850691050291" lon="8.3823904953897">
        <ele>1926.1400000000001</ele>
        <time>2021-08-01T07:39:13Z</time>
      </trkpt>
      <trkpt lat="46.435823198407888" lon="8.382363338023424">
        <ele>1926.6199999999999</ele>
        <time>2021-08-01T07:39:25Z</time>
      </trkpt>
      <trkpt lat="46.435820264741778" lon="8.382363421842456">
        <ele>1926.6199999999999</ele>
        <time>2021-08-01T07:39:37Z</time>
      </trkpt>
      <trkpt lat="46.435827137902379" lon="8.382371887564659">
        <ele>1926.6199999999999</ele>
        <time>2021-08-01T07:39:58Z</time>
      </trkpt>
      <trkpt lat="46.435832167044282" lon="8.382387477904558">
        <ele>1926.6199999999999</ele>
        <time>2021-08-01T07:40:32Z</time>
      </trkpt>
      <trkpt lat="46.435830574482679" lon="8.382387729361653">
        <ele>1927.0999999999999</ele>
        <time>2021-08-01T07:40:58Z</time>
      </trkpt>
      <trkpt lat="46.435828898102045" lon="8.382385298609734">
        <ele>1927.0999999999999</ele>
        <time>2021-08-01T07:41:23Z</time>
      </trkpt>
      <trkpt lat="46.435828395187855" lon="8.382377419620752">
        <ele>1927.0999999999999</ele>
        <time>2021-08-01T07:41:41Z</time>
      </trkpt>
      <trkpt lat="46.435813391581178" lon="8.382383538410068">
        <ele>1927.0999999999999</ele>
        <time>2021-08-01T07:42:07Z</time>
      </trkpt>
      <trkpt lat="46.435793275013566" lon="8.382383789867163">
        <ele>1927.0999999999999</ele>
        <time>2021-08-01T07:42:14Z</time>
      </trkpt>
      <trkpt lat="46.435758573934436" lon="8.38239879347384">
        <ele>1927.0999999999999</ele>
        <time>2021-08-01T07:42:20Z</time>
      </trkpt>
      <trkpt lat="46.435741893947124" lon="8.382328385487199">
        <ele>1927.0999999999999</ele>
        <time>2021-08-01T07:42:27Z</time>
      </trkpt>
      <trkpt lat="46.435732170939445" lon="8.382231323048472">
        <ele>1927.0999999999999</ele>
        <time>2021-08-01T07:42:36Z</time>
      </trkpt>
      <trkpt lat="46.435744576156139" lon="8.382129399105907">
        <ele>1929.98</ele>
        <time>2021-08-01T07:42:46Z</time>
      </trkpt>
      <trkpt lat="46.435683136805892" lon="8.382092854008079">
        <ele>1931.4300000000001</ele>
        <time>2021-08-01T07:42:55Z</time>
      </trkpt>
      <trkpt lat="46.435626894235611" lon="8.382003167644143">
        <ele>1931.4300000000001</ele>
        <time>2021-08-01T07:43:04Z</time>
      </trkpt>
      <trkpt lat="46.435615578666329" lon="8.381917085498571">
        <ele>1931.9100000000001</ele>
        <time>2021-08-01T07:43:11Z</time>
      </trkpt>
      <trkpt lat="46.435626391321421" lon="8.381830584257841">
        <ele>1932.3900000000001</ele>
        <time>2021-08-01T07:43:20Z</time>
      </trkpt>
      <trkpt lat="46.435603676363826" lon="8.381729247048497">
        <ele>1932.8699999999999</ele>
        <time>2021-08-01T07:43:30Z</time>
      </trkpt>
      <trkpt lat="46.43554525449872" lon="8.381693288683891">
        <ele>1933.8299999999999</ele>
        <time>2021-08-01T07:43:40Z</time>
      </trkpt>
      <trkpt lat="46.435521198436618" lon="8.381628328934312">
        <ele>1934.79</ele>
        <time>2021-08-01T07:43:49Z</time>
      </trkpt>
      <trkpt lat="46.435504434630275" lon="8.381551969796419">
        <ele>1935.75</ele>
        <time>2021-08-01T07:43:57Z</time>
      </trkpt>
      <trkpt lat="46.435475181788206" lon="8.381483824923635">
        <ele>1937.1900000000001</ele>
        <time>2021-08-01T07:44:07Z</time>
      </trkpt>
      <trkpt lat="46.435436457395554" lon="8.38142154738307">
        <ele>1938.1600000000001</ele>
        <time>2021-08-01T07:44:17Z</time>
      </trkpt>
      <trkpt lat="46.435401672497392" lon="8.381357928737998">
        <ele>1939.1199999999999</ele>
        <time>2021-08-01T07:44:25Z</time>
      </trkpt>
      <trkpt lat="46.435320787131786" lon="8.381294226273894">
        <ele>1940.0799999999999</ele>
        <time>2021-08-01T07:44:37Z</time>
      </trkpt>
      <trkpt lat="46.43527502194047" lon="8.381246030330658">
        <ele>1940.5599999999999</ele>
        <time>2021-08-01T07:44:46Z</time>
      </trkpt>
      <trkpt lat="46.435226239264011" lon="8.381152153015137">
        <ele>1942</ele>
        <time>2021-08-01T07:44:57Z</time>
      </trkpt>
      <trkpt lat="46.435217689722776" lon="8.381055593490601">
        <ele>1942.48</ele>
        <time>2021-08-01T07:45:07Z</time>
      </trkpt>
      <trkpt lat="46.435217522084713" lon="8.381012845784426">
        <ele>1942.48</ele>
        <time>2021-08-01T07:45:11Z</time>
      </trkpt>
      <trkpt lat="46.435176031664014" lon="8.380913771688938">
        <ele>1942.96</ele>
        <time>2021-08-01T07:45:20Z</time>
      </trkpt>
      <trkpt lat="46.435145270079374" lon="8.380809249356389">
        <ele>1943.9200000000001</ele>
        <time>2021-08-01T07:45:30Z</time>
      </trkpt>
      <trkpt lat="46.435137055814266" lon="8.380781589075923">
        <ele>1944.4000000000001</ele>
        <time>2021-08-01T07:45:40Z</time>
      </trkpt>
      <trkpt lat="46.43513479270041" lon="8.380735572427511">
        <ele>1944.8800000000001</ele>
        <time>2021-08-01T07:45:49Z</time>
      </trkpt>
      <trkpt lat="46.435122471302748" lon="8.380686286836863">
        <ele>1945.8499999999999</ele>
        <time>2021-08-01T07:45:59Z</time>
      </trkpt>
      <trkpt lat="46.435099923983216" lon="8.380641359835863">
        <ele>1946.8099999999999</ele>
        <time>2021-08-01T07:46:07Z</time>
      </trkpt>
      <trkpt lat="46.435092547908425" lon="8.380601964890957">
        <ele>1948.25</ele>
        <time>2021-08-01T07:46:17Z</time>
      </trkpt>
      <trkpt lat="46.435085171833634" lon="8.3805669285357">
        <ele>1949.21</ele>
        <time>2021-08-01T07:46:23Z</time>
      </trkpt>
      <trkpt lat="46.435063295066357" lon="8.380497358739376">
        <ele>1950.1700000000001</ele>
        <time>2021-08-01T07:46:33Z</time>
      </trkpt>
      <trkpt lat="46.435046782717109" lon="8.380448324605823">
        <ele>1951.1300000000001</ele>
        <time>2021-08-01T07:46:41Z</time>
      </trkpt>
      <trkpt lat="46.435027420520782" lon="8.380375569686294">
        <ele>1952.0899999999999</ele>
        <time>2021-08-01T07:46:52Z</time>
      </trkpt>
      <trkpt lat="46.435015350580215" lon="8.380324691534042">
        <ele>1952.5699999999999</ele>
        <time>2021-08-01T07:47:02Z</time>
      </trkpt>
      <trkpt lat="46.43501166254282" lon="8.380259647965431">
        <ele>1953.54</ele>
        <time>2021-08-01T07:47:11Z</time>
      </trkpt>
      <trkpt lat="46.434984756633639" lon="8.380208350718021">
        <ele>1954.5</ele>
        <time>2021-08-01T07:47:20Z</time>
      </trkpt>
      <trkpt lat="46.434977883473039" lon="8.380154957994819">
        <ele>1955.46</ele>
        <time>2021-08-01T07:47:29Z</time>
      </trkpt>
      <trkpt lat="46.434978051111102" lon="8.380123525857925">
        <ele>1956.4200000000001</ele>
        <time>2021-08-01T07:47:36Z</time>
      </trkpt>
      <trkpt lat="46.434955336153507" lon="8.380089327692986">
        <ele>1957.3800000000001</ele>
        <time>2021-08-01T07:47:44Z</time>
      </trkpt>
      <trkpt lat="46.434909738600254" lon="8.380064936354756">
        <ele>1958.8199999999999</ele>
        <time>2021-08-01T07:47:54Z</time>
      </trkpt>
      <trkpt lat="46.434851316735148" lon="8.380001652985811">
        <ele>1959.78</ele>
        <time>2021-08-01T07:48:05Z</time>
      </trkpt>
      <trkpt lat="46.434809323400259" lon="8.379958486184478">
        <ele>1961.23</ele>
        <time>2021-08-01T07:48:15Z</time>
      </trkpt>
      <trkpt lat="46.434762049466372" lon="8.379921521991491">
        <ele>1962.1900000000001</ele>
        <time>2021-08-01T07:48:24Z</time>
      </trkpt>
      <trkpt lat="46.434731623157859" lon="8.379879528656602">
        <ele>1963.6300000000001</ele>
        <time>2021-08-01T07:48:33Z</time>
      </trkpt>
      <trkpt lat="46.434696838259697" lon="8.379836697131395">
        <ele>1964.5899999999999</ele>
        <time>2021-08-01T07:48:43Z</time>
      </trkpt>
      <trkpt lat="46.43462467007339" lon="8.379783891141415">
        <ele>1966.51</ele>
        <time>2021-08-01T07:48:54Z</time>
      </trkpt>
      <trkpt lat="46.434570522978902" lon="8.379756566137075">
        <ele>1967.48</ele>
        <time>2021-08-01T07:49:03Z</time>
      </trkpt>
      <trkpt lat="46.434550825506449" lon="8.379731336608529">
        <ele>1968.4400000000001</ele>
        <time>2021-08-01T07:49:11Z</time>
      </trkpt>
      <trkpt lat="46.434536995366216" lon="8.379659419879317">
        <ele>1969.4000000000001</ele>
        <time>2021-08-01T07:49:22Z</time>
      </trkpt>
      <trkpt lat="46.434512436389923" lon="8.379605356603861">
        <ele>1970.8399999999999</ele>
        <time>2021-08-01T07:49:32Z</time>
      </trkpt>
      <trkpt lat="46.434481758624315" lon="8.379553472623229">
        <ele>1972.28</ele>
        <time>2021-08-01T07:49:41Z</time>
      </trkpt>
      <trkpt lat="46.434438927099109" lon="8.379501756280661">
        <ele>1973.72</ele>
        <time>2021-08-01T07:49:52Z</time>
      </trkpt>
      <trkpt lat="46.434400537982583" lon="8.37948365136981">
        <ele>1974.6900000000001</ele>
        <time>2021-08-01T07:50:00Z</time>
      </trkpt>
      <trkpt lat="46.434356449171901" lon="8.379430258646607">
        <ele>1975.6500000000001</ele>
        <time>2021-08-01T07:50:09Z</time>
      </trkpt>
      <trkpt lat="46.434298949316144" lon="8.379402263090015">
        <ele>1977.0899999999999</ele>
        <time>2021-08-01T07:50:20Z</time>
      </trkpt>
      <trkpt lat="46.434274893254042" lon="8.379364879801869">
        <ele>1978.05</ele>
        <time>2021-08-01T07:50:28Z</time>
      </trkpt>
      <trkpt lat="46.434264332056046" lon="8.379322299733758">
        <ele>1979.01</ele>
        <time>2021-08-01T07:50:36Z</time>
      </trkpt>
      <trkpt lat="46.434205994009972" lon="8.379268739372492">
        <ele>1979.49</ele>
        <time>2021-08-01T07:50:47Z</time>
      </trkpt>
      <trkpt lat="46.434160731732845" lon="8.37921685539186">
        <ele>1979.49</ele>
        <time>2021-08-01T07:50:56Z</time>
      </trkpt>
      <trkpt lat="46.434140866622329" lon="8.379148542881012">
        <ele>1979.49</ele>
        <time>2021-08-01T07:51:07Z</time>
      </trkpt>
      <trkpt lat="46.43411211669445" lon="8.379113841801882">
        <ele>1979.97</ele>
        <time>2021-08-01T07:51:15Z</time>
      </trkpt>
      <trkpt lat="46.4340749848634" lon="8.379073776304722">
        <ele>1980.9300000000001</ele>
        <time>2021-08-01T07:51:25Z</time>
      </trkpt>
      <trkpt lat="46.434067357331514" lon="8.37908148765564">
        <ele>1981.4100000000001</ele>
        <time>2021-08-01T07:51:30Z</time>
      </trkpt>
      <trkpt lat="46.434035841375589" lon="8.379045529291034">
        <ele>1982.3800000000001</ele>
        <time>2021-08-01T07:51:37Z</time>
      </trkpt>
      <trkpt lat="46.434001056477427" lon="8.379024071618915">
        <ele>1983.8199999999999</ele>
        <time>2021-08-01T07:51:45Z</time>
      </trkpt>
      <trkpt lat="46.433960823342204" lon="8.379011917859316">
        <ele>1984.78</ele>
        <time>2021-08-01T07:51:55Z</time>
      </trkpt>
      <trkpt lat="46.433932492509484" lon="8.379016863182187">
        <ele>1986.22</ele>
        <time>2021-08-01T07:52:06Z</time>
      </trkpt>
      <trkpt lat="46.433927295729518" lon="8.378976630046964">
        <ele>1987.1800000000001</ele>
        <time>2021-08-01T07:52:14Z</time>
      </trkpt>
      <trkpt lat="46.433922350406647" lon="8.378947544842959">
        <ele>1988.6199999999999</ele>
        <time>2021-08-01T07:52:24Z</time>
      </trkpt>
      <trkpt lat="46.433908520266414" lon="8.378964392468333">
        <ele>1989.5899999999999</ele>
        <time>2021-08-01T07:52:36Z</time>
      </trkpt>
      <trkpt lat="46.433891924098134" lon="8.3789471257478">
        <ele>1990.0699999999999</ele>
        <time>2021-08-01T07:52:46Z</time>
      </trkpt>
      <trkpt lat="46.433883123099804" lon="8.37894125841558">
        <ele>1991.03</ele>
        <time>2021-08-01T07:52:56Z</time>
      </trkpt>
      <trkpt lat="46.433856217190623" lon="8.378949472680688">
        <ele>1991.51</ele>
        <time>2021-08-01T07:53:04Z</time>
      </trkpt>
      <trkpt lat="46.433862084522843" lon="8.378917034715414">
        <ele>1991.99</ele>
        <time>2021-08-01T07:53:11Z</time>
      </trkpt>
      <trkpt lat="46.433862084522843" lon="8.378877388313413">
        <ele>1992.95</ele>
        <time>2021-08-01T07:53:22Z</time>
      </trkpt>
      <trkpt lat="46.433870969340205" lon="8.378850063309073">
        <ele>1993.4300000000001</ele>
        <time>2021-08-01T07:53:29Z</time>
      </trkpt>
      <trkpt lat="46.433850098401308" lon="8.37886062450707">
        <ele>1993.9100000000001</ele>
        <time>2021-08-01T07:53:38Z</time>
      </trkpt>
      <trkpt lat="46.433838782832026" lon="8.378826258704066">
        <ele>1995.3499999999999</ele>
        <time>2021-08-01T07:53:48Z</time>
      </trkpt>
      <trkpt lat="46.43382822163403" lon="8.378802873194218">
        <ele>1995.8299999999999</ele>
        <time>2021-08-01T07:54:06Z</time>
      </trkpt>
      <trkpt lat="46.433814140036702" lon="8.378793317824602">
        <ele>1997.28</ele>
        <time>2021-08-01T07:54:18Z</time>
      </trkpt>
      <trkpt lat="46.433806428685784" lon="8.378772279247642">
        <ele>1997.76</ele>
        <time>2021-08-01T07:54:34Z</time>
      </trkpt>
      <trkpt lat="46.433806680142879" lon="8.378754174336791">
        <ele>1998.72</ele>
        <time>2021-08-01T07:54:45Z</time>
      </trkpt>
      <trkpt lat="46.433811960741878" lon="8.378712683916092">
        <ele>2000.1600000000001</ele>
        <time>2021-08-01T07:54:59Z</time>
      </trkpt>
      <trkpt lat="46.433796957135201" lon="8.378695920109749">
        <ele>2000.6400000000001</ele>
        <time>2021-08-01T07:55:07Z</time>
      </trkpt>
      <trkpt lat="46.433780193328857" lon="8.378686280921102">
        <ele>2001.5999999999999</ele>
        <time>2021-08-01T07:55:16Z</time>
      </trkpt>
      <trkpt lat="46.433758484199643" lon="8.378681838512421">
        <ele>2002.5599999999999</ele>
        <time>2021-08-01T07:55:24Z</time>
      </trkpt>
      <trkpt lat="46.433735769242048" lon="8.378682928159833">
        <ele>2003.52</ele>
        <time>2021-08-01T07:55:34Z</time>
      </trkpt>
      <trkpt lat="46.433727890253067" lon="8.378678150475025">
        <ele>2004.49</ele>
        <time>2021-08-01T07:55:46Z</time>
      </trkpt>
      <trkpt lat="46.43372654914856" lon="8.378670774400234">
        <ele>2004.49</ele>
        <time>2021-08-01T07:56:01Z</time>
      </trkpt>
      <trkpt lat="46.43372755497694" lon="8.378671361133456">
        <ele>2004.49</ele>
        <time>2021-08-01T07:56:22Z</time>
      </trkpt>
      <trkpt lat="46.43372705206275" lon="8.378669684752822">
        <ele>2004.01</ele>
        <time>2021-08-01T07:56:45Z</time>
      </trkpt>
      <trkpt lat="46.433728476986289" lon="8.378672283142805">
        <ele>2004.01</ele>
        <time>2021-08-01T07:57:12Z</time>
      </trkpt>
      <trkpt lat="46.433728728443384" lon="8.378673875704408">
        <ele>2004.01</ele>
        <time>2021-08-01T07:57:30Z</time>
      </trkpt>
      <trkpt lat="46.433726716786623" lon="8.378676054999232">
        <ele>2004.01</ele>
        <time>2021-08-01T07:57:47Z</time>
      </trkpt>
      <trkpt lat="46.433728393167257" lon="8.378679072484374">
        <ele>2004.01</ele>
        <time>2021-08-01T07:58:09Z</time>
      </trkpt>
      <trkpt lat="46.433713473379612" lon="8.378689046949148">
        <ele>2004.01</ele>
        <time>2021-08-01T07:58:34Z</time>
      </trkpt>
      <trkpt lat="46.433695619925857" lon="8.378657530993223">
        <ele>2004.01</ele>
        <time>2021-08-01T07:58:42Z</time>
      </trkpt>
      <trkpt lat="46.433686567470431" lon="8.378604557365179">
        <ele>2004.01</ele>
        <time>2021-08-01T07:58:53Z</time>
      </trkpt>
      <trkpt lat="46.433657817542553" lon="8.378583937883377">
        <ele>2004.01</ele>
        <time>2021-08-01T07:59:03Z</time>
      </trkpt>
      <trkpt lat="46.433625547215343" lon="8.378589134663343">
        <ele>2004.01</ele>
        <time>2021-08-01T07:59:12Z</time>
      </trkpt>
      <trkpt lat="46.433613561093807" lon="8.378520822152495">
        <ele>2004.01</ele>
        <time>2021-08-01T07:59:23Z</time>
      </trkpt>
      <trkpt lat="46.433602580800653" lon="8.378452090546489">
        <ele>2004.01</ele>
        <time>2021-08-01T07:59:31Z</time>
      </trkpt>
      <trkpt lat="46.433563856408" lon="8.378404565155506">
        <ele>2004.01</ele>
        <time>2021-08-01T07:59:42Z</time>
      </trkpt>
      <trkpt lat="46.433540051802993" lon="8.378378581255674">
        <ele>2014.5799999999999</ele>
        <time>2021-08-01T07:59:49Z</time>
      </trkpt>
      <trkpt lat="46.433537118136883" lon="8.378372797742486">
        <ele>2014.5799999999999</ele>
        <time>2021-08-01T07:59:50Z</time>
      </trkpt>
      <trkpt lat="46.433511218056083" lon="8.378347232937813">
        <ele>2015.54</ele>
        <time>2021-08-01T07:59:58Z</time>
      </trkpt>
      <trkpt lat="46.4334895927459" lon="8.378308676183224">
        <ele>2016.98</ele>
        <time>2021-08-01T08:00:08Z</time>
      </trkpt>
      <trkpt lat="46.433479785919189" lon="8.378289565443993">
        <ele>2017.46</ele>
        <time>2021-08-01T08:00:20Z</time>
      </trkpt>
      <trkpt lat="46.433465452864766" lon="8.378278417512775">
        <ele>2017.9400000000001</ele>
        <time>2021-08-01T08:00:33Z</time>
      </trkpt>
      <trkpt lat="46.433456065133214" lon="8.378275819122791">
        <ele>2017.46</ele>
        <time>2021-08-01T08:00:46Z</time>
      </trkpt>
      <trkpt lat="46.433460088446736" lon="8.378282357007265">
        <ele>2017.46</ele>
        <time>2021-08-01T08:01:08Z</time>
      </trkpt>
      <trkpt lat="46.433420358225703" lon="8.378264671191573">
        <ele>2017.46</ele>
        <time>2021-08-01T08:01:18Z</time>
      </trkpt>
      <trkpt lat="46.433395547792315" lon="8.378209518268704">
        <ele>2017.9400000000001</ele>
        <time>2021-08-01T08:01:28Z</time>
      </trkpt>
      <trkpt lat="46.433395547792315" lon="8.378173559904099">
        <ele>2018.4300000000001</ele>
        <time>2021-08-01T08:01:40Z</time>
      </trkpt>
      <trkpt lat="46.433379119262099" lon="8.378110025078058">
        <ele>2019.3900000000001</ele>
        <time>2021-08-01T08:01:48Z</time>
      </trkpt>
      <trkpt lat="46.433349950239062" lon="8.378046238794923">
        <ele>2020.8299999999999</ele>
        <time>2021-08-01T08:01:56Z</time>
      </trkpt>
      <trkpt lat="46.433335952460766" lon="8.378007682040334">
        <ele>2021.79</ele>
        <time>2021-08-01T08:02:03Z</time>
      </trkpt>
      <trkpt lat="46.433350956067443" lon="8.377969460561872">
        <ele>2023.23</ele>
        <time>2021-08-01T08:02:16Z</time>
      </trkpt>
      <trkpt lat="46.433335030451417" lon="8.377937860786915">
        <ele>2024.6700000000001</ele>
        <time>2021-08-01T08:02:26Z</time>
      </trkpt>
      <trkpt lat="46.433325642719865" lon="8.377930065616965">
        <ele>2025.6400000000001</ele>
        <time>2021-08-01T08:02:38Z</time>
      </trkpt>
      <trkpt lat="46.433321870863438" lon="8.377921096980572">
        <ele>2026.1199999999999</ele>
        <time>2021-08-01T08:02:53Z</time>
      </trkpt>
      <trkpt lat="46.433313321322203" lon="8.377894861623645">
        <ele>2026.5999999999999</ele>
        <time>2021-08-01T08:03:02Z</time>
      </trkpt>
      <trkpt lat="46.43331466242671" lon="8.377889664843679">
        <ele>2026.5999999999999</ele>
        <time>2021-08-01T08:03:17Z</time>
      </trkpt>
      <trkpt lat="46.433316841721535" lon="8.377885892987251">
        <ele>2026.5999999999999</ele>
        <time>2021-08-01T08:03:38Z</time>
      </trkpt>
      <trkpt lat="46.433319440111518" lon="8.377884048968554">
        <ele>2026.5999999999999</ele>
        <time>2021-08-01T08:03:50Z</time>
      </trkpt>
      <trkpt lat="46.433352380990982" lon="8.3778833784163">
        <ele>2026.5999999999999</ele>
        <time>2021-08-01T08:03:59Z</time>
      </trkpt>
      <trkpt lat="46.433352967724204" lon="8.37786284275353">
        <ele>2027.0799999999999</ele>
        <time>2021-08-01T08:04:06Z</time>
      </trkpt>
      <trkpt lat="46.433343077078462" lon="8.37783258408308">
        <ele>2027.5599999999999</ele>
        <time>2021-08-01T08:04:14Z</time>
      </trkpt>
      <trkpt lat="46.433332348242402" lon="8.377803917974234">
        <ele>2028.04</ele>
        <time>2021-08-01T08:04:23Z</time>
      </trkpt>
      <trkpt lat="46.433339724317193" lon="8.377779358997941">
        <ele>2029</ele>
        <time>2021-08-01T08:04:30Z</time>
      </trkpt>
      <trkpt lat="46.433334527537227" lon="8.377755973488092">
        <ele>2029</ele>
        <time>2021-08-01T08:04:36Z</time>
      </trkpt>
      <trkpt lat="46.433303765952587" lon="8.377729319036007">
        <ele>2029.96</ele>
        <time>2021-08-01T08:04:43Z</time>
      </trkpt>
      <trkpt lat="46.433272417634726" lon="8.377679446712136">
        <ele>2031.8800000000001</ele>
        <time>2021-08-01T08:04:54Z</time>
      </trkpt>
      <trkpt lat="46.433259258046746" lon="8.37765958160162">
        <ele>2032.3599999999999</ele>
        <time>2021-08-01T08:05:05Z</time>
      </trkpt>
      <trkpt lat="46.433228580281138" lon="8.377632591873407">
        <ele>2033.8099999999999</ele>
        <time>2021-08-01T08:05:16Z</time>
      </trkpt>
      <trkpt lat="46.433215755969286" lon="8.37761758826673">
        <ele>2034.77</ele>
        <time>2021-08-01T08:05:29Z</time>
      </trkpt>
      <trkpt lat="46.433199578896165" lon="8.377619851380587">
        <ele>2035.25</ele>
        <time>2021-08-01T08:05:40Z</time>
      </trkpt>
      <trkpt lat="46.433164793998003" lon="8.377640638500452">
        <ele>2036.21</ele>
        <time>2021-08-01T08:05:48Z</time>
      </trkpt>
      <trkpt lat="46.433146269991994" lon="8.377630161121488">
        <ele>2037.1700000000001</ele>
        <time>2021-08-01T08:06:01Z</time>
      </trkpt>
      <trkpt lat="46.433129757642746" lon="8.377590598538518">
        <ele>2038.1300000000001</ele>
        <time>2021-08-01T08:06:10Z</time>
      </trkpt>
      <trkpt lat="46.43314459361136" lon="8.377555646002293">
        <ele>2039.0899999999999</ele>
        <time>2021-08-01T08:06:19Z</time>
      </trkpt>
      <trkpt lat="46.433141827583313" lon="8.377507282420993">
        <ele>2040.05</ele>
        <time>2021-08-01T08:06:27Z</time>
      </trkpt>
      <trkpt lat="46.433151047676802" lon="8.377474844455719">
        <ele>2041.02</ele>
        <time>2021-08-01T08:06:39Z</time>
      </trkpt>
      <trkpt lat="46.433154987171292" lon="8.377449279651046">
        <ele>2041.98</ele>
        <time>2021-08-01T08:06:55Z</time>
      </trkpt>
      <trkpt lat="46.433177869766951" lon="8.377432432025671">
        <ele>2043.4200000000001</ele>
        <time>2021-08-01T08:07:07Z</time>
      </trkpt>
      <trkpt lat="46.433171080425382" lon="8.377395132556558">
        <ele>2044.3800000000001</ele>
        <time>2021-08-01T08:07:17Z</time>
      </trkpt>
      <trkpt lat="46.433135876432061" lon="8.377388846129179">
        <ele>2045.8199999999999</ele>
        <time>2021-08-01T08:07:28Z</time>
      </trkpt>
      <trkpt lat="46.433135792613029" lon="8.377360766753554">
        <ele>2046.78</ele>
        <time>2021-08-01T08:07:38Z</time>
      </trkpt>
      <trkpt lat="46.433158172294497" lon="8.377337297424674">
        <ele>2047.75</ele>
        <time>2021-08-01T08:07:47Z</time>
      </trkpt>
      <trkpt lat="46.433166386559606" lon="8.377299243584275">
        <ele>2048.71</ele>
        <time>2021-08-01T08:07:57Z</time>
      </trkpt>
      <trkpt lat="46.433190694078803" lon="8.377298153936863">
        <ele>2050.1500000000001</ele>
        <time>2021-08-01T08:08:07Z</time>
      </trkpt>
      <trkpt lat="46.433247355744243" lon="8.377294465899468">
        <ele>2050.6300000000001</ele>
        <time>2021-08-01T08:08:19Z</time>
      </trkpt>
      <trkpt lat="46.433284487575293" lon="8.377274181693792">
        <ele>2052.0700000000002</ele>
        <time>2021-08-01T08:08:30Z</time>
      </trkpt>
      <trkpt lat="46.433315668255091" lon="8.377265967428684">
        <ele>2053.5100000000002</ele>
        <time>2021-08-01T08:08:39Z</time>
      </trkpt>
      <trkpt lat="46.433378364890814" lon="8.377302847802639">
        <ele>2054.4699999999998</ele>
        <time>2021-08-01T08:08:49Z</time>
      </trkpt>
      <trkpt lat="46.433421783149242" lon="8.377311397343874">
        <ele>2055.4400000000001</ele>
        <time>2021-08-01T08:09:03Z</time>
      </trkpt>
      <trkpt lat="46.433413820341229" lon="8.377260267734528">
        <ele>2056.8800000000001</ele>
        <time>2021-08-01T08:09:17Z</time>
      </trkpt>
      <trkpt lat="46.433380460366607" lon="8.377216598019004">
        <ele>2058.3200000000002</ele>
        <time>2021-08-01T08:09:29Z</time>
      </trkpt>
      <trkpt lat="46.433357745409012" lon="8.377181561663747">
        <ele>2059.7600000000002</ele>
        <time>2021-08-01T08:09:40Z</time>
      </trkpt>
      <trkpt lat="46.433323966339231" lon="8.377157254144549">
        <ele>2060.7199999999998</ele>
        <time>2021-08-01T08:09:49Z</time>
      </trkpt>
      <trkpt lat="46.433301335200667" lon="8.377119535580277">
        <ele>2061.6799999999998</ele>
        <time>2021-08-01T08:09:58Z</time>
      </trkpt>
      <trkpt lat="46.433269148692489" lon="8.377070082351565">
        <ele>2063.6100000000001</ele>
        <time>2021-08-01T08:10:11Z</time>
      </trkpt>
      <trkpt lat="46.433234782889485" lon="8.377019874751568">
        <ele>2066.0100000000002</ele>
        <time>2021-08-01T08:10:24Z</time>
      </trkpt>
      <trkpt lat="46.433225981891155" lon="8.376983497291803">
        <ele>2066.9699999999998</ele>
        <time>2021-08-01T08:10:33Z</time>
      </trkpt>
      <trkpt lat="46.433203518390656" lon="8.37693102657795">
        <ele>2068.4099999999999</ele>
        <time>2021-08-01T08:10:45Z</time>
      </trkpt>
      <trkpt lat="46.43319932743907" lon="8.376926919445396">
        <ele>2069.3800000000001</ele>
        <time>2021-08-01T08:11:06Z</time>
      </trkpt>
      <trkpt lat="46.433194885030389" lon="8.376909233629704">
        <ele>2069.3800000000001</ele>
        <time>2021-08-01T08:11:23Z</time>
      </trkpt>
      <trkpt lat="46.43321642652154" lon="8.376918956637383">
        <ele>2069.3800000000001</ele>
        <time>2021-08-01T08:11:39Z</time>
      </trkpt>
      <trkpt lat="46.433200081810355" lon="8.376893224194646">
        <ele>2069.8600000000001</ele>
        <time>2021-08-01T08:11:50Z</time>
      </trkpt>
      <trkpt lat="46.433187341317534" lon="8.376855170354247">
        <ele>2070.3400000000001</ele>
        <time>2021-08-01T08:12:00Z</time>
      </trkpt>
      <trkpt lat="46.433163620531559" lon="8.376834047958255">
        <ele>2070.8200000000002</ele>
        <time>2021-08-01T08:12:10Z</time>
      </trkpt>
      <trkpt lat="46.43314316868782" lon="8.376797838136554">
        <ele>2070.8200000000002</ele>
        <time>2021-08-01T08:12:18Z</time>
      </trkpt>
      <trkpt lat="46.433129757642746" lon="8.376773279160261">
        <ele>2071.3000000000002</ele>
        <time>2021-08-01T08:12:27Z</time>
      </trkpt>
      <trkpt lat="46.433116681873798" lon="8.37675953283906">
        <ele>2072.2600000000002</ele>
        <time>2021-08-01T08:12:37Z</time>
      </trkpt>
      <trkpt lat="46.433093464002013" lon="8.376753246411681">
        <ele>2072.2600000000002</ele>
        <time>2021-08-01T08:12:45Z</time>
      </trkpt>
      <trkpt lat="46.433089356869459" lon="8.376757772639394">
        <ele>2072.2600000000002</ele>
        <time>2021-08-01T08:12:56Z</time>
      </trkpt>
      <trkpt lat="46.433080555871129" lon="8.376749893650413">
        <ele>2072.2600000000002</ele>
        <time>2021-08-01T08:13:05Z</time>
      </trkpt>
      <trkpt lat="46.433052141219378" lon="8.376747043803334">
        <ele>2073.2199999999998</ele>
        <time>2021-08-01T08:13:13Z</time>
      </trkpt>
      <trkpt lat="46.433018948882818" lon="8.376749390736222">
        <ele>2074.1799999999998</ele>
        <time>2021-08-01T08:13:23Z</time>
      </trkpt>
      <trkpt lat="46.433017188683152" lon="8.376714438199997">
        <ele>2075.1399999999999</ele>
        <time>2021-08-01T08:13:32Z</time>
      </trkpt>
      <trkpt lat="46.433011824265122" lon="8.376717623323202">
        <ele>2076.5900000000001</ele>
        <time>2021-08-01T08:13:54Z</time>
      </trkpt>
      <trkpt lat="46.433009477332234" lon="8.376705721020699">
        <ele>2076.5900000000001</ele>
        <time>2021-08-01T08:14:10Z</time>
      </trkpt>
      <trkpt lat="46.433005034923553" lon="8.376710079610348">
        <ele>2076.5900000000001</ele>
        <time>2021-08-01T08:14:30Z</time>
      </trkpt>
      <trkpt lat="46.433011069893837" lon="8.3766935672611">
        <ele>2077.0700000000002</ele>
        <time>2021-08-01T08:14:45Z</time>
      </trkpt>
      <trkpt lat="46.433018445968628" lon="8.376663727685809">
        <ele>2078.0300000000002</ele>
        <time>2021-08-01T08:14:59Z</time>
      </trkpt>
      <trkpt lat="46.433042669668794" lon="8.376659620553255">
        <ele>2078.5100000000002</ele>
        <time>2021-08-01T08:15:08Z</time>
      </trkpt>
      <trkpt lat="46.433045519515872" lon="8.376623829826713">
        <ele>2079.4699999999998</ele>
        <time>2021-08-01T08:15:19Z</time>
      </trkpt>
      <trkpt lat="46.433063540607691" lon="8.37660706602037">
        <ele>2080.4299999999998</ele>
        <time>2021-08-01T08:15:27Z</time>
      </trkpt>
      <trkpt lat="46.433038897812366" lon="8.376602539792657">
        <ele>2081.3899999999999</ele>
        <time>2021-08-01T08:15:34Z</time>
      </trkpt>
      <trkpt lat="46.433010399341583" lon="8.376599354669452">
        <ele>2082.3499999999999</ele>
        <time>2021-08-01T08:15:48Z</time>
      </trkpt>
      <trkpt lat="46.432999251410365" lon="8.376581920310855">
        <ele>2082.8299999999999</ele>
        <time>2021-08-01T08:15:56Z</time>
      </trkpt>
      <trkpt lat="46.432974273338914" lon="8.376593654975295">
        <ele>2083.3099999999999</ele>
        <time>2021-08-01T08:16:12Z</time>
      </trkpt>
      <trkpt lat="46.432957677170634" lon="8.376585943624377">
        <ele>2083.79</ele>
        <time>2021-08-01T08:16:19Z</time>
      </trkpt>
      <trkpt lat="46.432959688827395" lon="8.376575717702508">
        <ele>2084.7600000000002</ele>
        <time>2021-08-01T08:16:32Z</time>
      </trkpt>
      <trkpt lat="46.432979553937912" lon="8.376537747681141">
        <ele>2085.7199999999998</ele>
        <time>2021-08-01T08:16:42Z</time>
      </trkpt>
      <trkpt lat="46.432970333844423" lon="8.376519558951259">
        <ele>2087.1599999999999</ele>
        <time>2021-08-01T08:16:53Z</time>
      </trkpt>
      <trkpt lat="46.432962790131569" lon="8.376514445990324">
        <ele>2087.6399999999999</ele>
        <time>2021-08-01T08:17:02Z</time>
      </trkpt>
      <trkpt lat="46.432954575866461" lon="8.376482259482145">
        <ele>2088.5999999999999</ele>
        <time>2021-08-01T08:17:09Z</time>
      </trkpt>
      <trkpt lat="46.432951642200351" lon="8.376457784324884">
        <ele>2089.5599999999999</ele>
        <time>2021-08-01T08:17:16Z</time>
      </trkpt>
      <trkpt lat="46.432944685220718" lon="8.376448061317205">
        <ele>2090.52</ele>
        <time>2021-08-01T08:17:26Z</time>
      </trkpt>
      <trkpt lat="46.43294669687748" lon="8.376416293904185">
        <ele>2091.4899999999998</ele>
        <time>2021-08-01T08:17:37Z</time>
      </trkpt>
      <trkpt lat="46.432960359379649" lon="8.376412857323885">
        <ele>2092.4499999999998</ele>
        <time>2021-08-01T08:17:44Z</time>
      </trkpt>
      <trkpt lat="46.432964382693172" lon="8.376410258933902">
        <ele>2093.4099999999999</ele>
        <time>2021-08-01T08:17:58Z</time>
      </trkpt>
      <trkpt lat="46.432959353551269" lon="8.376391483470798">
        <ele>2093.8899999999999</ele>
        <time>2021-08-01T08:18:06Z</time>
      </trkpt>
      <trkpt lat="46.432941081002355" lon="8.376375054940581">
        <ele>2094.3699999999999</ele>
        <time>2021-08-01T08:18:18Z</time>
      </trkpt>
      <trkpt lat="46.432929681614041" lon="8.376349154859781">
        <ele>2095.8099999999999</ele>
        <time>2021-08-01T08:18:30Z</time>
      </trkpt>
      <trkpt lat="46.432925155386329" lon="8.376333229243755">
        <ele>2096.77</ele>
        <time>2021-08-01T08:18:39Z</time>
      </trkpt>
      <trkpt lat="46.432928256690502" lon="8.376306658610702">
        <ele>2097.73</ele>
        <time>2021-08-01T08:18:47Z</time>
      </trkpt>
      <trkpt lat="46.432951558381319" lon="8.376283273100853">
        <ele>2099.6599999999999</ele>
        <time>2021-08-01T08:19:03Z</time>
      </trkpt>
      <trkpt lat="46.43296186812222" lon="8.376272292807698">
        <ele>2100.6199999999999</ele>
        <time>2021-08-01T08:19:11Z</time>
      </trkpt>
      <trkpt lat="46.432972429320216" lon="8.376251338049769">
        <ele>2101.5799999999999</ele>
        <time>2021-08-01T08:19:19Z</time>
      </trkpt>
      <trkpt lat="46.432969579473138" lon="8.376237088814378">
        <ele>2101.5799999999999</ele>
        <time>2021-08-01T08:19:36Z</time>
      </trkpt>
      <trkpt lat="46.432960862293839" lon="8.376227030530572">
        <ele>2102.54</ele>
        <time>2021-08-01T08:19:58Z</time>
      </trkpt>
      <trkpt lat="46.432941667735577" lon="8.376196771860123">
        <ele>2103.02</ele>
        <time>2021-08-01T08:20:05Z</time>
      </trkpt>
      <trkpt lat="46.432914175093174" lon="8.376163998618722">
        <ele>2103.98</ele>
        <time>2021-08-01T08:20:14Z</time>
      </trkpt>
      <trkpt lat="46.432894645258784" lon="8.376145055517554">
        <ele>2105.4200000000001</ele>
        <time>2021-08-01T08:20:22Z</time>
      </trkpt>
      <trkpt lat="46.432894393801689" lon="8.376107756048441">
        <ele>2106.8699999999999</ele>
        <time>2021-08-01T08:20:34Z</time>
      </trkpt>
      <trkpt lat="46.432896154001355" lon="8.376090321689844">
        <ele>2107.8299999999999</ele>
        <time>2021-08-01T08:20:43Z</time>
      </trkpt>
      <trkpt lat="46.43289833329618" lon="8.376073557883501">
        <ele>2108.79</ele>
        <time>2021-08-01T08:20:54Z</time>
      </trkpt>
      <trkpt lat="46.432909816503525" lon="8.376045227050781">
        <ele>2110.23</ele>
        <time>2021-08-01T08:21:03Z</time>
      </trkpt>
      <trkpt lat="46.432909481227398" lon="8.376017231494188">
        <ele>2111.1900000000001</ele>
        <time>2021-08-01T08:21:11Z</time>
      </trkpt>
      <trkpt lat="46.432907385751605" lon="8.375993762165308">
        <ele>2112.1500000000001</ele>
        <time>2021-08-01T08:21:23Z</time>
      </trkpt>
      <trkpt lat="46.432908391579986" lon="8.375983536243439">
        <ele>2112.6300000000001</ele>
        <time>2021-08-01T08:21:25Z</time>
      </trkpt>
      <trkpt lat="46.432901853695512" lon="8.375943638384342">
        <ele>2113.1199999999999</ele>
        <time>2021-08-01T08:21:31Z</time>
      </trkpt>
      <trkpt lat="46.432898165658116" lon="8.375925784930587">
        <ele>2114.5599999999999</ele>
        <time>2021-08-01T08:21:40Z</time>
      </trkpt>
      <trkpt lat="46.432891376316547" lon="8.375905249267817">
        <ele>2115.04</ele>
        <time>2021-08-01T08:21:49Z</time>
      </trkpt>
      <trkpt lat="46.432874947786331" lon="8.375887144356966">
        <ele>2116</ele>
        <time>2021-08-01T08:21:57Z</time>
      </trkpt>
      <trkpt lat="46.432860027998686" lon="8.375869626179338">
        <ele>2116.96</ele>
        <time>2021-08-01T08:22:05Z</time>
      </trkpt>
      <trkpt lat="46.432874780148268" lon="8.375831739977002">
        <ele>2117.9200000000001</ele>
        <time>2021-08-01T08:22:14Z</time>
      </trkpt>
      <trkpt lat="46.432881485670805" lon="8.375810533761978">
        <ele>2118.8800000000001</ele>
        <time>2021-08-01T08:22:26Z</time>
      </trkpt>
      <trkpt lat="46.432870589196682" lon="8.37578714825213">
        <ele>2119.3600000000001</ele>
        <time>2021-08-01T08:22:42Z</time>
      </trkpt>
      <trkpt lat="46.432869164273143" lon="8.37577298283577">
        <ele>2119.8400000000001</ele>
        <time>2021-08-01T08:22:52Z</time>
      </trkpt>
      <trkpt lat="46.43287243321538" lon="8.375748842954636">
        <ele>2120.8099999999999</ele>
        <time>2021-08-01T08:23:01Z</time>
      </trkpt>
      <trkpt lat="46.432860530912876" lon="8.375731743872166">
        <ele>2121.77</ele>
        <time>2021-08-01T08:23:11Z</time>
      </trkpt>
      <trkpt lat="46.432853657752275" lon="8.375692265108228">
        <ele>2122.73</ele>
        <time>2021-08-01T08:23:20Z</time>
      </trkpt>
      <trkpt lat="46.432845443487167" lon="8.375654127448797">
        <ele>2123.6900000000001</ele>
        <time>2021-08-01T08:23:29Z</time>
      </trkpt>
      <trkpt lat="46.432839157059789" lon="8.375632837414742">
        <ele>2125.1300000000001</ele>
        <time>2021-08-01T08:23:39Z</time>
      </trkpt>
      <trkpt lat="46.432831697165966" lon="8.375611547380686">
        <ele>2125.6100000000001</ele>
        <time>2021-08-01T08:23:46Z</time>
      </trkpt>
      <trkpt lat="46.432854328304529" lon="8.375587491318584">
        <ele>2126.5700000000002</ele>
        <time>2021-08-01T08:23:54Z</time>
      </trkpt>
      <trkpt lat="46.432830691337585" lon="8.375545246526599">
        <ele>2128.5</ele>
        <time>2021-08-01T08:24:05Z</time>
      </trkpt>
      <trkpt lat="46.432821387425065" lon="8.375513227656484">
        <ele>2129.46</ele>
        <time>2021-08-01T08:24:18Z</time>
      </trkpt>
      <trkpt lat="46.43282063305378" lon="8.375455476343632">
        <ele>2130.4200000000001</ele>
        <time>2021-08-01T08:24:27Z</time>
      </trkpt>
      <trkpt lat="46.432809568941593" lon="8.375422535464168">
        <ele>2132.3400000000001</ele>
        <time>2021-08-01T08:24:40Z</time>
      </trkpt>
      <trkpt lat="46.4328074734658" lon="8.375390348955989">
        <ele>2133.3000000000002</ele>
        <time>2021-08-01T08:24:49Z</time>
      </trkpt>
      <trkpt lat="46.432810155674815" lon="8.375368556007743">
        <ele>2133.7800000000002</ele>
        <time>2021-08-01T08:24:58Z</time>
      </trkpt>
      <trkpt lat="46.432822225615382" lon="8.375375596806407">
        <ele>2134.2600000000002</ele>
        <time>2021-08-01T08:25:15Z</time>
      </trkpt>
      <trkpt lat="46.432827757671475" lon="8.375385571271181">
        <ele>2134.7399999999998</ele>
        <time>2021-08-01T08:25:26Z</time>
      </trkpt>
      <trkpt lat="46.432821722701192" lon="8.375359252095223">
        <ele>2135.23</ele>
        <time>2021-08-01T08:25:36Z</time>
      </trkpt>
      <trkpt lat="46.432812670245767" lon="8.375321282073855">
        <ele>2136.6700000000001</ele>
        <time>2021-08-01T08:25:46Z</time>
      </trkpt>
      <trkpt lat="46.43279573880136" lon="8.375281719490886">
        <ele>2137.6300000000001</ele>
        <time>2021-08-01T08:25:56Z</time>
      </trkpt>
      <trkpt lat="46.432783082127571" lon="8.375242492184043">
        <ele>2138.5900000000001</ele>
        <time>2021-08-01T08:26:02Z</time>
      </trkpt>
      <trkpt lat="46.432741424068809" lon="8.375194547697902">
        <ele>2139.0700000000002</ele>
        <time>2021-08-01T08:26:12Z</time>
      </trkpt>
      <trkpt lat="46.432718960568309" lon="8.375175017863512">
        <ele>2139.5500000000002</ele>
        <time>2021-08-01T08:26:28Z</time>
      </trkpt>
      <trkpt lat="46.432720050215721" lon="8.375118775293231">
        <ele>2140.0300000000002</ele>
        <time>2021-08-01T08:26:37Z</time>
      </trkpt>
      <trkpt lat="46.432723235338926" lon="8.375097569078207">
        <ele>2140.9899999999998</ele>
        <time>2021-08-01T08:26:49Z</time>
      </trkpt>
      <trkpt lat="46.432722397148609" lon="8.375093545764685">
        <ele>2141.9499999999998</ele>
        <time>2021-08-01T08:27:01Z</time>
      </trkpt>
      <trkpt lat="46.432723319157958" lon="8.375095892697573">
        <ele>2141.9499999999998</ele>
        <time>2021-08-01T08:27:29Z</time>
      </trkpt>
      <trkpt lat="46.432723151519895" lon="8.375091617926955">
        <ele>2141.9499999999998</ele>
        <time>2021-08-01T08:27:59Z</time>
      </trkpt>
      <trkpt lat="46.432723151519895" lon="8.375090695917606">
        <ele>2141.9499999999998</ele>
        <time>2021-08-01T08:28:28Z</time>
      </trkpt>
      <trkpt lat="46.432723151519895" lon="8.375091534107924">
        <ele>2141.9499999999998</ele>
        <time>2021-08-01T08:28:57Z</time>
      </trkpt>
      <trkpt lat="46.432723151519895" lon="8.375083822757006">
        <ele>2141.9499999999998</ele>
        <time>2021-08-01T08:29:08Z</time>
      </trkpt>
      <trkpt lat="46.432727593928576" lon="8.375087678432465">
        <ele>2141.9499999999998</ele>
        <time>2021-08-01T08:29:33Z</time>
      </trkpt>
      <trkpt lat="46.432722983881831" lon="8.375086924061179">
        <ele>2141.9499999999998</ele>
        <time>2021-08-01T08:30:02Z</time>
      </trkpt>
      <trkpt lat="46.432728180661798" lon="8.375094886869192">
        <ele>2141.9499999999998</ele>
        <time>2021-08-01T08:30:30Z</time>
      </trkpt>
      <trkpt lat="46.432724324986339" lon="8.375098323449493">
        <ele>2141.9499999999998</ele>
        <time>2021-08-01T08:31:03Z</time>
      </trkpt>
      <trkpt lat="46.432727258652449" lon="8.375094467774034">
        <ele>2141.9499999999998</ele>
        <time>2021-08-01T08:31:29Z</time>
      </trkpt>
      <trkpt lat="46.432724492624402" lon="8.375087846070528">
        <ele>2141.9499999999998</ele>
        <time>2021-08-01T08:31:53Z</time>
      </trkpt>
      <trkpt lat="46.43272734247148" lon="8.375088684260845">
        <ele>2141.9499999999998</ele>
        <time>2021-08-01T08:32:10Z</time>
      </trkpt>
      <trkpt lat="46.43272147513926" lon="8.375070746988058">
        <ele>2141.9499999999998</ele>
        <time>2021-08-01T08:32:26Z</time>
      </trkpt>
      <trkpt lat="46.432701861485839" lon="8.375022383406758">
        <ele>2141.9499999999998</ele>
        <time>2021-08-01T08:32:36Z</time>
      </trkpt>
      <trkpt lat="46.432688282802701" lon="8.374965135008097">
        <ele>2141.9499999999998</ele>
        <time>2021-08-01T08:32:44Z</time>
      </trkpt>
      <trkpt lat="46.432674285024405" lon="8.374916017055512">
        <ele>2141.9499999999998</ele>
        <time>2021-08-01T08:32:52Z</time>
      </trkpt>
      <trkpt lat="46.43266866914928" lon="8.374871425330639">
        <ele>2141.9499999999998</ele>
        <time>2021-08-01T08:33:00Z</time>
      </trkpt>
      <trkpt lat="46.432664059102535" lon="8.374838316813111">
        <ele>2141.9499999999998</ele>
        <time>2021-08-01T08:33:11Z</time>
      </trkpt>
      <trkpt lat="46.432659281417727" lon="8.374804286286235">
        <ele>2146.7600000000002</ele>
        <time>2021-08-01T08:33:22Z</time>
      </trkpt>
      <trkpt lat="46.432657772675157" lon="8.374797664582729">
        <ele>2147.2399999999998</ele>
        <time>2021-08-01T08:33:23Z</time>
      </trkpt>
      <trkpt lat="46.432660035789013" lon="8.374750558286905">
        <ele>2148.1999999999998</ele>
        <time>2021-08-01T08:33:33Z</time>
      </trkpt>
      <trkpt lat="46.432643942534924" lon="8.374706385657191">
        <ele>2149.1599999999999</ele>
        <time>2021-08-01T08:33:42Z</time>
      </trkpt>
      <trkpt lat="46.432637069374323" lon="8.374678390100598">
        <ele>2149.6500000000001</ele>
        <time>2021-08-01T08:33:48Z</time>
      </trkpt>
      <trkpt lat="46.432637823745608" lon="8.374642683193088">
        <ele>2150.1300000000001</ele>
        <time>2021-08-01T08:33:57Z</time>
      </trkpt>
      <trkpt lat="46.432635560631752" lon="8.374618291854858">
        <ele>2151.0900000000001</ele>
        <time>2021-08-01T08:34:08Z</time>
      </trkpt>
      <trkpt lat="46.432621143758297" lon="8.374587781727314">
        <ele>2152.0500000000002</ele>
        <time>2021-08-01T08:34:17Z</time>
      </trkpt>
      <trkpt lat="46.432606223970652" lon="8.374547129496932">
        <ele>2153.0100000000002</ele>
        <time>2021-08-01T08:34:27Z</time>
      </trkpt>
      <trkpt lat="46.432591388002038" lon="8.374527096748352">
        <ele>2153.4899999999998</ele>
        <time>2021-08-01T08:34:34Z</time>
      </trkpt>
      <trkpt lat="46.432596333324909" lon="8.37446054443717">
        <ele>2153.9699999999998</ele>
        <time>2021-08-01T08:34:43Z</time>
      </trkpt>
      <trkpt lat="46.432581078261137" lon="8.374402290210128">
        <ele>2155.4099999999999</ele>
        <time>2021-08-01T08:34:52Z</time>
      </trkpt>
      <trkpt lat="46.432574037462473" lon="8.374349987134337">
        <ele>2156.8600000000001</ele>
        <time>2021-08-01T08:35:03Z</time>
      </trkpt>
      <trkpt lat="46.432556854560971" lon="8.374315453693271">
        <ele>2157.8200000000002</ele>
        <time>2021-08-01T08:35:11Z</time>
      </trkpt>
      <trkpt lat="46.432554172351956" lon="8.374266671016812">
        <ele>2158.3000000000002</ele>
        <time>2021-08-01T08:35:21Z</time>
      </trkpt>
      <trkpt lat="46.432554675266147" lon="8.374191820621491">
        <ele>2159.2600000000002</ele>
        <time>2021-08-01T08:35:31Z</time>
      </trkpt>
      <trkpt lat="46.432546963915229" lon="8.374138092622161">
        <ele>2160.2199999999998</ele>
        <time>2021-08-01T08:35:39Z</time>
      </trkpt>
      <trkpt lat="46.432534558698535" lon="8.374098530039191">
        <ele>2161.1799999999998</ele>
        <time>2021-08-01T08:35:46Z</time>
      </trkpt>
      <trkpt lat="46.432551825419068" lon="8.374067936092615">
        <ele>2162.1399999999999</ele>
        <time>2021-08-01T08:35:55Z</time>
      </trkpt>
      <trkpt lat="46.432532547041774" lon="8.374023428186774">
        <ele>2163.0999999999999</ele>
        <time>2021-08-01T08:36:03Z</time>
      </trkpt>
      <trkpt lat="46.432516789063811" lon="8.373983446508646">
        <ele>2164.0599999999999</ele>
        <time>2021-08-01T08:36:13Z</time>
      </trkpt>
      <trkpt lat="46.432504383847117" lon="8.373952517285943">
        <ele>2165.0300000000002</ele>
        <time>2021-08-01T08:36:22Z</time>
      </trkpt>
      <trkpt lat="46.432497259229422" lon="8.373897783458233">
        <ele>2165.9899999999998</ele>
        <time>2021-08-01T08:36:32Z</time>
      </trkpt>
      <trkpt lat="46.432482674717903" lon="8.373862747102976">
        <ele>2167.4299999999998</ele>
        <time>2021-08-01T08:36:43Z</time>
      </trkpt>
      <trkpt lat="46.432459624484181" lon="8.373827543109655">
        <ele>2167.9099999999999</ele>
        <time>2021-08-01T08:36:52Z</time>
      </trkpt>
      <trkpt lat="46.432449650019407" lon="8.373778257519007">
        <ele>2169.3499999999999</ele>
        <time>2021-08-01T08:37:02Z</time>
      </trkpt>
      <trkpt lat="46.432471023872495" lon="8.373736348003149">
        <ele>2169.8299999999999</ele>
        <time>2021-08-01T08:37:10Z</time>
      </trkpt>
      <trkpt lat="46.432459373027086" lon="8.373694941401482">
        <ele>2170.79</ele>
        <time>2021-08-01T08:37:15Z</time>
      </trkpt>
      <trkpt lat="46.432451494038105" lon="8.37366702966392">
        <ele>2170.79</ele>
        <time>2021-08-01T08:37:17Z</time>
      </trkpt>
      <trkpt lat="46.432448057457805" lon="8.373652445152402">
        <ele>2170.79</ele>
        <time>2021-08-01T08:37:18Z</time>
      </trkpt>
      <trkpt lat="46.432430036365986" lon="8.373533254489303">
        <ele>2170.79</ele>
        <time>2021-08-01T08:37:28Z</time>
      </trkpt>
      <trkpt lat="46.432400532066822" lon="8.37342512793839">
        <ele>2171.7600000000002</ele>
        <time>2021-08-01T08:37:39Z</time>
      </trkpt>
      <trkpt lat="46.432375470176339" lon="8.373304679989815">
        <ele>2172.7199999999998</ele>
        <time>2021-08-01T08:37:50Z</time>
      </trkpt>
      <trkpt lat="46.43235644325614" lon="8.373206863179803">
        <ele>2173.1999999999998</ele>
        <time>2021-08-01T08:38:00Z</time>
      </trkpt>
      <trkpt lat="46.432338757440448" lon="8.373091360554099">
        <ele>2174.6399999999999</ele>
        <time>2021-08-01T08:38:11Z</time>
      </trkpt>
      <trkpt lat="46.432321239262819" lon="8.372982731088996">
        <ele>2175.1199999999999</ele>
        <time>2021-08-01T08:38:21Z</time>
      </trkpt>
      <trkpt lat="46.432302799075842" lon="8.372897738590837">
        <ele>2175.5999999999999</ele>
        <time>2021-08-01T08:38:30Z</time>
      </trkpt>
      <trkpt lat="46.43228025175631" lon="8.372813835740089">
        <ele>2176.5599999999999</ele>
        <time>2021-08-01T08:38:40Z</time>
      </trkpt>
      <trkpt lat="46.43227874301374" lon="8.372735967859626">
        <ele>2178</ele>
        <time>2021-08-01T08:38:50Z</time>
      </trkpt>
      <trkpt lat="46.432259045541286" lon="8.372648796066642">
        <ele>2178.9699999999998</ele>
        <time>2021-08-01T08:39:00Z</time>
      </trkpt>
      <trkpt lat="46.4322445448488" lon="8.372576124966145">
        <ele>2179.4499999999998</ele>
        <time>2021-08-01T08:39:09Z</time>
      </trkpt>
      <trkpt lat="46.432224260643125" lon="8.372494066134095">
        <ele>2180.4099999999999</ele>
        <time>2021-08-01T08:39:18Z</time>
      </trkpt>
      <trkpt lat="46.432217638939619" lon="8.372413599863648">
        <ele>2181.3699999999999</ele>
        <time>2021-08-01T08:39:26Z</time>
      </trkpt>
      <trkpt lat="46.432211436331272" lon="8.372339587658644">
        <ele>2182.8099999999999</ele>
        <time>2021-08-01T08:39:36Z</time>
      </trkpt>
      <trkpt lat="46.432204898446798" lon="8.372253924608231">
        <ele>2183.29</ele>
        <time>2021-08-01T08:39:46Z</time>
      </trkpt>
      <trkpt lat="46.432183943688869" lon="8.372149066999555">
        <ele>2183.77</ele>
        <time>2021-08-01T08:39:57Z</time>
      </trkpt>
      <trkpt lat="46.432176819071174" lon="8.372055273503065">
        <ele>2184.73</ele>
        <time>2021-08-01T08:40:07Z</time>
      </trkpt>
      <trkpt lat="46.432162150740623" lon="8.371960557997227">
        <ele>2185.21</ele>
        <time>2021-08-01T08:40:17Z</time>
      </trkpt>
      <trkpt lat="46.43215904943645" lon="8.371893251314759">
        <ele>2186.1799999999998</ele>
        <time>2021-08-01T08:40:25Z</time>
      </trkpt>
      <trkpt lat="46.432141195982695" lon="8.371792836114764">
        <ele>2187.6199999999999</ele>
        <time>2021-08-01T08:40:38Z</time>
      </trkpt>
      <trkpt lat="46.432126527652144" lon="8.371700551360846">
        <ele>2189.0599999999999</ele>
        <time>2021-08-01T08:40:48Z</time>
      </trkpt>
      <trkpt lat="46.432132730260491" lon="8.371617151424289">
        <ele>2190.02</ele>
        <time>2021-08-01T08:40:57Z</time>
      </trkpt>
      <trkpt lat="46.432126862928271" lon="8.371537271887064">
        <ele>2190.5</ele>
        <time>2021-08-01T08:41:06Z</time>
      </trkpt>
      <trkpt lat="46.432114792987704" lon="8.371441885828972">
        <ele>2191.46</ele>
        <time>2021-08-01T08:41:16Z</time>
      </trkpt>
      <trkpt lat="46.432094760239124" lon="8.371374579146504">
        <ele>2192.4200000000001</ele>
        <time>2021-08-01T08:41:24Z</time>
      </trkpt>
      <trkpt lat="46.432081516832113" lon="8.371332418173552">
        <ele>2193.3899999999999</ele>
        <time>2021-08-01T08:41:30Z</time>
      </trkpt>
      <trkpt lat="46.432061986997724" lon="8.37124734185636">
        <ele>2195.3099999999999</ele>
        <time>2021-08-01T08:41:41Z</time>
      </trkpt>
      <trkpt lat="46.432050252333283" lon="8.371180957183242">
        <ele>2196.75</ele>
        <time>2021-08-01T08:41:50Z</time>
      </trkpt>
      <trkpt lat="46.432034494355321" lon="8.371132761240006">
        <ele>2197.71</ele>
        <time>2021-08-01T08:41:57Z</time>
      </trkpt>
      <trkpt lat="46.432028124108911" lon="8.371074674651027">
        <ele>2199.1500000000001</ele>
        <time>2021-08-01T08:42:04Z</time>
      </trkpt>
      <trkpt lat="46.432023430243134" lon="8.371058832854033">
        <ele>2199.6300000000001</ele>
        <time>2021-08-01T08:42:14Z</time>
      </trkpt>
      <trkpt lat="46.432023849338293" lon="8.371070818975568">
        <ele>2199.6300000000001</ele>
        <time>2021-08-01T08:42:29Z</time>
      </trkpt>
      <trkpt lat="46.432028291746974" lon="8.371076099574566">
        <ele>2199.6300000000001</ele>
        <time>2021-08-01T08:42:58Z</time>
      </trkpt>
      <trkpt lat="46.432025860995054" lon="8.37107484228909">
        <ele>2199.6300000000001</ele>
        <time>2021-08-01T08:43:19Z</time>
      </trkpt>
      <trkpt lat="46.432026866823435" lon="8.371091857552528">
        <ele>2199.6300000000001</ele>
        <time>2021-08-01T08:43:35Z</time>
      </trkpt>
      <trkpt lat="46.432029968127608" lon="8.371087582781911">
        <ele>2199.6300000000001</ele>
        <time>2021-08-01T08:43:59Z</time>
      </trkpt>
      <trkpt lat="46.432017898187041" lon="8.371000494807959">
        <ele>2199.6300000000001</ele>
        <time>2021-08-01T08:44:07Z</time>
      </trkpt>
      <trkpt lat="46.432018233463168" lon="8.370925895869732">
        <ele>2201.0799999999999</ele>
        <time>2021-08-01T08:44:18Z</time>
      </trkpt>
      <trkpt lat="46.432011444121599" lon="8.370884992182255">
        <ele>2197.71</ele>
        <time>2021-08-01T08:44:23Z</time>
      </trkpt>
      <trkpt lat="46.432010354474187" lon="8.370875772088766">
        <ele>2197.23</ele>
        <time>2021-08-01T08:44:24Z</time>
      </trkpt>
      <trkpt lat="46.432013120502234" lon="8.370848363265395">
        <ele>2201.0799999999999</ele>
        <time>2021-08-01T08:44:27Z</time>
      </trkpt>
      <trkpt lat="46.43201244994998" lon="8.370825229212642">
        <ele>2203</ele>
        <time>2021-08-01T08:44:30Z</time>
      </trkpt>
      <trkpt lat="46.431995183229446" lon="8.370772423222661">
        <ele>2203.48</ele>
        <time>2021-08-01T08:44:36Z</time>
      </trkpt>
      <trkpt lat="46.431963667273521" lon="8.370714923366904">
        <ele>2203.96</ele>
        <time>2021-08-01T08:44:43Z</time>
      </trkpt>
      <trkpt lat="46.431964337825775" lon="8.370625069364905">
        <ele>2204.4400000000001</ele>
        <time>2021-08-01T08:44:52Z</time>
      </trkpt>
      <trkpt lat="46.431968193501234" lon="8.370532533153892">
        <ele>2205.8800000000001</ele>
        <time>2021-08-01T08:45:02Z</time>
      </trkpt>
      <trkpt lat="46.431960733607411" lon="8.370431279763579">
        <ele>2207.3200000000002</ele>
        <time>2021-08-01T08:45:13Z</time>
      </trkpt>
      <trkpt lat="46.431949753314257" lon="8.370343437418342">
        <ele>2208.77</ele>
        <time>2021-08-01T08:45:23Z</time>
      </trkpt>
      <trkpt lat="46.431936761364341" lon="8.370270682498813">
        <ele>2210.21</ele>
        <time>2021-08-01T08:45:35Z</time>
      </trkpt>
      <trkpt lat="46.431918237358332" lon="8.370232880115509">
        <ele>2211.1700000000001</ele>
        <time>2021-08-01T08:45:45Z</time>
      </trkpt>
      <trkpt lat="46.431906837970018" lon="8.370193485170603">
        <ele>2212.1300000000001</ele>
        <time>2021-08-01T08:45:54Z</time>
      </trkpt>
      <trkpt lat="46.431908095255494" lon="8.370127687230706">
        <ele>2212.6100000000001</ele>
        <time>2021-08-01T08:46:03Z</time>
      </trkpt>
      <trkpt lat="46.431888733059168" lon="8.370084939524531">
        <ele>2214.0500000000002</ele>
        <time>2021-08-01T08:46:13Z</time>
      </trkpt>
      <trkpt lat="46.431879345327616" lon="8.370021656155586">
        <ele>2215.5</ele>
        <time>2021-08-01T08:46:22Z</time>
      </trkpt>
      <trkpt lat="46.431888397783041" lon="8.369953846558929">
        <ele>2216.46</ele>
        <time>2021-08-01T08:46:31Z</time>
      </trkpt>
      <trkpt lat="46.431868867948651" lon="8.369870949536562">
        <ele>2217.4200000000001</ele>
        <time>2021-08-01T08:46:39Z</time>
      </trkpt>
      <trkpt lat="46.431860653683543" lon="8.369756368920207">
        <ele>2218.3800000000001</ele>
        <time>2021-08-01T08:46:51Z</time>
      </trkpt>
      <trkpt lat="46.43187515437603" lon="8.369696186855435">
        <ele>2219.8200000000002</ele>
        <time>2021-08-01T08:46:59Z</time>
      </trkpt>
      <trkpt lat="46.431897785514593" lon="8.369675818830729">
        <ele>2220.3000000000002</ele>
        <time>2021-08-01T08:47:06Z</time>
      </trkpt>
      <trkpt lat="46.431891582906246" lon="8.369661653414369">
        <ele>2222.2199999999998</ele>
        <time>2021-08-01T08:47:28Z</time>
      </trkpt>
      <trkpt lat="46.431888230144978" lon="8.369697025045753">
        <ele>2222.2199999999998</ele>
        <time>2021-08-01T08:48:10Z</time>
      </trkpt>
      <trkpt lat="46.431878842413425" lon="8.369702389463782">
        <ele>2221.7399999999998</ele>
        <time>2021-08-01T08:48:12Z</time>
      </trkpt>
      <trkpt lat="46.431872555986047" lon="8.369698785245419">
        <ele>2221.7399999999998</ele>
        <time>2021-08-01T08:48:13Z</time>
      </trkpt>
      <trkpt lat="46.431866437196732" lon="8.369690990075469">
        <ele>2221.7399999999998</ele>
        <time>2021-08-01T08:48:14Z</time>
      </trkpt>
      <trkpt lat="46.43182729370892" lon="8.369572721421719">
        <ele>2221.2600000000002</ele>
        <time>2021-08-01T08:48:23Z</time>
      </trkpt>
      <trkpt lat="46.431799130514264" lon="8.369486136361957">
        <ele>2222.2199999999998</ele>
        <time>2021-08-01T08:48:30Z</time>
      </trkpt>
      <trkpt lat="46.431767195463181" lon="8.369367783889175">
        <ele>2224.1500000000001</ele>
        <time>2021-08-01T08:48:40Z</time>
      </trkpt>
      <trkpt lat="46.431747833266854" lon="8.369321096688509">
        <ele>2226.0700000000002</ele>
        <time>2021-08-01T08:48:51Z</time>
      </trkpt>
      <trkpt lat="46.431745570152998" lon="8.369321348145604">
        <ele>2226.0700000000002</ele>
        <time>2021-08-01T08:49:24Z</time>
      </trkpt>
      <trkpt lat="46.431742049753666" lon="8.369296118617058">
        <ele>2226.0700000000002</ele>
        <time>2021-08-01T08:50:01Z</time>
      </trkpt>
      <trkpt lat="46.431739283725619" lon="8.369282959029079">
        <ele>2226.0700000000002</ele>
        <time>2021-08-01T08:50:02Z</time>
      </trkpt>
      <trkpt lat="46.431737523525953" lon="8.369268793612719">
        <ele>2226.0700000000002</ele>
        <time>2021-08-01T08:50:03Z</time>
      </trkpt>
      <trkpt lat="46.431736517697573" lon="8.369253790006042">
        <ele>2226.0700000000002</ele>
        <time>2021-08-01T08:50:04Z</time>
      </trkpt>
      <trkpt lat="46.431714221835136" lon="8.369126133620739">
        <ele>2226.0700000000002</ele>
        <time>2021-08-01T08:50:13Z</time>
      </trkpt>
      <trkpt lat="46.431716149672866" lon="8.369067460298538">
        <ele>2226.0700000000002</ele>
        <time>2021-08-01T08:50:17Z</time>
      </trkpt>
      <trkpt lat="46.431714138016105" lon="8.369050864130259">
        <ele>2226.0700000000002</ele>
        <time>2021-08-01T08:50:18Z</time>
      </trkpt>
      <trkpt lat="46.431710785254836" lon="8.369034016504884">
        <ele>2226.0700000000002</ele>
        <time>2021-08-01T08:50:19Z</time>
      </trkpt>
      <trkpt lat="46.431682454422116" lon="8.36883595213294">
        <ele>2226.0700000000002</ele>
        <time>2021-08-01T08:50:31Z</time>
      </trkpt>
      <trkpt lat="46.43166895955801" lon="8.368711229413748">
        <ele>2225.5900000000001</ele>
        <time>2021-08-01T08:50:41Z</time>
      </trkpt>
      <trkpt lat="46.43162788823247" lon="8.368616765365005">
        <ele>2224.6300000000001</ele>
        <time>2021-08-01T08:50:51Z</time>
      </trkpt>
      <trkpt lat="46.431581033393741" lon="8.368505369871855">
        <ele>2223.1900000000001</ele>
        <time>2021-08-01T08:51:02Z</time>
      </trkpt>
      <trkpt lat="46.431557144969702" lon="8.368367152288556">
        <ele>2219.8200000000002</ele>
        <time>2021-08-01T08:51:15Z</time>
      </trkpt>
      <trkpt lat="46.431534346193075" lon="8.368247961625457">
        <ele>2218.3800000000001</ele>
        <time>2021-08-01T08:51:26Z</time>
      </trkpt>
      <trkpt lat="46.431505344808102" lon="8.368139248341322">
        <ele>2216.46</ele>
        <time>2021-08-01T08:51:39Z</time>
      </trkpt>
      <trkpt lat="46.431467374786735" lon="8.368070349097252">
        <ele>2214.5300000000002</ele>
        <time>2021-08-01T08:51:52Z</time>
      </trkpt>
      <trkpt lat="46.431445078924298" lon="8.368009831756353">
        <ele>2213.0900000000001</ele>
        <time>2021-08-01T08:52:01Z</time>
      </trkpt>
      <trkpt lat="46.431457651779056" lon="8.367938920855522">
        <ele>2211.1700000000001</ele>
        <time>2021-08-01T08:52:12Z</time>
      </trkpt>
      <trkpt lat="46.431444827467203" lon="8.367891144007444">
        <ele>2210.21</ele>
        <time>2021-08-01T08:52:19Z</time>
      </trkpt>
      <trkpt lat="46.431428398936987" lon="8.367830459028482">
        <ele>2208.77</ele>
        <time>2021-08-01T08:52:28Z</time>
      </trkpt>
      <trkpt lat="46.431403169408441" lon="8.36777463555336">
        <ele>2207.8099999999999</ele>
        <time>2021-08-01T08:52:38Z</time>
      </trkpt>
      <trkpt lat="46.431373916566372" lon="8.367714621126652">
        <ele>2206.3600000000001</ele>
        <time>2021-08-01T08:52:48Z</time>
      </trkpt>
      <trkpt lat="46.431351955980062" lon="8.367648152634502">
        <ele>2205.4000000000001</ele>
        <time>2021-08-01T08:52:56Z</time>
      </trkpt>
      <trkpt lat="46.431280290707946" lon="8.367521669715643">
        <ele>2203</ele>
        <time>2021-08-01T08:53:09Z</time>
      </trkpt>
      <trkpt lat="46.431260257959366" lon="8.36749317124486">
        <ele>2202.52</ele>
        <time>2021-08-01T08:53:12Z</time>
      </trkpt>
      <trkpt lat="46.43121843226254" lon="8.367470456287265">
        <ele>2202.04</ele>
        <time>2021-08-01T08:53:17Z</time>
      </trkpt>
      <trkpt lat="46.431138385087252" lon="8.36746433749795">
        <ele>2202.04</ele>
        <time>2021-08-01T08:53:27Z</time>
      </trkpt>
      <trkpt lat="46.431129332631826" lon="8.367464421316981">
        <ele>2202.04</ele>
        <time>2021-08-01T08:53:39Z</time>
      </trkpt>
      <trkpt lat="46.431080466136336" lon="8.367474731057882">
        <ele>2202.52</ele>
        <time>2021-08-01T08:53:53Z</time>
      </trkpt>
      <trkpt lat="46.431029168888927" lon="8.367415638640523">
        <ele>2203</ele>
        <time>2021-08-01T08:54:04Z</time>
      </trkpt>
      <trkpt lat="46.43102933652699" lon="8.367319498211145">
        <ele>2203.96</ele>
        <time>2021-08-01T08:54:13Z</time>
      </trkpt>
      <trkpt lat="46.431013662368059" lon="8.36720684543252">
        <ele>2205.4000000000001</ele>
        <time>2021-08-01T08:54:24Z</time>
      </trkpt>
      <trkpt lat="46.430992037057877" lon="8.367141047492623">
        <ele>2206.3600000000001</ele>
        <time>2021-08-01T08:54:34Z</time>
      </trkpt>
      <trkpt lat="46.430973093956709" lon="8.367079021409154">
        <ele>2206.8400000000001</ele>
        <time>2021-08-01T08:54:47Z</time>
      </trkpt>
      <trkpt lat="46.430956162512302" lon="8.36700894869864">
        <ele>2207.8099999999999</ele>
        <time>2021-08-01T08:54:57Z</time>
      </trkpt>
      <trkpt lat="46.430941075086594" lon="8.366970140486956">
        <ele>2208.29</ele>
        <time>2021-08-01T08:55:05Z</time>
      </trkpt>
      <trkpt lat="46.430913330987096" lon="8.36690098978579">
        <ele>2207.8099999999999</ele>
        <time>2021-08-01T08:55:13Z</time>
      </trkpt>
      <trkpt lat="46.430879384279251" lon="8.366832258179784">
        <ele>2207.8099999999999</ele>
        <time>2021-08-01T08:55:21Z</time>
      </trkpt>
      <trkpt lat="46.430865554139018" lon="8.366816751658917">
        <ele>2207.3200000000002</ele>
        <time>2021-08-01T08:55:23Z</time>
      </trkpt>
      <trkpt lat="46.430808389559388" lon="8.366761095821858">
        <ele>2206.8400000000001</ele>
        <time>2021-08-01T08:55:33Z</time>
      </trkpt>
      <trkpt lat="46.430791458114982" lon="8.366740560159087">
        <ele>2206.3600000000001</ele>
        <time>2021-08-01T08:55:42Z</time>
      </trkpt>
      <trkpt lat="46.430770922452211" lon="8.366730166599155">
        <ele>2205.8800000000001</ele>
        <time>2021-08-01T08:55:51Z</time>
      </trkpt>
      <trkpt lat="46.430738149210811" lon="8.366675265133381">
        <ele>2204.9200000000001</ele>
        <time>2021-08-01T08:55:59Z</time>
      </trkpt>
      <trkpt lat="46.430716942995787" lon="8.36660536006093">
        <ele>2203.96</ele>
        <time>2021-08-01T08:56:09Z</time>
      </trkpt>
      <trkpt lat="46.430712835863233" lon="8.366592787206173">
        <ele>2203.48</ele>
        <time>2021-08-01T08:56:23Z</time>
      </trkpt>
      <trkpt lat="46.430715182796121" lon="8.366568982601166">
        <ele>2203.96</ele>
        <time>2021-08-01T08:56:30Z</time>
      </trkpt>
      <trkpt lat="46.430686684325337" lon="8.366546938195825">
        <ele>2203.48</ele>
        <time>2021-08-01T08:56:43Z</time>
      </trkpt>
      <trkpt lat="46.43067067489028" lon="8.366542579606175">
        <ele>2203.48</ele>
        <time>2021-08-01T08:56:45Z</time>
      </trkpt>
      <trkpt lat="46.430619796738029" lon="8.366525983437896">
        <ele>2203.48</ele>
        <time>2021-08-01T08:56:52Z</time>
      </trkpt>
      <trkpt lat="46.430572690442204" lon="8.366550961509347">
        <ele>2204.4400000000001</ele>
        <time>2021-08-01T08:57:01Z</time>
      </trkpt>
      <trkpt lat="46.430566068738699" lon="8.366521373391151">
        <ele>2204.9200000000001</ele>
        <time>2021-08-01T08:57:11Z</time>
      </trkpt>
      <trkpt lat="46.430546119809151" lon="8.366509219631553">
        <ele>2204.9200000000001</ele>
        <time>2021-08-01T08:57:21Z</time>
      </trkpt>
      <trkpt lat="46.430531535297632" lon="8.366487259045243">
        <ele>2204.9200000000001</ele>
        <time>2021-08-01T08:57:31Z</time>
      </trkpt>
      <trkpt lat="46.430528433993459" lon="8.366471836343408">
        <ele>2204.9200000000001</ele>
        <time>2021-08-01T08:57:47Z</time>
      </trkpt>
      <trkpt lat="46.430498175323009" lon="8.366455994546413">
        <ele>2204.9200000000001</ele>
        <time>2021-08-01T08:57:56Z</time>
      </trkpt>
      <trkpt lat="46.430482165887952" lon="8.366447780281305">
        <ele>2210.21</ele>
        <time>2021-08-01T08:58:02Z</time>
      </trkpt>
      <trkpt lat="46.430481998249888" lon="8.366447864100337">
        <ele>2210.6900000000001</ele>
        <time>2021-08-01T08:58:03Z</time>
      </trkpt>
      <trkpt lat="46.430454254150391" lon="8.36645046249032">
        <ele>2211.1700000000001</ele>
        <time>2021-08-01T08:58:12Z</time>
      </trkpt>
      <trkpt lat="46.430433383211493" lon="8.36641768924892">
        <ele>2212.1300000000001</ele>
        <time>2021-08-01T08:58:21Z</time>
      </trkpt>
      <trkpt lat="46.430402118712664" lon="8.366434620693326">
        <ele>2213.0900000000001</ele>
        <time>2021-08-01T08:58:31Z</time>
      </trkpt>
      <trkpt lat="46.430377727374434" lon="8.366420036181808">
        <ele>2213.5700000000002</ele>
        <time>2021-08-01T08:58:42Z</time>
      </trkpt>
      <trkpt lat="46.430375799536705" lon="8.366411235183477">
        <ele>2214.5300000000002</ele>
        <time>2021-08-01T08:58:53Z</time>
      </trkpt>
      <trkpt lat="46.430364986881614" lon="8.366393968462944">
        <ele>2214.5300000000002</ele>
        <time>2021-08-01T08:58:55Z</time>
      </trkpt>
      <trkpt lat="46.430342439562082" lon="8.366359267383814">
        <ele>2215.5</ele>
        <time>2021-08-01T08:59:03Z</time>
      </trkpt>
      <trkpt lat="46.430337997153401" lon="8.366320626810193">
        <ele>2215.98</ele>
        <time>2021-08-01T08:59:09Z</time>
      </trkpt>
      <trkpt lat="46.430317796766758" lon="8.366257259622216">
        <ele>2216.9400000000001</ele>
        <time>2021-08-01T08:59:18Z</time>
      </trkpt>
      <trkpt lat="46.430296925827861" lon="8.366166735067964">
        <ele>2217.9000000000001</ele>
        <time>2021-08-01T08:59:30Z</time>
      </trkpt>
      <trkpt lat="46.430260548368096" lon="8.366109319031239">
        <ele>2218.8600000000001</ele>
        <time>2021-08-01T08:59:41Z</time>
      </trkpt>
      <trkpt lat="46.430256944149733" lon="8.366100769490004">
        <ele>2219.8200000000002</ele>
        <time>2021-08-01T08:59:58Z</time>
      </trkpt>
      <trkpt lat="46.430248059332371" lon="8.366084760054946">
        <ele>2219.8200000000002</ele>
        <time>2021-08-01T09:00:23Z</time>
      </trkpt>
      <trkpt lat="46.430214447900653" lon="8.366073947399855">
        <ele>2220.7800000000002</ele>
        <time>2021-08-01T09:00:33Z</time>
      </trkpt>
      <trkpt lat="46.430185446515679" lon="8.366091717034578">
        <ele>2221.7399999999998</ele>
        <time>2021-08-01T09:00:41Z</time>
      </trkpt>
      <trkpt lat="46.430147644132376" lon="8.366066152229905">
        <ele>2222.2199999999998</ele>
        <time>2021-08-01T09:00:49Z</time>
      </trkpt>
      <trkpt lat="46.430113529786468" lon="8.36606003344059">
        <ele>2223.1900000000001</ele>
        <time>2021-08-01T09:00:58Z</time>
      </trkpt>
      <trkpt lat="46.430073045194149" lon="8.366030864417553">
        <ele>2224.6300000000001</ele>
        <time>2021-08-01T09:01:07Z</time>
      </trkpt>
      <trkpt lat="46.430041529238224" lon="8.366001946851611">
        <ele>2225.5900000000001</ele>
        <time>2021-08-01T09:01:17Z</time>
      </trkpt>
      <trkpt lat="46.430008253082633" lon="8.365997923538089">
        <ele>2227.0300000000002</ele>
        <time>2021-08-01T09:01:28Z</time>
      </trkpt>
      <trkpt lat="46.430007582530379" lon="8.365998342633247">
        <ele>2227.9899999999998</ele>
        <time>2021-08-01T09:01:43Z</time>
      </trkpt>
      <trkpt lat="46.429973216727376" lon="8.36601996794343">
        <ele>2227.9899999999998</ele>
        <time>2021-08-01T09:01:53Z</time>
      </trkpt>
      <trkpt lat="46.429943963885307" lon="8.366013346239924">
        <ele>2228.4699999999998</ele>
        <time>2021-08-01T09:02:08Z</time>
      </trkpt>
      <trkpt lat="46.429924434050918" lon="8.366000354290009">
        <ele>2229.9200000000001</ele>
        <time>2021-08-01T09:02:23Z</time>
      </trkpt>
      <trkpt lat="46.429896270856261" lon="8.366016447544098">
        <ele>2230.4000000000001</ele>
        <time>2021-08-01T09:02:30Z</time>
      </trkpt>
      <trkpt lat="46.429866431280971" lon="8.366015944629908">
        <ele>2230.8800000000001</ele>
        <time>2021-08-01T09:02:37Z</time>
      </trkpt>
      <trkpt lat="46.429843464866281" lon="8.366013262420893">
        <ele>2231.8400000000001</ele>
        <time>2021-08-01T09:02:44Z</time>
      </trkpt>
      <trkpt lat="46.429806081578135" lon="8.366029020398855">
        <ele>2232.8000000000002</ele>
        <time>2021-08-01T09:02:54Z</time>
      </trkpt>
      <trkpt lat="46.429794849827886" lon="8.366032456979156">
        <ele>2234.2399999999998</ele>
        <time>2021-08-01T09:03:07Z</time>
      </trkpt>
      <trkpt lat="46.429794263094664" lon="8.366017453372479">
        <ele>2234.7199999999998</ele>
        <time>2021-08-01T09:03:33Z</time>
      </trkpt>
      <trkpt lat="46.429781690239906" lon="8.366013346239924">
        <ele>2234.7199999999998</ele>
        <time>2021-08-01T09:03:49Z</time>
      </trkpt>
      <trkpt lat="46.429779678583145" lon="8.366010580211878">
        <ele>2235.1999999999998</ele>
        <time>2021-08-01T09:04:11Z</time>
      </trkpt>
      <trkpt lat="46.429750258103013" lon="8.366002282127738">
        <ele>2235.1999999999998</ele>
        <time>2021-08-01T09:04:22Z</time>
      </trkpt>
      <trkpt lat="46.429697955027223" lon="8.366024326533079">
        <ele>2236.1599999999999</ele>
        <time>2021-08-01T09:04:33Z</time>
      </trkpt>
      <trkpt lat="46.429683035239577" lon="8.366029020398855">
        <ele>2237.6100000000001</ele>
        <time>2021-08-01T09:04:42Z</time>
      </trkpt>
      <trkpt lat="46.429677251726389" lon="8.36606539785862">
        <ele>2238.0900000000001</ele>
        <time>2021-08-01T09:04:48Z</time>
      </trkpt>
      <trkpt lat="46.429665768519044" lon="8.366058440878987">
        <ele>2238.0900000000001</ele>
        <time>2021-08-01T09:05:02Z</time>
      </trkpt>
      <trkpt lat="46.429665768519044" lon="8.366043353453279">
        <ele>2238.5700000000002</ele>
        <time>2021-08-01T09:05:24Z</time>
      </trkpt>
      <trkpt lat="46.429665768519044" lon="8.366046538576484">
        <ele>2238.5700000000002</ele>
        <time>2021-08-01T09:05:40Z</time>
      </trkpt>
      <trkpt lat="46.42966216430068" lon="8.366043521091342">
        <ele>2239.0500000000002</ele>
        <time>2021-08-01T09:05:55Z</time>
      </trkpt>
      <trkpt lat="46.429663421586156" lon="8.366042347624898">
        <ele>2239.0500000000002</ele>
        <time>2021-08-01T09:06:12Z</time>
      </trkpt>
      <trkpt lat="46.429660739377141" lon="8.366047544404864">
        <ele>2239.0500000000002</ele>
        <time>2021-08-01T09:06:41Z</time>
      </trkpt>
      <trkpt lat="46.4296611584723" lon="8.366050478070974">
        <ele>2239.5300000000002</ele>
        <time>2021-08-01T09:07:15Z</time>
      </trkpt>
      <trkpt lat="46.429658979177475" lon="8.366054082289338">
        <ele>2239.5300000000002</ele>
        <time>2021-08-01T09:07:43Z</time>
      </trkpt>
      <trkpt lat="46.429659062996507" lon="8.366053076460958">
        <ele>2239.5300000000002</ele>
        <time>2021-08-01T09:08:16Z</time>
      </trkpt>
      <trkpt lat="46.429657135158777" lon="8.366050478070974">
        <ele>2239.5300000000002</ele>
        <time>2021-08-01T09:08:37Z</time>
      </trkpt>
      <trkpt lat="46.429654788225889" lon="8.36605072952807">
        <ele>2239.5300000000002</ele>
        <time>2021-08-01T09:09:05Z</time>
      </trkpt>
      <trkpt lat="46.429652776569128" lon="8.366024829447269">
        <ele>2239.5300000000002</ele>
        <time>2021-08-01T09:09:13Z</time>
      </trkpt>
      <trkpt lat="46.429654452949762" lon="8.366021895781159">
        <ele>2239.5300000000002</ele>
        <time>2021-08-01T09:09:44Z</time>
      </trkpt>
      <trkpt lat="46.429651351645589" lon="8.366014687344432">
        <ele>2239.5300000000002</ele>
        <time>2021-08-01T09:09:59Z</time>
      </trkpt>
      <trkpt lat="46.429623775184155" lon="8.366004042327404">
        <ele>2239.5300000000002</ele>
        <time>2021-08-01T09:10:10Z</time>
      </trkpt>
      <trkpt lat="46.429580189287663" lon="8.365979231894016">
        <ele>2239.5300000000002</ele>
        <time>2021-08-01T09:10:20Z</time>
      </trkpt>
      <trkpt lat="46.429553953930736" lon="8.365989290177822">
        <ele>2239.5300000000002</ele>
        <time>2021-08-01T09:10:29Z</time>
      </trkpt>
      <trkpt lat="46.429515397176147" lon="8.365946961566806">
        <ele>2239.5300000000002</ele>
        <time>2021-08-01T09:10:39Z</time>
      </trkpt>
      <trkpt lat="46.429470889270306" lon="8.365950984880328">
        <ele>2239.5300000000002</ele>
        <time>2021-08-01T09:10:50Z</time>
      </trkpt>
      <trkpt lat="46.429433841258287" lon="8.365953164175153">
        <ele>2239.5300000000002</ele>
        <time>2021-08-01T09:11:00Z</time>
      </trkpt>
      <trkpt lat="46.429395284503698" lon="8.365957271307707">
        <ele>2239.5300000000002</ele>
        <time>2021-08-01T09:11:09Z</time>
      </trkpt>
      <trkpt lat="46.429362595081329" lon="8.365943944081664">
        <ele>2247.6999999999998</ele>
        <time>2021-08-01T09:11:15Z</time>
      </trkpt>
      <trkpt lat="46.429360499605536" lon="8.365937741473317">
        <ele>2247.6999999999998</ele>
        <time>2021-08-01T09:11:16Z</time>
      </trkpt>
      <trkpt lat="46.429346669465303" lon="8.365878397598863">
        <ele>2248.6599999999999</ele>
        <time>2021-08-01T09:11:29Z</time>
      </trkpt>
      <trkpt lat="46.429331498220563" lon="8.365834727883339">
        <ele>2249.6199999999999</ele>
        <time>2021-08-01T09:11:39Z</time>
      </trkpt>
      <trkpt lat="46.429312555119395" lon="8.36581276729703">
        <ele>2250.5799999999999</ele>
        <time>2021-08-01T09:11:53Z</time>
      </trkpt>
      <trkpt lat="46.429280368611217" lon="8.365762140601873">
        <ele>2251.0599999999999</ele>
        <time>2021-08-01T09:12:04Z</time>
      </trkpt>
      <trkpt lat="46.429256144911051" lon="8.365705478936434">
        <ele>2252.0300000000002</ele>
        <time>2021-08-01T09:12:12Z</time>
      </trkpt>
      <trkpt lat="46.429230077192187" lon="8.365625096485019">
        <ele>2252.9899999999998</ele>
        <time>2021-08-01T09:12:21Z</time>
      </trkpt>
      <trkpt lat="46.429184647276998" lon="8.365568267181516">
        <ele>2253.9499999999998</ele>
        <time>2021-08-01T09:12:30Z</time>
      </trkpt>
      <trkpt lat="46.429138882085681" lon="8.365506492555141">
        <ele>2255.3899999999999</ele>
        <time>2021-08-01T09:12:41Z</time>
      </trkpt>
      <trkpt lat="46.429113065823913" lon="8.365465588867664">
        <ele>2256.3499999999999</ele>
        <time>2021-08-01T09:12:52Z</time>
      </trkpt>
      <trkpt lat="46.42909144051373" lon="8.365392247214913">
        <ele>2257.3099999999999</ele>
        <time>2021-08-01T09:13:02Z</time>
      </trkpt>
      <trkpt lat="46.42906604334712" lon="8.365337932482362">
        <ele>2258.27</ele>
        <time>2021-08-01T09:13:11Z</time>
      </trkpt>
      <trkpt lat="46.429037796333432" lon="8.365249922499061">
        <ele>2259.2399999999998</ele>
        <time>2021-08-01T09:13:21Z</time>
      </trkpt>
      <trkpt lat="46.429027318954468" lon="8.365195272490382">
        <ele>2259.2399999999998</ele>
        <time>2021-08-01T09:13:30Z</time>
      </trkpt>
      <trkpt lat="46.429023966193199" lon="8.365139532834292">
        <ele>2259.7199999999998</ele>
        <time>2021-08-01T09:13:38Z</time>
      </trkpt>
      <trkpt lat="46.429030252620578" lon="8.365078596398234">
        <ele>2260.6799999999998</ele>
        <time>2021-08-01T09:13:48Z</time>
      </trkpt>
      <trkpt lat="46.429049530997872" lon="8.36502461694181">
        <ele>2261.6399999999999</ele>
        <time>2021-08-01T09:13:58Z</time>
      </trkpt>
      <trkpt lat="46.429081046953797" lon="8.364989999681711">
        <ele>2263.0799999999999</ele>
        <time>2021-08-01T09:14:10Z</time>
      </trkpt>
      <trkpt lat="46.429090183228254" lon="8.36497139185667">
        <ele>2264.04</ele>
        <time>2021-08-01T09:14:19Z</time>
      </trkpt>
      <trkpt lat="46.429072748869658" lon="8.364926967769861">
        <ele>2265</ele>
        <time>2021-08-01T09:14:29Z</time>
      </trkpt>
      <trkpt lat="46.429046848788857" lon="8.364910623058677">
        <ele>2265.96</ele>
        <time>2021-08-01T09:14:41Z</time>
      </trkpt>
      <trkpt lat="46.429028995335102" lon="8.364883968606591">
        <ele>2266.9299999999998</ele>
        <time>2021-08-01T09:14:48Z</time>
      </trkpt>
      <trkpt lat="46.428989768028259" lon="8.364838119596243">
        <ele>2268.3699999999999</ele>
        <time>2021-08-01T09:15:01Z</time>
      </trkpt>
      <trkpt lat="46.428983733057976" lon="8.364841639995575">
        <ele>2269.8099999999999</ele>
        <time>2021-08-01T09:15:17Z</time>
      </trkpt>
      <trkpt lat="46.428974093869328" lon="8.364816242828965">
        <ele>2269.8099999999999</ele>
        <time>2021-08-01T09:15:36Z</time>
      </trkpt>
      <trkpt lat="46.428965795785189" lon="8.364759497344494">
        <ele>2270.29</ele>
        <time>2021-08-01T09:15:43Z</time>
      </trkpt>
      <trkpt lat="46.428953222930431" lon="8.364732591435313">
        <ele>2271.73</ele>
        <time>2021-08-01T09:15:51Z</time>
      </trkpt>
      <trkpt lat="46.428953977301717" lon="8.364683054387569">
        <ele>2273.1700000000001</ele>
        <time>2021-08-01T09:16:00Z</time>
      </trkpt>
      <trkpt lat="46.428934279829264" lon="8.364655980840325">
        <ele>2274.6199999999999</ele>
        <time>2021-08-01T09:16:07Z</time>
      </trkpt>
      <trkpt lat="46.428916342556477" lon="8.36459563113749">
        <ele>2275.5799999999999</ele>
        <time>2021-08-01T09:16:16Z</time>
      </trkpt>
      <trkpt lat="46.428914330899715" lon="8.364512147381902">
        <ele>2277.02</ele>
        <time>2021-08-01T09:16:28Z</time>
      </trkpt>
      <trkpt lat="46.428893795236945" lon="8.364430759102106">
        <ele>2277.98</ele>
        <time>2021-08-01T09:16:38Z</time>
      </trkpt>
      <trkpt lat="46.428890526294708" lon="8.364374348893762">
        <ele>2278.46</ele>
        <time>2021-08-01T09:16:47Z</time>
      </trkpt>
      <trkpt lat="46.428852137178183" lon="8.364275861531496">
        <ele>2278.46</ele>
        <time>2021-08-01T09:16:57Z</time>
      </trkpt>
      <trkpt lat="46.4288080483675" lon="8.364195730537176">
        <ele>2278.46</ele>
        <time>2021-08-01T09:17:06Z</time>
      </trkpt>
      <trkpt lat="46.428754990920424" lon="8.364118533208966">
        <ele>2278.9400000000001</ele>
        <time>2021-08-01T09:17:15Z</time>
      </trkpt>
      <trkpt lat="46.428738478571177" lon="8.364003282040358">
        <ele>2279.9000000000001</ele>
        <time>2021-08-01T09:17:25Z</time>
      </trkpt>
      <trkpt lat="46.42873227596283" lon="8.363857436925173">
        <ele>2279.9000000000001</ele>
        <time>2021-08-01T09:17:37Z</time>
      </trkpt>
      <trkpt lat="46.428688438609242" lon="8.363711927086115">
        <ele>2279.4200000000001</ele>
        <time>2021-08-01T09:17:50Z</time>
      </trkpt>
      <trkpt lat="46.428673099726439" lon="8.363681165501475">
        <ele>2279.4200000000001</ele>
        <time>2021-08-01T09:17:53Z</time>
      </trkpt>
      <trkpt lat="46.428655162453651" lon="8.363554682582617">
        <ele>2279.4200000000001</ele>
        <time>2021-08-01T09:18:03Z</time>
      </trkpt>
      <trkpt lat="46.428658263757825" lon="8.363479245454073">
        <ele>2279.4200000000001</ele>
        <time>2021-08-01T09:18:10Z</time>
      </trkpt>
      <trkpt lat="46.428660526871681" lon="8.363411938771606">
        <ele>2278.9400000000001</ele>
        <time>2021-08-01T09:18:15Z</time>
      </trkpt>
      <trkpt lat="46.428652396425605" lon="8.363300878554583">
        <ele>2279.4200000000001</ele>
        <time>2021-08-01T09:18:23Z</time>
      </trkpt>
      <trkpt lat="46.42865214496851" lon="8.363202139735222">
        <ele>2279.9000000000001</ele>
        <time>2021-08-01T09:18:32Z</time>
      </trkpt>
      <trkpt lat="46.428643092513084" lon="8.363152267411351">
        <ele>2280.3800000000001</ele>
        <time>2021-08-01T09:18:49Z</time>
      </trkpt>
      <trkpt lat="46.428623562678695" lon="8.363076830282807">
        <ele>2280.8699999999999</ele>
        <time>2021-08-01T09:18:59Z</time>
      </trkpt>
      <trkpt lat="46.428604451939464" lon="8.363035339862108">
        <ele>2281.8299999999999</ele>
        <time>2021-08-01T09:19:09Z</time>
      </trkpt>
      <trkpt lat="46.428591543808579" lon="8.362972727045417">
        <ele>2283.75</ele>
        <time>2021-08-01T09:19:20Z</time>
      </trkpt>
      <trkpt lat="46.428589029237628" lon="8.362875077873468">
        <ele>2285.1900000000001</ele>
        <time>2021-08-01T09:19:31Z</time>
      </trkpt>
      <trkpt lat="46.428579892963171" lon="8.362808860838413">
        <ele>2286.1500000000001</ele>
        <time>2021-08-01T09:19:41Z</time>
      </trkpt>
      <trkpt lat="46.428568661212921" lon="8.362717246636748">
        <ele>2287.5900000000001</ele>
        <time>2021-08-01T09:19:51Z</time>
      </trkpt>
      <trkpt lat="46.428562039509416" lon="8.362643569707871">
        <ele>2290</ele>
        <time>2021-08-01T09:20:02Z</time>
      </trkpt>
      <trkpt lat="46.428564386442304" lon="8.362587075680494">
        <ele>2290.96</ele>
        <time>2021-08-01T09:20:09Z</time>
      </trkpt>
      <trkpt lat="46.42856178805232" lon="8.362569976598024">
        <ele>2292.4000000000001</ele>
        <time>2021-08-01T09:20:21Z</time>
      </trkpt>
      <trkpt lat="46.428554328158498" lon="8.3625746704638">
        <ele>2292.4000000000001</ele>
        <time>2021-08-01T09:20:53Z</time>
      </trkpt>
      <trkpt lat="46.428533541038632" lon="8.362542148679495">
        <ele>2292.4000000000001</ele>
        <time>2021-08-01T09:21:07Z</time>
      </trkpt>
      <trkpt lat="46.428509568795562" lon="8.36255413480103">
        <ele>2292.8800000000001</ele>
        <time>2021-08-01T09:21:16Z</time>
      </trkpt>
      <trkpt lat="46.428490625694394" lon="8.362549524754286">
        <ele>2293.8400000000001</ele>
        <time>2021-08-01T09:21:29Z</time>
      </trkpt>
      <trkpt lat="46.428473358973861" lon="8.362525384873152">
        <ele>2295.2800000000002</ele>
        <time>2021-08-01T09:21:42Z</time>
      </trkpt>
      <trkpt lat="46.428445363417268" lon="8.362462855875492">
        <ele>2296.73</ele>
        <time>2021-08-01T09:21:53Z</time>
      </trkpt>
      <trkpt lat="46.428416948765516" lon="8.362422287464142">
        <ele>2298.1700000000001</ele>
        <time>2021-08-01T09:22:01Z</time>
      </trkpt>
      <trkpt lat="46.428375458344817" lon="8.362363027408719">
        <ele>2299.6100000000001</ele>
        <time>2021-08-01T09:22:12Z</time>
      </trkpt>
      <trkpt lat="46.428357353433967" lon="8.362335870042443">
        <ele>2301.5300000000002</ele>
        <time>2021-08-01T09:22:22Z</time>
      </trkpt>
      <trkpt lat="46.42833505757153" lon="8.362299576401711">
        <ele>2302.98</ele>
        <time>2021-08-01T09:22:34Z</time>
      </trkpt>
      <trkpt lat="46.428317623212934" lon="8.362277867272496">
        <ele>2304.4200000000001</ele>
        <time>2021-08-01T09:22:43Z</time>
      </trkpt>
      <trkpt lat="46.428282167762518" lon="8.362223720178008">
        <ele>2305.3800000000001</ele>
        <time>2021-08-01T09:22:53Z</time>
      </trkpt>
      <trkpt lat="46.42828619107604" lon="8.362222043797374">
        <ele>2306.8200000000002</ele>
        <time>2021-08-01T09:23:16Z</time>
      </trkpt>
      <trkpt lat="46.428271690383554" lon="8.362176446244121">
        <ele>2306.8200000000002</ele>
        <time>2021-08-01T09:23:50Z</time>
      </trkpt>
      <trkpt lat="46.428246377035975" lon="8.362115174531937">
        <ele>2307.7800000000002</ele>
        <time>2021-08-01T09:24:00Z</time>
      </trkpt>
      <trkpt lat="46.428213939070702" lon="8.362056165933609">
        <ele>2308.2600000000002</ele>
        <time>2021-08-01T09:24:08Z</time>
      </trkpt>
      <trkpt lat="46.428175633773208" lon="8.361999755725265">
        <ele>2309.6999999999998</ele>
        <time>2021-08-01T09:24:17Z</time>
      </trkpt>
      <trkpt lat="46.428163228556514" lon="8.361968155950308">
        <ele>2311.1500000000001</ele>
        <time>2021-08-01T09:24:30Z</time>
      </trkpt>
      <trkpt lat="46.428140932694077" lon="8.361913254484534">
        <ele>2311.6300000000001</ele>
        <time>2021-08-01T09:24:43Z</time>
      </trkpt>
      <trkpt lat="46.428129365667701" lon="8.361861454322934">
        <ele>2312.5900000000001</ele>
        <time>2021-08-01T09:24:52Z</time>
      </trkpt>
      <trkpt lat="46.428109332919121" lon="8.361821724101901">
        <ele>2313.5500000000002</ele>
        <time>2021-08-01T09:25:02Z</time>
      </trkpt>
      <trkpt lat="46.428082678467035" lon="8.361785681918263">
        <ele>2314.5100000000002</ele>
        <time>2021-08-01T09:25:14Z</time>
      </trkpt>
      <trkpt lat="46.428080834448338" lon="8.361733965575695">
        <ele>2315.4699999999998</ele>
        <time>2021-08-01T09:25:31Z</time>
      </trkpt>
      <trkpt lat="46.428046636283398" lon="8.361669844016433">
        <ele>2317.4000000000001</ele>
        <time>2021-08-01T09:25:41Z</time>
      </trkpt>
      <trkpt lat="46.428010342642665" lon="8.361589880660176">
        <ele>2319.8000000000002</ele>
        <time>2021-08-01T09:25:54Z</time>
      </trkpt>
      <trkpt lat="46.428006822243333" lon="8.361581917852163">
        <ele>2319.8000000000002</ele>
        <time>2021-08-01T09:25:55Z</time>
      </trkpt>
      <trkpt lat="46.427971366792917" lon="8.361534895375371">
        <ele>2320.7600000000002</ele>
        <time>2021-08-01T09:26:03Z</time>
      </trkpt>
      <trkpt lat="46.427967678755522" lon="8.361540092155337">
        <ele>2322.1999999999998</ele>
        <time>2021-08-01T09:26:18Z</time>
      </trkpt>
      <trkpt lat="46.427968768402934" lon="8.361552329733968">
        <ele>2321.2399999999998</ele>
        <time>2021-08-01T09:26:43Z</time>
      </trkpt>
      <trkpt lat="46.427968936040998" lon="8.361559119075537">
        <ele>2321.2399999999998</ele>
        <time>2021-08-01T09:27:12Z</time>
      </trkpt>
      <trkpt lat="46.427973629906774" lon="8.361557526513934">
        <ele>2322.1999999999998</ele>
        <time>2021-08-01T09:27:32Z</time>
      </trkpt>
      <trkpt lat="46.427971618250012" lon="8.361555766314268">
        <ele>2321.7199999999998</ele>
        <time>2021-08-01T09:28:01Z</time>
      </trkpt>
      <trkpt lat="46.427952842786908" lon="8.361519472673535">
        <ele>2321.7199999999998</ele>
        <time>2021-08-01T09:28:16Z</time>
      </trkpt>
      <trkpt lat="46.42792996019125" lon="8.361453590914607">
        <ele>2321.7199999999998</ele>
        <time>2021-08-01T09:28:26Z</time>
      </trkpt>
      <trkpt lat="46.427901042625308" lon="8.361371364444494">
        <ele>2321.7199999999998</ele>
        <time>2021-08-01T09:28:38Z</time>
      </trkpt>
      <trkpt lat="46.427893750369549" lon="8.361351164057851">
        <ele>2325.5700000000002</ele>
        <time>2021-08-01T09:28:41Z</time>
      </trkpt>
      <trkpt lat="46.427892995998263" lon="8.361343871802092">
        <ele>2326.0500000000002</ele>
        <time>2021-08-01T09:28:42Z</time>
      </trkpt>
      <trkpt lat="46.427883356809616" lon="8.361264076083899">
        <ele>2327.0100000000002</ele>
        <time>2021-08-01T09:28:53Z</time>
      </trkpt>
      <trkpt lat="46.427878076210618" lon="8.36121479049325">
        <ele>2328.4499999999998</ele>
        <time>2021-08-01T09:29:02Z</time>
      </trkpt>
      <trkpt lat="46.427857959643006" lon="8.36116106249392">
        <ele>2329.8899999999999</ele>
        <time>2021-08-01T09:29:14Z</time>
      </trkpt>
      <trkpt lat="46.427838345989585" lon="8.361097192391753">
        <ele>2331.8099999999999</ele>
        <time>2021-08-01T09:29:26Z</time>
      </trkpt>
      <trkpt lat="46.427836082875729" lon="8.361033070832491">
        <ele>2332.7800000000002</ele>
        <time>2021-08-01T09:29:36Z</time>
      </trkpt>
      <trkpt lat="46.427824683487415" lon="8.360967691987753">
        <ele>2334.2199999999998</ele>
        <time>2021-08-01T09:29:47Z</time>
      </trkpt>
      <trkpt lat="46.427817977964878" lon="8.360878759995103">
        <ele>2335.6599999999999</ele>
        <time>2021-08-01T09:29:58Z</time>
      </trkpt>
      <trkpt lat="46.427816469222307" lon="8.360803155228496">
        <ele>2336.6199999999999</ele>
        <time>2021-08-01T09:30:07Z</time>
      </trkpt>
      <trkpt lat="46.42782635986805" lon="8.360723359510303">
        <ele>2338.0599999999999</ele>
        <time>2021-08-01T09:30:18Z</time>
      </trkpt>
      <trkpt lat="46.427817726507783" lon="8.36061917245388">
        <ele>2339.5100000000002</ele>
        <time>2021-08-01T09:30:32Z</time>
      </trkpt>
      <trkpt lat="46.427806578576565" lon="8.360576340928674">
        <ele>2340.9499999999998</ele>
        <time>2021-08-01T09:30:44Z</time>
      </trkpt>
      <trkpt lat="46.427784617990255" lon="8.360536275431514">
        <ele>2341.9099999999999</ele>
        <time>2021-08-01T09:30:51Z</time>
      </trkpt>
      <trkpt lat="46.427749246358871" lon="8.36048916913569">
        <ele>2343.3499999999999</ele>
        <time>2021-08-01T09:31:02Z</time>
      </trkpt>
      <trkpt lat="46.427744384855032" lon="8.360416749492288">
        <ele>2344.79</ele>
        <time>2021-08-01T09:31:12Z</time>
      </trkpt>
      <trkpt lat="46.427725860849023" lon="8.360331170260906">
        <ele>2346.23</ele>
        <time>2021-08-01T09:31:27Z</time>
      </trkpt>
      <trkpt lat="46.42769199796021" lon="8.360308622941375">
        <ele>2348.1599999999999</ele>
        <time>2021-08-01T09:31:38Z</time>
      </trkpt>
      <trkpt lat="46.427673976868391" lon="8.36027417331934">
        <ele>2348.6399999999999</ele>
        <time>2021-08-01T09:31:45Z</time>
      </trkpt>
      <trkpt lat="46.427649417892098" lon="8.360226983204484">
        <ele>2350.0799999999999</ele>
        <time>2021-08-01T09:31:55Z</time>
      </trkpt>
      <trkpt lat="46.427620751783252" lon="8.360208878293634">
        <ele>2352</ele>
        <time>2021-08-01T09:32:08Z</time>
      </trkpt>
      <trkpt lat="46.427608262747526" lon="8.360192449763417">
        <ele>2352.96</ele>
        <time>2021-08-01T09:32:18Z</time>
      </trkpt>
      <trkpt lat="46.427613291889429" lon="8.360191946849227">
        <ele>2353.4400000000001</ele>
        <time>2021-08-01T09:32:40Z</time>
      </trkpt>
      <trkpt lat="46.427615219727159" lon="8.360195886343718">
        <ele>2353.9299999999998</ele>
        <time>2021-08-01T09:33:14Z</time>
      </trkpt>
      <trkpt lat="46.427619578316808" lon="8.360190941020846">
        <ele>2353.4400000000001</ele>
        <time>2021-08-01T09:33:43Z</time>
      </trkpt>
      <trkpt lat="46.427619326859713" lon="8.360194293782115">
        <ele>2353.4400000000001</ele>
        <time>2021-08-01T09:34:04Z</time>
      </trkpt>
      <trkpt lat="46.427616057917476" lon="8.360187755897641">
        <ele>2353.4400000000001</ele>
        <time>2021-08-01T09:34:27Z</time>
      </trkpt>
      <trkpt lat="46.427611950784922" lon="8.360157748684287">
        <ele>2353.4400000000001</ele>
        <time>2021-08-01T09:34:37Z</time>
      </trkpt>
      <trkpt lat="46.427573226392269" lon="8.360105529427528">
        <ele>2353.4400000000001</ele>
        <time>2021-08-01T09:34:45Z</time>
      </trkpt>
      <trkpt lat="46.427538692951202" lon="8.360024392604828">
        <ele>2353.4400000000001</ele>
        <time>2021-08-01T09:34:56Z</time>
      </trkpt>
      <trkpt lat="46.427538776770234" lon="8.359952475875616">
        <ele>2353.4400000000001</ele>
        <time>2021-08-01T09:35:06Z</time>
      </trkpt>
      <trkpt lat="46.427527628839016" lon="8.359862370416522">
        <ele>2353.4400000000001</ele>
        <time>2021-08-01T09:35:16Z</time>
      </trkpt>
      <trkpt lat="46.427489323541522" lon="8.359799757599831">
        <ele>2353.4400000000001</ele>
        <time>2021-08-01T09:35:26Z</time>
      </trkpt>
      <trkpt lat="46.427452191710472" lon="8.359720045700669">
        <ele>2353.4400000000001</ele>
        <time>2021-08-01T09:35:39Z</time>
      </trkpt>
      <trkpt lat="46.427438780665398" lon="8.359684841707349">
        <ele>2362.0999999999999</ele>
        <time>2021-08-01T09:35:48Z</time>
      </trkpt>
      <trkpt lat="46.427438361570239" lon="8.359685679897666">
        <ele>2362.0999999999999</ele>
        <time>2021-08-01T09:35:49Z</time>
      </trkpt>
      <trkpt lat="46.427413383498788" lon="8.359638825058937">
        <ele>2363.54</ele>
        <time>2021-08-01T09:36:07Z</time>
      </trkpt>
      <trkpt lat="46.427377928048372" lon="8.359606470912695">
        <ele>2364.5</ele>
        <time>2021-08-01T09:36:16Z</time>
      </trkpt>
      <trkpt lat="46.427344819530845" lon="8.35954419337213">
        <ele>2365.9400000000001</ele>
        <time>2021-08-01T09:36:28Z</time>
      </trkpt>
      <trkpt lat="46.427323864772916" lon="8.359484598040581">
        <ele>2366.4200000000001</ele>
        <time>2021-08-01T09:36:38Z</time>
      </trkpt>
      <trkpt lat="46.427288576960564" lon="8.359393989667296">
        <ele>2367.8600000000001</ele>
        <time>2021-08-01T09:36:50Z</time>
      </trkpt>
      <trkpt lat="46.427247589454055" lon="8.359300196170807">
        <ele>2368.8299999999999</ele>
        <time>2021-08-01T09:37:02Z</time>
      </trkpt>
      <trkpt lat="46.427230322733521" lon="8.359201122075319">
        <ele>2369.79</ele>
        <time>2021-08-01T09:37:14Z</time>
      </trkpt>
      <trkpt lat="46.427209870889783" lon="8.359116967767477">
        <ele>2371.23</ele>
        <time>2021-08-01T09:37:25Z</time>
      </trkpt>
      <trkpt lat="46.427196459844708" lon="8.359050918370485">
        <ele>2372.6700000000001</ele>
        <time>2021-08-01T09:37:38Z</time>
      </trkpt>
      <trkpt lat="46.427179360762239" lon="8.358980678021908">
        <ele>2374.5900000000001</ele>
        <time>2021-08-01T09:37:49Z</time>
      </trkpt>
      <trkpt lat="46.427164189517498" lon="8.358928123489022">
        <ele>2376.04</ele>
        <time>2021-08-01T09:38:00Z</time>
      </trkpt>
      <trkpt lat="46.42715354450047" lon="8.358919657766819">
        <ele>2376.52</ele>
        <time>2021-08-01T09:38:16Z</time>
      </trkpt>
      <trkpt lat="46.427146336063743" lon="8.358891578391194">
        <ele>2376.04</ele>
        <time>2021-08-01T09:38:32Z</time>
      </trkpt>
      <trkpt lat="46.427135523408651" lon="8.358836090192199">
        <ele>2376.04</ele>
        <time>2021-08-01T09:38:40Z</time>
      </trkpt>
      <trkpt lat="46.427128985524178" lon="8.358787223696709">
        <ele>2377</ele>
        <time>2021-08-01T09:38:51Z</time>
      </trkpt>
      <trkpt lat="46.427119430154562" lon="8.358735172078013">
        <ele>2378.9200000000001</ele>
        <time>2021-08-01T09:39:02Z</time>
      </trkpt>
      <trkpt lat="46.427085734903812" lon="8.358662752434611">
        <ele>2380.8400000000001</ele>
        <time>2021-08-01T09:39:16Z</time>
      </trkpt>
      <trkpt lat="46.427053464576602" lon="8.358601145446301">
        <ele>2381.8000000000002</ele>
        <time>2021-08-01T09:39:27Z</time>
      </trkpt>
      <trkpt lat="46.427039382979274" lon="8.358534341678023">
        <ele>2382.7600000000002</ele>
        <time>2021-08-01T09:39:39Z</time>
      </trkpt>
      <trkpt lat="46.427009962499142" lon="8.358498970046639">
        <ele>2384.21</ele>
        <time>2021-08-01T09:39:48Z</time>
      </trkpt>
      <trkpt lat="46.426982386037707" lon="8.358444822952151">
        <ele>2386.1300000000001</ele>
        <time>2021-08-01T09:40:01Z</time>
      </trkpt>
      <trkpt lat="46.426957827061415" lon="8.358397465199232">
        <ele>2386.6100000000001</ele>
        <time>2021-08-01T09:40:09Z</time>
      </trkpt>
      <trkpt lat="46.426925389096141" lon="8.358320016413927">
        <ele>2387.5700000000002</ele>
        <time>2021-08-01T09:40:21Z</time>
      </trkpt>
      <trkpt lat="46.426899321377277" lon="8.35822974331677">
        <ele>2389.0100000000002</ele>
        <time>2021-08-01T09:40:34Z</time>
      </trkpt>
      <trkpt lat="46.426889263093472" lon="8.358163945376873">
        <ele>2390.46</ele>
        <time>2021-08-01T09:40:44Z</time>
      </trkpt>
      <trkpt lat="46.426866129040718" lon="8.35809244774282">
        <ele>2391.4200000000001</ele>
        <time>2021-08-01T09:40:54Z</time>
      </trkpt>
      <trkpt lat="46.426839474588633" lon="8.358026733621955">
        <ele>2392.8600000000001</ele>
        <time>2021-08-01T09:41:05Z</time>
      </trkpt>
      <trkpt lat="46.426835367456079" lon="8.35795221850276">
        <ele>2393.8200000000002</ele>
        <time>2021-08-01T09:41:15Z</time>
      </trkpt>
      <trkpt lat="46.426814664155245" lon="8.357854317873716">
        <ele>2395.2600000000002</ele>
        <time>2021-08-01T09:41:27Z</time>
      </trkpt>
      <trkpt lat="46.42680267803371" lon="8.357759518548846">
        <ele>2396.6999999999998</ele>
        <time>2021-08-01T09:41:38Z</time>
      </trkpt>
      <trkpt lat="46.426789099350572" lon="8.35770939476788">
        <ele>2397.6700000000001</ele>
        <time>2021-08-01T09:41:48Z</time>
      </trkpt>
      <trkpt lat="46.426810640841722" lon="8.3577342890203">
        <ele>2398.1500000000001</ele>
        <time>2021-08-01T09:42:10Z</time>
      </trkpt>
      <trkpt lat="46.426788596436381" lon="8.35770889185369">
        <ele>2398.1500000000001</ele>
        <time>2021-08-01T09:42:27Z</time>
      </trkpt>
      <trkpt lat="46.426773928105831" lon="8.357666060328484">
        <ele>2398.6300000000001</ele>
        <time>2021-08-01T09:42:35Z</time>
      </trkpt>
      <trkpt lat="46.426762444898486" lon="8.357612499967217">
        <ele>2399.5900000000001</ele>
        <time>2021-08-01T09:42:44Z</time>
      </trkpt>
      <trkpt lat="46.42675238661468" lon="8.357569333165884">
        <ele>2401.0300000000002</ele>
        <time>2021-08-01T09:42:52Z</time>
      </trkpt>
      <trkpt lat="46.426738137379289" lon="8.357529770582914">
        <ele>2401.9899999999998</ele>
        <time>2021-08-01T09:43:00Z</time>
      </trkpt>
      <trkpt lat="46.426728330552578" lon="8.357455339282751">
        <ele>2403.4299999999998</ele>
        <time>2021-08-01T09:43:10Z</time>
      </trkpt>
      <trkpt lat="46.426719026640058" lon="8.357352744787931">
        <ele>2404.3899999999999</ele>
        <time>2021-08-01T09:43:23Z</time>
      </trkpt>
      <trkpt lat="46.426722630858421" lon="8.357281917706132">
        <ele>2405.8400000000001</ele>
        <time>2021-08-01T09:43:33Z</time>
      </trkpt>
      <trkpt lat="46.426701424643397" lon="8.357184184715152">
        <ele>2406.3200000000002</ele>
        <time>2021-08-01T09:43:43Z</time>
      </trkpt>
      <trkpt lat="46.426695473492146" lon="8.357122996822">
        <ele>2406.8000000000002</ele>
        <time>2021-08-01T09:43:59Z</time>
      </trkpt>
      <trkpt lat="46.426693378016353" lon="8.357032556086779">
        <ele>2406.8000000000002</ele>
        <time>2021-08-01T09:44:07Z</time>
      </trkpt>
      <trkpt lat="46.426659431308508" lon="8.356930799782276">
        <ele>2407.2800000000002</ele>
        <time>2021-08-01T09:44:18Z</time>
      </trkpt>
      <trkpt lat="46.426635375246406" lon="8.35680297575891">
        <ele>2407.7600000000002</ele>
        <time>2021-08-01T09:44:29Z</time>
      </trkpt>
      <trkpt lat="46.426617437973619" lon="8.356698369607329">
        <ele>2408.2399999999998</ele>
        <time>2021-08-01T09:44:40Z</time>
      </trkpt>
      <trkpt lat="46.426592292264104" lon="8.356608767062426">
        <ele>2409.6799999999998</ele>
        <time>2021-08-01T09:44:50Z</time>
      </trkpt>
      <trkpt lat="46.42656572163105" lon="8.356506256386638">
        <ele>2410.1599999999999</ele>
        <time>2021-08-01T09:45:00Z</time>
      </trkpt>
      <trkpt lat="46.42655985429883" lon="8.356356555595994">
        <ele>2410.6399999999999</ele>
        <time>2021-08-01T09:45:13Z</time>
      </trkpt>
      <trkpt lat="46.426526578143239" lon="8.356287991628051">
        <ele>2411.5999999999999</ele>
        <time>2021-08-01T09:45:21Z</time>
      </trkpt>
      <trkpt lat="46.426498498767614" lon="8.356207944452763">
        <ele>2412.5700000000002</ele>
        <time>2021-08-01T09:45:30Z</time>
      </trkpt>
      <trkpt lat="46.426478885114193" lon="8.356114737689495">
        <ele>2413.5300000000002</ele>
        <time>2021-08-01T09:45:40Z</time>
      </trkpt>
      <trkpt lat="46.42647435888648" lon="8.356035361066461">
        <ele>2415.4499999999998</ele>
        <time>2021-08-01T09:45:50Z</time>
      </trkpt>
      <trkpt lat="46.426465138792992" lon="8.355950620025396">
        <ele>2417.8499999999999</ele>
        <time>2021-08-01T09:46:01Z</time>
      </trkpt>
      <trkpt lat="46.426455499604344" lon="8.355895131826401">
        <ele>2419.7800000000002</ele>
        <time>2021-08-01T09:46:10Z</time>
      </trkpt>
      <trkpt lat="46.426429599523544" lon="8.355792453512549">
        <ele>2421.2199999999998</ele>
        <time>2021-08-01T09:46:22Z</time>
      </trkpt>
      <trkpt lat="46.426399173215032" lon="8.355687847360969">
        <ele>2422.1799999999998</ele>
        <time>2021-08-01T09:46:33Z</time>
      </trkpt>
      <trkpt lat="46.426374278962612" lon="8.355613080784679">
        <ele>2423.1399999999999</ele>
        <time>2021-08-01T09:46:44Z</time>
      </trkpt>
      <trkpt lat="46.426376877352595" lon="8.355615427717567">
        <ele>2423.6199999999999</ele>
        <time>2021-08-01T09:47:14Z</time>
      </trkpt>
      <trkpt lat="46.426379894837737" lon="8.355620289221406">
        <ele>2423.6199999999999</ele>
        <time>2021-08-01T09:47:39Z</time>
      </trkpt>
      <trkpt lat="46.426381068304181" lon="8.355618864297867">
        <ele>2423.1399999999999</ele>
        <time>2021-08-01T09:48:03Z</time>
      </trkpt>
      <trkpt lat="46.426377464085817" lon="8.35560922510922">
        <ele>2422.6599999999999</ele>
        <time>2021-08-01T09:48:24Z</time>
      </trkpt>
      <trkpt lat="46.426371680572629" lon="8.355572847649455">
        <ele>2422.1799999999998</ele>
        <time>2021-08-01T09:48:33Z</time>
      </trkpt>
      <trkpt lat="46.426361119374633" lon="8.355450639501214">
        <ele>2421.6999999999998</ele>
        <time>2021-08-01T09:48:44Z</time>
      </trkpt>
      <trkpt lat="46.426338236778975" lon="8.355344776064158">
        <ele>2422.1799999999998</ele>
        <time>2021-08-01T09:48:54Z</time>
      </trkpt>
      <trkpt lat="46.426323652267456" lon="8.355261124670506">
        <ele>2423.6199999999999</ele>
        <time>2021-08-01T09:49:03Z</time>
      </trkpt>
      <trkpt lat="46.426297836005688" lon="8.355174288153648">
        <ele>2425.54</ele>
        <time>2021-08-01T09:49:14Z</time>
      </trkpt>
      <trkpt lat="46.426291717216372" lon="8.355163726955652">
        <ele>2426.5</ele>
        <time>2021-08-01T09:49:26Z</time>
      </trkpt>
      <trkpt lat="46.426283335313201" lon="8.355112429708242">
        <ele>2426.9899999999998</ele>
        <time>2021-08-01T09:49:34Z</time>
      </trkpt>
      <trkpt lat="46.426268583163619" lon="8.35501947440207">
        <ele>2428.4299999999998</ele>
        <time>2021-08-01T09:49:45Z</time>
      </trkpt>
      <trkpt lat="46.426251651719213" lon="8.354939175769687">
        <ele>2429.3899999999999</ele>
        <time>2021-08-01T09:49:55Z</time>
      </trkpt>
      <trkpt lat="46.426196917891502" lon="8.354866588488221">
        <ele>2431.3099999999999</ele>
        <time>2021-08-01T09:50:06Z</time>
      </trkpt>
      <trkpt lat="46.426123157143593" lon="8.354814369231463">
        <ele>2432.27</ele>
        <time>2021-08-01T09:50:18Z</time>
      </trkpt>
      <trkpt lat="46.426057275384665" lon="8.354780171066523">
        <ele>2433.23</ele>
        <time>2021-08-01T09:50:28Z</time>
      </trkpt>
      <trkpt lat="46.426048474386334" lon="8.354774555191398">
        <ele>2433.23</ele>
        <time>2021-08-01T09:50:29Z</time>
      </trkpt>
      <trkpt lat="46.426039924845099" lon="8.354767430573702">
        <ele>2433.23</ele>
        <time>2021-08-01T09:50:30Z</time>
      </trkpt>
      <trkpt lat="46.426000948995352" lon="8.354735830798745">
        <ele>2433.23</ele>
        <time>2021-08-01T09:50:36Z</time>
      </trkpt>
      <trkpt lat="46.425917632877827" lon="8.354685120284557">
        <ele>2433.23</ele>
        <time>2021-08-01T09:50:47Z</time>
      </trkpt>
      <trkpt lat="46.425847560167313" lon="8.3545948471874">
        <ele>2433.71</ele>
        <time>2021-08-01T09:50:57Z</time>
      </trkpt>
      <trkpt lat="46.425804980099201" lon="8.354488648474217">
        <ele>2434.1999999999998</ele>
        <time>2021-08-01T09:51:07Z</time>
      </trkpt>
      <trkpt lat="46.42575996927917" lon="8.354336684569717">
        <ele>2434.6799999999998</ele>
        <time>2021-08-01T09:51:20Z</time>
      </trkpt>
      <trkpt lat="46.425724430009723" lon="8.354224786162376">
        <ele>2434.6799999999998</ele>
        <time>2021-08-01T09:51:32Z</time>
      </trkpt>
      <trkpt lat="46.425702720880508" lon="8.354114480316639">
        <ele>2434.6799999999998</ele>
        <time>2021-08-01T09:51:42Z</time>
      </trkpt>
      <trkpt lat="46.425680425018072" lon="8.354048347100616">
        <ele>2435.1599999999999</ele>
        <time>2021-08-01T09:51:51Z</time>
      </trkpt>
      <trkpt lat="46.425659134984016" lon="8.354020183905959">
        <ele>2435.6399999999999</ele>
        <time>2021-08-01T09:52:03Z</time>
      </trkpt>
      <trkpt lat="46.425596438348293" lon="8.353903591632843">
        <ele>2435.6399999999999</ele>
        <time>2021-08-01T09:52:14Z</time>
      </trkpt>
      <trkpt lat="46.425545057281852" lon="8.35379202850163">
        <ele>2436.1199999999999</ele>
        <time>2021-08-01T09:52:25Z</time>
      </trkpt>
      <trkpt lat="46.425517648458481" lon="8.353705694898963">
        <ele>2437.0799999999999</ele>
        <time>2021-08-01T09:52:34Z</time>
      </trkpt>
      <trkpt lat="46.425491580739617" lon="8.353604190051556">
        <ele>2437.5599999999999</ele>
        <time>2021-08-01T09:52:43Z</time>
      </trkpt>
      <trkpt lat="46.425487138330936" lon="8.35359706543386">
        <ele>2437.5599999999999</ele>
        <time>2021-08-01T09:52:44Z</time>
      </trkpt>
      <trkpt lat="46.425450928509235" lon="8.353488687425852">
        <ele>2438.52</ele>
        <time>2021-08-01T09:52:54Z</time>
      </trkpt>
      <trkpt lat="46.425439277663827" lon="8.353407550603151">
        <ele>2439</ele>
        <time>2021-08-01T09:53:01Z</time>
      </trkpt>
      <trkpt lat="46.425404995679855" lon="8.353297831490636">
        <ele>2439.48</ele>
        <time>2021-08-01T09:53:12Z</time>
      </trkpt>
      <trkpt lat="46.425367025658488" lon="8.353254497051239">
        <ele>2439.96</ele>
        <time>2021-08-01T09:53:19Z</time>
      </trkpt>
      <trkpt lat="46.425331737846136" lon="8.353224489837885">
        <ele>2440.9200000000001</ele>
        <time>2021-08-01T09:53:26Z</time>
      </trkpt>
      <trkpt lat="46.425300976261497" lon="8.353199595585465">
        <ele>2441.8899999999999</ele>
        <time>2021-08-01T09:53:34Z</time>
      </trkpt>
      <trkpt lat="46.425235429778695" lon="8.353120889514685">
        <ele>2442.8499999999999</ele>
        <time>2021-08-01T09:53:46Z</time>
      </trkpt>
      <trkpt lat="46.425179773941636" lon="8.353050481528044">
        <ele>2444.77</ele>
        <time>2021-08-01T09:53:58Z</time>
      </trkpt>
      <trkpt lat="46.425132248550653" lon="8.353004297241569">
        <ele>2446.21</ele>
        <time>2021-08-01T09:54:08Z</time>
      </trkpt>
      <trkpt lat="46.425071647390723" lon="8.352941432967782">
        <ele>2448.1300000000001</ele>
        <time>2021-08-01T09:54:22Z</time>
      </trkpt>
      <trkpt lat="46.425011130049825" lon="8.35285677574575">
        <ele>2450.54</ele>
        <time>2021-08-01T09:54:36Z</time>
      </trkpt>
      <trkpt lat="46.424948684871197" lon="8.352764658629894">
        <ele>2452.46</ele>
        <time>2021-08-01T09:54:50Z</time>
      </trkpt>
      <trkpt lat="46.424906188622117" lon="8.352739261463285">
        <ele>2453.4200000000001</ele>
        <time>2021-08-01T09:55:00Z</time>
      </trkpt>
      <trkpt lat="46.42487408593297" lon="8.352704057469964">
        <ele>2453.4200000000001</ele>
        <time>2021-08-01T09:55:10Z</time>
      </trkpt>
      <trkpt lat="46.424859585240483" lon="8.352683521807194">
        <ele>2453.4200000000001</ele>
        <time>2021-08-01T09:55:26Z</time>
      </trkpt>
      <trkpt lat="46.424836283549666" lon="8.352649742737413">
        <ele>2453.4200000000001</ele>
        <time>2021-08-01T09:55:35Z</time>
      </trkpt>
      <trkpt lat="46.42478222027421" lon="8.352558296173811">
        <ele>2453.4200000000001</ele>
        <time>2021-08-01T09:55:47Z</time>
      </trkpt>
      <trkpt lat="46.424745423719287" lon="8.3525225892663">
        <ele>2455.3400000000001</ele>
        <time>2021-08-01T09:55:57Z</time>
      </trkpt>
      <trkpt lat="46.424715248867869" lon="8.352461569011211">
        <ele>2456.79</ele>
        <time>2021-08-01T09:56:09Z</time>
      </trkpt>
      <trkpt lat="46.424708124250174" lon="8.352425694465637">
        <ele>2458.23</ele>
        <time>2021-08-01T09:56:19Z</time>
      </trkpt>
      <trkpt lat="46.424699993804097" lon="8.352394346147776">
        <ele>2459.1900000000001</ele>
        <time>2021-08-01T09:56:29Z</time>
      </trkpt>
      <trkpt lat="46.4246756862849" lon="8.352351849898696">
        <ele>2460.6300000000001</ele>
        <time>2021-08-01T09:56:40Z</time>
      </trkpt>
      <trkpt lat="46.424666298553348" lon="8.35234522819519">
        <ele>2461.1100000000001</ele>
        <time>2021-08-01T09:56:51Z</time>
      </trkpt>
      <trkpt lat="46.424658251926303" lon="8.352404655888677">
        <ele>2461.1100000000001</ele>
        <time>2021-08-01T09:57:06Z</time>
      </trkpt>
      <trkpt lat="46.424629585817456" lon="8.352413959801197">
        <ele>2462.5500000000002</ele>
        <time>2021-08-01T09:57:14Z</time>
      </trkpt>
      <trkpt lat="46.424603518098593" lon="8.352367775514722">
        <ele>2465.4400000000001</ele>
        <time>2021-08-01T09:57:26Z</time>
      </trkpt>
      <trkpt lat="46.424592453986406" lon="8.352354280650616">
        <ele>2466.8800000000001</ele>
        <time>2021-08-01T09:57:41Z</time>
      </trkpt>
      <trkpt lat="46.424588179215789" lon="8.352347994223237">
        <ele>2467.3600000000001</ele>
        <time>2021-08-01T09:57:58Z</time>
      </trkpt>
      <trkpt lat="46.42455842345953" lon="8.352315975353122">
        <ele>2468.3200000000002</ele>
        <time>2021-08-01T09:58:08Z</time>
      </trkpt>
      <trkpt lat="46.424486339092255" lon="8.352311449125409">
        <ele>2468.8000000000002</ele>
        <time>2021-08-01T09:58:18Z</time>
      </trkpt>
      <trkpt lat="46.424447698518634" lon="8.352295439690352">
        <ele>2469.7600000000002</ele>
        <time>2021-08-01T09:58:26Z</time>
      </trkpt>
      <trkpt lat="46.424412243068218" lon="8.352246657013893">
        <ele>2471.21</ele>
        <time>2021-08-01T09:58:36Z</time>
      </trkpt>
      <trkpt lat="46.424387348815799" lon="8.352217236533761">
        <ele>2473.1300000000001</ele>
        <time>2021-08-01T09:58:52Z</time>
      </trkpt>
      <trkpt lat="46.424324735999107" lon="8.352191420271993">
        <ele>2473.6100000000001</ele>
        <time>2021-08-01T09:59:05Z</time>
      </trkpt>
      <trkpt lat="46.424273774027824" lon="8.352149343118072">
        <ele>2475.0500000000002</ele>
        <time>2021-08-01T09:59:16Z</time>
      </trkpt>
      <trkpt lat="46.424238653853536" lon="8.352066781371832">
        <ele>2476.4899999999998</ele>
        <time>2021-08-01T09:59:27Z</time>
      </trkpt>
      <trkpt lat="46.42420663498342" lon="8.351954547688365">
        <ele>2476.9699999999998</ele>
        <time>2021-08-01T09:59:39Z</time>
      </trkpt>
      <trkpt lat="46.424169586971402" lon="8.351849690079689">
        <ele>2476.9699999999998</ele>
        <time>2021-08-01T09:59:50Z</time>
      </trkpt>
      <trkpt lat="46.424116780981421" lon="8.351710299029946">
        <ele>2476.9699999999998</ele>
        <time>2021-08-01T10:00:04Z</time>
      </trkpt>
      <trkpt lat="46.424072273075581" lon="8.351625138893724">
        <ele>2478.4200000000001</ele>
        <time>2021-08-01T10:00:15Z</time>
      </trkpt>
      <trkpt lat="46.424030782654881" lon="8.35153553634882">
        <ele>2478.9000000000001</ele>
        <time>2021-08-01T10:00:24Z</time>
      </trkpt>
      <trkpt lat="46.423990465700626" lon="8.351463451981545">
        <ele>2479.3800000000001</ele>
        <time>2021-08-01T10:00:34Z</time>
      </trkpt>
      <trkpt lat="46.423925086855888" lon="8.351407293230295">
        <ele>2480.8200000000002</ele>
        <time>2021-08-01T10:00:46Z</time>
      </trkpt>
      <trkpt lat="46.423901533707976" lon="8.351389691233635">
        <ele>2480.8200000000002</ele>
        <time>2021-08-01T10:00:59Z</time>
      </trkpt>
      <trkpt lat="46.423874041065574" lon="8.351370496675372">
        <ele>2480.8200000000002</ele>
        <time>2021-08-01T10:01:14Z</time>
      </trkpt>
      <trkpt lat="46.423843195661902" lon="8.351324396207929">
        <ele>2481.7800000000002</ele>
        <time>2021-08-01T10:01:29Z</time>
      </trkpt>
      <trkpt lat="46.423834143206477" lon="8.351301932707429">
        <ele>2481.7800000000002</ele>
        <time>2021-08-01T10:01:31Z</time>
      </trkpt>
      <trkpt lat="46.423781253397465" lon="8.351161368191242">
        <ele>2481.7800000000002</ele>
        <time>2021-08-01T10:01:42Z</time>
      </trkpt>
      <trkpt lat="46.423705983906984" lon="8.351018456742168">
        <ele>2481.7800000000002</ele>
        <time>2021-08-01T10:01:54Z</time>
      </trkpt>
      <trkpt lat="46.423633648082614" lon="8.350904965773225">
        <ele>2481.7800000000002</ele>
        <time>2021-08-01T10:02:05Z</time>
      </trkpt>
      <trkpt lat="46.423550331965089" lon="8.350831875577569">
        <ele>2481.7800000000002</ele>
        <time>2021-08-01T10:02:16Z</time>
      </trkpt>
      <trkpt lat="46.423465088009834" lon="8.350789379328489">
        <ele>2481.3000000000002</ele>
        <time>2021-08-01T10:02:27Z</time>
      </trkpt>
      <trkpt lat="46.423423094674945" lon="8.350771274417639">
        <ele>2480.8200000000002</ele>
        <time>2021-08-01T10:02:36Z</time>
      </trkpt>
      <trkpt lat="46.423420077189803" lon="8.350775633007288">
        <ele>2480.8200000000002</ele>
        <time>2021-08-01T10:02:49Z</time>
      </trkpt>
      <trkpt lat="46.423428375273943" lon="8.350772699341178">
        <ele>2480.8200000000002</ele>
        <time>2021-08-01T10:03:04Z</time>
      </trkpt>
      <trkpt lat="46.423421083018184" lon="8.35076498799026">
        <ele>2480.8200000000002</ele>
        <time>2021-08-01T10:03:25Z</time>
      </trkpt>
      <trkpt lat="46.423410186544061" lon="8.350753672420979">
        <ele>2480.8200000000002</ele>
        <time>2021-08-01T10:03:34Z</time>
      </trkpt>
      <trkpt lat="46.423391662538052" lon="8.350759791210294">
        <ele>2480.8200000000002</ele>
        <time>2021-08-01T10:03:59Z</time>
      </trkpt>
      <trkpt lat="46.423308178782463" lon="8.350801197811961">
        <ele>2479.8600000000001</ele>
        <time>2021-08-01T10:04:09Z</time>
      </trkpt>
      <trkpt lat="46.423232238739729" lon="8.35084562189877">
        <ele>2480.3400000000001</ele>
        <time>2021-08-01T10:04:20Z</time>
      </trkpt>
      <trkpt lat="46.423196531832218" lon="8.350892141461372">
        <ele>2480.8200000000002</ele>
        <time>2021-08-01T10:04:38Z</time>
      </trkpt>
      <trkpt lat="46.423190329223871" lon="8.350903121754527">
        <ele>2480.3400000000001</ele>
        <time>2021-08-01T10:04:39Z</time>
      </trkpt>
      <trkpt lat="46.423147665336728" lon="8.351019127294421">
        <ele>2480.8200000000002</ele>
        <time>2021-08-01T10:04:50Z</time>
      </trkpt>
      <trkpt lat="46.423142636194825" lon="8.351071933284402">
        <ele>2482.2600000000002</ele>
        <time>2021-08-01T10:05:01Z</time>
      </trkpt>
      <trkpt lat="46.423123273998499" lon="8.35117687471211">
        <ele>2483.2199999999998</ele>
        <time>2021-08-01T10:05:11Z</time>
      </trkpt>
      <trkpt lat="46.42310868948698" lon="8.351285336539149">
        <ele>2486.1100000000001</ele>
        <time>2021-08-01T10:05:22Z</time>
      </trkpt>
      <trkpt lat="46.423119585961103" lon="8.351349541917443">
        <ele>2487.5500000000002</ele>
        <time>2021-08-01T10:05:29Z</time>
      </trkpt>
      <trkpt lat="46.423134170472622" lon="8.351376531645656">
        <ele>2488.9899999999998</ele>
        <time>2021-08-01T10:05:38Z</time>
      </trkpt>
      <trkpt lat="46.423151353374124" lon="8.351411148905754">
        <ele>2489.4699999999998</ele>
        <time>2021-08-01T10:05:46Z</time>
      </trkpt>
      <trkpt lat="46.423186641186476" lon="8.351433277130127">
        <ele>2490.4299999999998</ele>
        <time>2021-08-01T10:05:54Z</time>
      </trkpt>
      <trkpt lat="46.423259982839227" lon="8.351474348455668">
        <ele>2490.9099999999999</ele>
        <time>2021-08-01T10:06:04Z</time>
      </trkpt>
      <trkpt lat="46.423268532380462" lon="8.351495554670692">
        <ele>2491.3899999999999</ele>
        <time>2021-08-01T10:06:06Z</time>
      </trkpt>
      <trkpt lat="46.423278674483299" lon="8.35155607201159">
        <ele>2492.3600000000001</ele>
        <time>2021-08-01T10:06:16Z</time>
      </trkpt>
      <trkpt lat="46.423278590664268" lon="8.351561771705747">
        <ele>2492.3600000000001</ele>
        <time>2021-08-01T10:06:49Z</time>
      </trkpt>
      <trkpt lat="46.423282865434885" lon="8.351631592959166">
        <ele>2492.8400000000001</ele>
        <time>2021-08-01T10:06:59Z</time>
      </trkpt>
      <trkpt lat="46.423289068043232" lon="8.351748436689377">
        <ele>2493.3200000000002</ele>
        <time>2021-08-01T10:07:11Z</time>
      </trkpt>
      <trkpt lat="46.423285631462932" lon="8.351824963465333">
        <ele>2495.2399999999998</ele>
        <time>2021-08-01T10:07:21Z</time>
      </trkpt>
      <trkpt lat="46.423291582614183" lon="8.351893778890371">
        <ele>2497.6399999999999</ele>
        <time>2021-08-01T10:07:34Z</time>
      </trkpt>
      <trkpt lat="46.423294432461262" lon="8.351905178278685">
        <ele>2499.5700000000002</ele>
        <time>2021-08-01T10:07:48Z</time>
      </trkpt>
      <trkpt lat="46.423302898183465" lon="8.351962426677346">
        <ele>2501.0100000000002</ele>
        <time>2021-08-01T10:07:59Z</time>
      </trkpt>
      <trkpt lat="46.423305748030543" lon="8.352016657590866">
        <ele>2502.4499999999998</ele>
        <time>2021-08-01T10:08:08Z</time>
      </trkpt>
      <trkpt lat="46.423307089135051" lon="8.352066865190864">
        <ele>2504.3699999999999</ele>
        <time>2021-08-01T10:08:18Z</time>
      </trkpt>
      <trkpt lat="46.423273226246238" lon="8.352086395025253">
        <ele>2505.3299999999999</ele>
        <time>2021-08-01T10:08:28Z</time>
      </trkpt>
      <trkpt lat="46.423246236518025" lon="8.35210919380188">
        <ele>2506.77</ele>
        <time>2021-08-01T10:08:35Z</time>
      </trkpt>
      <trkpt lat="46.423235340043902" lon="8.352130148559809">
        <ele>2508.2199999999998</ele>
        <time>2021-08-01T10:08:44Z</time>
      </trkpt>
      <trkpt lat="46.423211870715022" lon="8.35216635838151">
        <ele>2510.1399999999999</ele>
        <time>2021-08-01T10:08:55Z</time>
      </trkpt>
      <trkpt lat="46.423194939270616" lon="8.352199131622911">
        <ele>2511.5799999999999</ele>
        <time>2021-08-01T10:09:04Z</time>
      </trkpt>
      <trkpt lat="46.423162082210183" lon="8.352242046967149">
        <ele>2513.02</ele>
        <time>2021-08-01T10:09:15Z</time>
      </trkpt>
      <trkpt lat="46.423112126067281" lon="8.352223690599203">
        <ele>2514.4699999999998</ele>
        <time>2021-08-01T10:09:25Z</time>
      </trkpt>
      <trkpt lat="46.423077089712024" lon="8.352200472727418">
        <ele>2516.8699999999999</ele>
        <time>2021-08-01T10:09:35Z</time>
      </trkpt>
      <trkpt lat="46.42307985574007" lon="8.352200975641608">
        <ele>2517.3499999999999</ele>
        <time>2021-08-01T10:09:56Z</time>
      </trkpt>
      <trkpt lat="46.423078430816531" lon="8.352199047803879">
        <ele>2517.3499999999999</ele>
        <time>2021-08-01T10:10:29Z</time>
      </trkpt>
      <trkpt lat="46.423055296763778" lon="8.352201227098703">
        <ele>2517.3499999999999</ele>
        <time>2021-08-01T10:10:38Z</time>
      </trkpt>
      <trkpt lat="46.423056554049253" lon="8.352198963984847">
        <ele>2517.3499999999999</ele>
        <time>2021-08-01T10:11:06Z</time>
      </trkpt>
      <trkpt lat="46.423057224601507" lon="8.352197119966149">
        <ele>2517.3499999999999</ele>
        <time>2021-08-01T10:11:25Z</time>
      </trkpt>
      <trkpt lat="46.423059068620205" lon="8.352196197956801">
        <ele>2517.3499999999999</ele>
        <time>2021-08-01T10:11:49Z</time>
      </trkpt>
      <trkpt lat="46.42304414883256" lon="8.352208435535431">
        <ele>2517.3499999999999</ele>
        <time>2021-08-01T10:11:59Z</time>
      </trkpt>
      <trkpt lat="46.423039035871625" lon="8.352208770811558">
        <ele>2517.3499999999999</ele>
        <time>2021-08-01T10:12:04Z</time>
      </trkpt>
      <trkpt lat="46.422996623441577" lon="8.35220692679286">
        <ele>2517.3499999999999</ele>
        <time>2021-08-01T10:12:13Z</time>
      </trkpt>
      <trkpt lat="46.422939458861947" lon="8.352200137451291">
        <ele>2517.3499999999999</ele>
        <time>2021-08-01T10:12:22Z</time>
      </trkpt>
      <trkpt lat="46.422886988148093" lon="8.352172980085015">
        <ele>2517.3499999999999</ele>
        <time>2021-08-01T10:12:33Z</time>
      </trkpt>
      <trkpt lat="46.42285848967731" lon="8.352157641202211">
        <ele>2517.3499999999999</ele>
        <time>2021-08-01T10:12:40Z</time>
      </trkpt>
      <trkpt lat="46.42285262234509" lon="8.35215856321156">
        <ele>2520.71</ele>
        <time>2021-08-01T10:12:41Z</time>
      </trkpt>
      <trkpt lat="46.422846838831902" lon="8.352160071954131">
        <ele>2521.1900000000001</ele>
        <time>2021-08-01T10:12:42Z</time>
      </trkpt>
      <trkpt lat="46.422782884910703" lon="8.3521634247154">
        <ele>2522.6399999999999</ele>
        <time>2021-08-01T10:12:54Z</time>
      </trkpt>
      <trkpt lat="46.42274466343224" lon="8.352178428322077">
        <ele>2524.0799999999999</ele>
        <time>2021-08-01T10:13:02Z</time>
      </trkpt>
      <trkpt lat="46.42269579693675" lon="8.352195275947452">
        <ele>2526.96</ele>
        <time>2021-08-01T10:13:12Z</time>
      </trkpt>
      <trkpt lat="46.422661934047937" lon="8.352188570424914">
        <ele>2528.8899999999999</ele>
        <time>2021-08-01T10:13:21Z</time>
      </trkpt>
      <trkpt lat="46.422661431133747" lon="8.352198377251625">
        <ele>2529.8499999999999</ele>
        <time>2021-08-01T10:13:43Z</time>
      </trkpt>
      <trkpt lat="46.422664532437921" lon="8.352199969813228">
        <ele>2530.3299999999999</ele>
        <time>2021-08-01T10:14:05Z</time>
      </trkpt>
      <trkpt lat="46.422650869935751" lon="8.352201394736767">
        <ele>2531.29</ele>
        <time>2021-08-01T10:14:37Z</time>
      </trkpt>
      <trkpt lat="46.422613235190511" lon="8.352199299260974">
        <ele>2533.21</ele>
        <time>2021-08-01T10:14:47Z</time>
      </trkpt>
      <trkpt lat="46.422578785568476" lon="8.352212039753795">
        <ele>2534.1700000000001</ele>
        <time>2021-08-01T10:14:54Z</time>
      </trkpt>
      <trkpt lat="46.422549784183502" lon="8.352247579023242">
        <ele>2535.1300000000001</ele>
        <time>2021-08-01T10:15:03Z</time>
      </trkpt>
      <trkpt lat="46.422520279884338" lon="8.352255541831255">
        <ele>2536.5799999999999</ele>
        <time>2021-08-01T10:15:10Z</time>
      </trkpt>
      <trkpt lat="46.422499660402536" lon="8.352288147434592">
        <ele>2537.0599999999999</ele>
        <time>2021-08-01T10:15:19Z</time>
      </trkpt>
      <trkpt lat="46.422453392297029" lon="8.352313041687012">
        <ele>2538.98</ele>
        <time>2021-08-01T10:15:26Z</time>
      </trkpt>
      <trkpt lat="46.422384576871991" lon="8.352314634248614">
        <ele>2541.8600000000001</ele>
        <time>2021-08-01T10:15:36Z</time>
      </trkpt>
      <trkpt lat="46.422383151948452" lon="8.352365596219897">
        <ele>2540.4200000000001</ele>
        <time>2021-08-01T10:15:43Z</time>
      </trkpt>
      <trkpt lat="46.42234836705029" lon="8.352424772456288">
        <ele>2542.8200000000002</ele>
        <time>2021-08-01T10:15:52Z</time>
      </trkpt>
      <trkpt lat="46.422290867194533" lon="8.352391077205539">
        <ele>2544.75</ele>
        <time>2021-08-01T10:16:02Z</time>
      </trkpt>
      <trkpt lat="46.422258429229259" lon="8.352347072213888">
        <ele>2546.1900000000001</ele>
        <time>2021-08-01T10:16:11Z</time>
      </trkpt>
      <trkpt lat="46.422247281298041" lon="8.352329218760133">
        <ele>2546.1900000000001</ele>
        <time>2021-08-01T10:16:26Z</time>
      </trkpt>
      <trkpt lat="46.422212077304721" lon="8.352324273437262">
        <ele>2546.1900000000001</ele>
        <time>2021-08-01T10:16:37Z</time>
      </trkpt>
      <trkpt lat="46.422209395095706" lon="8.352325698360801">
        <ele>2545.71</ele>
        <time>2021-08-01T10:16:54Z</time>
      </trkpt>
      <trkpt lat="46.422230685129762" lon="8.352310275658965">
        <ele>2545.23</ele>
        <time>2021-08-01T10:17:08Z</time>
      </trkpt>
      <trkpt lat="46.422263961285353" lon="8.352329889312387">
        <ele>2544.27</ele>
        <time>2021-08-01T10:17:18Z</time>
      </trkpt>
      <trkpt lat="46.422243425622582" lon="8.352314718067646">
        <ele>2544.75</ele>
        <time>2021-08-01T10:17:36Z</time>
      </trkpt>
      <trkpt lat="46.422189278528094" lon="8.352303570136428">
        <ele>2544.75</ele>
        <time>2021-08-01T10:17:42Z</time>
      </trkpt>
      <trkpt lat="46.422083331272006" lon="8.352295272052288">
        <ele>2544.27</ele>
        <time>2021-08-01T10:17:53Z</time>
      </trkpt>
      <trkpt lat="46.421948550269008" lon="8.352309856563807">
        <ele>2543.79</ele>
        <time>2021-08-01T10:18:05Z</time>
      </trkpt>
      <trkpt lat="46.421822570264339" lon="8.35230122320354">
        <ele>2543.79</ele>
        <time>2021-08-01T10:18:18Z</time>
      </trkpt>
      <trkpt lat="46.421659290790558" lon="8.352336091920734">
        <ele>2543.79</ele>
        <time>2021-08-01T10:18:33Z</time>
      </trkpt>
      <trkpt lat="46.42153674736619" lon="8.352419743314385">
        <ele>2543.3099999999999</ele>
        <time>2021-08-01T10:18:45Z</time>
      </trkpt>
      <trkpt lat="46.421425770968199" lon="8.352510686963797">
        <ele>2542.8200000000002</ele>
        <time>2021-08-01T10:18:57Z</time>
      </trkpt>
      <trkpt lat="46.421284368261695" lon="8.352613616734743">
        <ele>2542.8200000000002</ele>
        <time>2021-08-01T10:19:11Z</time>
      </trkpt>
      <trkpt lat="46.421157382428646" lon="8.352700956165791">
        <ele>2542.3400000000001</ele>
        <time>2021-08-01T10:19:24Z</time>
      </trkpt>
      <trkpt lat="46.421045232564211" lon="8.352771028876305">
        <ele>2542.3400000000001</ele>
        <time>2021-08-01T10:19:36Z</time>
      </trkpt>
      <trkpt lat="46.420909697189927" lon="8.352830624207854">
        <ele>2542.8200000000002</ele>
        <time>2021-08-01T10:19:50Z</time>
      </trkpt>
      <trkpt lat="46.420807521790266" lon="8.352877981960774">
        <ele>2542.8200000000002</ele>
        <time>2021-08-01T10:20:02Z</time>
      </trkpt>
      <trkpt lat="46.420776173472404" lon="8.352879993617535">
        <ele>2542.8200000000002</ele>
        <time>2021-08-01T10:20:09Z</time>
      </trkpt>
      <trkpt lat="46.420744322240353" lon="8.352908324450254">
        <ele>2542.3400000000001</ele>
        <time>2021-08-01T10:20:18Z</time>
      </trkpt>
      <trkpt lat="46.420734850689769" lon="8.35291494615376">
        <ele>2542.8200000000002</ele>
        <time>2021-08-01T10:20:30Z</time>
      </trkpt>
      <trkpt lat="46.42072755843401" lon="8.352923495694995">
        <ele>2542.8200000000002</ele>
        <time>2021-08-01T10:20:35Z</time>
      </trkpt>
      <trkpt lat="46.420721439644694" lon="8.352930871769786">
        <ele>2542.8200000000002</ele>
        <time>2021-08-01T10:20:36Z</time>
      </trkpt>
      <trkpt lat="46.420712890103459" lon="8.352937996387482">
        <ele>2542.8200000000002</ele>
        <time>2021-08-01T10:20:37Z</time>
      </trkpt>
      <trkpt lat="46.420702748000622" lon="8.35294428281486">
        <ele>2542.8200000000002</ele>
        <time>2021-08-01T10:20:38Z</time>
      </trkpt>
      <trkpt lat="46.420639380812645" lon="8.352990131825209">
        <ele>2542.8200000000002</ele>
        <time>2021-08-01T10:20:48Z</time>
      </trkpt>
      <trkpt lat="46.42062739469111" lon="8.352995663881302">
        <ele>2542.8200000000002</ele>
        <time>2021-08-01T10:21:00Z</time>
      </trkpt>
      <trkpt lat="46.420612726360559" lon="8.352998094633222">
        <ele>2542.8200000000002</ele>
        <time>2021-08-01T10:21:06Z</time>
      </trkpt>
      <trkpt lat="46.420607445761561" lon="8.353009074926376">
        <ele>2542.3400000000001</ele>
        <time>2021-08-01T10:21:21Z</time>
      </trkpt>
      <trkpt lat="46.420611133798957" lon="8.353008152917028">
        <ele>2542.8200000000002</ele>
        <time>2021-08-01T10:21:37Z</time>
      </trkpt>
      <trkpt lat="46.420587999746203" lon="8.353020893409848">
        <ele>2542.8200000000002</ele>
        <time>2021-08-01T10:21:52Z</time>
      </trkpt>
      <trkpt lat="46.420583054423332" lon="8.353031286969781">
        <ele>2542.8200000000002</ele>
        <time>2021-08-01T10:22:02Z</time>
      </trkpt>
      <trkpt lat="46.420564027503133" lon="8.353047799319029">
        <ele>2542.8200000000002</ele>
        <time>2021-08-01T10:22:05Z</time>
      </trkpt>
      <trkpt lat="46.420559165999293" lon="8.353058360517025">
        <ele>2542.8200000000002</ele>
        <time>2021-08-01T10:22:06Z</time>
      </trkpt>
      <trkpt lat="46.420523626729846" lon="8.353087026625872">
        <ele>2542.8200000000002</ele>
        <time>2021-08-01T10:22:10Z</time>
      </trkpt>
      <trkpt lat="46.420463947579265" lon="8.353142095729709">
        <ele>2542.8200000000002</ele>
        <time>2021-08-01T10:22:19Z</time>
      </trkpt>
      <trkpt lat="46.420465288683772" lon="8.353140335530043">
        <ele>2542.8200000000002</ele>
        <time>2021-08-01T10:22:33Z</time>
      </trkpt>
      <trkpt lat="46.420454559847713" lon="8.353145448490977">
        <ele>2543.3099999999999</ele>
        <time>2021-08-01T10:22:45Z</time>
      </trkpt>
      <trkpt lat="46.420451374724507" lon="8.353173863142729">
        <ele>2542.3400000000001</ele>
        <time>2021-08-01T10:22:57Z</time>
      </trkpt>
      <trkpt lat="46.420451374724507" lon="8.353175539523363">
        <ele>2540.9000000000001</ele>
        <time>2021-08-01T10:23:10Z</time>
      </trkpt>
      <trkpt lat="46.420450117439032" lon="8.353169756010175">
        <ele>2542.8200000000002</ele>
        <time>2021-08-01T10:23:14Z</time>
      </trkpt>
      <trkpt lat="46.420462355017662" lon="8.353150226175785">
        <ele>2542.3400000000001</ele>
        <time>2021-08-01T10:23:22Z</time>
      </trkpt>
      <trkpt lat="46.420460175722837" lon="8.353145448490977">
        <ele>2541.8600000000001</ele>
        <time>2021-08-01T10:23:42Z</time>
      </trkpt>
      <trkpt lat="46.420474341139197" lon="8.35316363722086">
        <ele>2542.3400000000001</ele>
        <time>2021-08-01T10:23:52Z</time>
      </trkpt>
      <trkpt lat="46.420492278411984" lon="8.353183250874281">
        <ele>2542.3400000000001</ele>
        <time>2021-08-01T10:24:07Z</time>
      </trkpt>
      <trkpt lat="46.420496050268412" lon="8.353186016902328">
        <ele>2542.8200000000002</ele>
        <time>2021-08-01T10:24:47Z</time>
      </trkpt>
      <trkpt lat="46.420494373887777" lon="8.353189872577786">
        <ele>2542.3400000000001</ele>
        <time>2021-08-01T10:25:43Z</time>
      </trkpt>
      <trkpt lat="46.420490350574255" lon="8.353191046044231">
        <ele>2542.3400000000001</ele>
        <time>2021-08-01T10:26:40Z</time>
      </trkpt>
      <trkpt lat="46.420488590374589" lon="8.353193225339055">
        <ele>2542.3400000000001</ele>
        <time>2021-08-01T10:27:35Z</time>
      </trkpt>
      <trkpt lat="46.42048959620297" lon="8.353193644434214">
        <ele>2542.3400000000001</ele>
        <time>2021-08-01T10:28:35Z</time>
      </trkpt>
      <trkpt lat="46.42048959620297" lon="8.35319247096777">
        <ele>2542.3400000000001</ele>
        <time>2021-08-01T10:29:42Z</time>
      </trkpt>
      <trkpt lat="46.420491440221667" lon="8.353192135691643">
        <ele>2542.3400000000001</ele>
        <time>2021-08-01T10:30:37Z</time>
      </trkpt>
      <trkpt lat="46.42049252986908" lon="8.353193979710341">
        <ele>2542.3400000000001</ele>
        <time>2021-08-01T10:31:28Z</time>
      </trkpt>
      <trkpt lat="46.420491691678762" lon="8.353194650262594">
        <ele>2542.3400000000001</ele>
        <time>2021-08-01T10:32:10Z</time>
      </trkpt>
      <trkpt lat="46.420489931479096" lon="8.353194817900658">
        <ele>2542.3400000000001</ele>
        <time>2021-08-01T10:33:06Z</time>
      </trkpt>
      <trkpt lat="46.420488925650716" lon="8.353191465139389">
        <ele>2542.3400000000001</ele>
        <time>2021-08-01T10:34:05Z</time>
      </trkpt>
      <trkpt lat="46.420488925650716" lon="8.35318953730166">
        <ele>2542.3400000000001</ele>
        <time>2021-08-01T10:34:53Z</time>
      </trkpt>
      <trkpt lat="46.420490769669414" lon="8.353186268359423">
        <ele>2542.3400000000001</ele>
        <time>2021-08-01T10:35:51Z</time>
      </trkpt>
      <trkpt lat="46.420492781326175" lon="8.353185262531042">
        <ele>2542.3400000000001</ele>
        <time>2021-08-01T10:36:30Z</time>
      </trkpt>
      <trkpt lat="46.420493954792619" lon="8.353186184540391">
        <ele>2542.3400000000001</ele>
        <time>2021-08-01T10:37:17Z</time>
      </trkpt>
      <trkpt lat="46.420495631173253" lon="8.353187190368772">
        <ele>2542.3400000000001</ele>
        <time>2021-08-01T10:38:06Z</time>
      </trkpt>
      <trkpt lat="46.420495044440031" lon="8.353187358006835">
        <ele>2542.3400000000001</ele>
        <time>2021-08-01T10:39:00Z</time>
      </trkpt>
      <trkpt lat="46.420491440221667" lon="8.353187525644898">
        <ele>2542.3400000000001</ele>
        <time>2021-08-01T10:40:03Z</time>
      </trkpt>
      <trkpt lat="46.420488590374589" lon="8.353187944740057">
        <ele>2542.3400000000001</ele>
        <time>2021-08-01T10:40:53Z</time>
      </trkpt>
      <trkpt lat="46.420486075803638" lon="8.353189118206501">
        <ele>2542.3400000000001</ele>
        <time>2021-08-01T10:41:44Z</time>
      </trkpt>
      <trkpt lat="46.420483477413654" lon="8.35318953730166">
        <ele>2542.3400000000001</ele>
        <time>2021-08-01T10:42:30Z</time>
      </trkpt>
      <trkpt lat="46.420477945357561" lon="8.35319004021585">
        <ele>2542.3400000000001</ele>
        <time>2021-08-01T10:43:24Z</time>
      </trkpt>
      <trkpt lat="46.420474257320166" lon="8.353191046044231">
        <ele>2542.3400000000001</ele>
        <time>2021-08-01T10:44:17Z</time>
      </trkpt>
      <trkpt lat="46.420473586767912" lon="8.353191465139389">
        <ele>2542.3400000000001</ele>
        <time>2021-08-01T10:45:09Z</time>
      </trkpt>
      <trkpt lat="46.420473083853722" lon="8.353192387148738">
        <ele>2542.3400000000001</ele>
        <time>2021-08-01T10:46:00Z</time>
      </trkpt>
      <trkpt lat="46.420474173501134" lon="8.353190794587135">
        <ele>2542.3400000000001</ele>
        <time>2021-08-01T10:46:43Z</time>
      </trkpt>
      <trkpt lat="46.420478196814656" lon="8.353187944740057">
        <ele>2542.3400000000001</ele>
        <time>2021-08-01T10:47:39Z</time>
      </trkpt>
      <trkpt lat="46.420481381937861" lon="8.353186771273613">
        <ele>2542.3400000000001</ele>
        <time>2021-08-01T10:48:38Z</time>
      </trkpt>
      <trkpt lat="46.420480795204639" lon="8.353188196197152">
        <ele>2542.3400000000001</ele>
        <time>2021-08-01T10:49:39Z</time>
      </trkpt>
      <trkpt lat="46.420479118824005" lon="8.353186519816518">
        <ele>2542.3400000000001</ele>
        <time>2021-08-01T10:50:16Z</time>
      </trkpt>
      <trkpt lat="46.420480124652386" lon="8.353185681626201">
        <ele>2542.3400000000001</ele>
        <time>2021-08-01T10:51:13Z</time>
      </trkpt>
      <trkpt lat="46.420481633394957" lon="8.353184843435884">
        <ele>2542.3400000000001</ele>
        <time>2021-08-01T10:52:06Z</time>
      </trkpt>
      <trkpt lat="46.420480795204639" lon="8.353183083236218">
        <ele>2542.3400000000001</ele>
        <time>2021-08-01T10:53:18Z</time>
      </trkpt>
      <trkpt lat="46.420476520434022" lon="8.353185849264264">
        <ele>2542.3400000000001</ele>
        <time>2021-08-01T10:54:09Z</time>
      </trkpt>
      <trkpt lat="46.420470234006643" lon="8.353190626949072">
        <ele>2542.3400000000001</ele>
        <time>2021-08-01T10:54:58Z</time>
      </trkpt>
      <trkpt lat="46.420466545969248" lon="8.353192638605833">
        <ele>2542.3400000000001</ele>
        <time>2021-08-01T10:55:54Z</time>
      </trkpt>
      <trkpt lat="46.420467970892787" lon="8.353188782930374">
        <ele>2542.3400000000001</ele>
        <time>2021-08-01T10:56:48Z</time>
      </trkpt>
      <trkpt lat="46.420469982549548" lon="8.353185849264264">
        <ele>2542.3400000000001</ele>
        <time>2021-08-01T10:57:39Z</time>
      </trkpt>
      <trkpt lat="46.420471491292119" lon="8.35318517871201">
        <ele>2542.3400000000001</ele>
        <time>2021-08-01T10:58:38Z</time>
      </trkpt>
      <trkpt lat="46.420472161844373" lon="8.353185765445232">
        <ele>2542.3400000000001</ele>
        <time>2021-08-01T10:59:23Z</time>
      </trkpt>
      <trkpt lat="46.420473754405975" lon="8.35318467579782">
        <ele>2542.3400000000001</ele>
        <time>2021-08-01T11:00:07Z</time>
      </trkpt>
      <trkpt lat="46.420474927872419" lon="8.353183921426535">
        <ele>2542.3400000000001</ele>
        <time>2021-08-01T11:00:47Z</time>
      </trkpt>
      <trkpt lat="46.420477442443371" lon="8.353184089064598">
        <ele>2542.3400000000001</ele>
        <time>2021-08-01T11:01:29Z</time>
      </trkpt>
      <trkpt lat="46.420481381937861" lon="8.353185346350074">
        <ele>2542.3400000000001</ele>
        <time>2021-08-01T11:02:36Z</time>
      </trkpt>
      <trkpt lat="46.420484064146876" lon="8.353185262531042">
        <ele>2542.3400000000001</ele>
        <time>2021-08-01T11:03:23Z</time>
      </trkpt>
      <trkpt lat="46.420485824346542" lon="8.353185094892979">
        <ele>2542.3400000000001</ele>
        <time>2021-08-01T11:04:02Z</time>
      </trkpt>
      <trkpt lat="46.420486327260733" lon="8.353186435997486">
        <ele>2542.3400000000001</ele>
        <time>2021-08-01T11:04:53Z</time>
      </trkpt>
      <trkpt lat="46.420483477413654" lon="8.353189788758755">
        <ele>2542.3400000000001</ele>
        <time>2021-08-01T11:05:44Z</time>
      </trkpt>
      <trkpt lat="46.420481381937861" lon="8.353190962225199">
        <ele>2542.3400000000001</ele>
        <time>2021-08-01T11:06:27Z</time>
      </trkpt>
      <trkpt lat="46.4204793702811" lon="8.353191381320357">
        <ele>2542.3400000000001</ele>
        <time>2021-08-01T11:07:05Z</time>
      </trkpt>
      <trkpt lat="46.420477861538529" lon="8.353190291672945">
        <ele>2542.3400000000001</ele>
        <time>2021-08-01T11:07:37Z</time>
      </trkpt>
      <trkpt lat="46.420476185157895" lon="8.353188950568438">
        <ele>2542.3400000000001</ele>
        <time>2021-08-01T11:08:16Z</time>
      </trkpt>
      <trkpt lat="46.4204724971205" lon="8.353188699111342">
        <ele>2542.3400000000001</ele>
        <time>2021-08-01T11:09:16Z</time>
      </trkpt>
      <trkpt lat="46.420470988377929" lon="8.353186016902328">
        <ele>2542.3400000000001</ele>
        <time>2021-08-01T11:10:34Z</time>
      </trkpt>
      <trkpt lat="46.420471742749214" lon="8.353182999417186">
        <ele>2542.3400000000001</ele>
        <time>2021-08-01T11:11:58Z</time>
      </trkpt>
      <trkpt lat="46.420472664758563" lon="8.353184340521693">
        <ele>2542.3400000000001</ele>
        <time>2021-08-01T11:12:57Z</time>
      </trkpt>
      <trkpt lat="46.420472664758563" lon="8.353187274187803">
        <ele>2542.3400000000001</ele>
        <time>2021-08-01T11:13:58Z</time>
      </trkpt>
      <trkpt lat="46.420473670586944" lon="8.353188363835216">
        <ele>2542.3400000000001</ele>
        <time>2021-08-01T11:14:49Z</time>
      </trkpt>
      <trkpt lat="46.420474676415324" lon="8.353190375491977">
        <ele>2542.3400000000001</ele>
        <time>2021-08-01T11:15:35Z</time>
      </trkpt>
      <trkpt lat="46.420475346967578" lon="8.353192638605833">
        <ele>2542.3400000000001</ele>
        <time>2021-08-01T11:16:18Z</time>
      </trkpt>
      <trkpt lat="46.420474927872419" lon="8.353190124034882">
        <ele>2542.3400000000001</ele>
        <time>2021-08-01T11:17:18Z</time>
      </trkpt>
      <trkpt lat="46.420474424958229" lon="8.353188950568438">
        <ele>2542.3400000000001</ele>
        <time>2021-08-01T11:18:06Z</time>
      </trkpt>
      <trkpt lat="46.420472748577595" lon="8.353187525644898">
        <ele>2542.3400000000001</ele>
        <time>2021-08-01T11:18:55Z</time>
      </trkpt>
      <trkpt lat="46.420472329482436" lon="8.353189369663596">
        <ele>2542.3400000000001</ele>
        <time>2021-08-01T11:19:42Z</time>
      </trkpt>
      <trkpt lat="46.420471156015992" lon="8.353193728253245">
        <ele>2542.3400000000001</ele>
        <time>2021-08-01T11:20:38Z</time>
      </trkpt>
      <trkpt lat="46.420471156015992" lon="8.353195488452911">
        <ele>2542.3400000000001</ele>
        <time>2021-08-01T11:21:43Z</time>
      </trkpt>
      <trkpt lat="46.420474760234356" lon="8.353194063529372">
        <ele>2542.3400000000001</ele>
        <time>2021-08-01T11:22:36Z</time>
      </trkpt>
      <trkpt lat="46.420477358624339" lon="8.353194398805499">
        <ele>2542.3400000000001</ele>
        <time>2021-08-01T11:23:17Z</time>
      </trkpt>
      <trkpt lat="46.420479873195291" lon="8.353198086842895">
        <ele>2542.3400000000001</ele>
        <time>2021-08-01T11:24:14Z</time>
      </trkpt>
      <trkpt lat="46.420479621738195" lon="8.353203618898988">
        <ele>2542.3400000000001</ele>
        <time>2021-08-01T11:25:24Z</time>
      </trkpt>
      <trkpt lat="46.420482052490115" lon="8.353201858699322">
        <ele>2542.3400000000001</ele>
        <time>2021-08-01T11:26:02Z</time>
      </trkpt>
      <trkpt lat="46.420484986156225" lon="8.353200433775783">
        <ele>2542.3400000000001</ele>
        <time>2021-08-01T11:26:55Z</time>
      </trkpt>
      <trkpt lat="46.420486159622669" lon="8.353198170661926">
        <ele>2542.3400000000001</ele>
        <time>2021-08-01T11:27:54Z</time>
      </trkpt>
      <trkpt lat="46.420485991984606" lon="8.353196661919355">
        <ele>2542.3400000000001</ele>
        <time>2021-08-01T11:29:14Z</time>
      </trkpt>
      <trkpt lat="46.420482387766242" lon="8.353196997195482">
        <ele>2542.3400000000001</ele>
        <time>2021-08-01T11:29:58Z</time>
      </trkpt>
      <trkpt lat="46.4204793702811" lon="8.353197919204831">
        <ele>2542.3400000000001</ele>
        <time>2021-08-01T11:30:37Z</time>
      </trkpt>
      <trkpt lat="46.420479537919164" lon="8.353197248652577">
        <ele>2542.3400000000001</ele>
        <time>2021-08-01T11:31:14Z</time>
      </trkpt>
      <trkpt lat="46.420479286462069" lon="8.353195823729038">
        <ele>2542.3400000000001</ele>
        <time>2021-08-01T11:32:02Z</time>
      </trkpt>
      <trkpt lat="46.420474592596292" lon="8.353192890062928">
        <ele>2542.3400000000001</ele>
        <time>2021-08-01T11:32:51Z</time>
      </trkpt>
      <trkpt lat="46.420471491292119" lon="8.353194398805499">
        <ele>2542.3400000000001</ele>
        <time>2021-08-01T11:33:39Z</time>
      </trkpt>
      <trkpt lat="46.420468892902136" lon="8.353196242824197">
        <ele>2542.3400000000001</ele>
        <time>2021-08-01T11:34:33Z</time>
      </trkpt>
      <trkpt lat="46.420467887073755" lon="8.353194817900658">
        <ele>2542.3400000000001</ele>
        <time>2021-08-01T11:35:29Z</time>
      </trkpt>
      <trkpt lat="46.420467551797628" lon="8.353193057700992">
        <ele>2542.3400000000001</ele>
        <time>2021-08-01T11:36:17Z</time>
      </trkpt>
      <trkpt lat="46.420468054711819" lon="8.35319004021585">
        <ele>2542.3400000000001</ele>
        <time>2021-08-01T11:36:52Z</time>
      </trkpt>
      <trkpt lat="46.42046763561666" lon="8.353186855092645">
        <ele>2542.3400000000001</ele>
        <time>2021-08-01T11:37:33Z</time>
      </trkpt>
      <trkpt lat="46.42046662978828" lon="8.353183167055249">
        <ele>2542.3400000000001</ele>
        <time>2021-08-01T11:38:16Z</time>
      </trkpt>
      <trkpt lat="46.420463863760233" lon="8.353174366056919">
        <ele>2542.3400000000001</ele>
        <time>2021-08-01T11:39:10Z</time>
      </trkpt>
      <trkpt lat="46.420468054711819" lon="8.353172689676285">
        <ele>2542.3400000000001</ele>
        <time>2021-08-01T11:39:48Z</time>
      </trkpt>
      <trkpt lat="46.420467887073755" lon="8.353171935304999">
        <ele>2542.3400000000001</ele>
        <time>2021-08-01T11:40:33Z</time>
      </trkpt>
      <trkpt lat="46.420469479635358" lon="8.353174617514014">
        <ele>2542.3400000000001</ele>
        <time>2021-08-01T11:41:25Z</time>
      </trkpt>
      <trkpt lat="46.420471826568246" lon="8.353174282237887">
        <ele>2542.3400000000001</ele>
        <time>2021-08-01T11:42:24Z</time>
      </trkpt>
      <trkpt lat="46.420471323654056" lon="8.353171097114682">
        <ele>2542.3400000000001</ele>
        <time>2021-08-01T11:43:23Z</time>
      </trkpt>
      <trkpt lat="46.420471239835024" lon="8.353165648877621">
        <ele>2542.3400000000001</ele>
        <time>2021-08-01T11:44:27Z</time>
      </trkpt>
      <trkpt lat="46.420470485463738" lon="8.353162296116352">
        <ele>2542.3400000000001</ele>
        <time>2021-08-01T11:45:22Z</time>
      </trkpt>
      <trkpt lat="46.420471658930182" lon="8.353162799030542">
        <ele>2542.3400000000001</ele>
        <time>2021-08-01T11:46:19Z</time>
      </trkpt>
      <trkpt lat="46.420470485463738" lon="8.353162882849574">
        <ele>2542.3400000000001</ele>
        <time>2021-08-01T11:47:14Z</time>
      </trkpt>
      <trkpt lat="46.420468473806977" lon="8.353165062144399">
        <ele>2542.3400000000001</ele>
        <time>2021-08-01T11:48:09Z</time>
      </trkpt>
      <trkpt lat="46.420466126874089" lon="8.353165816515684">
        <ele>2542.3400000000001</ele>
        <time>2021-08-01T11:48:56Z</time>
      </trkpt>
      <trkpt lat="46.42046662978828" lon="8.35316514596343">
        <ele>2542.3400000000001</ele>
        <time>2021-08-01T11:50:01Z</time>
      </trkpt>
      <trkpt lat="46.420471156015992" lon="8.353163385763764">
        <ele>2542.3400000000001</ele>
        <time>2021-08-01T11:50:58Z</time>
      </trkpt>
      <trkpt lat="46.420472916215658" lon="8.353165481239557">
        <ele>2542.3400000000001</ele>
        <time>2021-08-01T11:52:04Z</time>
      </trkpt>
      <trkpt lat="46.42047056928277" lon="8.353171097114682">
        <ele>2542.3400000000001</ele>
        <time>2021-08-01T11:53:19Z</time>
      </trkpt>
      <trkpt lat="46.420469144359231" lon="8.353173695504665">
        <ele>2542.3400000000001</ele>
        <time>2021-08-01T11:54:16Z</time>
      </trkpt>
      <trkpt lat="46.420467216521502" lon="8.353177132084966">
        <ele>2542.3400000000001</ele>
        <time>2021-08-01T11:55:15Z</time>
      </trkpt>
      <trkpt lat="46.420464953407645" lon="8.353180484846234">
        <ele>2542.3400000000001</ele>
        <time>2021-08-01T11:56:00Z</time>
      </trkpt>
      <trkpt lat="46.420463528484106" lon="8.353182496502996">
        <ele>2542.3400000000001</ele>
        <time>2021-08-01T11:56:40Z</time>
      </trkpt>
      <trkpt lat="46.420461935922503" lon="8.353184340521693">
        <ele>2542.3400000000001</ele>
        <time>2021-08-01T11:57:28Z</time>
      </trkpt>
      <trkpt lat="46.420460846275091" lon="8.353183418512344">
        <ele>2542.3400000000001</ele>
        <time>2021-08-01T11:58:29Z</time>
      </trkpt>
      <trkpt lat="46.420461433008313" lon="8.353180317208171">
        <ele>2542.3400000000001</ele>
        <time>2021-08-01T11:59:16Z</time>
      </trkpt>
      <trkpt lat="46.420463863760233" lon="8.353174282237887">
        <ele>2542.3400000000001</ele>
        <time>2021-08-01T12:00:06Z</time>
      </trkpt>
      <trkpt lat="46.42046662978828" lon="8.353171180933714">
        <ele>2542.3400000000001</ele>
        <time>2021-08-01T12:00:43Z</time>
      </trkpt>
      <trkpt lat="46.42047006636858" lon="8.353170258924365">
        <ele>2542.3400000000001</ele>
        <time>2021-08-01T12:01:15Z</time>
      </trkpt>
      <trkpt lat="46.42047006636858" lon="8.353168917819858">
        <ele>2542.3400000000001</ele>
        <time>2021-08-01T12:02:00Z</time>
      </trkpt>
      <trkpt lat="46.420468222349882" lon="8.353169420734048">
        <ele>2542.3400000000001</ele>
        <time>2021-08-01T12:02:43Z</time>
      </trkpt>
      <trkpt lat="46.420464366674423" lon="8.353169756010175">
        <ele>2542.3400000000001</ele>
        <time>2021-08-01T12:03:28Z</time>
      </trkpt>
      <trkpt lat="46.420462438836694" lon="8.353171097114682">
        <ele>2542.3400000000001</ele>
        <time>2021-08-01T12:04:16Z</time>
      </trkpt>
      <trkpt lat="46.420462019741535" lon="8.353171432390809">
        <ele>2542.3400000000001</ele>
        <time>2021-08-01T12:05:17Z</time>
      </trkpt>
      <trkpt lat="46.420462941750884" lon="8.353173024952412">
        <ele>2542.3400000000001</ele>
        <time>2021-08-01T12:06:19Z</time>
      </trkpt>
      <trkpt lat="46.420465037226677" lon="8.353176126256585">
        <ele>2542.3400000000001</ele>
        <time>2021-08-01T12:07:31Z</time>
      </trkpt>
      <trkpt lat="46.42047056928277" lon="8.353178724646568">
        <ele>2542.3400000000001</ele>
        <time>2021-08-01T12:09:07Z</time>
      </trkpt>
      <trkpt lat="46.420472664758563" lon="8.353181825950742">
        <ele>2542.3400000000001</ele>
        <time>2021-08-01T12:10:13Z</time>
      </trkpt>
      <trkpt lat="46.420470988377929" lon="8.353183837607503">
        <ele>2542.3400000000001</ele>
        <time>2021-08-01T12:11:15Z</time>
      </trkpt>
      <trkpt lat="46.420466294512153" lon="8.353184843435884">
        <ele>2542.3400000000001</ele>
        <time>2021-08-01T12:12:04Z</time>
      </trkpt>
      <trkpt lat="46.420460846275091" lon="8.353185933083296">
        <ele>2542.3400000000001</ele>
        <time>2021-08-01T12:13:00Z</time>
      </trkpt>
      <trkpt lat="46.420457325875759" lon="8.353186687454581">
        <ele>2542.3400000000001</ele>
        <time>2021-08-01T12:13:54Z</time>
      </trkpt>
      <trkpt lat="46.420456320047379" lon="8.353185933083296">
        <ele>2542.3400000000001</ele>
        <time>2021-08-01T12:14:45Z</time>
      </trkpt>
      <trkpt lat="46.420458918437362" lon="8.353183921426535">
        <ele>2542.3400000000001</ele>
        <time>2021-08-01T12:15:38Z</time>
      </trkpt>
      <trkpt lat="46.420462941750884" lon="8.35318073630333">
        <ele>2542.3400000000001</ele>
        <time>2021-08-01T12:16:35Z</time>
      </trkpt>
      <trkpt lat="46.420464534312487" lon="8.353177970275283">
        <ele>2542.3400000000001</ele>
        <time>2021-08-01T12:17:24Z</time>
      </trkpt>
      <trkpt lat="46.420464618131518" lon="8.353177383542061">
        <ele>2542.3400000000001</ele>
        <time>2021-08-01T12:17:57Z</time>
      </trkpt>
      <trkpt lat="46.420462857931852" lon="8.353177970275283">
        <ele>2542.3400000000001</ele>
        <time>2021-08-01T12:18:39Z</time>
      </trkpt>
      <trkpt lat="46.420460091903806" lon="8.353180568665266">
        <ele>2542.3400000000001</ele>
        <time>2021-08-01T12:19:20Z</time>
      </trkpt>
      <trkpt lat="46.42045883461833" lon="8.353179898113012">
        <ele>2542.3400000000001</ele>
        <time>2021-08-01T12:20:00Z</time>
      </trkpt>
      <trkpt lat="46.420458918437362" lon="8.353176293894649">
        <ele>2542.3400000000001</ele>
        <time>2021-08-01T12:20:47Z</time>
      </trkpt>
      <trkpt lat="46.420461852103472" lon="8.353173695504665">
        <ele>2542.3400000000001</ele>
        <time>2021-08-01T12:21:31Z</time>
      </trkpt>
      <trkpt lat="46.420463025569916" lon="8.353177132084966">
        <ele>2542.3400000000001</ele>
        <time>2021-08-01T12:22:23Z</time>
      </trkpt>
      <trkpt lat="46.420461097732186" lon="8.353179479017854">
        <ele>2542.3400000000001</ele>
        <time>2021-08-01T12:23:15Z</time>
      </trkpt>
      <trkpt lat="46.420454392209649" lon="8.353187860921025">
        <ele>2542.3400000000001</ele>
        <time>2021-08-01T12:24:03Z</time>
      </trkpt>
      <trkpt lat="46.420459588989615" lon="8.353189453482628">
        <ele>2542.3400000000001</ele>
        <time>2021-08-01T12:24:50Z</time>
      </trkpt>
      <trkpt lat="46.42046176828444" lon="8.353189453482628">
        <ele>2542.3400000000001</ele>
        <time>2021-08-01T12:25:25Z</time>
      </trkpt>
      <trkpt lat="46.420462187379599" lon="8.353189453482628">
        <ele>2542.3400000000001</ele>
        <time>2021-08-01T12:25:58Z</time>
      </trkpt>
      <trkpt lat="46.420463193207979" lon="8.353189453482628">
        <ele>2542.3400000000001</ele>
        <time>2021-08-01T12:26:32Z</time>
      </trkpt>
      <trkpt lat="46.420461349189281" lon="8.353190459311009">
        <ele>2542.3400000000001</ele>
        <time>2021-08-01T12:27:25Z</time>
      </trkpt>
      <trkpt lat="46.420458583161235" lon="8.353192722424865">
        <ele>2542.3400000000001</ele>
        <time>2021-08-01T12:28:13Z</time>
      </trkpt>
      <trkpt lat="46.42045539803803" lon="8.353191968053579">
        <ele>2542.3400000000001</ele>
        <time>2021-08-01T12:28:57Z</time>
      </trkpt>
      <trkpt lat="46.420454224571586" lon="8.353190459311009">
        <ele>2542.3400000000001</ele>
        <time>2021-08-01T12:29:35Z</time>
      </trkpt>
      <trkpt lat="46.420453218743205" lon="8.353185849264264">
        <ele>2542.3400000000001</ele>
        <time>2021-08-01T12:30:17Z</time>
      </trkpt>
      <trkpt lat="46.420455146580935" lon="8.35318123921752">
        <ele>2542.3400000000001</ele>
        <time>2021-08-01T12:31:03Z</time>
      </trkpt>
      <trkpt lat="46.420457661151886" lon="8.353178724646568">
        <ele>2542.3400000000001</ele>
        <time>2021-08-01T12:31:41Z</time>
      </trkpt>
      <trkpt lat="46.420456990599632" lon="8.353177132084966">
        <ele>2542.3400000000001</ele>
        <time>2021-08-01T12:32:27Z</time>
      </trkpt>
      <trkpt lat="46.420458666980267" lon="8.353176545351744">
        <ele>2542.3400000000001</ele>
        <time>2021-08-01T12:33:05Z</time>
      </trkpt>
      <trkpt lat="46.420457577332854" lon="8.353174366056919">
        <ele>2542.3400000000001</ele>
        <time>2021-08-01T12:33:41Z</time>
      </trkpt>
      <trkpt lat="46.420455817133188" lon="8.35317243821919">
        <ele>2542.3400000000001</ele>
        <time>2021-08-01T12:34:22Z</time>
      </trkpt>
      <trkpt lat="46.420454559847713" lon="8.353170845657587">
        <ele>2542.3400000000001</ele>
        <time>2021-08-01T12:34:51Z</time>
      </trkpt>
      <trkpt lat="46.420454895123839" lon="8.353170678019524">
        <ele>2542.3400000000001</ele>
        <time>2021-08-01T12:35:22Z</time>
      </trkpt>
      <trkpt lat="46.420455984771252" lon="8.353172270581126">
        <ele>2542.3400000000001</ele>
        <time>2021-08-01T12:35:50Z</time>
      </trkpt>
      <trkpt lat="46.420457493513823" lon="8.353172522038221">
        <ele>2542.3400000000001</ele>
        <time>2021-08-01T12:36:27Z</time>
      </trkpt>
      <trkpt lat="46.42045833170414" lon="8.353175036609173">
        <ele>2542.3400000000001</ele>
        <time>2021-08-01T12:37:04Z</time>
      </trkpt>
      <trkpt lat="46.420461684465408" lon="8.353182161226869">
        <ele>2542.3400000000001</ele>
        <time>2021-08-01T12:37:50Z</time>
      </trkpt>
      <trkpt lat="46.420463779941201" lon="8.353181993588805">
        <ele>2542.3400000000001</ele>
        <time>2021-08-01T12:38:29Z</time>
      </trkpt>
      <trkpt lat="46.420465288683772" lon="8.3531822450459">
        <ele>2542.3400000000001</ele>
        <time>2021-08-01T12:39:12Z</time>
      </trkpt>
      <trkpt lat="46.420465121045709" lon="8.353180987760425">
        <ele>2542.3400000000001</ele>
        <time>2021-08-01T12:39:53Z</time>
      </trkpt>
      <trkpt lat="46.420464534312487" lon="8.353180652484298">
        <ele>2542.3400000000001</ele>
        <time>2021-08-01T12:40:29Z</time>
      </trkpt>
      <trkpt lat="46.420462774112821" lon="8.353179059922695">
        <ele>2542.3400000000001</ele>
        <time>2021-08-01T12:41:04Z</time>
      </trkpt>
      <trkpt lat="46.420460427179933" lon="8.353178557008505">
        <ele>2542.3400000000001</ele>
        <time>2021-08-01T12:41:38Z</time>
      </trkpt>
      <trkpt lat="46.420458583161235" lon="8.353178389370441">
        <ele>2542.3400000000001</ele>
        <time>2021-08-01T12:42:15Z</time>
      </trkpt>
      <trkpt lat="46.420457744970918" lon="8.353175455704331">
        <ele>2542.3400000000001</ele>
        <time>2021-08-01T12:42:59Z</time>
      </trkpt>
      <trkpt lat="46.420458918437362" lon="8.353171516209841">
        <ele>2542.3400000000001</ele>
        <time>2021-08-01T12:43:50Z</time>
      </trkpt>
      <trkpt lat="46.42045833170414" lon="8.353166067972779">
        <ele>2542.3400000000001</ele>
        <time>2021-08-01T12:44:36Z</time>
      </trkpt>
      <trkpt lat="46.420455733314157" lon="8.353162379935384">
        <ele>2542.3400000000001</ele>
        <time>2021-08-01T12:45:23Z</time>
      </trkpt>
      <trkpt lat="46.420452380552888" lon="8.353161122649908">
        <ele>2542.3400000000001</ele>
        <time>2021-08-01T12:45:58Z</time>
      </trkpt>
      <trkpt lat="46.420450117439032" lon="8.353162547573447">
        <ele>2542.3400000000001</ele>
        <time>2021-08-01T12:46:33Z</time>
      </trkpt>
      <trkpt lat="46.420452129095793" lon="8.353166487067938">
        <ele>2542.3400000000001</ele>
        <time>2021-08-01T12:47:17Z</time>
      </trkpt>
      <trkpt lat="46.420452799648046" lon="8.353167744353414">
        <ele>2542.3400000000001</ele>
        <time>2021-08-01T12:47:58Z</time>
      </trkpt>
      <trkpt lat="46.420462187379599" lon="8.353162631392479">
        <ele>2542.3400000000001</ele>
        <time>2021-08-01T12:48:41Z</time>
      </trkpt>
      <trkpt lat="46.420477190986276" lon="8.353157183155417">
        <ele>2542.3400000000001</ele>
        <time>2021-08-01T12:49:16Z</time>
      </trkpt>
      <trkpt lat="46.420486327260733" lon="8.353153076022863">
        <ele>2542.3400000000001</ele>
        <time>2021-08-01T12:49:55Z</time>
      </trkpt>
      <trkpt lat="46.420484650880098" lon="8.353153076022863">
        <ele>2542.3400000000001</ele>
        <time>2021-08-01T12:50:27Z</time>
      </trkpt>
      <trkpt lat="46.420488255098462" lon="8.353150226175785">
        <ele>2542.3400000000001</ele>
        <time>2021-08-01T12:50:49Z</time>
      </trkpt>
      <trkpt lat="46.420485153794289" lon="8.353146454319358">
        <ele>2542.3400000000001</ele>
        <time>2021-08-01T12:51:23Z</time>
      </trkpt>
      <trkpt lat="46.420476268976927" lon="8.353148130699992">
        <ele>2542.3400000000001</ele>
        <time>2021-08-01T12:52:01Z</time>
      </trkpt>
      <trkpt lat="46.420469395816326" lon="8.353147292509675">
        <ele>2542.3400000000001</ele>
        <time>2021-08-01T12:52:37Z</time>
      </trkpt>
      <trkpt lat="46.420458918437362" lon="8.353145783767104">
        <ele>2542.3400000000001</ele>
        <time>2021-08-01T12:53:17Z</time>
      </trkpt>
      <trkpt lat="46.420450787991285" lon="8.353144023567438">
        <ele>2542.3400000000001</ele>
        <time>2021-08-01T12:53:47Z</time>
      </trkpt>
      <trkpt lat="46.42044173553586" lon="8.353144023567438">
        <ele>2542.3400000000001</ele>
        <time>2021-08-01T12:54:35Z</time>
      </trkpt>
      <trkpt lat="46.420436790212989" lon="8.353145364671946">
        <ele>2542.3400000000001</ele>
        <time>2021-08-01T12:55:05Z</time>
      </trkpt>
      <trkpt lat="46.420436538755894" lon="8.353149639442563">
        <ele>2542.3400000000001</ele>
        <time>2021-08-01T12:55:44Z</time>
      </trkpt>
      <trkpt lat="46.420445842668414" lon="8.353151567280293">
        <ele>2542.3400000000001</ele>
        <time>2021-08-01T12:56:27Z</time>
      </trkpt>
      <trkpt lat="46.420448524877429" lon="8.353157434612513">
        <ele>2542.3400000000001</ele>
        <time>2021-08-01T12:57:08Z</time>
      </trkpt>
      <trkpt lat="46.420453973114491" lon="8.353163218125701">
        <ele>2542.3400000000001</ele>
        <time>2021-08-01T12:57:55Z</time>
      </trkpt>
      <trkpt lat="46.420456739142537" lon="8.353165984153748">
        <ele>2542.3400000000001</ele>
        <time>2021-08-01T12:58:27Z</time>
      </trkpt>
      <trkpt lat="46.420456822961569" lon="8.353167157620192">
        <ele>2542.3400000000001</ele>
        <time>2021-08-01T12:59:10Z</time>
      </trkpt>
      <trkpt lat="46.420462774112821" lon="8.353164056316018">
        <ele>2542.3400000000001</ele>
        <time>2021-08-01T12:59:57Z</time>
      </trkpt>
      <trkpt lat="46.420468054711819" lon="8.353163888677955">
        <ele>2542.3400000000001</ele>
        <time>2021-08-01T13:00:47Z</time>
      </trkpt>
      <trkpt lat="46.420465037226677" lon="8.353161960840225">
        <ele>2542.3400000000001</ele>
        <time>2021-08-01T13:01:29Z</time>
      </trkpt>
      <trkpt lat="46.420462522655725" lon="8.353160284459591">
        <ele>2542.3400000000001</ele>
        <time>2021-08-01T13:02:09Z</time>
      </trkpt>
      <trkpt lat="46.420460846275091" lon="8.353158859536052">
        <ele>2542.3400000000001</ele>
        <time>2021-08-01T13:02:55Z</time>
      </trkpt>
      <trkpt lat="46.42046176828444" lon="8.353160368278623">
        <ele>2542.3400000000001</ele>
        <time>2021-08-01T13:03:36Z</time>
      </trkpt>
      <trkpt lat="46.420462019741535" lon="8.353160535916686">
        <ele>2542.3400000000001</ele>
        <time>2021-08-01T13:04:07Z</time>
      </trkpt>
      <trkpt lat="46.420471658930182" lon="8.353165229782462">
        <ele>2542.3400000000001</ele>
        <time>2021-08-01T13:04:52Z</time>
      </trkpt>
      <trkpt lat="46.4204465970397" lon="8.353154333308339">
        <ele>2542.3400000000001</ele>
        <time>2021-08-01T13:05:08Z</time>
      </trkpt>
      <trkpt lat="46.420496553182602" lon="8.353107646107674">
        <ele>2541.8600000000001</ele>
        <time>2021-08-01T13:05:14Z</time>
      </trkpt>
      <trkpt lat="46.420504683628678" lon="8.353096749633551">
        <ele>2538.5</ele>
        <time>2021-08-01T13:05:16Z</time>
      </trkpt>
      <trkpt lat="46.420505689457059" lon="8.353089625015855">
        <ele>2536.5799999999999</ele>
        <time>2021-08-01T13:05:19Z</time>
      </trkpt>
      <trkpt lat="46.420490853488445" lon="8.353100018575788">
        <ele>2536.5799999999999</ele>
        <time>2021-08-01T13:05:25Z</time>
      </trkpt>
      <trkpt lat="46.420483561232686" lon="8.353082835674286">
        <ele>2536.0999999999999</ele>
        <time>2021-08-01T13:05:38Z</time>
      </trkpt>
      <trkpt lat="46.420483980327845" lon="8.353088619187474">
        <ele>2535.6100000000001</ele>
        <time>2021-08-01T13:05:48Z</time>
      </trkpt>
      <trkpt lat="46.420482387766242" lon="8.353094067424536">
        <ele>2535.6100000000001</ele>
        <time>2021-08-01T13:06:05Z</time>
      </trkpt>
      <trkpt lat="46.42048959620297" lon="8.353105969727039">
        <ele>2536.0999999999999</ele>
        <time>2021-08-01T13:06:18Z</time>
      </trkpt>
      <trkpt lat="46.42048959620297" lon="8.353105969727039">
        <ele>2536.0999999999999</ele>
        <time>2021-08-01T13:06:49Z</time>
      </trkpt>
      <trkpt lat="46.42048959620297" lon="8.353105969727039">
        <ele>2536.0999999999999</ele>
        <time>2021-08-01T13:06:50Z</time>
      </trkpt>
      <trkpt lat="46.42048959620297" lon="8.353105969727039">
        <ele>2536.0999999999999</ele>
        <time>2021-08-01T13:06:51Z</time>
      </trkpt>
      <trkpt lat="46.42048959620297" lon="8.353105969727039">
        <ele>2536.0999999999999</ele>
        <time>2021-08-01T13:06:52Z</time>
      </trkpt>
      <trkpt lat="46.42048959620297" lon="8.353105969727039">
        <ele>2536.0999999999999</ele>
        <time>2021-08-01T13:06:53Z</time>
      </trkpt>
      <trkpt lat="46.42048959620297" lon="8.353105969727039">
        <ele>2536.0999999999999</ele>
        <time>2021-08-01T13:06:54Z</time>
      </trkpt>
      <trkpt lat="46.42048959620297" lon="8.353105969727039">
        <ele>2536.0999999999999</ele>
        <time>2021-08-01T13:06:55Z</time>
      </trkpt>
      <trkpt lat="46.42048959620297" lon="8.353105969727039">
        <ele>2536.0999999999999</ele>
        <time>2021-08-01T13:06:56Z</time>
      </trkpt>
      <trkpt lat="46.42048959620297" lon="8.353105969727039">
        <ele>2536.0999999999999</ele>
        <time>2021-08-01T13:06:57Z</time>
      </trkpt>
      <trkpt lat="46.42048959620297" lon="8.353105969727039">
        <ele>2536.0999999999999</ele>
        <time>2021-08-01T13:06:58Z</time>
      </trkpt>
      <trkpt lat="46.42048959620297" lon="8.353105969727039">
        <ele>2536.0999999999999</ele>
        <time>2021-08-01T13:06:59Z</time>
      </trkpt>
      <trkpt lat="46.42048959620297" lon="8.353105969727039">
        <ele>2536.0999999999999</ele>
        <time>2021-08-01T13:07:00Z</time>
      </trkpt>
      <trkpt lat="46.42048959620297" lon="8.353105969727039">
        <ele>2536.0999999999999</ele>
        <time>2021-08-01T13:07:01Z</time>
      </trkpt>
      <trkpt lat="46.42048959620297" lon="8.353105969727039">
        <ele>2536.0999999999999</ele>
        <time>2021-08-01T13:07:02Z</time>
      </trkpt>
      <trkpt lat="46.42048959620297" lon="8.353105969727039">
        <ele>2536.0999999999999</ele>
        <time>2021-08-01T13:07:03Z</time>
      </trkpt>
      <trkpt lat="46.42048959620297" lon="8.353105969727039">
        <ele>2536.0999999999999</ele>
        <time>2021-08-01T13:07:04Z</time>
      </trkpt>
      <trkpt lat="46.42048959620297" lon="8.353105969727039">
        <ele>2536.0999999999999</ele>
        <time>2021-08-01T13:07:05Z</time>
      </trkpt>
      <trkpt lat="46.42048959620297" lon="8.353105969727039">
        <ele>2536.0999999999999</ele>
        <time>2021-08-01T13:07:06Z</time>
      </trkpt>
      <trkpt lat="46.42048959620297" lon="8.353105969727039">
        <ele>2536.0999999999999</ele>
        <time>2021-08-01T13:07:07Z</time>
      </trkpt>
      <trkpt lat="46.42048959620297" lon="8.353105969727039">
        <ele>2536.0999999999999</ele>
        <time>2021-08-01T13:07:08Z</time>
      </trkpt>
      <trkpt lat="46.42048959620297" lon="8.353105969727039">
        <ele>2536.0999999999999</ele>
        <time>2021-08-01T13:07:09Z</time>
      </trkpt>
      <trkpt lat="46.42048959620297" lon="8.353105969727039">
        <ele>2536.0999999999999</ele>
        <time>2021-08-01T13:07:10Z</time>
      </trkpt>
      <trkpt lat="46.42048959620297" lon="8.353105969727039">
        <ele>2536.0999999999999</ele>
        <time>2021-08-01T13:07:11Z</time>
      </trkpt>
      <trkpt lat="46.42048959620297" lon="8.353105969727039">
        <ele>2536.0999999999999</ele>
        <time>2021-08-01T13:07:12Z</time>
      </trkpt>
      <trkpt lat="46.42048959620297" lon="8.353105969727039">
        <ele>2536.0999999999999</ele>
        <time>2021-08-01T13:07:13Z</time>
      </trkpt>
      <trkpt lat="46.42048959620297" lon="8.353105969727039">
        <ele>2536.0999999999999</ele>
        <time>2021-08-01T13:07:14Z</time>
      </trkpt>
      <trkpt lat="46.42048959620297" lon="8.353105969727039">
        <ele>2536.0999999999999</ele>
        <time>2021-08-01T13:07:15Z</time>
      </trkpt>
      <trkpt lat="46.42048959620297" lon="8.353105969727039">
        <ele>2536.0999999999999</ele>
        <time>2021-08-01T13:07:16Z</time>
      </trkpt>
      <trkpt lat="46.42048959620297" lon="8.353105969727039">
        <ele>2536.0999999999999</ele>
        <time>2021-08-01T13:07:17Z</time>
      </trkpt>
      <trkpt lat="46.42048959620297" lon="8.353105969727039">
        <ele>2536.0999999999999</ele>
        <time>2021-08-01T13:07:18Z</time>
      </trkpt>
      <trkpt lat="46.42048959620297" lon="8.353105969727039">
        <ele>2536.0999999999999</ele>
        <time>2021-08-01T13:07:19Z</time>
      </trkpt>
      <trkpt lat="46.42048959620297" lon="8.353105969727039">
        <ele>2536.0999999999999</ele>
        <time>2021-08-01T13:07:20Z</time>
      </trkpt>
      <trkpt lat="46.42048959620297" lon="8.353105969727039">
        <ele>2536.0999999999999</ele>
        <time>2021-08-01T13:07:21Z</time>
      </trkpt>
      <trkpt lat="46.42048959620297" lon="8.353105969727039">
        <ele>2536.0999999999999</ele>
        <time>2021-08-01T13:07:22Z</time>
      </trkpt>
      <trkpt lat="46.42048959620297" lon="8.353105969727039">
        <ele>2536.0999999999999</ele>
        <time>2021-08-01T13:07:23Z</time>
      </trkpt>
      <trkpt lat="46.42048959620297" lon="8.353105969727039">
        <ele>2536.0999999999999</ele>
        <time>2021-08-01T13:07:24Z</time>
      </trkpt>
      <trkpt lat="46.42048959620297" lon="8.353105969727039">
        <ele>2536.0999999999999</ele>
        <time>2021-08-01T13:07:25Z</time>
      </trkpt>
      <trkpt lat="46.42048959620297" lon="8.353105969727039">
        <ele>2536.0999999999999</ele>
        <time>2021-08-01T13:07:26Z</time>
      </trkpt>
      <trkpt lat="46.42048959620297" lon="8.353105969727039">
        <ele>2536.0999999999999</ele>
        <time>2021-08-01T13:07:27Z</time>
      </trkpt>
      <trkpt lat="46.42048959620297" lon="8.353105969727039">
        <ele>2536.0999999999999</ele>
        <time>2021-08-01T13:07:28Z</time>
      </trkpt>
      <trkpt lat="46.42048959620297" lon="8.353105969727039">
        <ele>2536.0999999999999</ele>
        <time>2021-08-01T13:07:29Z</time>
      </trkpt>
      <trkpt lat="46.42048959620297" lon="8.353105969727039">
        <ele>2536.0999999999999</ele>
        <time>2021-08-01T13:07:30Z</time>
      </trkpt>
      <trkpt lat="46.42048959620297" lon="8.353105969727039">
        <ele>2536.0999999999999</ele>
        <time>2021-08-01T13:07:31Z</time>
      </trkpt>
      <trkpt lat="46.42048959620297" lon="8.353105969727039">
        <ele>2536.0999999999999</ele>
        <time>2021-08-01T13:07:32Z</time>
      </trkpt>
      <trkpt lat="46.42048959620297" lon="8.353105969727039">
        <ele>2536.0999999999999</ele>
        <time>2021-08-01T13:07:33Z</time>
      </trkpt>
      <trkpt lat="46.42048959620297" lon="8.353105969727039">
        <ele>2536.0999999999999</ele>
        <time>2021-08-01T13:07:34Z</time>
      </trkpt>
      <trkpt lat="46.42048959620297" lon="8.353105969727039">
        <ele>2536.0999999999999</ele>
        <time>2021-08-01T13:07:35Z</time>
      </trkpt>
      <trkpt lat="46.42048959620297" lon="8.353105969727039">
        <ele>2536.0999999999999</ele>
        <time>2021-08-01T13:07:36Z</time>
      </trkpt>
      <trkpt lat="46.42048959620297" lon="8.353105969727039">
        <ele>2536.0999999999999</ele>
        <time>2021-08-01T13:07:37Z</time>
      </trkpt>
      <trkpt lat="46.42048959620297" lon="8.353105969727039">
        <ele>2536.0999999999999</ele>
        <time>2021-08-01T13:07:38Z</time>
      </trkpt>
      <trkpt lat="46.42048959620297" lon="8.353105969727039">
        <ele>2536.0999999999999</ele>
        <time>2021-08-01T13:07:39Z</time>
      </trkpt>
      <trkpt lat="46.42048959620297" lon="8.353105969727039">
        <ele>2536.0999999999999</ele>
        <time>2021-08-01T13:07:40Z</time>
      </trkpt>
      <trkpt lat="46.42048959620297" lon="8.353105969727039">
        <ele>2536.0999999999999</ele>
        <time>2021-08-01T13:07:41Z</time>
      </trkpt>
      <trkpt lat="46.42048959620297" lon="8.353105969727039">
        <ele>2536.0999999999999</ele>
        <time>2021-08-01T13:07:42Z</time>
      </trkpt>
      <trkpt lat="46.42048959620297" lon="8.353105969727039">
        <ele>2536.0999999999999</ele>
        <time>2021-08-01T13:07:43Z</time>
      </trkpt>
      <trkpt lat="46.42048959620297" lon="8.353105969727039">
        <ele>2536.0999999999999</ele>
        <time>2021-08-01T13:07:44Z</time>
      </trkpt>
      <trkpt lat="46.42048959620297" lon="8.353105969727039">
        <ele>2536.0999999999999</ele>
        <time>2021-08-01T13:07:45Z</time>
      </trkpt>
      <trkpt lat="46.42048959620297" lon="8.353105969727039">
        <ele>2536.0999999999999</ele>
        <time>2021-08-01T13:07:46Z</time>
      </trkpt>
      <trkpt lat="46.42048959620297" lon="8.353105969727039">
        <ele>2536.0999999999999</ele>
        <time>2021-08-01T13:07:47Z</time>
      </trkpt>
      <trkpt lat="46.42048959620297" lon="8.353105969727039">
        <ele>2536.0999999999999</ele>
        <time>2021-08-01T13:07:48Z</time>
      </trkpt>
      <trkpt lat="46.42048959620297" lon="8.353105969727039">
        <ele>2536.0999999999999</ele>
        <time>2021-08-01T13:07:49Z</time>
      </trkpt>
      <trkpt lat="46.42048959620297" lon="8.353105969727039">
        <ele>2536.0999999999999</ele>
        <time>2021-08-01T13:07:50Z</time>
      </trkpt>
      <trkpt lat="46.42048959620297" lon="8.353105969727039">
        <ele>2536.0999999999999</ele>
        <time>2021-08-01T13:07:51Z</time>
      </trkpt>
      <trkpt lat="46.42048959620297" lon="8.353105969727039">
        <ele>2536.0999999999999</ele>
        <time>2021-08-01T13:07:52Z</time>
      </trkpt>
      <trkpt lat="46.42048959620297" lon="8.353105969727039">
        <ele>2536.0999999999999</ele>
        <time>2021-08-01T13:07:53Z</time>
      </trkpt>
      <trkpt lat="46.42048959620297" lon="8.353105969727039">
        <ele>2536.0999999999999</ele>
        <time>2021-08-01T13:07:54Z</time>
      </trkpt>
      <trkpt lat="46.42048959620297" lon="8.353105969727039">
        <ele>2536.0999999999999</ele>
        <time>2021-08-01T13:07:55Z</time>
      </trkpt>
      <trkpt lat="46.42048959620297" lon="8.353105969727039">
        <ele>2536.0999999999999</ele>
        <time>2021-08-01T13:07:56Z</time>
      </trkpt>
      <trkpt lat="46.42048959620297" lon="8.353105969727039">
        <ele>2536.0999999999999</ele>
        <time>2021-08-01T13:07:57Z</time>
      </trkpt>
      <trkpt lat="46.42048959620297" lon="8.353105969727039">
        <ele>2536.0999999999999</ele>
        <time>2021-08-01T13:07:58Z</time>
      </trkpt>
      <trkpt lat="46.42048959620297" lon="8.353105969727039">
        <ele>2536.0999999999999</ele>
        <time>2021-08-01T13:07:59Z</time>
      </trkpt>
      <trkpt lat="46.42048959620297" lon="8.353105969727039">
        <ele>2536.0999999999999</ele>
        <time>2021-08-01T13:08:00Z</time>
      </trkpt>
      <trkpt lat="46.42048959620297" lon="8.353105969727039">
        <ele>2536.0999999999999</ele>
        <time>2021-08-01T13:08:01Z</time>
      </trkpt>
      <trkpt lat="46.42048959620297" lon="8.353105969727039">
        <ele>2536.0999999999999</ele>
        <time>2021-08-01T13:08:02Z</time>
      </trkpt>
      <trkpt lat="46.42048959620297" lon="8.353105969727039">
        <ele>2536.0999999999999</ele>
        <time>2021-08-01T13:08:03Z</time>
      </trkpt>
      <trkpt lat="46.42048959620297" lon="8.353105969727039">
        <ele>2536.0999999999999</ele>
        <time>2021-08-01T13:08:04Z</time>
      </trkpt>
      <trkpt lat="46.42048959620297" lon="8.353105969727039">
        <ele>2536.0999999999999</ele>
        <time>2021-08-01T13:08:05Z</time>
      </trkpt>
      <trkpt lat="46.42048959620297" lon="8.353105969727039">
        <ele>2536.0999999999999</ele>
        <time>2021-08-01T13:08:06Z</time>
      </trkpt>
      <trkpt lat="46.42048959620297" lon="8.353105969727039">
        <ele>2536.0999999999999</ele>
        <time>2021-08-01T13:08:07Z</time>
      </trkpt>
      <trkpt lat="46.42048959620297" lon="8.353105969727039">
        <ele>2536.0999999999999</ele>
        <time>2021-08-01T13:08:08Z</time>
      </trkpt>
      <trkpt lat="46.42048959620297" lon="8.353105969727039">
        <ele>2536.0999999999999</ele>
        <time>2021-08-01T13:08:09Z</time>
      </trkpt>
      <trkpt lat="46.42048959620297" lon="8.353105969727039">
        <ele>2536.0999999999999</ele>
        <time>2021-08-01T13:08:10Z</time>
      </trkpt>
      <trkpt lat="46.42048959620297" lon="8.353105969727039">
        <ele>2536.0999999999999</ele>
        <time>2021-08-01T13:08:11Z</time>
      </trkpt>
      <trkpt lat="46.42048959620297" lon="8.353105969727039">
        <ele>2536.0999999999999</ele>
        <time>2021-08-01T13:08:12Z</time>
      </trkpt>
      <trkpt lat="46.42048959620297" lon="8.353105969727039">
        <ele>2536.0999999999999</ele>
        <time>2021-08-01T13:08:13Z</time>
      </trkpt>
      <trkpt lat="46.42048959620297" lon="8.353105969727039">
        <ele>2536.0999999999999</ele>
        <time>2021-08-01T13:08:14Z</time>
      </trkpt>
      <trkpt lat="46.42048959620297" lon="8.353105969727039">
        <ele>2536.0999999999999</ele>
        <time>2021-08-01T13:08:15Z</time>
      </trkpt>
      <trkpt lat="46.42048959620297" lon="8.353105969727039">
        <ele>2536.0999999999999</ele>
        <time>2021-08-01T13:08:16Z</time>
      </trkpt>
      <trkpt lat="46.42048959620297" lon="8.353105969727039">
        <ele>2536.0999999999999</ele>
        <time>2021-08-01T13:08:17Z</time>
      </trkpt>
      <trkpt lat="46.42048959620297" lon="8.353105969727039">
        <ele>2536.0999999999999</ele>
        <time>2021-08-01T13:08:18Z</time>
      </trkpt>
      <trkpt lat="46.42048959620297" lon="8.353105969727039">
        <ele>2536.0999999999999</ele>
        <time>2021-08-01T13:08:19Z</time>
      </trkpt>
      <trkpt lat="46.42048959620297" lon="8.353105969727039">
        <ele>2536.0999999999999</ele>
        <time>2021-08-01T13:08:20Z</time>
      </trkpt>
      <trkpt lat="46.42048959620297" lon="8.353105969727039">
        <ele>2536.0999999999999</ele>
        <time>2021-08-01T13:08:21Z</time>
      </trkpt>
      <trkpt lat="46.42048959620297" lon="8.353105969727039">
        <ele>2536.0999999999999</ele>
        <time>2021-08-01T13:08:22Z</time>
      </trkpt>
      <trkpt lat="46.42048959620297" lon="8.353105969727039">
        <ele>2536.0999999999999</ele>
        <time>2021-08-01T13:08:23Z</time>
      </trkpt>
      <trkpt lat="46.42048959620297" lon="8.353105969727039">
        <ele>2536.0999999999999</ele>
        <time>2021-08-01T13:08:24Z</time>
      </trkpt>
      <trkpt lat="46.42048959620297" lon="8.353105969727039">
        <ele>2536.0999999999999</ele>
        <time>2021-08-01T13:08:25Z</time>
      </trkpt>
      <trkpt lat="46.42048959620297" lon="8.353105969727039">
        <ele>2536.0999999999999</ele>
        <time>2021-08-01T13:08:26Z</time>
      </trkpt>
      <trkpt lat="46.42048959620297" lon="8.353105969727039">
        <ele>2536.0999999999999</ele>
        <time>2021-08-01T13:08:27Z</time>
      </trkpt>
      <trkpt lat="46.42048959620297" lon="8.353105969727039">
        <ele>2536.0999999999999</ele>
        <time>2021-08-01T13:08:28Z</time>
      </trkpt>
      <trkpt lat="46.42048959620297" lon="8.353105969727039">
        <ele>2536.0999999999999</ele>
        <time>2021-08-01T13:08:29Z</time>
      </trkpt>
      <trkpt lat="46.42048959620297" lon="8.353105969727039">
        <ele>2536.0999999999999</ele>
        <time>2021-08-01T13:08:30Z</time>
      </trkpt>
      <trkpt lat="46.42048959620297" lon="8.353105969727039">
        <ele>2536.0999999999999</ele>
        <time>2021-08-01T13:08:31Z</time>
      </trkpt>
      <trkpt lat="46.42048959620297" lon="8.353105969727039">
        <ele>2536.0999999999999</ele>
        <time>2021-08-01T13:08:32Z</time>
      </trkpt>
      <trkpt lat="46.42048959620297" lon="8.353105969727039">
        <ele>2536.0999999999999</ele>
        <time>2021-08-01T13:08:33Z</time>
      </trkpt>
      <trkpt lat="46.42048959620297" lon="8.353105969727039">
        <ele>2536.0999999999999</ele>
        <time>2021-08-01T13:08:34Z</time>
      </trkpt>
      <trkpt lat="46.42048959620297" lon="8.353105969727039">
        <ele>2536.0999999999999</ele>
        <time>2021-08-01T13:08:35Z</time>
      </trkpt>
      <trkpt lat="46.42048959620297" lon="8.353105969727039">
        <ele>2536.0999999999999</ele>
        <time>2021-08-01T13:08:36Z</time>
      </trkpt>
      <trkpt lat="46.42048959620297" lon="8.353105969727039">
        <ele>2536.0999999999999</ele>
        <time>2021-08-01T13:08:37Z</time>
      </trkpt>
      <trkpt lat="46.42048959620297" lon="8.353105969727039">
        <ele>2536.0999999999999</ele>
        <time>2021-08-01T13:08:38Z</time>
      </trkpt>
      <trkpt lat="46.42048959620297" lon="8.353105969727039">
        <ele>2536.0999999999999</ele>
        <time>2021-08-01T13:08:39Z</time>
      </trkpt>
      <trkpt lat="46.42048959620297" lon="8.353105969727039">
        <ele>2536.0999999999999</ele>
        <time>2021-08-01T13:08:40Z</time>
      </trkpt>
      <trkpt lat="46.42048959620297" lon="8.353105969727039">
        <ele>2536.0999999999999</ele>
        <time>2021-08-01T13:08:41Z</time>
      </trkpt>
      <trkpt lat="46.42048959620297" lon="8.353105969727039">
        <ele>2536.0999999999999</ele>
        <time>2021-08-01T13:08:42Z</time>
      </trkpt>
      <trkpt lat="46.42048959620297" lon="8.353105969727039">
        <ele>2536.0999999999999</ele>
        <time>2021-08-01T13:08:43Z</time>
      </trkpt>
      <trkpt lat="46.42048959620297" lon="8.353105969727039">
        <ele>2536.0999999999999</ele>
        <time>2021-08-01T13:08:44Z</time>
      </trkpt>
      <trkpt lat="46.42048959620297" lon="8.353105969727039">
        <ele>2536.0999999999999</ele>
        <time>2021-08-01T13:08:45Z</time>
      </trkpt>
      <trkpt lat="46.42048959620297" lon="8.353105969727039">
        <ele>2536.0999999999999</ele>
        <time>2021-08-01T13:08:46Z</time>
      </trkpt>
      <trkpt lat="46.42048959620297" lon="8.353105969727039">
        <ele>2536.0999999999999</ele>
        <time>2021-08-01T13:08:47Z</time>
      </trkpt>
      <trkpt lat="46.42048959620297" lon="8.353105969727039">
        <ele>2536.0999999999999</ele>
        <time>2021-08-01T13:08:48Z</time>
      </trkpt>
      <trkpt lat="46.42048959620297" lon="8.353105969727039">
        <ele>2536.0999999999999</ele>
        <time>2021-08-01T13:08:49Z</time>
      </trkpt>
      <trkpt lat="46.42048959620297" lon="8.353105969727039">
        <ele>2536.0999999999999</ele>
        <time>2021-08-01T13:08:50Z</time>
      </trkpt>
      <trkpt lat="46.42048959620297" lon="8.353105969727039">
        <ele>2536.0999999999999</ele>
        <time>2021-08-01T13:08:51Z</time>
      </trkpt>
      <trkpt lat="46.42048959620297" lon="8.353105969727039">
        <ele>2536.0999999999999</ele>
        <time>2021-08-01T13:08:52Z</time>
      </trkpt>
      <trkpt lat="46.42048959620297" lon="8.353105969727039">
        <ele>2536.0999999999999</ele>
        <time>2021-08-01T13:08:53Z</time>
      </trkpt>
      <trkpt lat="46.42048959620297" lon="8.353105969727039">
        <ele>2536.0999999999999</ele>
        <time>2021-08-01T13:08:54Z</time>
      </trkpt>
      <trkpt lat="46.42048959620297" lon="8.353105969727039">
        <ele>2536.0999999999999</ele>
        <time>2021-08-01T13:08:55Z</time>
      </trkpt>
      <trkpt lat="46.42048959620297" lon="8.353105969727039">
        <ele>2536.0999999999999</ele>
        <time>2021-08-01T13:08:56Z</time>
      </trkpt>
      <trkpt lat="46.42048959620297" lon="8.353105969727039">
        <ele>2536.0999999999999</ele>
        <time>2021-08-01T13:08:57Z</time>
      </trkpt>
      <trkpt lat="46.42048959620297" lon="8.353105969727039">
        <ele>2536.0999999999999</ele>
        <time>2021-08-01T13:08:58Z</time>
      </trkpt>
      <trkpt lat="46.42048959620297" lon="8.353105969727039">
        <ele>2536.0999999999999</ele>
        <time>2021-08-01T13:08:59Z</time>
      </trkpt>
      <trkpt lat="46.42048959620297" lon="8.353105969727039">
        <ele>2536.0999999999999</ele>
        <time>2021-08-01T13:09:00Z</time>
      </trkpt>
      <trkpt lat="46.42048959620297" lon="8.353105969727039">
        <ele>2536.0999999999999</ele>
        <time>2021-08-01T13:09:01Z</time>
      </trkpt>
      <trkpt lat="46.42048959620297" lon="8.353105969727039">
        <ele>2536.0999999999999</ele>
        <time>2021-08-01T13:09:02Z</time>
      </trkpt>
      <trkpt lat="46.42048959620297" lon="8.353105969727039">
        <ele>2536.0999999999999</ele>
        <time>2021-08-01T13:09:03Z</time>
      </trkpt>
      <trkpt lat="46.42048959620297" lon="8.353105969727039">
        <ele>2536.0999999999999</ele>
        <time>2021-08-01T13:09:04Z</time>
      </trkpt>
      <trkpt lat="46.42048959620297" lon="8.353105969727039">
        <ele>2536.0999999999999</ele>
        <time>2021-08-01T13:09:05Z</time>
      </trkpt>
      <trkpt lat="46.42048959620297" lon="8.353105969727039">
        <ele>2536.0999999999999</ele>
        <time>2021-08-01T13:09:06Z</time>
      </trkpt>
      <trkpt lat="46.42048959620297" lon="8.353105969727039">
        <ele>2536.0999999999999</ele>
        <time>2021-08-01T13:09:07Z</time>
      </trkpt>
      <trkpt lat="46.42048959620297" lon="8.353105969727039">
        <ele>2536.0999999999999</ele>
        <time>2021-08-01T13:09:08Z</time>
      </trkpt>
      <trkpt lat="46.42048959620297" lon="8.353105969727039">
        <ele>2536.0999999999999</ele>
        <time>2021-08-01T13:09:09Z</time>
      </trkpt>
      <trkpt lat="46.42048959620297" lon="8.353105969727039">
        <ele>2536.0999999999999</ele>
        <time>2021-08-01T13:09:10Z</time>
      </trkpt>
      <trkpt lat="46.42048959620297" lon="8.353105969727039">
        <ele>2536.0999999999999</ele>
        <time>2021-08-01T13:09:11Z</time>
      </trkpt>
      <trkpt lat="46.42048959620297" lon="8.353105969727039">
        <ele>2536.0999999999999</ele>
        <time>2021-08-01T13:09:12Z</time>
      </trkpt>
      <trkpt lat="46.42048959620297" lon="8.353105969727039">
        <ele>2536.0999999999999</ele>
        <time>2021-08-01T13:09:13Z</time>
      </trkpt>
      <trkpt lat="46.42048959620297" lon="8.353105969727039">
        <ele>2536.0999999999999</ele>
        <time>2021-08-01T13:09:14Z</time>
      </trkpt>
      <trkpt lat="46.42048959620297" lon="8.353105969727039">
        <ele>2536.0999999999999</ele>
        <time>2021-08-01T13:09:15Z</time>
      </trkpt>
      <trkpt lat="46.42048959620297" lon="8.353105969727039">
        <ele>2536.0999999999999</ele>
        <time>2021-08-01T13:09:16Z</time>
      </trkpt>
      <trkpt lat="46.42048959620297" lon="8.353105969727039">
        <ele>2536.0999999999999</ele>
        <time>2021-08-01T13:09:17Z</time>
      </trkpt>
      <trkpt lat="46.42048959620297" lon="8.353105969727039">
        <ele>2536.0999999999999</ele>
        <time>2021-08-01T13:09:18Z</time>
      </trkpt>
      <trkpt lat="46.42048959620297" lon="8.353105969727039">
        <ele>2536.0999999999999</ele>
        <time>2021-08-01T13:09:19Z</time>
      </trkpt>
      <trkpt lat="46.42048959620297" lon="8.353105969727039">
        <ele>2536.0999999999999</ele>
        <time>2021-08-01T13:09:20Z</time>
      </trkpt>
      <trkpt lat="46.42048959620297" lon="8.353105969727039">
        <ele>2536.0999999999999</ele>
        <time>2021-08-01T13:09:21Z</time>
      </trkpt>
      <trkpt lat="46.42048959620297" lon="8.353105969727039">
        <ele>2536.0999999999999</ele>
        <time>2021-08-01T13:09:22Z</time>
      </trkpt>
      <trkpt lat="46.42048959620297" lon="8.353105969727039">
        <ele>2536.0999999999999</ele>
        <time>2021-08-01T13:09:23Z</time>
      </trkpt>
      <trkpt lat="46.42048959620297" lon="8.353105969727039">
        <ele>2536.0999999999999</ele>
        <time>2021-08-01T13:09:24Z</time>
      </trkpt>
      <trkpt lat="46.42048959620297" lon="8.353105969727039">
        <ele>2536.0999999999999</ele>
        <time>2021-08-01T13:09:25Z</time>
      </trkpt>
      <trkpt lat="46.42048959620297" lon="8.353105969727039">
        <ele>2536.0999999999999</ele>
        <time>2021-08-01T13:09:26Z</time>
      </trkpt>
      <trkpt lat="46.42048959620297" lon="8.353105969727039">
        <ele>2536.0999999999999</ele>
        <time>2021-08-01T13:09:27Z</time>
      </trkpt>
      <trkpt lat="46.42048959620297" lon="8.353105969727039">
        <ele>2536.0999999999999</ele>
        <time>2021-08-01T13:09:28Z</time>
      </trkpt>
      <trkpt lat="46.42048959620297" lon="8.353105969727039">
        <ele>2536.0999999999999</ele>
        <time>2021-08-01T13:09:29Z</time>
      </trkpt>
      <trkpt lat="46.42048959620297" lon="8.353105969727039">
        <ele>2536.0999999999999</ele>
        <time>2021-08-01T13:09:30Z</time>
      </trkpt>
      <trkpt lat="46.42048959620297" lon="8.353105969727039">
        <ele>2536.0999999999999</ele>
        <time>2021-08-01T13:09:31Z</time>
      </trkpt>
      <trkpt lat="46.42048959620297" lon="8.353105969727039">
        <ele>2536.0999999999999</ele>
        <time>2021-08-01T13:09:32Z</time>
      </trkpt>
      <trkpt lat="46.42048959620297" lon="8.353105969727039">
        <ele>2536.0999999999999</ele>
        <time>2021-08-01T13:09:33Z</time>
      </trkpt>
      <trkpt lat="46.42048959620297" lon="8.353105969727039">
        <ele>2536.0999999999999</ele>
        <time>2021-08-01T13:09:34Z</time>
      </trkpt>
      <trkpt lat="46.42048959620297" lon="8.353105969727039">
        <ele>2536.0999999999999</ele>
        <time>2021-08-01T13:09:35Z</time>
      </trkpt>
      <trkpt lat="46.42048959620297" lon="8.353105969727039">
        <ele>2536.0999999999999</ele>
        <time>2021-08-01T13:09:36Z</time>
      </trkpt>
      <trkpt lat="46.42048959620297" lon="8.353105969727039">
        <ele>2536.0999999999999</ele>
        <time>2021-08-01T13:09:37Z</time>
      </trkpt>
      <trkpt lat="46.42048959620297" lon="8.353105969727039">
        <ele>2536.0999999999999</ele>
        <time>2021-08-01T13:09:38Z</time>
      </trkpt>
      <trkpt lat="46.42048959620297" lon="8.353105969727039">
        <ele>2536.0999999999999</ele>
        <time>2021-08-01T13:09:39Z</time>
      </trkpt>
      <trkpt lat="46.42048959620297" lon="8.353105969727039">
        <ele>2536.0999999999999</ele>
        <time>2021-08-01T13:09:40Z</time>
      </trkpt>
      <trkpt lat="46.42048959620297" lon="8.353105969727039">
        <ele>2536.0999999999999</ele>
        <time>2021-08-01T13:09:41Z</time>
      </trkpt>
      <trkpt lat="46.42048959620297" lon="8.353105969727039">
        <ele>2536.0999999999999</ele>
        <time>2021-08-01T13:09:42Z</time>
      </trkpt>
      <trkpt lat="46.42048959620297" lon="8.353105969727039">
        <ele>2536.0999999999999</ele>
        <time>2021-08-01T13:09:43Z</time>
      </trkpt>
      <trkpt lat="46.42048959620297" lon="8.353105969727039">
        <ele>2536.0999999999999</ele>
        <time>2021-08-01T13:09:44Z</time>
      </trkpt>
      <trkpt lat="46.42048959620297" lon="8.353105969727039">
        <ele>2536.0999999999999</ele>
        <time>2021-08-01T13:09:45Z</time>
      </trkpt>
      <trkpt lat="46.42048959620297" lon="8.353105969727039">
        <ele>2536.0999999999999</ele>
        <time>2021-08-01T13:09:46Z</time>
      </trkpt>
      <trkpt lat="46.42048959620297" lon="8.353105969727039">
        <ele>2536.0999999999999</ele>
        <time>2021-08-01T13:09:47Z</time>
      </trkpt>
      <trkpt lat="46.42048959620297" lon="8.353105969727039">
        <ele>2536.0999999999999</ele>
        <time>2021-08-01T13:09:48Z</time>
      </trkpt>
      <trkpt lat="46.42048959620297" lon="8.353105969727039">
        <ele>2536.0999999999999</ele>
        <time>2021-08-01T13:09:49Z</time>
      </trkpt>
      <trkpt lat="46.42048959620297" lon="8.353105969727039">
        <ele>2536.0999999999999</ele>
        <time>2021-08-01T13:09:50Z</time>
      </trkpt>
      <trkpt lat="46.42048959620297" lon="8.353105969727039">
        <ele>2536.0999999999999</ele>
        <time>2021-08-01T13:09:51Z</time>
      </trkpt>
      <trkpt lat="46.42048959620297" lon="8.353105969727039">
        <ele>2536.0999999999999</ele>
        <time>2021-08-01T13:09:52Z</time>
      </trkpt>
      <trkpt lat="46.42048959620297" lon="8.353105969727039">
        <ele>2536.0999999999999</ele>
        <time>2021-08-01T13:09:53Z</time>
      </trkpt>
      <trkpt lat="46.42048959620297" lon="8.353105969727039">
        <ele>2536.0999999999999</ele>
        <time>2021-08-01T13:09:54Z</time>
      </trkpt>
      <trkpt lat="46.42048959620297" lon="8.353105969727039">
        <ele>2536.0999999999999</ele>
        <time>2021-08-01T13:09:55Z</time>
      </trkpt>
      <trkpt lat="46.42048959620297" lon="8.353105969727039">
        <ele>2536.0999999999999</ele>
        <time>2021-08-01T13:09:56Z</time>
      </trkpt>
      <trkpt lat="46.42048959620297" lon="8.353105969727039">
        <ele>2536.0999999999999</ele>
        <time>2021-08-01T13:09:57Z</time>
      </trkpt>
      <trkpt lat="46.42048959620297" lon="8.353105969727039">
        <ele>2536.0999999999999</ele>
        <time>2021-08-01T13:09:58Z</time>
      </trkpt>
      <trkpt lat="46.42048959620297" lon="8.353105969727039">
        <ele>2536.0999999999999</ele>
        <time>2021-08-01T13:09:59Z</time>
      </trkpt>
      <trkpt lat="46.42048959620297" lon="8.353105969727039">
        <ele>2536.0999999999999</ele>
        <time>2021-08-01T13:10:00Z</time>
      </trkpt>
      <trkpt lat="46.42048959620297" lon="8.353105969727039">
        <ele>2536.0999999999999</ele>
        <time>2021-08-01T13:10:01Z</time>
      </trkpt>
      <trkpt lat="46.42048959620297" lon="8.353105969727039">
        <ele>2536.0999999999999</ele>
        <time>2021-08-01T13:10:02Z</time>
      </trkpt>
      <trkpt lat="46.42048959620297" lon="8.353105969727039">
        <ele>2536.0999999999999</ele>
        <time>2021-08-01T13:10:03Z</time>
      </trkpt>
      <trkpt lat="46.42048959620297" lon="8.353105969727039">
        <ele>2536.0999999999999</ele>
        <time>2021-08-01T13:10:04Z</time>
      </trkpt>
      <trkpt lat="46.42048959620297" lon="8.353105969727039">
        <ele>2536.0999999999999</ele>
        <time>2021-08-01T13:10:05Z</time>
      </trkpt>
      <trkpt lat="46.42048959620297" lon="8.353105969727039">
        <ele>2536.0999999999999</ele>
        <time>2021-08-01T13:10:06Z</time>
      </trkpt>
      <trkpt lat="46.42048959620297" lon="8.353105969727039">
        <ele>2536.0999999999999</ele>
        <time>2021-08-01T13:10:07Z</time>
      </trkpt>
      <trkpt lat="46.42048959620297" lon="8.353105969727039">
        <ele>2536.0999999999999</ele>
        <time>2021-08-01T13:10:08Z</time>
      </trkpt>
      <trkpt lat="46.42048959620297" lon="8.353105969727039">
        <ele>2536.0999999999999</ele>
        <time>2021-08-01T13:10:09Z</time>
      </trkpt>
      <trkpt lat="46.42048959620297" lon="8.353105969727039">
        <ele>2536.0999999999999</ele>
        <time>2021-08-01T13:10:10Z</time>
      </trkpt>
      <trkpt lat="46.42048959620297" lon="8.353105969727039">
        <ele>2536.0999999999999</ele>
        <time>2021-08-01T13:10:11Z</time>
      </trkpt>
      <trkpt lat="46.42048959620297" lon="8.353105969727039">
        <ele>2536.0999999999999</ele>
        <time>2021-08-01T13:10:12Z</time>
      </trkpt>
      <trkpt lat="46.42048959620297" lon="8.353105969727039">
        <ele>2536.0999999999999</ele>
        <time>2021-08-01T13:10:13Z</time>
      </trkpt>
      <trkpt lat="46.42048959620297" lon="8.353105969727039">
        <ele>2536.0999999999999</ele>
        <time>2021-08-01T13:10:14Z</time>
      </trkpt>
      <trkpt lat="46.42048959620297" lon="8.353105969727039">
        <ele>2536.0999999999999</ele>
        <time>2021-08-01T13:10:15Z</time>
      </trkpt>
      <trkpt lat="46.42048959620297" lon="8.353105969727039">
        <ele>2536.0999999999999</ele>
        <time>2021-08-01T13:10:16Z</time>
      </trkpt>
      <trkpt lat="46.42048959620297" lon="8.353105969727039">
        <ele>2536.0999999999999</ele>
        <time>2021-08-01T13:10:17Z</time>
      </trkpt>
      <trkpt lat="46.42048959620297" lon="8.353105969727039">
        <ele>2536.0999999999999</ele>
        <time>2021-08-01T13:10:18Z</time>
      </trkpt>
      <trkpt lat="46.42048959620297" lon="8.353105969727039">
        <ele>2536.0999999999999</ele>
        <time>2021-08-01T13:10:19Z</time>
      </trkpt>
      <trkpt lat="46.42048959620297" lon="8.353105969727039">
        <ele>2536.0999999999999</ele>
        <time>2021-08-01T13:10:20Z</time>
      </trkpt>
      <trkpt lat="46.42048959620297" lon="8.353105969727039">
        <ele>2536.0999999999999</ele>
        <time>2021-08-01T13:10:21Z</time>
      </trkpt>
      <trkpt lat="46.42048959620297" lon="8.353105969727039">
        <ele>2536.0999999999999</ele>
        <time>2021-08-01T13:10:22Z</time>
      </trkpt>
      <trkpt lat="46.42048959620297" lon="8.353105969727039">
        <ele>2536.0999999999999</ele>
        <time>2021-08-01T13:10:23Z</time>
      </trkpt>
      <trkpt lat="46.42048959620297" lon="8.353105969727039">
        <ele>2536.0999999999999</ele>
        <time>2021-08-01T13:10:24Z</time>
      </trkpt>
      <trkpt lat="46.42048959620297" lon="8.353105969727039">
        <ele>2536.0999999999999</ele>
        <time>2021-08-01T13:10:25Z</time>
      </trkpt>
      <trkpt lat="46.42048959620297" lon="8.353105969727039">
        <ele>2536.0999999999999</ele>
        <time>2021-08-01T13:10:26Z</time>
      </trkpt>
      <trkpt lat="46.42048959620297" lon="8.353105969727039">
        <ele>2536.0999999999999</ele>
        <time>2021-08-01T13:10:27Z</time>
      </trkpt>
      <trkpt lat="46.42048959620297" lon="8.353105969727039">
        <ele>2536.0999999999999</ele>
        <time>2021-08-01T13:10:28Z</time>
      </trkpt>
      <trkpt lat="46.42048959620297" lon="8.353105969727039">
        <ele>2536.0999999999999</ele>
        <time>2021-08-01T13:10:29Z</time>
      </trkpt>
      <trkpt lat="46.42048959620297" lon="8.353105969727039">
        <ele>2536.0999999999999</ele>
        <time>2021-08-01T13:10:30Z</time>
      </trkpt>
      <trkpt lat="46.42048959620297" lon="8.353105969727039">
        <ele>2536.0999999999999</ele>
        <time>2021-08-01T13:10:31Z</time>
      </trkpt>
      <trkpt lat="46.42048959620297" lon="8.353105969727039">
        <ele>2536.0999999999999</ele>
        <time>2021-08-01T13:10:32Z</time>
      </trkpt>
      <trkpt lat="46.42048959620297" lon="8.353105969727039">
        <ele>2536.0999999999999</ele>
        <time>2021-08-01T13:10:33Z</time>
      </trkpt>
      <trkpt lat="46.42048959620297" lon="8.353105969727039">
        <ele>2536.0999999999999</ele>
        <time>2021-08-01T13:10:34Z</time>
      </trkpt>
      <trkpt lat="46.42048959620297" lon="8.353105969727039">
        <ele>2536.0999999999999</ele>
        <time>2021-08-01T13:10:35Z</time>
      </trkpt>
      <trkpt lat="46.42048959620297" lon="8.353105969727039">
        <ele>2536.0999999999999</ele>
        <time>2021-08-01T13:10:36Z</time>
      </trkpt>
      <trkpt lat="46.42048959620297" lon="8.353105969727039">
        <ele>2536.0999999999999</ele>
        <time>2021-08-01T13:10:37Z</time>
      </trkpt>
      <trkpt lat="46.42048959620297" lon="8.353105969727039">
        <ele>2536.0999999999999</ele>
        <time>2021-08-01T13:10:38Z</time>
      </trkpt>
      <trkpt lat="46.42048959620297" lon="8.353105969727039">
        <ele>2536.0999999999999</ele>
        <time>2021-08-01T13:10:39Z</time>
      </trkpt>
      <trkpt lat="46.42048959620297" lon="8.353105969727039">
        <ele>2536.0999999999999</ele>
        <time>2021-08-01T13:10:40Z</time>
      </trkpt>
      <trkpt lat="46.42048959620297" lon="8.353105969727039">
        <ele>2536.0999999999999</ele>
        <time>2021-08-01T13:10:41Z</time>
      </trkpt>
      <trkpt lat="46.42048959620297" lon="8.353105969727039">
        <ele>2536.0999999999999</ele>
        <time>2021-08-01T13:10:42Z</time>
      </trkpt>
      <trkpt lat="46.42048959620297" lon="8.353105969727039">
        <ele>2536.0999999999999</ele>
        <time>2021-08-01T13:10:43Z</time>
      </trkpt>
      <trkpt lat="46.42048959620297" lon="8.353105969727039">
        <ele>2536.0999999999999</ele>
        <time>2021-08-01T13:10:44Z</time>
      </trkpt>
      <trkpt lat="46.42048959620297" lon="8.353105969727039">
        <ele>2536.0999999999999</ele>
        <time>2021-08-01T13:10:45Z</time>
      </trkpt>
      <trkpt lat="46.42048959620297" lon="8.353105969727039">
        <ele>2536.0999999999999</ele>
        <time>2021-08-01T13:10:46Z</time>
      </trkpt>
      <trkpt lat="46.42048959620297" lon="8.353105969727039">
        <ele>2536.0999999999999</ele>
        <time>2021-08-01T13:10:47Z</time>
      </trkpt>
      <trkpt lat="46.42048959620297" lon="8.353105969727039">
        <ele>2536.0999999999999</ele>
        <time>2021-08-01T13:10:48Z</time>
      </trkpt>
      <trkpt lat="46.42048959620297" lon="8.353105969727039">
        <ele>2536.0999999999999</ele>
        <time>2021-08-01T13:10:49Z</time>
      </trkpt>
      <trkpt lat="46.42048959620297" lon="8.353105969727039">
        <ele>2536.0999999999999</ele>
        <time>2021-08-01T13:10:50Z</time>
      </trkpt>
      <trkpt lat="46.42048959620297" lon="8.353105969727039">
        <ele>2536.0999999999999</ele>
        <time>2021-08-01T13:10:51Z</time>
      </trkpt>
      <trkpt lat="46.42048959620297" lon="8.353105969727039">
        <ele>2536.0999999999999</ele>
        <time>2021-08-01T13:10:52Z</time>
      </trkpt>
      <trkpt lat="46.42048959620297" lon="8.353105969727039">
        <ele>2536.0999999999999</ele>
        <time>2021-08-01T13:10:53Z</time>
      </trkpt>
      <trkpt lat="46.42048959620297" lon="8.353105969727039">
        <ele>2536.0999999999999</ele>
        <time>2021-08-01T13:10:54Z</time>
      </trkpt>
      <trkpt lat="46.42048959620297" lon="8.353105969727039">
        <ele>2536.0999999999999</ele>
        <time>2021-08-01T13:10:55Z</time>
      </trkpt>
      <trkpt lat="46.42048959620297" lon="8.353105969727039">
        <ele>2536.0999999999999</ele>
        <time>2021-08-01T13:10:56Z</time>
      </trkpt>
      <trkpt lat="46.42048959620297" lon="8.353105969727039">
        <ele>2536.0999999999999</ele>
        <time>2021-08-01T13:10:57Z</time>
      </trkpt>
      <trkpt lat="46.42048959620297" lon="8.353105969727039">
        <ele>2536.0999999999999</ele>
        <time>2021-08-01T13:10:58Z</time>
      </trkpt>
      <trkpt lat="46.42048959620297" lon="8.353105969727039">
        <ele>2536.0999999999999</ele>
        <time>2021-08-01T13:10:59Z</time>
      </trkpt>
      <trkpt lat="46.42048959620297" lon="8.353105969727039">
        <ele>2536.0999999999999</ele>
        <time>2021-08-01T13:11:00Z</time>
      </trkpt>
      <trkpt lat="46.42048959620297" lon="8.353105969727039">
        <ele>2536.0999999999999</ele>
        <time>2021-08-01T13:11:01Z</time>
      </trkpt>
      <trkpt lat="46.42048959620297" lon="8.353105969727039">
        <ele>2536.0999999999999</ele>
        <time>2021-08-01T13:11:02Z</time>
      </trkpt>
      <trkpt lat="46.42048959620297" lon="8.353105969727039">
        <ele>2536.0999999999999</ele>
        <time>2021-08-01T13:11:03Z</time>
      </trkpt>
      <trkpt lat="46.42048959620297" lon="8.353105969727039">
        <ele>2536.0999999999999</ele>
        <time>2021-08-01T13:11:04Z</time>
      </trkpt>
      <trkpt lat="46.42048959620297" lon="8.353105969727039">
        <ele>2536.0999999999999</ele>
        <time>2021-08-01T13:11:05Z</time>
      </trkpt>
      <trkpt lat="46.42048959620297" lon="8.353105969727039">
        <ele>2536.0999999999999</ele>
        <time>2021-08-01T13:11:06Z</time>
      </trkpt>
      <trkpt lat="46.42048959620297" lon="8.353105969727039">
        <ele>2536.0999999999999</ele>
        <time>2021-08-01T13:11:07Z</time>
      </trkpt>
      <trkpt lat="46.42048959620297" lon="8.353105969727039">
        <ele>2536.0999999999999</ele>
        <time>2021-08-01T13:11:08Z</time>
      </trkpt>
      <trkpt lat="46.42048959620297" lon="8.353105969727039">
        <ele>2536.0999999999999</ele>
        <time>2021-08-01T13:11:09Z</time>
      </trkpt>
      <trkpt lat="46.42048959620297" lon="8.353105969727039">
        <ele>2536.0999999999999</ele>
        <time>2021-08-01T13:11:10Z</time>
      </trkpt>
      <trkpt lat="46.42048959620297" lon="8.353105969727039">
        <ele>2536.0999999999999</ele>
        <time>2021-08-01T13:11:11Z</time>
      </trkpt>
      <trkpt lat="46.42048959620297" lon="8.353105969727039">
        <ele>2536.0999999999999</ele>
        <time>2021-08-01T13:11:12Z</time>
      </trkpt>
      <trkpt lat="46.42048959620297" lon="8.353105969727039">
        <ele>2536.0999999999999</ele>
        <time>2021-08-01T13:11:13Z</time>
      </trkpt>
      <trkpt lat="46.42048959620297" lon="8.353105969727039">
        <ele>2536.0999999999999</ele>
        <time>2021-08-01T13:11:14Z</time>
      </trkpt>
      <trkpt lat="46.42048959620297" lon="8.353105969727039">
        <ele>2536.0999999999999</ele>
        <time>2021-08-01T13:11:15Z</time>
      </trkpt>
      <trkpt lat="46.42048959620297" lon="8.353105969727039">
        <ele>2536.0999999999999</ele>
        <time>2021-08-01T13:11:16Z</time>
      </trkpt>
      <trkpt lat="46.42048959620297" lon="8.353105969727039">
        <ele>2536.0999999999999</ele>
        <time>2021-08-01T13:11:17Z</time>
      </trkpt>
      <trkpt lat="46.42048959620297" lon="8.353105969727039">
        <ele>2536.0999999999999</ele>
        <time>2021-08-01T13:11:18Z</time>
      </trkpt>
      <trkpt lat="46.42048959620297" lon="8.353105969727039">
        <ele>2536.0999999999999</ele>
        <time>2021-08-01T13:11:19Z</time>
      </trkpt>
      <trkpt lat="46.42048959620297" lon="8.353105969727039">
        <ele>2536.0999999999999</ele>
        <time>2021-08-01T13:11:20Z</time>
      </trkpt>
      <trkpt lat="46.42048959620297" lon="8.353105969727039">
        <ele>2536.0999999999999</ele>
        <time>2021-08-01T13:11:21Z</time>
      </trkpt>
      <trkpt lat="46.42048959620297" lon="8.353105969727039">
        <ele>2536.0999999999999</ele>
        <time>2021-08-01T13:11:22Z</time>
      </trkpt>
      <trkpt lat="46.42048959620297" lon="8.353105969727039">
        <ele>2536.0999999999999</ele>
        <time>2021-08-01T13:11:23Z</time>
      </trkpt>
      <trkpt lat="46.42048959620297" lon="8.353105969727039">
        <ele>2536.0999999999999</ele>
        <time>2021-08-01T13:11:24Z</time>
      </trkpt>
      <trkpt lat="46.42048959620297" lon="8.353105969727039">
        <ele>2536.0999999999999</ele>
        <time>2021-08-01T13:11:25Z</time>
      </trkpt>
      <trkpt lat="46.42048959620297" lon="8.353105969727039">
        <ele>2536.0999999999999</ele>
        <time>2021-08-01T13:11:26Z</time>
      </trkpt>
      <trkpt lat="46.42048959620297" lon="8.353105969727039">
        <ele>2536.0999999999999</ele>
        <time>2021-08-01T13:11:27Z</time>
      </trkpt>
      <trkpt lat="46.42048959620297" lon="8.353105969727039">
        <ele>2536.0999999999999</ele>
        <time>2021-08-01T13:11:28Z</time>
      </trkpt>
      <trkpt lat="46.42048959620297" lon="8.353105969727039">
        <ele>2536.0999999999999</ele>
        <time>2021-08-01T13:11:29Z</time>
      </trkpt>
      <trkpt lat="46.42048959620297" lon="8.353105969727039">
        <ele>2536.0999999999999</ele>
        <time>2021-08-01T13:11:30Z</time>
      </trkpt>
      <trkpt lat="46.42048959620297" lon="8.353105969727039">
        <ele>2536.0999999999999</ele>
        <time>2021-08-01T13:11:31Z</time>
      </trkpt>
      <trkpt lat="46.42048959620297" lon="8.353105969727039">
        <ele>2536.0999999999999</ele>
        <time>2021-08-01T13:11:32Z</time>
      </trkpt>
      <trkpt lat="46.42048959620297" lon="8.353105969727039">
        <ele>2536.0999999999999</ele>
        <time>2021-08-01T13:11:33Z</time>
      </trkpt>
      <trkpt lat="46.42048959620297" lon="8.353105969727039">
        <ele>2536.0999999999999</ele>
        <time>2021-08-01T13:11:34Z</time>
      </trkpt>
      <trkpt lat="46.42048959620297" lon="8.353105969727039">
        <ele>2536.0999999999999</ele>
        <time>2021-08-01T13:11:35Z</time>
      </trkpt>
      <trkpt lat="46.42048959620297" lon="8.353105969727039">
        <ele>2536.0999999999999</ele>
        <time>2021-08-01T13:11:36Z</time>
      </trkpt>
      <trkpt lat="46.42048959620297" lon="8.353105969727039">
        <ele>2536.0999999999999</ele>
        <time>2021-08-01T13:11:37Z</time>
      </trkpt>
      <trkpt lat="46.42048959620297" lon="8.353105969727039">
        <ele>2536.0999999999999</ele>
        <time>2021-08-01T13:11:38Z</time>
      </trkpt>
      <trkpt lat="46.42048959620297" lon="8.353105969727039">
        <ele>2536.0999999999999</ele>
        <time>2021-08-01T13:11:39Z</time>
      </trkpt>
      <trkpt lat="46.42048959620297" lon="8.353105969727039">
        <ele>2536.0999999999999</ele>
        <time>2021-08-01T13:11:40Z</time>
      </trkpt>
      <trkpt lat="46.42048959620297" lon="8.353105969727039">
        <ele>2536.0999999999999</ele>
        <time>2021-08-01T13:11:41Z</time>
      </trkpt>
      <trkpt lat="46.42048959620297" lon="8.353105969727039">
        <ele>2536.0999999999999</ele>
        <time>2021-08-01T13:11:42Z</time>
      </trkpt>
      <trkpt lat="46.42048959620297" lon="8.353105969727039">
        <ele>2536.0999999999999</ele>
        <time>2021-08-01T13:11:43Z</time>
      </trkpt>
      <trkpt lat="46.42048959620297" lon="8.353105969727039">
        <ele>2536.0999999999999</ele>
        <time>2021-08-01T13:11:44Z</time>
      </trkpt>
      <trkpt lat="46.42048959620297" lon="8.353105969727039">
        <ele>2536.0999999999999</ele>
        <time>2021-08-01T13:11:45Z</time>
      </trkpt>
      <trkpt lat="46.42048959620297" lon="8.353105969727039">
        <ele>2536.0999999999999</ele>
        <time>2021-08-01T13:11:46Z</time>
      </trkpt>
      <trkpt lat="46.42048959620297" lon="8.353105969727039">
        <ele>2536.0999999999999</ele>
        <time>2021-08-01T13:11:47Z</time>
      </trkpt>
      <trkpt lat="46.42048959620297" lon="8.353105969727039">
        <ele>2536.0999999999999</ele>
        <time>2021-08-01T13:11:48Z</time>
      </trkpt>
      <trkpt lat="46.42048959620297" lon="8.353105969727039">
        <ele>2536.0999999999999</ele>
        <time>2021-08-01T13:11:49Z</time>
      </trkpt>
      <trkpt lat="46.42048959620297" lon="8.353105969727039">
        <ele>2536.0999999999999</ele>
        <time>2021-08-01T13:11:50Z</time>
      </trkpt>
      <trkpt lat="46.42048959620297" lon="8.353105969727039">
        <ele>2536.0999999999999</ele>
        <time>2021-08-01T13:11:51Z</time>
      </trkpt>
      <trkpt lat="46.42048959620297" lon="8.353105969727039">
        <ele>2536.0999999999999</ele>
        <time>2021-08-01T13:11:52Z</time>
      </trkpt>
      <trkpt lat="46.42048959620297" lon="8.353105969727039">
        <ele>2536.0999999999999</ele>
        <time>2021-08-01T13:11:53Z</time>
      </trkpt>
      <trkpt lat="46.42048959620297" lon="8.353105969727039">
        <ele>2536.0999999999999</ele>
        <time>2021-08-01T13:11:54Z</time>
      </trkpt>
      <trkpt lat="46.42048959620297" lon="8.353105969727039">
        <ele>2536.0999999999999</ele>
        <time>2021-08-01T13:11:55Z</time>
      </trkpt>
      <trkpt lat="46.42048959620297" lon="8.353105969727039">
        <ele>2536.0999999999999</ele>
        <time>2021-08-01T13:11:56Z</time>
      </trkpt>
      <trkpt lat="46.42048959620297" lon="8.353105969727039">
        <ele>2536.0999999999999</ele>
        <time>2021-08-01T13:11:57Z</time>
      </trkpt>
      <trkpt lat="46.42048959620297" lon="8.353105969727039">
        <ele>2536.0999999999999</ele>
        <time>2021-08-01T13:11:58Z</time>
      </trkpt>
      <trkpt lat="46.42048959620297" lon="8.353105969727039">
        <ele>2536.0999999999999</ele>
        <time>2021-08-01T13:11:59Z</time>
      </trkpt>
      <trkpt lat="46.42048959620297" lon="8.353105969727039">
        <ele>2536.0999999999999</ele>
        <time>2021-08-01T13:12:00Z</time>
      </trkpt>
      <trkpt lat="46.42048959620297" lon="8.353105969727039">
        <ele>2536.0999999999999</ele>
        <time>2021-08-01T13:12:01Z</time>
      </trkpt>
      <trkpt lat="46.42048959620297" lon="8.353105969727039">
        <ele>2536.0999999999999</ele>
        <time>2021-08-01T13:12:02Z</time>
      </trkpt>
      <trkpt lat="46.42048959620297" lon="8.353105969727039">
        <ele>2536.0999999999999</ele>
        <time>2021-08-01T13:12:03Z</time>
      </trkpt>
      <trkpt lat="46.42048959620297" lon="8.353105969727039">
        <ele>2536.0999999999999</ele>
        <time>2021-08-01T13:12:04Z</time>
      </trkpt>
      <trkpt lat="46.42048959620297" lon="8.353105969727039">
        <ele>2536.0999999999999</ele>
        <time>2021-08-01T13:12:05Z</time>
      </trkpt>
      <trkpt lat="46.42048959620297" lon="8.353105969727039">
        <ele>2536.0999999999999</ele>
        <time>2021-08-01T13:12:06Z</time>
      </trkpt>
      <trkpt lat="46.42048959620297" lon="8.353105969727039">
        <ele>2536.0999999999999</ele>
        <time>2021-08-01T13:12:07Z</time>
      </trkpt>
      <trkpt lat="46.42048959620297" lon="8.353105969727039">
        <ele>2536.0999999999999</ele>
        <time>2021-08-01T13:12:08Z</time>
      </trkpt>
      <trkpt lat="46.42048959620297" lon="8.353105969727039">
        <ele>2536.0999999999999</ele>
        <time>2021-08-01T13:12:09Z</time>
      </trkpt>
      <trkpt lat="46.42048959620297" lon="8.353105969727039">
        <ele>2536.0999999999999</ele>
        <time>2021-08-01T13:12:10Z</time>
      </trkpt>
      <trkpt lat="46.42048959620297" lon="8.353105969727039">
        <ele>2536.0999999999999</ele>
        <time>2021-08-01T13:12:11Z</time>
      </trkpt>
      <trkpt lat="46.42048959620297" lon="8.353105969727039">
        <ele>2536.0999999999999</ele>
        <time>2021-08-01T13:12:12Z</time>
      </trkpt>
      <trkpt lat="46.42048959620297" lon="8.353105969727039">
        <ele>2536.0999999999999</ele>
        <time>2021-08-01T13:12:13Z</time>
      </trkpt>
      <trkpt lat="46.42048959620297" lon="8.353105969727039">
        <ele>2536.0999999999999</ele>
        <time>2021-08-01T13:12:14Z</time>
      </trkpt>
      <trkpt lat="46.42048959620297" lon="8.353105969727039">
        <ele>2536.0999999999999</ele>
        <time>2021-08-01T13:12:15Z</time>
      </trkpt>
      <trkpt lat="46.42048959620297" lon="8.353105969727039">
        <ele>2536.0999999999999</ele>
        <time>2021-08-01T13:12:16Z</time>
      </trkpt>
      <trkpt lat="46.42048959620297" lon="8.353105969727039">
        <ele>2536.0999999999999</ele>
        <time>2021-08-01T13:12:17Z</time>
      </trkpt>
      <trkpt lat="46.42048959620297" lon="8.353105969727039">
        <ele>2536.0999999999999</ele>
        <time>2021-08-01T13:12:18Z</time>
      </trkpt>
      <trkpt lat="46.42048959620297" lon="8.353105969727039">
        <ele>2536.0999999999999</ele>
        <time>2021-08-01T13:12:19Z</time>
      </trkpt>
      <trkpt lat="46.42048959620297" lon="8.353105969727039">
        <ele>2536.0999999999999</ele>
        <time>2021-08-01T13:12:20Z</time>
      </trkpt>
      <trkpt lat="46.42048959620297" lon="8.353105969727039">
        <ele>2536.0999999999999</ele>
        <time>2021-08-01T13:12:21Z</time>
      </trkpt>
      <trkpt lat="46.42048959620297" lon="8.353105969727039">
        <ele>2536.0999999999999</ele>
        <time>2021-08-01T13:12:22Z</time>
      </trkpt>
      <trkpt lat="46.42048959620297" lon="8.353105969727039">
        <ele>2536.0999999999999</ele>
        <time>2021-08-01T13:12:23Z</time>
      </trkpt>
      <trkpt lat="46.42048959620297" lon="8.353105969727039">
        <ele>2536.0999999999999</ele>
        <time>2021-08-01T13:12:24Z</time>
      </trkpt>
      <trkpt lat="46.42048959620297" lon="8.353105969727039">
        <ele>2536.0999999999999</ele>
        <time>2021-08-01T13:12:25Z</time>
      </trkpt>
      <trkpt lat="46.42048959620297" lon="8.353105969727039">
        <ele>2536.0999999999999</ele>
        <time>2021-08-01T13:12:26Z</time>
      </trkpt>
      <trkpt lat="46.42048959620297" lon="8.353105969727039">
        <ele>2536.0999999999999</ele>
        <time>2021-08-01T13:12:27Z</time>
      </trkpt>
      <trkpt lat="46.42048959620297" lon="8.353105969727039">
        <ele>2536.0999999999999</ele>
        <time>2021-08-01T13:12:28Z</time>
      </trkpt>
      <trkpt lat="46.42048959620297" lon="8.353105969727039">
        <ele>2536.0999999999999</ele>
        <time>2021-08-01T13:12:29Z</time>
      </trkpt>
      <trkpt lat="46.42048959620297" lon="8.353105969727039">
        <ele>2536.0999999999999</ele>
        <time>2021-08-01T13:12:30Z</time>
      </trkpt>
      <trkpt lat="46.42048959620297" lon="8.353105969727039">
        <ele>2536.0999999999999</ele>
        <time>2021-08-01T13:12:31Z</time>
      </trkpt>
      <trkpt lat="46.42048959620297" lon="8.353105969727039">
        <ele>2536.0999999999999</ele>
        <time>2021-08-01T13:12:32Z</time>
      </trkpt>
      <trkpt lat="46.42048959620297" lon="8.353105969727039">
        <ele>2536.0999999999999</ele>
        <time>2021-08-01T13:12:33Z</time>
      </trkpt>
      <trkpt lat="46.42048959620297" lon="8.353105969727039">
        <ele>2536.0999999999999</ele>
        <time>2021-08-01T13:12:34Z</time>
      </trkpt>
      <trkpt lat="46.42048959620297" lon="8.353105969727039">
        <ele>2536.0999999999999</ele>
        <time>2021-08-01T13:12:35Z</time>
      </trkpt>
      <trkpt lat="46.42048959620297" lon="8.353105969727039">
        <ele>2536.0999999999999</ele>
        <time>2021-08-01T13:12:36Z</time>
      </trkpt>
      <trkpt lat="46.42048959620297" lon="8.353105969727039">
        <ele>2536.0999999999999</ele>
        <time>2021-08-01T13:12:37Z</time>
      </trkpt>
      <trkpt lat="46.42048959620297" lon="8.353105969727039">
        <ele>2536.0999999999999</ele>
        <time>2021-08-01T13:12:38Z</time>
      </trkpt>
      <trkpt lat="46.42048959620297" lon="8.353105969727039">
        <ele>2536.0999999999999</ele>
        <time>2021-08-01T13:12:39Z</time>
      </trkpt>
      <trkpt lat="46.42048959620297" lon="8.353105969727039">
        <ele>2536.0999999999999</ele>
        <time>2021-08-01T13:12:40Z</time>
      </trkpt>
      <trkpt lat="46.42048959620297" lon="8.353105969727039">
        <ele>2536.0999999999999</ele>
        <time>2021-08-01T13:12:41Z</time>
      </trkpt>
      <trkpt lat="46.42048959620297" lon="8.353105969727039">
        <ele>2536.0999999999999</ele>
        <time>2021-08-01T13:12:42Z</time>
      </trkpt>
      <trkpt lat="46.42048959620297" lon="8.353105969727039">
        <ele>2536.0999999999999</ele>
        <time>2021-08-01T13:12:43Z</time>
      </trkpt>
      <trkpt lat="46.42048959620297" lon="8.353105969727039">
        <ele>2536.0999999999999</ele>
        <time>2021-08-01T13:12:44Z</time>
      </trkpt>
      <trkpt lat="46.42048959620297" lon="8.353105969727039">
        <ele>2536.0999999999999</ele>
        <time>2021-08-01T13:12:45Z</time>
      </trkpt>
      <trkpt lat="46.42048959620297" lon="8.353105969727039">
        <ele>2536.0999999999999</ele>
        <time>2021-08-01T13:12:46Z</time>
      </trkpt>
      <trkpt lat="46.42048959620297" lon="8.353105969727039">
        <ele>2536.0999999999999</ele>
        <time>2021-08-01T13:12:47Z</time>
      </trkpt>
      <trkpt lat="46.42048959620297" lon="8.353105969727039">
        <ele>2536.0999999999999</ele>
        <time>2021-08-01T13:12:48Z</time>
      </trkpt>
      <trkpt lat="46.42048959620297" lon="8.353105969727039">
        <ele>2536.0999999999999</ele>
        <time>2021-08-01T13:12:49Z</time>
      </trkpt>
      <trkpt lat="46.42048959620297" lon="8.353105969727039">
        <ele>2536.0999999999999</ele>
        <time>2021-08-01T13:12:50Z</time>
      </trkpt>
      <trkpt lat="46.42048959620297" lon="8.353105969727039">
        <ele>2536.0999999999999</ele>
        <time>2021-08-01T13:12:51Z</time>
      </trkpt>
      <trkpt lat="46.42048959620297" lon="8.353105969727039">
        <ele>2536.0999999999999</ele>
        <time>2021-08-01T13:12:52Z</time>
      </trkpt>
      <trkpt lat="46.42048959620297" lon="8.353105969727039">
        <ele>2536.0999999999999</ele>
        <time>2021-08-01T13:12:53Z</time>
      </trkpt>
      <trkpt lat="46.42048959620297" lon="8.353105969727039">
        <ele>2536.0999999999999</ele>
        <time>2021-08-01T13:12:54Z</time>
      </trkpt>
      <trkpt lat="46.42048959620297" lon="8.353105969727039">
        <ele>2536.0999999999999</ele>
        <time>2021-08-01T13:12:55Z</time>
      </trkpt>
      <trkpt lat="46.42048959620297" lon="8.353105969727039">
        <ele>2536.0999999999999</ele>
        <time>2021-08-01T13:12:56Z</time>
      </trkpt>
      <trkpt lat="46.42048959620297" lon="8.353105969727039">
        <ele>2536.0999999999999</ele>
        <time>2021-08-01T13:12:57Z</time>
      </trkpt>
      <trkpt lat="46.42048959620297" lon="8.353105969727039">
        <ele>2536.0999999999999</ele>
        <time>2021-08-01T13:12:58Z</time>
      </trkpt>
      <trkpt lat="46.42048959620297" lon="8.353105969727039">
        <ele>2536.0999999999999</ele>
        <time>2021-08-01T13:12:59Z</time>
      </trkpt>
      <trkpt lat="46.42048959620297" lon="8.353105969727039">
        <ele>2536.0999999999999</ele>
        <time>2021-08-01T13:13:00Z</time>
      </trkpt>
      <trkpt lat="46.42048959620297" lon="8.353105969727039">
        <ele>2536.0999999999999</ele>
        <time>2021-08-01T13:13:01Z</time>
      </trkpt>
      <trkpt lat="46.42048959620297" lon="8.353105969727039">
        <ele>2536.0999999999999</ele>
        <time>2021-08-01T13:13:02Z</time>
      </trkpt>
      <trkpt lat="46.42048959620297" lon="8.353105969727039">
        <ele>2536.0999999999999</ele>
        <time>2021-08-01T13:13:03Z</time>
      </trkpt>
      <trkpt lat="46.42048959620297" lon="8.353105969727039">
        <ele>2536.0999999999999</ele>
        <time>2021-08-01T13:13:04Z</time>
      </trkpt>
      <trkpt lat="46.42048959620297" lon="8.353105969727039">
        <ele>2536.0999999999999</ele>
        <time>2021-08-01T13:13:05Z</time>
      </trkpt>
      <trkpt lat="46.42048959620297" lon="8.353105969727039">
        <ele>2536.0999999999999</ele>
        <time>2021-08-01T13:13:06Z</time>
      </trkpt>
      <trkpt lat="46.42048959620297" lon="8.353105969727039">
        <ele>2536.0999999999999</ele>
        <time>2021-08-01T13:13:07Z</time>
      </trkpt>
      <trkpt lat="46.42048959620297" lon="8.353105969727039">
        <ele>2536.0999999999999</ele>
        <time>2021-08-01T13:13:08Z</time>
      </trkpt>
      <trkpt lat="46.42048959620297" lon="8.353105969727039">
        <ele>2536.0999999999999</ele>
        <time>2021-08-01T13:13:09Z</time>
      </trkpt>
      <trkpt lat="46.42048959620297" lon="8.353105969727039">
        <ele>2536.0999999999999</ele>
        <time>2021-08-01T13:13:10Z</time>
      </trkpt>
      <trkpt lat="46.42048959620297" lon="8.353105969727039">
        <ele>2536.0999999999999</ele>
        <time>2021-08-01T13:13:11Z</time>
      </trkpt>
      <trkpt lat="46.42048959620297" lon="8.353105969727039">
        <ele>2536.0999999999999</ele>
        <time>2021-08-01T13:13:12Z</time>
      </trkpt>
      <trkpt lat="46.42048959620297" lon="8.353105969727039">
        <ele>2536.0999999999999</ele>
        <time>2021-08-01T13:13:13Z</time>
      </trkpt>
      <trkpt lat="46.42048959620297" lon="8.353105969727039">
        <ele>2536.0999999999999</ele>
        <time>2021-08-01T13:13:14Z</time>
      </trkpt>
      <trkpt lat="46.42048959620297" lon="8.353105969727039">
        <ele>2536.0999999999999</ele>
        <time>2021-08-01T13:13:15Z</time>
      </trkpt>
      <trkpt lat="46.42048959620297" lon="8.353105969727039">
        <ele>2536.0999999999999</ele>
        <time>2021-08-01T13:13:16Z</time>
      </trkpt>
      <trkpt lat="46.42048959620297" lon="8.353105969727039">
        <ele>2536.0999999999999</ele>
        <time>2021-08-01T13:13:17Z</time>
      </trkpt>
      <trkpt lat="46.42048959620297" lon="8.353105969727039">
        <ele>2536.0999999999999</ele>
        <time>2021-08-01T13:13:18Z</time>
      </trkpt>
      <trkpt lat="46.42048959620297" lon="8.353105969727039">
        <ele>2536.0999999999999</ele>
        <time>2021-08-01T13:13:19Z</time>
      </trkpt>
      <trkpt lat="46.42048959620297" lon="8.353105969727039">
        <ele>2536.0999999999999</ele>
        <time>2021-08-01T13:13:20Z</time>
      </trkpt>
      <trkpt lat="46.42048959620297" lon="8.353105969727039">
        <ele>2536.0999999999999</ele>
        <time>2021-08-01T13:13:21Z</time>
      </trkpt>
      <trkpt lat="46.42048959620297" lon="8.353105969727039">
        <ele>2536.0999999999999</ele>
        <time>2021-08-01T13:13:22Z</time>
      </trkpt>
      <trkpt lat="46.42048959620297" lon="8.353105969727039">
        <ele>2536.0999999999999</ele>
        <time>2021-08-01T13:13:23Z</time>
      </trkpt>
      <trkpt lat="46.42048959620297" lon="8.353105969727039">
        <ele>2536.0999999999999</ele>
        <time>2021-08-01T13:13:24Z</time>
      </trkpt>
      <trkpt lat="46.42048959620297" lon="8.353105969727039">
        <ele>2536.0999999999999</ele>
        <time>2021-08-01T13:13:25Z</time>
      </trkpt>
      <trkpt lat="46.42048959620297" lon="8.353105969727039">
        <ele>2536.0999999999999</ele>
        <time>2021-08-01T13:13:26Z</time>
      </trkpt>
      <trkpt lat="46.42048959620297" lon="8.353105969727039">
        <ele>2536.0999999999999</ele>
        <time>2021-08-01T13:13:27Z</time>
      </trkpt>
      <trkpt lat="46.42048959620297" lon="8.353105969727039">
        <ele>2536.0999999999999</ele>
        <time>2021-08-01T13:13:28Z</time>
      </trkpt>
      <trkpt lat="46.42048959620297" lon="8.353105969727039">
        <ele>2536.0999999999999</ele>
        <time>2021-08-01T13:13:29Z</time>
      </trkpt>
      <trkpt lat="46.42048959620297" lon="8.353105969727039">
        <ele>2536.0999999999999</ele>
        <time>2021-08-01T13:13:30Z</time>
      </trkpt>
      <trkpt lat="46.42048959620297" lon="8.353105969727039">
        <ele>2536.0999999999999</ele>
        <time>2021-08-01T13:13:31Z</time>
      </trkpt>
      <trkpt lat="46.42048959620297" lon="8.353105969727039">
        <ele>2536.0999999999999</ele>
        <time>2021-08-01T13:13:32Z</time>
      </trkpt>
      <trkpt lat="46.42048959620297" lon="8.353105969727039">
        <ele>2536.0999999999999</ele>
        <time>2021-08-01T13:13:33Z</time>
      </trkpt>
      <trkpt lat="46.42048959620297" lon="8.353105969727039">
        <ele>2536.0999999999999</ele>
        <time>2021-08-01T13:13:34Z</time>
      </trkpt>
      <trkpt lat="46.42048959620297" lon="8.353105969727039">
        <ele>2536.0999999999999</ele>
        <time>2021-08-01T13:13:35Z</time>
      </trkpt>
      <trkpt lat="46.42048959620297" lon="8.353105969727039">
        <ele>2536.0999999999999</ele>
        <time>2021-08-01T13:13:36Z</time>
      </trkpt>
      <trkpt lat="46.42048959620297" lon="8.353105969727039">
        <ele>2536.0999999999999</ele>
        <time>2021-08-01T13:13:37Z</time>
      </trkpt>
      <trkpt lat="46.42048959620297" lon="8.353105969727039">
        <ele>2536.0999999999999</ele>
        <time>2021-08-01T13:13:38Z</time>
      </trkpt>
      <trkpt lat="46.42048959620297" lon="8.353105969727039">
        <ele>2536.0999999999999</ele>
        <time>2021-08-01T13:13:39Z</time>
      </trkpt>
      <trkpt lat="46.42048959620297" lon="8.353105969727039">
        <ele>2536.0999999999999</ele>
        <time>2021-08-01T13:13:40Z</time>
      </trkpt>
      <trkpt lat="46.42048959620297" lon="8.353105969727039">
        <ele>2536.0999999999999</ele>
        <time>2021-08-01T13:13:41Z</time>
      </trkpt>
      <trkpt lat="46.42048959620297" lon="8.353105969727039">
        <ele>2536.0999999999999</ele>
        <time>2021-08-01T13:13:42Z</time>
      </trkpt>
      <trkpt lat="46.42048959620297" lon="8.353105969727039">
        <ele>2536.0999999999999</ele>
        <time>2021-08-01T13:13:43Z</time>
      </trkpt>
      <trkpt lat="46.42048959620297" lon="8.353105969727039">
        <ele>2536.0999999999999</ele>
        <time>2021-08-01T13:13:44Z</time>
      </trkpt>
      <trkpt lat="46.42048959620297" lon="8.353105969727039">
        <ele>2536.0999999999999</ele>
        <time>2021-08-01T13:13:45Z</time>
      </trkpt>
      <trkpt lat="46.42048959620297" lon="8.353105969727039">
        <ele>2536.0999999999999</ele>
        <time>2021-08-01T13:13:46Z</time>
      </trkpt>
      <trkpt lat="46.42048959620297" lon="8.353105969727039">
        <ele>2536.0999999999999</ele>
        <time>2021-08-01T13:13:47Z</time>
      </trkpt>
      <trkpt lat="46.42048959620297" lon="8.353105969727039">
        <ele>2536.0999999999999</ele>
        <time>2021-08-01T13:13:48Z</time>
      </trkpt>
      <trkpt lat="46.42048959620297" lon="8.353105969727039">
        <ele>2536.0999999999999</ele>
        <time>2021-08-01T13:13:49Z</time>
      </trkpt>
      <trkpt lat="46.42048959620297" lon="8.353105969727039">
        <ele>2536.0999999999999</ele>
        <time>2021-08-01T13:13:50Z</time>
      </trkpt>
      <trkpt lat="46.42048959620297" lon="8.353105969727039">
        <ele>2536.0999999999999</ele>
        <time>2021-08-01T13:13:51Z</time>
      </trkpt>
      <trkpt lat="46.42048959620297" lon="8.353105969727039">
        <ele>2536.0999999999999</ele>
        <time>2021-08-01T13:13:52Z</time>
      </trkpt>
      <trkpt lat="46.42048959620297" lon="8.353105969727039">
        <ele>2536.0999999999999</ele>
        <time>2021-08-01T13:13:53Z</time>
      </trkpt>
      <trkpt lat="46.42048959620297" lon="8.353105969727039">
        <ele>2536.0999999999999</ele>
        <time>2021-08-01T13:13:54Z</time>
      </trkpt>
      <trkpt lat="46.42048959620297" lon="8.353105969727039">
        <ele>2536.0999999999999</ele>
        <time>2021-08-01T13:13:55Z</time>
      </trkpt>
      <trkpt lat="46.42048959620297" lon="8.353105969727039">
        <ele>2536.0999999999999</ele>
        <time>2021-08-01T13:13:56Z</time>
      </trkpt>
      <trkpt lat="46.42048959620297" lon="8.353105969727039">
        <ele>2536.0999999999999</ele>
        <time>2021-08-01T13:13:57Z</time>
      </trkpt>
      <trkpt lat="46.42048959620297" lon="8.353105969727039">
        <ele>2536.0999999999999</ele>
        <time>2021-08-01T13:13:58Z</time>
      </trkpt>
      <trkpt lat="46.42048959620297" lon="8.353105969727039">
        <ele>2536.0999999999999</ele>
        <time>2021-08-01T13:13:59Z</time>
      </trkpt>
      <trkpt lat="46.42048959620297" lon="8.353105969727039">
        <ele>2536.0999999999999</ele>
        <time>2021-08-01T13:14:00Z</time>
      </trkpt>
      <trkpt lat="46.42048959620297" lon="8.353105969727039">
        <ele>2536.0999999999999</ele>
        <time>2021-08-01T13:14:01Z</time>
      </trkpt>
      <trkpt lat="46.42048959620297" lon="8.353105969727039">
        <ele>2536.0999999999999</ele>
        <time>2021-08-01T13:14:02Z</time>
      </trkpt>
      <trkpt lat="46.42048959620297" lon="8.353105969727039">
        <ele>2536.0999999999999</ele>
        <time>2021-08-01T13:14:03Z</time>
      </trkpt>
      <trkpt lat="46.42048959620297" lon="8.353105969727039">
        <ele>2536.0999999999999</ele>
        <time>2021-08-01T13:14:04Z</time>
      </trkpt>
      <trkpt lat="46.42048959620297" lon="8.353105969727039">
        <ele>2536.0999999999999</ele>
        <time>2021-08-01T13:14:05Z</time>
      </trkpt>
      <trkpt lat="46.42048959620297" lon="8.353105969727039">
        <ele>2536.0999999999999</ele>
        <time>2021-08-01T13:14:06Z</time>
      </trkpt>
      <trkpt lat="46.42048959620297" lon="8.353105969727039">
        <ele>2536.0999999999999</ele>
        <time>2021-08-01T13:14:07Z</time>
      </trkpt>
      <trkpt lat="46.42048959620297" lon="8.353105969727039">
        <ele>2536.0999999999999</ele>
        <time>2021-08-01T13:14:08Z</time>
      </trkpt>
      <trkpt lat="46.42048959620297" lon="8.353105969727039">
        <ele>2536.0999999999999</ele>
        <time>2021-08-01T13:14:09Z</time>
      </trkpt>
      <trkpt lat="46.42048959620297" lon="8.353105969727039">
        <ele>2536.0999999999999</ele>
        <time>2021-08-01T13:14:10Z</time>
      </trkpt>
      <trkpt lat="46.42048959620297" lon="8.353105969727039">
        <ele>2536.0999999999999</ele>
        <time>2021-08-01T13:14:11Z</time>
      </trkpt>
      <trkpt lat="46.42048959620297" lon="8.353105969727039">
        <ele>2536.0999999999999</ele>
        <time>2021-08-01T13:14:12Z</time>
      </trkpt>
      <trkpt lat="46.42048959620297" lon="8.353105969727039">
        <ele>2536.0999999999999</ele>
        <time>2021-08-01T13:14:13Z</time>
      </trkpt>
      <trkpt lat="46.42048959620297" lon="8.353105969727039">
        <ele>2536.0999999999999</ele>
        <time>2021-08-01T13:14:14Z</time>
      </trkpt>
      <trkpt lat="46.42048959620297" lon="8.353105969727039">
        <ele>2536.0999999999999</ele>
        <time>2021-08-01T13:14:15Z</time>
      </trkpt>
      <trkpt lat="46.42048959620297" lon="8.353105969727039">
        <ele>2536.0999999999999</ele>
        <time>2021-08-01T13:14:16Z</time>
      </trkpt>
      <trkpt lat="46.42048959620297" lon="8.353105969727039">
        <ele>2536.0999999999999</ele>
        <time>2021-08-01T13:14:17Z</time>
      </trkpt>
      <trkpt lat="46.42048959620297" lon="8.353105969727039">
        <ele>2536.0999999999999</ele>
        <time>2021-08-01T13:14:18Z</time>
      </trkpt>
      <trkpt lat="46.42048959620297" lon="8.353105969727039">
        <ele>2536.0999999999999</ele>
        <time>2021-08-01T13:14:19Z</time>
      </trkpt>
      <trkpt lat="46.42048959620297" lon="8.353105969727039">
        <ele>2536.0999999999999</ele>
        <time>2021-08-01T13:14:20Z</time>
      </trkpt>
      <trkpt lat="46.42048959620297" lon="8.353105969727039">
        <ele>2536.0999999999999</ele>
        <time>2021-08-01T13:14:21Z</time>
      </trkpt>
      <trkpt lat="46.42048959620297" lon="8.353105969727039">
        <ele>2536.0999999999999</ele>
        <time>2021-08-01T13:14:22Z</time>
      </trkpt>
      <trkpt lat="46.42048959620297" lon="8.353105969727039">
        <ele>2536.0999999999999</ele>
        <time>2021-08-01T13:14:23Z</time>
      </trkpt>
      <trkpt lat="46.42048959620297" lon="8.353105969727039">
        <ele>2536.0999999999999</ele>
        <time>2021-08-01T13:14:24Z</time>
      </trkpt>
      <trkpt lat="46.42048959620297" lon="8.353105969727039">
        <ele>2536.0999999999999</ele>
        <time>2021-08-01T13:14:25Z</time>
      </trkpt>
      <trkpt lat="46.42048959620297" lon="8.353105969727039">
        <ele>2536.0999999999999</ele>
        <time>2021-08-01T13:14:26Z</time>
      </trkpt>
      <trkpt lat="46.42048959620297" lon="8.353105969727039">
        <ele>2536.0999999999999</ele>
        <time>2021-08-01T13:14:27Z</time>
      </trkpt>
      <trkpt lat="46.42048959620297" lon="8.353105969727039">
        <ele>2536.0999999999999</ele>
        <time>2021-08-01T13:14:28Z</time>
      </trkpt>
      <trkpt lat="46.42048959620297" lon="8.353105969727039">
        <ele>2536.0999999999999</ele>
        <time>2021-08-01T13:14:29Z</time>
      </trkpt>
      <trkpt lat="46.42048959620297" lon="8.353105969727039">
        <ele>2536.0999999999999</ele>
        <time>2021-08-01T13:14:30Z</time>
      </trkpt>
      <trkpt lat="46.42048959620297" lon="8.353105969727039">
        <ele>2536.0999999999999</ele>
        <time>2021-08-01T13:14:31Z</time>
      </trkpt>
      <trkpt lat="46.42048959620297" lon="8.353105969727039">
        <ele>2536.0999999999999</ele>
        <time>2021-08-01T13:14:32Z</time>
      </trkpt>
      <trkpt lat="46.42048959620297" lon="8.353105969727039">
        <ele>2536.0999999999999</ele>
        <time>2021-08-01T13:14:33Z</time>
      </trkpt>
      <trkpt lat="46.42048959620297" lon="8.353105969727039">
        <ele>2536.0999999999999</ele>
        <time>2021-08-01T13:14:34Z</time>
      </trkpt>
      <trkpt lat="46.42048959620297" lon="8.353105969727039">
        <ele>2536.0999999999999</ele>
        <time>2021-08-01T13:14:35Z</time>
      </trkpt>
      <trkpt lat="46.42048959620297" lon="8.353105969727039">
        <ele>2536.0999999999999</ele>
        <time>2021-08-01T13:14:36Z</time>
      </trkpt>
      <trkpt lat="46.42063426785171" lon="8.353036064654589">
        <ele>2567.8200000000002</ele>
        <time>2021-08-01T13:14:37Z</time>
      </trkpt>
      <trkpt lat="46.420621778815985" lon="8.353057354688644">
        <ele>2567.8200000000002</ele>
        <time>2021-08-01T13:14:38Z</time>
      </trkpt>
      <trkpt lat="46.420506024733186" lon="8.353064898401499">
        <ele>2567.3400000000001</ele>
        <time>2021-08-01T13:14:56Z</time>
      </trkpt>
      <trkpt lat="46.420500744134188" lon="8.353084595873952">
        <ele>2567.8200000000002</ele>
        <time>2021-08-01T13:15:05Z</time>
      </trkpt>
      <trkpt lat="46.420503593981266" lon="8.353070765733719">
        <ele>2567.8200000000002</ele>
        <time>2021-08-01T13:15:14Z</time>
      </trkpt>
      <trkpt lat="46.42050426453352" lon="8.353063138201833">
        <ele>2567.8200000000002</ele>
        <time>2021-08-01T13:15:26Z</time>
      </trkpt>
      <trkpt lat="46.42050426453352" lon="8.353057270869613">
        <ele>2567.8200000000002</ele>
        <time>2021-08-01T13:15:40Z</time>
      </trkpt>
      <trkpt lat="46.420508958399296" lon="8.353056851774454">
        <ele>2567.8200000000002</ele>
        <time>2021-08-01T13:16:00Z</time>
      </trkpt>
      <trkpt lat="46.420506360009313" lon="8.353054337203503">
        <ele>2567.8200000000002</ele>
        <time>2021-08-01T13:16:18Z</time>
      </trkpt>
      <trkpt lat="46.420504348352551" lon="8.353060455992818">
        <ele>2567.8200000000002</ele>
        <time>2021-08-01T13:16:26Z</time>
      </trkpt>
      <trkpt lat="46.420503929257393" lon="8.353060455992818">
        <ele>2567.8200000000002</ele>
        <time>2021-08-01T13:16:45Z</time>
      </trkpt>
      <trkpt lat="46.42050426453352" lon="8.353061461821199">
        <ele>2567.8200000000002</ele>
        <time>2021-08-01T13:17:09Z</time>
      </trkpt>
      <trkpt lat="46.420505773276091" lon="8.353064395487309">
        <ele>2567.8200000000002</ele>
        <time>2021-08-01T13:17:43Z</time>
      </trkpt>
      <trkpt lat="46.420503845438361" lon="8.353062383830547">
        <ele>2567.8200000000002</ele>
        <time>2021-08-01T13:17:59Z</time>
      </trkpt>
      <trkpt lat="46.420498481020331" lon="8.35306347347796">
        <ele>2567.8200000000002</ele>
        <time>2021-08-01T13:18:06Z</time>
      </trkpt>
      <trkpt lat="46.420498229563236" lon="8.353061126545072">
        <ele>2567.8200000000002</ele>
        <time>2021-08-01T13:18:37Z</time>
      </trkpt>
      <trkpt lat="46.4205018337816" lon="8.353067832067609">
        <ele>2567.8200000000002</ele>
        <time>2021-08-01T13:19:00Z</time>
      </trkpt>
      <trkpt lat="46.420522034168243" lon="8.35306984372437">
        <ele>2567.8200000000002</ele>
        <time>2021-08-01T13:19:08Z</time>
      </trkpt>
      <trkpt lat="46.420564195141196" lon="8.353027766570449">
        <ele>2567.8200000000002</ele>
        <time>2021-08-01T13:19:16Z</time>
      </trkpt>
      <trkpt lat="46.420623455196619" lon="8.35297311656177">
        <ele>2567.8200000000002</ele>
        <time>2021-08-01T13:19:25Z</time>
      </trkpt>
      <trkpt lat="46.420680787414312" lon="8.352936822921038">
        <ele>2567.8200000000002</ele>
        <time>2021-08-01T13:19:33Z</time>
      </trkpt>
      <trkpt lat="46.420730240643024" lon="8.352907821536064">
        <ele>2567.8200000000002</ele>
        <time>2021-08-01T13:19:40Z</time>
      </trkpt>
      <trkpt lat="46.420735353603959" lon="8.352897595614195">
        <ele>2568.3000000000002</ele>
        <time>2021-08-01T13:19:41Z</time>
      </trkpt>
      <trkpt lat="46.420751698315144" lon="8.352887369692326">
        <ele>2568.7800000000002</ele>
        <time>2021-08-01T13:19:43Z</time>
      </trkpt>
      <trkpt lat="46.42077206633985" lon="8.352884352207184">
        <ele>2568.7800000000002</ele>
        <time>2021-08-01T13:19:45Z</time>
      </trkpt>
      <trkpt lat="46.420818334445357" lon="8.352868845686317">
        <ele>2568.7800000000002</ele>
        <time>2021-08-01T13:19:53Z</time>
      </trkpt>
      <trkpt lat="46.420829817652702" lon="8.352867588400841">
        <ele>2569.2600000000002</ele>
        <time>2021-08-01T13:20:01Z</time>
      </trkpt>
      <trkpt lat="46.420837445184588" lon="8.352862726897001">
        <ele>2569.2600000000002</ele>
        <time>2021-08-01T13:20:02Z</time>
      </trkpt>
      <trkpt lat="46.420848425477743" lon="8.352858787402511">
        <ele>2569.2600000000002</ele>
        <time>2021-08-01T13:20:03Z</time>
      </trkpt>
      <trkpt lat="46.420860579237342" lon="8.352856524288654">
        <ele>2569.2600000000002</ele>
        <time>2021-08-01T13:20:04Z</time>
      </trkpt>
      <trkpt lat="46.420873152092099" lon="8.352854596450925">
        <ele>2569.2600000000002</ele>
        <time>2021-08-01T13:20:05Z</time>
      </trkpt>
      <trkpt lat="46.420984463766217" lon="8.352820063009858">
        <ele>2569.2600000000002</ele>
        <time>2021-08-01T13:20:15Z</time>
      </trkpt>
      <trkpt lat="46.421111449599266" lon="8.352756192907691">
        <ele>2568.7800000000002</ele>
        <time>2021-08-01T13:20:27Z</time>
      </trkpt>
      <trkpt lat="46.421242039650679" lon="8.352663153782487">
        <ele>2568.7800000000002</ele>
        <time>2021-08-01T13:20:40Z</time>
      </trkpt>
      <trkpt lat="46.42135351896286" lon="8.352582436054945">
        <ele>2568.7800000000002</ele>
        <time>2021-08-01T13:20:51Z</time>
      </trkpt>
      <trkpt lat="46.421382520347834" lon="8.352560056373477">
        <ele>2569.2600000000002</ele>
        <time>2021-08-01T13:20:56Z</time>
      </trkpt>
      <trkpt lat="46.421391069889069" lon="8.352552261203528">
        <ele>2569.2600000000002</ele>
        <time>2021-08-01T13:20:57Z</time>
      </trkpt>
      <trkpt lat="46.421401044353843" lon="8.352544382214546">
        <ele>2569.7399999999998</ele>
        <time>2021-08-01T13:20:58Z</time>
      </trkpt>
      <trkpt lat="46.421411270275712" lon="8.352535329759121">
        <ele>2569.7399999999998</ele>
        <time>2021-08-01T13:20:59Z</time>
      </trkpt>
      <trkpt lat="46.421421747654676" lon="8.352526947855949">
        <ele>2569.7399999999998</ele>
        <time>2021-08-01T13:21:00Z</time>
      </trkpt>
      <trkpt lat="46.421432057395577" lon="8.352518985047936">
        <ele>2569.7399999999998</ele>
        <time>2021-08-01T13:21:01Z</time>
      </trkpt>
      <trkpt lat="46.421564659103751" lon="8.352417480200529">
        <ele>2570.2199999999998</ele>
        <time>2021-08-01T13:21:14Z</time>
      </trkpt>
      <trkpt lat="46.421653172001243" lon="8.35234665311873">
        <ele>2570.6999999999998</ele>
        <time>2021-08-01T13:21:23Z</time>
      </trkpt>
      <trkpt lat="46.421775380149484" lon="8.352302983403206">
        <ele>2571.1799999999998</ele>
        <time>2021-08-01T13:21:34Z</time>
      </trkpt>
      <trkpt lat="46.421899264678359" lon="8.352315640076995">
        <ele>2569.7399999999998</ele>
        <time>2021-08-01T13:21:44Z</time>
      </trkpt>
      <trkpt lat="46.422042595222592" lon="8.352304827421904">
        <ele>2569.7399999999998</ele>
        <time>2021-08-01T13:21:56Z</time>
      </trkpt>
      <trkpt lat="46.42219296656549" lon="8.352309688925743">
        <ele>2569.2600000000002</ele>
        <time>2021-08-01T13:22:09Z</time>
      </trkpt>
      <trkpt lat="46.422287682071328" lon="8.352391328662634">
        <ele>2568.7800000000002</ele>
        <time>2021-08-01T13:22:19Z</time>
      </trkpt>
      <trkpt lat="46.422331184148788" lon="8.352421335875988">
        <ele>2568.7800000000002</ele>
        <time>2021-08-01T13:22:28Z</time>
      </trkpt>
      <trkpt lat="46.4223478641361" lon="8.352399962022901">
        <ele>2567.3400000000001</ele>
        <time>2021-08-01T13:22:38Z</time>
      </trkpt>
      <trkpt lat="46.42236739397049" lon="8.352363165467978">
        <ele>2566.3800000000001</ele>
        <time>2021-08-01T13:22:46Z</time>
      </trkpt>
      <trkpt lat="46.422369489446282" lon="8.352353693917394">
        <ele>2566.3800000000001</ele>
        <time>2021-08-01T13:22:47Z</time>
      </trkpt>
      <trkpt lat="46.422369489446282" lon="8.352317735552788">
        <ele>2565.9000000000001</ele>
        <time>2021-08-01T13:22:50Z</time>
      </trkpt>
      <trkpt lat="46.42238549888134" lon="8.352302145212889">
        <ele>2564.4499999999998</ele>
        <time>2021-08-01T13:22:57Z</time>
      </trkpt>
      <trkpt lat="46.42246562987566" lon="8.3522894885391">
        <ele>2563.0100000000002</ele>
        <time>2021-08-01T13:23:08Z</time>
      </trkpt>
      <trkpt lat="46.42250033095479" lon="8.352248081937432">
        <ele>2561.5700000000002</ele>
        <time>2021-08-01T13:23:16Z</time>
      </trkpt>
      <trkpt lat="46.42254282720387" lon="8.352210950106382">
        <ele>2559.1700000000001</ele>
        <time>2021-08-01T13:23:24Z</time>
      </trkpt>
      <trkpt lat="46.422590687870979" lon="8.352193767204881">
        <ele>2558.21</ele>
        <time>2021-08-01T13:23:32Z</time>
      </trkpt>
      <trkpt lat="46.42265715636313" lon="8.352179517969489">
        <ele>2555.8000000000002</ele>
        <time>2021-08-01T13:23:42Z</time>
      </trkpt>
      <trkpt lat="46.422659168019891" lon="8.352185385301709">
        <ele>2554.3600000000001</ele>
        <time>2021-08-01T13:23:54Z</time>
      </trkpt>
      <trkpt lat="46.42267526127398" lon="8.352188318967819">
        <ele>2553.4000000000001</ele>
        <time>2021-08-01T13:24:08Z</time>
      </trkpt>
      <trkpt lat="46.422713147476315" lon="8.352173399180174">
        <ele>2552.4400000000001</ele>
        <time>2021-08-01T13:24:18Z</time>
      </trkpt>
      <trkpt lat="46.422753380611539" lon="8.352162167429924">
        <ele>2551</ele>
        <time>2021-08-01T13:24:27Z</time>
      </trkpt>
      <trkpt lat="46.422798223793507" lon="8.352149175480008">
        <ele>2549.5500000000002</ele>
        <time>2021-08-01T13:24:36Z</time>
      </trkpt>
      <trkpt lat="46.422817083075643" lon="8.352151857689023">
        <ele>2547.6300000000001</ele>
        <time>2021-08-01T13:24:45Z</time>
      </trkpt>
      <trkpt lat="46.42284088768065" lon="8.352157389745116">
        <ele>2546.6700000000001</ele>
        <time>2021-08-01T13:24:53Z</time>
      </trkpt>
      <trkpt lat="46.42288925126195" lon="8.352250847965479">
        <ele>2545.23</ele>
        <time>2021-08-01T13:25:02Z</time>
      </trkpt>
      <trkpt lat="46.42289662733674" lon="8.35226115770638">
        <ele>2545.23</ele>
        <time>2021-08-01T13:25:03Z</time>
      </trkpt>
      <trkpt lat="46.422927724197507" lon="8.352338019758463">
        <ele>2543.79</ele>
        <time>2021-08-01T13:25:08Z</time>
      </trkpt>
      <trkpt lat="46.422946667298675" lon="8.352383868768811">
        <ele>2543.3099999999999</ele>
        <time>2021-08-01T13:25:11Z</time>
      </trkpt>
      <trkpt lat="46.423053117468953" lon="8.352422593161464">
        <ele>2542.3400000000001</ele>
        <time>2021-08-01T13:25:20Z</time>
      </trkpt>
      <trkpt lat="46.423128135502338" lon="8.352411948144436">
        <ele>2541.3800000000001</ele>
        <time>2021-08-01T13:25:30Z</time>
      </trkpt>
      <trkpt lat="46.423166189342737" lon="8.352360399439931">
        <ele>2540.4200000000001</ele>
        <time>2021-08-01T13:25:39Z</time>
      </trkpt>
      <trkpt lat="46.423204662278295" lon="8.352358136326075">
        <ele>2539.46</ele>
        <time>2021-08-01T13:25:47Z</time>
      </trkpt>
      <trkpt lat="46.42326601780951" lon="8.352366937324405">
        <ele>2538.5</ele>
        <time>2021-08-01T13:25:57Z</time>
      </trkpt>
      <trkpt lat="46.423304993659258" lon="8.352389484643936">
        <ele>2537.54</ele>
        <time>2021-08-01T13:26:05Z</time>
      </trkpt>
      <trkpt lat="46.423321757465601" lon="8.352411696687341">
        <ele>2535.6100000000001</ele>
        <time>2021-08-01T13:26:15Z</time>
      </trkpt>
      <trkpt lat="46.423344723880291" lon="8.352423766627908">
        <ele>2533.6900000000001</ele>
        <time>2021-08-01T13:26:28Z</time>
      </trkpt>
      <trkpt lat="46.423382190987468" lon="8.352459892630577">
        <ele>2531.77</ele>
        <time>2021-08-01T13:26:35Z</time>
      </trkpt>
      <trkpt lat="46.423386549577117" lon="8.352457545697689">
        <ele>2531.77</ele>
        <time>2021-08-01T13:26:36Z</time>
      </trkpt>
      <trkpt lat="46.423477157950401" lon="8.352459389716387">
        <ele>2530.3299999999999</ele>
        <time>2021-08-01T13:26:47Z</time>
      </trkpt>
      <trkpt lat="46.423502555117011" lon="8.352466765791178">
        <ele>2528.8899999999999</ele>
        <time>2021-08-01T13:26:56Z</time>
      </trkpt>
      <trkpt lat="46.423531472682953" lon="8.352439943701029">
        <ele>2528.4000000000001</ele>
        <time>2021-08-01T13:27:06Z</time>
      </trkpt>
      <trkpt lat="46.423543374985456" lon="8.352407338097692">
        <ele>2527.4400000000001</ele>
        <time>2021-08-01T13:27:15Z</time>
      </trkpt>
      <trkpt lat="46.423536585643888" lon="8.352393675595522">
        <ele>2525.52</ele>
        <time>2021-08-01T13:27:25Z</time>
      </trkpt>
      <trkpt lat="46.423537759110332" lon="8.352382862940431">
        <ele>2524.0799999999999</ele>
        <time>2021-08-01T13:27:38Z</time>
      </trkpt>
      <trkpt lat="46.423542369157076" lon="8.352371547371149">
        <ele>2524.0799999999999</ele>
        <time>2021-08-01T13:27:55Z</time>
      </trkpt>
      <trkpt lat="46.423550918698311" lon="8.352363249287009">
        <ele>2523.5999999999999</ele>
        <time>2021-08-01T13:28:08Z</time>
      </trkpt>
      <trkpt lat="46.423546224832535" lon="8.352346485480666">
        <ele>2522.6399999999999</ele>
        <time>2021-08-01T13:28:16Z</time>
      </trkpt>
      <trkpt lat="46.423548068851233" lon="8.352315472438932">
        <ele>2523.1199999999999</ele>
        <time>2021-08-01T13:28:28Z</time>
      </trkpt>
      <trkpt lat="46.423546392470598" lon="8.352284459397197">
        <ele>2521.1900000000001</ele>
        <time>2021-08-01T13:28:45Z</time>
      </trkpt>
      <trkpt lat="46.423549745231867" lon="8.352231653407216">
        <ele>2520.71</ele>
        <time>2021-08-01T13:28:52Z</time>
      </trkpt>
      <trkpt lat="46.423577070236206" lon="8.352237856015563">
        <ele>2519.27</ele>
        <time>2021-08-01T13:29:02Z</time>
      </trkpt>
      <trkpt lat="46.423623757436872" lon="8.352206340059638">
        <ele>2519.27</ele>
        <time>2021-08-01T13:29:10Z</time>
      </trkpt>
      <trkpt lat="46.423655273392797" lon="8.35219569504261">
        <ele>2519.27</ele>
        <time>2021-08-01T13:29:19Z</time>
      </trkpt>
      <trkpt lat="46.423727525398135" lon="8.352168872952461">
        <ele>2518.79</ele>
        <time>2021-08-01T13:29:28Z</time>
      </trkpt>
      <trkpt lat="46.423826096579432" lon="8.352130986750126">
        <ele>2515.9099999999999</ele>
        <time>2021-08-01T13:29:39Z</time>
      </trkpt>
      <trkpt lat="46.423842944204807" lon="8.352145571261644">
        <ele>2513.02</ele>
        <time>2021-08-01T13:29:46Z</time>
      </trkpt>
      <trkpt lat="46.423840178176761" lon="8.352147750556469">
        <ele>2512.54</ele>
        <time>2021-08-01T13:29:48Z</time>
      </trkpt>
      <trkpt lat="46.423843950033188" lon="8.352143727242947">
        <ele>2511.5799999999999</ele>
        <time>2021-08-01T13:29:56Z</time>
      </trkpt>
      <trkpt lat="46.423886781558394" lon="8.352165268734098">
        <ele>2513.02</ele>
        <time>2021-08-01T13:30:01Z</time>
      </trkpt>
      <trkpt lat="46.423945790156722" lon="8.352192174643278">
        <ele>2513.02</ele>
        <time>2021-08-01T13:30:07Z</time>
      </trkpt>
      <trkpt lat="46.423977892845869" lon="8.352168537676334">
        <ele>2513.02</ele>
        <time>2021-08-01T13:30:11Z</time>
      </trkpt>
      <trkpt lat="46.423973450437188" lon="8.352034594863653">
        <ele>2513.02</ele>
        <time>2021-08-01T13:30:20Z</time>
      </trkpt>
      <trkpt lat="46.423950651660562" lon="8.351870225742459">
        <ele>2513.02</ele>
        <time>2021-08-01T13:30:30Z</time>
      </trkpt>
      <trkpt lat="46.423927517607808" lon="8.351726392284036">
        <ele>2512.0599999999999</ele>
        <time>2021-08-01T13:30:39Z</time>
      </trkpt>
      <trkpt lat="46.423907233402133" lon="8.351628826931119">
        <ele>2511.5799999999999</ele>
        <time>2021-08-01T13:30:46Z</time>
      </trkpt>
      <trkpt lat="46.423883261159062" lon="8.351545846089721">
        <ele>2510.1399999999999</ele>
        <time>2021-08-01T13:30:53Z</time>
      </trkpt>
      <trkpt lat="46.423843866214156" lon="8.351394133642316">
        <ele>2508.2199999999998</ele>
        <time>2021-08-01T13:31:04Z</time>
      </trkpt>
      <trkpt lat="46.423847051337361" lon="8.351366892457008">
        <ele>2507.2600000000002</ele>
        <time>2021-08-01T13:31:07Z</time>
      </trkpt>
      <trkpt lat="46.423876974731684" lon="8.351382818073034">
        <ele>2506.77</ele>
        <time>2021-08-01T13:31:10Z</time>
      </trkpt>
      <trkpt lat="46.423887619748712" lon="8.351391367614269">
        <ele>2506.29</ele>
        <time>2021-08-01T13:31:11Z</time>
      </trkpt>
      <trkpt lat="46.423898516222835" lon="8.351399665698409">
        <ele>2506.29</ele>
        <time>2021-08-01T13:31:12Z</time>
      </trkpt>
      <trkpt lat="46.423975126817822" lon="8.351485999301076">
        <ele>2503.8899999999999</ele>
        <time>2021-08-01T13:31:22Z</time>
      </trkpt>
      <trkpt lat="46.423985939472914" lon="8.351484155282378">
        <ele>2503.8899999999999</ele>
        <time>2021-08-01T13:31:24Z</time>
      </trkpt>
      <trkpt lat="46.42402047291398" lon="8.351512737572193">
        <ele>2503.4099999999999</ele>
        <time>2021-08-01T13:31:30Z</time>
      </trkpt>
      <trkpt lat="46.424055425450206" lon="8.351587252691388">
        <ele>2503.4099999999999</ele>
        <time>2021-08-01T13:31:37Z</time>
      </trkpt>
      <trkpt lat="46.424083756282926" lon="8.351643662899733">
        <ele>2503.4099999999999</ele>
        <time>2021-08-01T13:31:44Z</time>
      </trkpt>
      <trkpt lat="46.42408886924386" lon="8.351654978469014">
        <ele>2503.4099999999999</ele>
        <time>2021-08-01T13:31:45Z</time>
      </trkpt>
      <trkpt lat="46.424144944176078" lon="8.351781545206904">
        <ele>2502.4499999999998</ele>
        <time>2021-08-01T13:31:56Z</time>
      </trkpt>
      <trkpt lat="46.424204036593437" lon="8.351945076137781">
        <ele>2501.0100000000002</ele>
        <time>2021-08-01T13:32:08Z</time>
      </trkpt>
      <trkpt lat="46.424218453466892" lon="8.35200265981257">
        <ele>2500.5300000000002</ele>
        <time>2021-08-01T13:32:13Z</time>
      </trkpt>
      <trkpt lat="46.424223566427827" lon="8.352016154676676">
        <ele>2500.5300000000002</ele>
        <time>2021-08-01T13:32:14Z</time>
      </trkpt>
      <trkpt lat="46.424228260293603" lon="8.352030655369163">
        <ele>2500.5300000000002</ele>
        <time>2021-08-01T13:32:15Z</time>
      </trkpt>
      <trkpt lat="46.424233457073569" lon="8.352045156061649">
        <ele>2500.5300000000002</ele>
        <time>2021-08-01T13:32:16Z</time>
      </trkpt>
      <trkpt lat="46.424238486215472" lon="8.352060243487358">
        <ele>2500.5300000000002</ele>
        <time>2021-08-01T13:32:17Z</time>
      </trkpt>
      <trkpt lat="46.424303697422147" lon="8.352182032540441">
        <ele>2499.5700000000002</ele>
        <time>2021-08-01T13:32:28Z</time>
      </trkpt>
      <trkpt lat="46.424372680485249" lon="8.352214973419905">
        <ele>2497.1599999999999</ele>
        <time>2021-08-01T13:32:37Z</time>
      </trkpt>
      <trkpt lat="46.424428839236498" lon="8.352263169363141">
        <ele>2495.2399999999998</ele>
        <time>2021-08-01T13:32:45Z</time>
      </trkpt>
      <trkpt lat="46.424478543922305" lon="8.352312035858631">
        <ele>2494.7600000000002</ele>
        <time>2021-08-01T13:32:53Z</time>
      </trkpt>
      <trkpt lat="46.424521626904607" lon="8.352306419983506">
        <ele>2493.3200000000002</ele>
        <time>2021-08-01T13:33:00Z</time>
      </trkpt>
      <trkpt lat="46.424596393480897" lon="8.352354951202869">
        <ele>2493.3200000000002</ele>
        <time>2021-08-01T13:33:10Z</time>
      </trkpt>
      <trkpt lat="46.424603769555688" lon="8.352360567077994">
        <ele>2493.3200000000002</ele>
        <time>2021-08-01T13:33:11Z</time>
      </trkpt>
      <trkpt lat="46.424619862809777" lon="8.352372972294688">
        <ele>2493.3200000000002</ele>
        <time>2021-08-01T13:33:13Z</time>
      </trkpt>
      <trkpt lat="46.424663281068206" lon="8.352427957579494">
        <ele>2492.3600000000001</ele>
        <time>2021-08-01T13:33:22Z</time>
      </trkpt>
      <trkpt lat="46.424672333523631" lon="8.352353191003203">
        <ele>2489.4699999999998</ele>
        <time>2021-08-01T13:33:29Z</time>
      </trkpt>
      <trkpt lat="46.424701670184731" lon="8.352374816313386">
        <ele>2487.0700000000002</ele>
        <time>2021-08-01T13:33:37Z</time>
      </trkpt>
      <trkpt lat="46.424721535295248" lon="8.352448828518391">
        <ele>2484.6599999999999</ele>
        <time>2021-08-01T13:33:47Z</time>
      </trkpt>
      <trkpt lat="46.424742573872209" lon="8.352500963956118">
        <ele>2481.7800000000002</ele>
        <time>2021-08-01T13:33:56Z</time>
      </trkpt>
      <trkpt lat="46.424746681004763" lon="8.352508340030909">
        <ele>2481.3000000000002</ele>
        <time>2021-08-01T13:33:57Z</time>
      </trkpt>
      <trkpt lat="46.424766462296247" lon="8.352527199313045">
        <ele>2479.3800000000001</ele>
        <time>2021-08-01T13:34:05Z</time>
      </trkpt>
      <trkpt lat="46.424786075949669" lon="8.352573718875647">
        <ele>2477.9400000000001</ele>
        <time>2021-08-01T13:34:10Z</time>
      </trkpt>
      <trkpt lat="46.424839217215776" lon="8.352661477401853">
        <ele>2476.4899999999998</ele>
        <time>2021-08-01T13:34:20Z</time>
      </trkpt>
      <trkpt lat="46.424842486158013" lon="8.352667847648263">
        <ele>2476.0100000000002</ele>
        <time>2021-08-01T13:34:22Z</time>
      </trkpt>
      <trkpt lat="46.424864530563354" lon="8.352699531242251">
        <ele>2476.0100000000002</ele>
        <time>2021-08-01T13:34:25Z</time>
      </trkpt>
      <trkpt lat="46.424902668222785" lon="8.352737417444587">
        <ele>2476.0100000000002</ele>
        <time>2021-08-01T13:34:30Z</time>
      </trkpt>
      <trkpt lat="46.424973160028458" lon="8.352806149050593">
        <ele>2476.0100000000002</ele>
        <time>2021-08-01T13:34:39Z</time>
      </trkpt>
      <trkpt lat="46.425072820857167" lon="8.352947132661939">
        <ele>2474.0900000000001</ele>
        <time>2021-08-01T13:34:55Z</time>
      </trkpt>
      <trkpt lat="46.425153119489551" lon="8.353026090189815">
        <ele>2471.6900000000001</ele>
        <time>2021-08-01T13:35:06Z</time>
      </trkpt>
      <trkpt lat="46.425208440050483" lon="8.353083673864603">
        <ele>2470.2399999999998</ele>
        <time>2021-08-01T13:35:13Z</time>
      </trkpt>
      <trkpt lat="46.425279937684536" lon="8.353190962225199">
        <ele>2468.3200000000002</ele>
        <time>2021-08-01T13:35:23Z</time>
      </trkpt>
      <trkpt lat="46.425350094214082" lon="8.353256927803159">
        <ele>2466.8800000000001</ele>
        <time>2021-08-01T13:35:32Z</time>
      </trkpt>
      <trkpt lat="46.425372054800391" lon="8.353277463465929">
        <ele>2466.4000000000001</ele>
        <time>2021-08-01T13:35:35Z</time>
      </trkpt>
      <trkpt lat="46.425378592684865" lon="8.353286348283291">
        <ele>2466.4000000000001</ele>
        <time>2021-08-01T13:35:36Z</time>
      </trkpt>
      <trkpt lat="46.425385465845466" lon="8.353295736014843">
        <ele>2466.4000000000001</ele>
        <time>2021-08-01T13:35:37Z</time>
      </trkpt>
      <trkpt lat="46.425393177196383" lon="8.353308644145727">
        <ele>2465.9200000000001</ele>
        <time>2021-08-01T13:35:38Z</time>
      </trkpt>
      <trkpt lat="46.425402648746967" lon="8.353323228657246">
        <ele>2465.4400000000001</ele>
        <time>2021-08-01T13:35:39Z</time>
      </trkpt>
      <trkpt lat="46.425420753657818" lon="8.353351978585124">
        <ele>2465.4400000000001</ele>
        <time>2021-08-01T13:35:41Z</time>
      </trkpt>
      <trkpt lat="46.425425698980689" lon="8.353367652744055">
        <ele>2464.96</ele>
        <time>2021-08-01T13:35:42Z</time>
      </trkpt>
      <trkpt lat="46.42542963847518" lon="8.353386931121349">
        <ele>2464.96</ele>
        <time>2021-08-01T13:35:43Z</time>
      </trkpt>
      <trkpt lat="46.42543307505548" lon="8.353406963869929">
        <ele>2464.48</ele>
        <time>2021-08-01T13:35:44Z</time>
      </trkpt>
      <trkpt lat="46.425461070612073" lon="8.353533279150724">
        <ele>2464</ele>
        <time>2021-08-01T13:35:52Z</time>
      </trkpt>
      <trkpt lat="46.425487892702222" lon="8.353602178394795">
        <ele>2463.52</ele>
        <time>2021-08-01T13:35:59Z</time>
      </trkpt>
      <trkpt lat="46.425498453900218" lon="8.353611817583442">
        <ele>2463.04</ele>
        <time>2021-08-01T13:36:01Z</time>
      </trkpt>
      <trkpt lat="46.425502728670835" lon="8.35362296551466">
        <ele>2463.04</ele>
        <time>2021-08-01T13:36:02Z</time>
      </trkpt>
      <trkpt lat="46.425508679822087" lon="8.353650290518999">
        <ele>2463.04</ele>
        <time>2021-08-01T13:36:04Z</time>
      </trkpt>
      <trkpt lat="46.425512535497546" lon="8.353664623573422">
        <ele>2463.04</ele>
        <time>2021-08-01T13:36:05Z</time>
      </trkpt>
      <trkpt lat="46.425516726449132" lon="8.353680046275258">
        <ele>2463.04</ele>
        <time>2021-08-01T13:36:06Z</time>
      </trkpt>
      <trkpt lat="46.425520833581686" lon="8.353695636615157">
        <ele>2463.04</ele>
        <time>2021-08-01T13:36:07Z</time>
      </trkpt>
      <trkpt lat="46.425522929057479" lon="8.353713070973754">
        <ele>2463.04</ele>
        <time>2021-08-01T13:36:08Z</time>
      </trkpt>
      <trkpt lat="46.425526197999716" lon="8.353731175884605">
        <ele>2463.04</ele>
        <time>2021-08-01T13:36:09Z</time>
      </trkpt>
      <trkpt lat="46.425531059503555" lon="8.353747855871916">
        <ele>2463.04</ele>
        <time>2021-08-01T13:36:10Z</time>
      </trkpt>
      <trkpt lat="46.425539273768663" lon="8.353764871135354">
        <ele>2463.04</ele>
        <time>2021-08-01T13:36:11Z</time>
      </trkpt>
      <trkpt lat="46.425548158586025" lon="8.35378129966557">
        <ele>2463.04</ele>
        <time>2021-08-01T13:36:12Z</time>
      </trkpt>
      <trkpt lat="46.425556289032102" lon="8.353798817843199">
        <ele>2462.5500000000002</ele>
        <time>2021-08-01T13:36:13Z</time>
      </trkpt>
      <trkpt lat="46.425625188276172" lon="8.353944579139352">
        <ele>2462.0700000000002</ele>
        <time>2021-08-01T13:36:23Z</time>
      </trkpt>
      <trkpt lat="46.42570037394762" lon="8.354104841127992">
        <ele>2460.6300000000001</ele>
        <time>2021-08-01T13:36:35Z</time>
      </trkpt>
      <trkpt lat="46.425711354240775" lon="8.354140548035502">
        <ele>2460.6300000000001</ele>
        <time>2021-08-01T13:36:38Z</time>
      </trkpt>
      <trkpt lat="46.425739182159305" lon="8.3542615827173">
        <ele>2461.1100000000001</ele>
        <time>2021-08-01T13:36:49Z</time>
      </trkpt>
      <trkpt lat="46.425736164674163" lon="8.354259738698602">
        <ele>2461.1100000000001</ele>
        <time>2021-08-01T13:37:04Z</time>
      </trkpt>
      <trkpt lat="46.425750581547618" lon="8.354311287403107">
        <ele>2460.6300000000001</ele>
        <time>2021-08-01T13:37:18Z</time>
      </trkpt>
      <trkpt lat="46.425785282626748" lon="8.354440620169044">
        <ele>2460.6300000000001</ele>
        <time>2021-08-01T13:37:29Z</time>
      </trkpt>
      <trkpt lat="46.425789389759302" lon="8.354453360661864">
        <ele>2460.6300000000001</ele>
        <time>2021-08-01T13:37:30Z</time>
      </trkpt>
      <trkpt lat="46.425794335082173" lon="8.354465933516622">
        <ele>2460.6300000000001</ele>
        <time>2021-08-01T13:37:31Z</time>
      </trkpt>
      <trkpt lat="46.425841776654124" lon="8.354602055624127">
        <ele>2459.6700000000001</ele>
        <time>2021-08-01T13:37:42Z</time>
      </trkpt>
      <trkpt lat="46.42592559568584" lon="8.354698782786727">
        <ele>2459.1900000000001</ele>
        <time>2021-08-01T13:37:52Z</time>
      </trkpt>
      <trkpt lat="46.426011174917221" lon="8.354751756414771">
        <ele>2458.71</ele>
        <time>2021-08-01T13:38:02Z</time>
      </trkpt>
      <trkpt lat="46.42610345967114" lon="8.354803221300244">
        <ele>2458.23</ele>
        <time>2021-08-01T13:38:12Z</time>
      </trkpt>
      <trkpt lat="46.426172526553273" lon="8.35484404116869">
        <ele>2457.27</ele>
        <time>2021-08-01T13:38:20Z</time>
      </trkpt>
      <trkpt lat="46.426236648112535" lon="8.354909839108586">
        <ele>2456.79</ele>
        <time>2021-08-01T13:38:29Z</time>
      </trkpt>
      <trkpt lat="46.426259698346257" lon="8.355025593191385">
        <ele>2454.3800000000001</ele>
        <time>2021-08-01T13:38:40Z</time>
      </trkpt>
      <trkpt lat="46.426283167675138" lon="8.355174791067839">
        <ele>2451.98</ele>
        <time>2021-08-01T13:38:51Z</time>
      </trkpt>
      <trkpt lat="46.426325747743249" lon="8.355305632576346">
        <ele>2449.0999999999999</ele>
        <time>2021-08-01T13:39:03Z</time>
      </trkpt>
      <trkpt lat="46.426345780491829" lon="8.355430439114571">
        <ele>2446.6900000000001</ele>
        <time>2021-08-01T13:39:12Z</time>
      </trkpt>
      <trkpt lat="46.426342763006687" lon="8.355482574552298">
        <ele>2445.73</ele>
        <time>2021-08-01T13:39:15Z</time>
      </trkpt>
      <trkpt lat="46.426325244829059" lon="8.355568572878838">
        <ele>2444.77</ele>
        <time>2021-08-01T13:39:20Z</time>
      </trkpt>
      <trkpt lat="46.426337733864784" lon="8.35570159368217">
        <ele>2443.8099999999999</ele>
        <time>2021-08-01T13:39:29Z</time>
      </trkpt>
      <trkpt lat="46.426352150738239" lon="8.35580762475729">
        <ele>2442.8499999999999</ele>
        <time>2021-08-01T13:39:37Z</time>
      </trkpt>
      <trkpt lat="46.42637025564909" lon="8.355872668325901">
        <ele>2442.3699999999999</ele>
        <time>2021-08-01T13:39:42Z</time>
      </trkpt>
      <trkpt lat="46.426376458257437" lon="8.355885492637754">
        <ele>2442.3699999999999</ele>
        <time>2021-08-01T13:39:43Z</time>
      </trkpt>
      <trkpt lat="46.42638492397964" lon="8.355898484587669">
        <ele>2441.8899999999999</ele>
        <time>2021-08-01T13:39:44Z</time>
      </trkpt>
      <trkpt lat="46.42639322206378" lon="8.355913320556283">
        <ele>2441.8899999999999</ele>
        <time>2021-08-01T13:39:45Z</time>
      </trkpt>
      <trkpt lat="46.426400346681476" lon="8.355929162353277">
        <ele>2441.4099999999999</ele>
        <time>2021-08-01T13:39:46Z</time>
      </trkpt>
      <trkpt lat="46.426414344459772" lon="8.35598791949451">
        <ele>2440.4400000000001</ele>
        <time>2021-08-01T13:39:50Z</time>
      </trkpt>
      <trkpt lat="46.426419960334897" lon="8.356034019961953">
        <ele>2439.96</ele>
        <time>2021-08-01T13:39:53Z</time>
      </trkpt>
      <trkpt lat="46.426424570381641" lon="8.356045922264457">
        <ele>2439.96</ele>
        <time>2021-08-01T13:39:54Z</time>
      </trkpt>
      <trkpt lat="46.426453068852425" lon="8.356147427111864">
        <ele>2438.04</ele>
        <time>2021-08-01T13:40:01Z</time>
      </trkpt>
      <trkpt lat="46.426456086337566" lon="8.356160838156939">
        <ele>2438.04</ele>
        <time>2021-08-01T13:40:02Z</time>
      </trkpt>
      <trkpt lat="46.426477460190654" lon="8.356211464852095">
        <ele>2437.0799999999999</ele>
        <time>2021-08-01T13:40:08Z</time>
      </trkpt>
      <trkpt lat="46.426523728296161" lon="8.356266031041741">
        <ele>2435.6399999999999</ele>
        <time>2021-08-01T13:40:16Z</time>
      </trkpt>
      <trkpt lat="46.426549293100834" lon="8.356311377137899">
        <ele>2434.6799999999998</ele>
        <time>2021-08-01T13:40:20Z</time>
      </trkpt>
      <trkpt lat="46.426555830985308" lon="8.35632068105042">
        <ele>2434.1999999999998</ele>
        <time>2021-08-01T13:40:21Z</time>
      </trkpt>
      <trkpt lat="46.426568990573287" lon="8.356395028531551">
        <ele>2433.71</ele>
        <time>2021-08-01T13:40:27Z</time>
      </trkpt>
      <trkpt lat="46.426573768258095" lon="8.356544058769941">
        <ele>2433.23</ele>
        <time>2021-08-01T13:40:36Z</time>
      </trkpt>
      <trkpt lat="46.426608469337225" lon="8.356705494225025">
        <ele>2432.27</ele>
        <time>2021-08-01T13:40:48Z</time>
      </trkpt>
      <trkpt lat="46.426634788513184" lon="8.356824517250061">
        <ele>2431.79</ele>
        <time>2021-08-01T13:40:56Z</time>
      </trkpt>
      <trkpt lat="46.426672087982297" lon="8.357017636299133">
        <ele>2431.3099999999999</ele>
        <time>2021-08-01T13:41:08Z</time>
      </trkpt>
      <trkpt lat="46.426702095195651" lon="8.357220394536853">
        <ele>2430.8299999999999</ele>
        <time>2021-08-01T13:41:20Z</time>
      </trkpt>
      <trkpt lat="46.426717266440392" lon="8.357368670403957">
        <ele>2429.8699999999999</ele>
        <time>2021-08-01T13:41:30Z</time>
      </trkpt>
      <trkpt lat="46.426715673878789" lon="8.357410999014974">
        <ele>2429.8699999999999</ele>
        <time>2021-08-01T13:41:33Z</time>
      </trkpt>
      <trkpt lat="46.426712656393647" lon="8.357424745336175">
        <ele>2429.3899999999999</ele>
        <time>2021-08-01T13:41:34Z</time>
      </trkpt>
      <trkpt lat="46.426705867052078" lon="8.357454752549529">
        <ele>2429.3899999999999</ele>
        <time>2021-08-01T13:41:36Z</time>
      </trkpt>
      <trkpt lat="46.426703687757254" lon="8.35746992379427">
        <ele>2429.3899999999999</ele>
        <time>2021-08-01T13:41:37Z</time>
      </trkpt>
      <trkpt lat="46.426706789061427" lon="8.357600262388587">
        <ele>2428.4299999999998</ele>
        <time>2021-08-01T13:41:46Z</time>
      </trkpt>
      <trkpt lat="46.426698658615351" lon="8.357698330655694">
        <ele>2426.5</ele>
        <time>2021-08-01T13:41:55Z</time>
      </trkpt>
      <trkpt lat="46.426716176792979" lon="8.357777958735824">
        <ele>2424.5799999999999</ele>
        <time>2021-08-01T13:42:04Z</time>
      </trkpt>
      <trkpt lat="46.426751296967268" lon="8.357829758897424">
        <ele>2422.1799999999998</ele>
        <time>2021-08-01T13:42:13Z</time>
      </trkpt>
      <trkpt lat="46.426773425191641" lon="8.357900753617287">
        <ele>2420.7399999999998</ele>
        <time>2021-08-01T13:42:21Z</time>
      </trkpt>
      <trkpt lat="46.426780633628368" lon="8.357936041429639">
        <ele>2419.7800000000002</ele>
        <time>2021-08-01T13:42:41Z</time>
      </trkpt>
      <trkpt lat="46.426803432404995" lon="8.3580123167485">
        <ele>2418.8099999999999</ele>
        <time>2021-08-01T13:42:49Z</time>
      </trkpt>
      <trkpt lat="46.426823381334543" lon="8.358054561540484">
        <ele>2416.4099999999999</ele>
        <time>2021-08-01T13:42:57Z</time>
      </trkpt>
      <trkpt lat="46.426847940310836" lon="8.358089849352837">
        <ele>2414.9699999999998</ele>
        <time>2021-08-01T13:43:15Z</time>
      </trkpt>
      <trkpt lat="46.426854142919183" lon="8.358100578188896">
        <ele>2414.9699999999998</ele>
        <time>2021-08-01T13:43:16Z</time>
      </trkpt>
      <trkpt lat="46.42689747735858" lon="8.358164867386222">
        <ele>2414.4899999999998</ele>
        <time>2021-08-01T13:43:23Z</time>
      </trkpt>
      <trkpt lat="46.426900578662753" lon="8.358178362250328">
        <ele>2414.0100000000002</ele>
        <time>2021-08-01T13:43:24Z</time>
      </trkpt>
      <trkpt lat="46.426932848989964" lon="8.358272239565849">
        <ele>2413.0500000000002</ele>
        <time>2021-08-01T13:43:33Z</time>
      </trkpt>
      <trkpt lat="46.426939554512501" lon="8.358296798542142">
        <ele>2413.0500000000002</ele>
        <time>2021-08-01T13:43:35Z</time>
      </trkpt>
      <trkpt lat="46.426971154287457" lon="8.358413139358163">
        <ele>2411.1199999999999</ele>
        <time>2021-08-01T13:43:45Z</time>
      </trkpt>
      <trkpt lat="46.427008118480444" lon="8.358498634770513">
        <ele>2409.6799999999998</ele>
        <time>2021-08-01T13:43:53Z</time>
      </trkpt>
      <trkpt lat="46.427049357444048" lon="8.358545573428273">
        <ele>2408.7199999999998</ele>
        <time>2021-08-01T13:43:59Z</time>
      </trkpt>
      <trkpt lat="46.427080370485783" lon="8.358625033870339">
        <ele>2406.3200000000002</ele>
        <time>2021-08-01T13:44:07Z</time>
      </trkpt>
      <trkpt lat="46.427097469568253" lon="8.358672894537449">
        <ele>2404.8800000000001</ele>
        <time>2021-08-01T13:44:16Z</time>
      </trkpt>
      <trkpt lat="46.427127057686448" lon="8.358748499304056">
        <ele>2403.4299999999998</ele>
        <time>2021-08-01T13:44:25Z</time>
      </trkpt>
      <trkpt lat="46.427143067121506" lon="8.358842376619577">
        <ele>2401.0300000000002</ele>
        <time>2021-08-01T13:44:36Z</time>
      </trkpt>
      <trkpt lat="46.42714524641633" lon="8.358851429075003">
        <ele>2401.0300000000002</ele>
        <time>2021-08-01T13:44:37Z</time>
      </trkpt>
      <trkpt lat="46.427167290821671" lon="8.358929799869657">
        <ele>2399.5900000000001</ele>
        <time>2021-08-01T13:44:45Z</time>
      </trkpt>
      <trkpt lat="46.427190843969584" lon="8.35903842933476">
        <ele>2398.1500000000001</ele>
        <time>2021-08-01T13:44:56Z</time>
      </trkpt>
      <trkpt lat="46.427209032699466" lon="8.359123170375824">
        <ele>2396.6999999999998</ele>
        <time>2021-08-01T13:45:03Z</time>
      </trkpt>
      <trkpt lat="46.427247757092118" lon="8.359274631366134">
        <ele>2394.3000000000002</ele>
        <time>2021-08-01T13:45:14Z</time>
      </trkpt>
      <trkpt lat="46.427275668829679" lon="8.359340932220221">
        <ele>2393.8200000000002</ele>
        <time>2021-08-01T13:45:20Z</time>
      </trkpt>
      <trkpt lat="46.427282374352217" lon="8.359353421255946">
        <ele>2393.8200000000002</ele>
        <time>2021-08-01T13:45:21Z</time>
      </trkpt>
      <trkpt lat="46.427289834246039" lon="8.359370017424226">
        <ele>2393.3400000000001</ele>
        <time>2021-08-01T13:45:22Z</time>
      </trkpt>
      <trkpt lat="46.427306346595287" lon="8.35941075347364">
        <ele>2392.8600000000001</ele>
        <time>2021-08-01T13:45:25Z</time>
      </trkpt>
      <trkpt lat="46.427311291918159" lon="8.359423326328397">
        <ele>2392.3800000000001</ele>
        <time>2021-08-01T13:45:26Z</time>
      </trkpt>
      <trkpt lat="46.427347334101796" lon="8.359550144523382">
        <ele>2390.9400000000001</ele>
        <time>2021-08-01T13:45:35Z</time>
      </trkpt>
      <trkpt lat="46.427390417084098" lon="8.359625833109021">
        <ele>2389.4899999999998</ele>
        <time>2021-08-01T13:45:44Z</time>
      </trkpt>
      <trkpt lat="46.427426459267735" lon="8.35969565436244">
        <ele>2387.5700000000002</ele>
        <time>2021-08-01T13:45:54Z</time>
      </trkpt>
      <trkpt lat="46.427457053214312" lon="8.359751226380467">
        <ele>2385.6500000000001</ele>
        <time>2021-08-01T13:46:03Z</time>
      </trkpt>
      <trkpt lat="46.427491083741188" lon="8.359830183908343">
        <ele>2383.73</ele>
        <time>2021-08-01T13:46:14Z</time>
      </trkpt>
      <trkpt lat="46.427497118711472" lon="8.359861532226205">
        <ele>2382.2800000000002</ele>
        <time>2021-08-01T13:46:23Z</time>
      </trkpt>
      <trkpt lat="46.427491754293442" lon="8.359873099252582">
        <ele>2381.8000000000002</ele>
        <time>2021-08-01T13:46:41Z</time>
      </trkpt>
      <trkpt lat="46.427498627454042" lon="8.359900340437889">
        <ele>2381.3200000000002</ele>
        <time>2021-08-01T13:46:57Z</time>
      </trkpt>
      <trkpt lat="46.427527796477079" lon="8.359983740374446">
        <ele>2379.4000000000001</ele>
        <time>2021-08-01T13:47:07Z</time>
      </trkpt>
      <trkpt lat="46.427564844489098" lon="8.360084658488631">
        <ele>2377.96</ele>
        <time>2021-08-01T13:47:17Z</time>
      </trkpt>
      <trkpt lat="46.427633827552199" lon="8.360195718705654">
        <ele>2376.04</ele>
        <time>2021-08-01T13:47:30Z</time>
      </trkpt>
      <trkpt lat="46.42768856137991" lon="8.360272999852896">
        <ele>2374.1100000000001</ele>
        <time>2021-08-01T13:47:42Z</time>
      </trkpt>
      <trkpt lat="46.427716976031661" lon="8.360319435596466">
        <ele>2372.1900000000001</ele>
        <time>2021-08-01T13:47:50Z</time>
      </trkpt>
      <trkpt lat="46.427745055407286" lon="8.360368385910988">
        <ele>2370.75</ele>
        <time>2021-08-01T13:47:58Z</time>
      </trkpt>
      <trkpt lat="46.427756790071726" lon="8.36046913638711">
        <ele>2368.3499999999999</ele>
        <time>2021-08-01T13:48:08Z</time>
      </trkpt>
      <trkpt lat="46.427766680717468" lon="8.360570725053549">
        <ele>2366.4200000000001</ele>
        <time>2021-08-01T13:48:19Z</time>
      </trkpt>
      <trkpt lat="46.427785288542509" lon="8.360634259879589">
        <ele>2364.98</ele>
        <time>2021-08-01T13:48:28Z</time>
      </trkpt>
      <trkpt lat="46.427811691537499" lon="8.360733836889267">
        <ele>2361.6199999999999</ele>
        <time>2021-08-01T13:48:40Z</time>
      </trkpt>
      <trkpt lat="46.427804818376899" lon="8.360778847709298">
        <ele>2359.6900000000001</ele>
        <time>2021-08-01T13:48:49Z</time>
      </trkpt>
      <trkpt lat="46.427815379574895" lon="8.36085663177073">
        <ele>2358.25</ele>
        <time>2021-08-01T13:49:00Z</time>
      </trkpt>
      <trkpt lat="46.427825940772891" lon="8.360915221273899">
        <ele>2358.25</ele>
        <time>2021-08-01T13:49:07Z</time>
      </trkpt>
      <trkpt lat="46.427832143381238" lon="8.360994681715965">
        <ele>2356.8099999999999</ele>
        <time>2021-08-01T13:49:17Z</time>
      </trkpt>
      <trkpt lat="46.427835244685411" lon="8.361072968691587">
        <ele>2355.3699999999999</ele>
        <time>2021-08-01T13:49:26Z</time>
      </trkpt>
      <trkpt lat="46.427847063168883" lon="8.361144298687577">
        <ele>2353.9299999999998</ele>
        <time>2021-08-01T13:49:36Z</time>
      </trkpt>
      <trkpt lat="46.427853852510452" lon="8.361180927604437">
        <ele>2352.96</ele>
        <time>2021-08-01T13:49:43Z</time>
      </trkpt>
      <trkpt lat="46.427873047068715" lon="8.361287629231811">
        <ele>2350.0799999999999</ele>
        <time>2021-08-01T13:49:54Z</time>
      </trkpt>
      <trkpt lat="46.427892493084073" lon="8.361358623951674">
        <ele>2348.6399999999999</ele>
        <time>2021-08-01T13:50:05Z</time>
      </trkpt>
      <trkpt lat="46.427914956584573" lon="8.361420398578048">
        <ele>2347.1999999999998</ele>
        <time>2021-08-01T13:50:14Z</time>
      </trkpt>
      <trkpt lat="46.427919985726476" lon="8.361436827108264">
        <ele>2347.1999999999998</ele>
        <time>2021-08-01T13:50:16Z</time>
      </trkpt>
      <trkpt lat="46.427937755361199" lon="8.361507738009095">
        <ele>2345.75</ele>
        <time>2021-08-01T13:50:24Z</time>
      </trkpt>
      <trkpt lat="46.427980083972216" lon="8.36155828088522">
        <ele>2343.8299999999999</ele>
        <time>2021-08-01T13:50:34Z</time>
      </trkpt>
      <trkpt lat="46.428008582442999" lon="8.361638663336635">
        <ele>2342.3899999999999</ele>
        <time>2021-08-01T13:50:45Z</time>
      </trkpt>
      <trkpt lat="46.428036158904433" lon="8.361699851229787">
        <ele>2340.4699999999998</ele>
        <time>2021-08-01T13:50:54Z</time>
      </trkpt>
      <trkpt lat="46.428075553849339" lon="8.361743185669184">
        <ele>2338.0599999999999</ele>
        <time>2021-08-01T13:51:04Z</time>
      </trkpt>
      <trkpt lat="46.428103549405932" lon="8.361809821799398">
        <ele>2336.1399999999999</ele>
        <time>2021-08-01T13:51:15Z</time>
      </trkpt>
      <trkpt lat="46.42813959158957" lon="8.361882325261831">
        <ele>2334.2199999999998</ele>
        <time>2021-08-01T13:51:26Z</time>
      </trkpt>
      <trkpt lat="46.428167587146163" lon="8.361952481791377">
        <ele>2333.2600000000002</ele>
        <time>2021-08-01T13:51:35Z</time>
      </trkpt>
      <trkpt lat="46.428211256861687" lon="8.36204937659204">
        <ele>2331.3299999999999</ele>
        <time>2021-08-01T13:51:47Z</time>
      </trkpt>
      <trkpt lat="46.428239587694407" lon="8.362108217552304">
        <ele>2329.4099999999999</ele>
        <time>2021-08-01T13:51:56Z</time>
      </trkpt>
      <trkpt lat="46.428254256024957" lon="8.362127747386694">
        <ele>2328.4499999999998</ele>
        <time>2021-08-01T13:51:58Z</time>
      </trkpt>
      <trkpt lat="46.428295243531466" lon="8.362234449014068">
        <ele>2326.5300000000002</ele>
        <time>2021-08-01T13:52:08Z</time>
      </trkpt>
      <trkpt lat="46.428326591849327" lon="8.362304773181677">
        <ele>2325.0900000000001</ele>
        <time>2021-08-01T13:52:17Z</time>
      </trkpt>
      <trkpt lat="46.428358778357506" lon="8.36235623806715">
        <ele>2323.6399999999999</ele>
        <time>2021-08-01T13:52:26Z</time>
      </trkpt>
      <trkpt lat="46.428370932117105" lon="8.362399823963642">
        <ele>2322.1999999999998</ele>
        <time>2021-08-01T13:52:35Z</time>
      </trkpt>
      <trkpt lat="46.428397083655" lon="8.362459922209382">
        <ele>2321.2399999999998</ele>
        <time>2021-08-01T13:52:55Z</time>
      </trkpt>
      <trkpt lat="46.428440166637301" lon="8.362581795081496">
        <ele>2319.3200000000002</ele>
        <time>2021-08-01T13:53:07Z</time>
      </trkpt>
      <trkpt lat="46.428444189950824" lon="8.362590093165636">
        <ele>2318.8400000000001</ele>
        <time>2021-08-01T13:53:08Z</time>
      </trkpt>
      <trkpt lat="46.428471934050322" lon="8.362668631598353">
        <ele>2317.4000000000001</ele>
        <time>2021-08-01T13:53:16Z</time>
      </trkpt>
      <trkpt lat="46.428490374237299" lon="8.36277793161571">
        <ele>2314.9899999999998</ele>
        <time>2021-08-01T13:53:25Z</time>
      </trkpt>
      <trkpt lat="46.428508143872023" lon="8.362853033468127">
        <ele>2313.0700000000002</ele>
        <time>2021-08-01T13:53:35Z</time>
      </trkpt>
      <trkpt lat="46.428517447784543" lon="8.362912964075804">
        <ele>2311.1500000000001</ele>
        <time>2021-08-01T13:53:43Z</time>
      </trkpt>
      <trkpt lat="46.428513424471021" lon="8.362966189160943">
        <ele>2310.1900000000001</ele>
        <time>2021-08-01T13:53:50Z</time>
      </trkpt>
      <trkpt lat="46.428534043952823" lon="8.363013043999672">
        <ele>2307.7800000000002</ele>
        <time>2021-08-01T13:54:05Z</time>
      </trkpt>
      <trkpt lat="46.428548460826278" lon="8.363075321540237">
        <ele>2307.3000000000002</ele>
        <time>2021-08-01T13:54:13Z</time>
      </trkpt>
      <trkpt lat="46.428556758910418" lon="8.36311899125576">
        <ele>2305.8600000000001</ele>
        <time>2021-08-01T13:54:23Z</time>
      </trkpt>
      <trkpt lat="46.428572265431285" lon="8.363115638494492">
        <ele>2303.46</ele>
        <time>2021-08-01T13:54:36Z</time>
      </trkpt>
      <trkpt lat="46.428575199097395" lon="8.363121338188648">
        <ele>2303.9400000000001</ele>
        <time>2021-08-01T13:54:49Z</time>
      </trkpt>
      <trkpt lat="46.428586766123772" lon="8.363140616565943">
        <ele>2303.46</ele>
        <time>2021-08-01T13:54:58Z</time>
      </trkpt>
      <trkpt lat="46.428579390048981" lon="8.363148747012019">
        <ele>2302.4899999999998</ele>
        <time>2021-08-01T13:55:28Z</time>
      </trkpt>
      <trkpt lat="46.428598836064339" lon="8.363177748396993">
        <ele>2302.0100000000002</ele>
        <time>2021-08-01T13:55:43Z</time>
      </trkpt>
      <trkpt lat="46.428614929318428" lon="8.363215969875455">
        <ele>2301.5300000000002</ele>
        <time>2021-08-01T13:55:56Z</time>
      </trkpt>
      <trkpt lat="46.428619790822268" lon="8.363243127241731">
        <ele>2301.5300000000002</ele>
        <time>2021-08-01T13:55:58Z</time>
      </trkpt>
      <trkpt lat="46.428648624569178" lon="8.363406574353576">
        <ele>2300.0900000000001</ele>
        <time>2021-08-01T13:56:10Z</time>
      </trkpt>
      <trkpt lat="46.428667735308409" lon="8.363439599052072">
        <ele>2299.6100000000001</ele>
        <time>2021-08-01T13:56:15Z</time>
      </trkpt>
      <trkpt lat="46.428660191595554" lon="8.363440940156579">
        <ele>2298.6500000000001</ele>
        <time>2021-08-01T13:56:47Z</time>
      </trkpt>
      <trkpt lat="46.428662119433284" lon="8.363423841074109">
        <ele>2299.1300000000001</ele>
        <time>2021-08-01T13:57:32Z</time>
      </trkpt>
      <trkpt lat="46.428649295121431" lon="8.363429373130202">
        <ele>2299.6100000000001</ele>
        <time>2021-08-01T13:57:59Z</time>
      </trkpt>
      <trkpt lat="46.428649881854653" lon="8.363435743376613">
        <ele>2299.6100000000001</ele>
        <time>2021-08-01T13:58:30Z</time>
      </trkpt>
      <trkpt lat="46.428651222959161" lon="8.363422835245729">
        <ele>2300.0900000000001</ele>
        <time>2021-08-01T13:58:54Z</time>
      </trkpt>
      <trkpt lat="46.428655916824937" lon="8.363427193835378">
        <ele>2300.0900000000001</ele>
        <time>2021-08-01T13:59:20Z</time>
      </trkpt>
      <trkpt lat="46.428653737530112" lon="8.363439850509167">
        <ele>2300.5700000000002</ele>
        <time>2021-08-01T14:00:32Z</time>
      </trkpt>
      <trkpt lat="46.428660191595554" lon="8.363444963470101">
        <ele>2301.0500000000002</ele>
        <time>2021-08-01T14:01:38Z</time>
      </trkpt>
      <trkpt lat="46.428658431395888" lon="8.363434569910169">
        <ele>2302.0100000000002</ele>
        <time>2021-08-01T14:01:52Z</time>
      </trkpt>
      <trkpt lat="46.428653486073017" lon="8.36343708448112">
        <ele>2302.4899999999998</ele>
        <time>2021-08-01T14:02:09Z</time>
      </trkpt>
      <trkpt lat="46.428657928481698" lon="8.363429121673107">
        <ele>2302.98</ele>
        <time>2021-08-01T14:02:15Z</time>
      </trkpt>
      <trkpt lat="46.428654156625271" lon="8.363438928499818">
        <ele>2302.98</ele>
        <time>2021-08-01T14:02:16Z</time>
      </trkpt>
      <trkpt lat="46.428649965673685" lon="8.363455692306161">
        <ele>2302.98</ele>
        <time>2021-08-01T14:02:17Z</time>
      </trkpt>
      <trkpt lat="46.428636638447642" lon="8.363542696461082">
        <ele>2302.4899999999998</ele>
        <time>2021-08-01T14:02:23Z</time>
      </trkpt>
      <trkpt lat="46.4286819845438" lon="8.363723577931523">
        <ele>2302.98</ele>
        <time>2021-08-01T14:02:33Z</time>
      </trkpt>
      <trkpt lat="46.428704196587205" lon="8.363885097205639">
        <ele>2303.46</ele>
        <time>2021-08-01T14:02:41Z</time>
      </trkpt>
      <trkpt lat="46.428732862696052" lon="8.364088777452707">
        <ele>2304.4200000000001</ele>
        <time>2021-08-01T14:02:51Z</time>
      </trkpt>
      <trkpt lat="46.428790362551808" lon="8.364221630617976">
        <ele>2304.4200000000001</ele>
        <time>2021-08-01T14:02:59Z</time>
      </trkpt>
      <trkpt lat="46.428857417777181" lon="8.364357249811292">
        <ele>2303.9400000000001</ele>
        <time>2021-08-01T14:03:07Z</time>
      </trkpt>
      <trkpt lat="46.428889017552137" lon="8.364489683881402">
        <ele>2304.4200000000001</ele>
        <time>2021-08-01T14:03:15Z</time>
      </trkpt>
      <trkpt lat="46.428891951218247" lon="8.364505777135491">
        <ele>2304.4200000000001</ele>
        <time>2021-08-01T14:03:16Z</time>
      </trkpt>
      <trkpt lat="46.428901758044958" lon="8.364574424922466">
        <ele>2304.4200000000001</ele>
        <time>2021-08-01T14:03:25Z</time>
      </trkpt>
      <trkpt lat="46.428889017552137" lon="8.364616250619292">
        <ele>2305.8600000000001</ele>
        <time>2021-08-01T14:03:42Z</time>
      </trkpt>
      <trkpt lat="46.428887760266662" lon="8.364668218418956">
        <ele>2304.4200000000001</ele>
        <time>2021-08-01T14:03:50Z</time>
      </trkpt>
      <trkpt lat="46.428905026987195" lon="8.364695459604263">
        <ele>2302.98</ele>
        <time>2021-08-01T14:03:55Z</time>
      </trkpt>
      <trkpt lat="46.428912570700049" lon="8.364703841507435">
        <ele>2302.4899999999998</ele>
        <time>2021-08-01T14:03:56Z</time>
      </trkpt>
      <trkpt lat="46.428915085271001" lon="8.3647177554667">
        <ele>2302.4899999999998</ele>
        <time>2021-08-01T14:03:57Z</time>
      </trkpt>
      <trkpt lat="46.428930591791868" lon="8.364777937531471">
        <ele>2300.5700000000002</ele>
        <time>2021-08-01T14:04:03Z</time>
      </trkpt>
      <trkpt lat="46.428940817713737" lon="8.364782463759184">
        <ele>2300.0900000000001</ele>
        <time>2021-08-01T14:04:04Z</time>
      </trkpt>
      <trkpt lat="46.428956659510732" lon="8.364843986928463">
        <ele>2298.1700000000001</ele>
        <time>2021-08-01T14:04:12Z</time>
      </trkpt>
      <trkpt lat="46.42896437086165" lon="8.364847172051668">
        <ele>2297.6900000000001</ele>
        <time>2021-08-01T14:04:14Z</time>
      </trkpt>
      <trkpt lat="46.429005777463317" lon="8.36486435495317">
        <ele>2295.77</ele>
        <time>2021-08-01T14:04:21Z</time>
      </trkpt>
      <trkpt lat="46.429056068882346" lon="8.364901654422283">
        <ele>2293.3600000000001</ele>
        <time>2021-08-01T14:04:29Z</time>
      </trkpt>
      <trkpt lat="46.429075431078672" lon="8.364937277510762">
        <ele>2291.9200000000001</ele>
        <time>2021-08-01T14:04:35Z</time>
      </trkpt>
      <trkpt lat="46.429072581231594" lon="8.364994777366519">
        <ele>2289.04</ele>
        <time>2021-08-01T14:04:46Z</time>
      </trkpt>
      <trkpt lat="46.42904014326632" lon="8.365036267787218">
        <ele>2286.6300000000001</ele>
        <time>2021-08-01T14:04:56Z</time>
      </trkpt>
      <trkpt lat="46.429028827697039" lon="8.365063676610589">
        <ele>2284.23</ele>
        <time>2021-08-01T14:05:05Z</time>
      </trkpt>
      <trkpt lat="46.429025642573833" lon="8.365101646631956">
        <ele>2283.75</ele>
        <time>2021-08-01T14:05:14Z</time>
      </trkpt>
      <trkpt lat="46.429022289812565" lon="8.365162163972855">
        <ele>2282.79</ele>
        <time>2021-08-01T14:05:24Z</time>
      </trkpt>
      <trkpt lat="46.429029917344451" lon="8.365231649950147">
        <ele>2282.3099999999999</ele>
        <time>2021-08-01T14:05:34Z</time>
      </trkpt>
      <trkpt lat="46.429074592888355" lon="8.36535687558353">
        <ele>2281.3499999999999</ele>
        <time>2021-08-01T14:05:45Z</time>
      </trkpt>
      <trkpt lat="46.429101582616568" lon="8.365427535027266">
        <ele>2279.4200000000001</ele>
        <time>2021-08-01T14:05:52Z</time>
      </trkpt>
      <trkpt lat="46.429131422191858" lon="8.365492494776845">
        <ele>2277.02</ele>
        <time>2021-08-01T14:06:00Z</time>
      </trkpt>
      <trkpt lat="46.429169895127416" lon="8.365537421777844">
        <ele>2276.0599999999999</ele>
        <time>2021-08-01T14:06:09Z</time>
      </trkpt>
      <trkpt lat="46.429221779108047" lon="8.365612272173166">
        <ele>2274.6199999999999</ele>
        <time>2021-08-01T14:06:19Z</time>
      </trkpt>
      <trkpt lat="46.429243488237262" lon="8.365693492814899">
        <ele>2272.21</ele>
        <time>2021-08-01T14:06:27Z</time>
      </trkpt>
      <trkpt lat="46.429279949516058" lon="8.365781921893358">
        <ele>2271.25</ele>
        <time>2021-08-01T14:06:36Z</time>
      </trkpt>
      <trkpt lat="46.429325882345438" lon="8.365840343758464">
        <ele>2269.8099999999999</ele>
        <time>2021-08-01T14:06:45Z</time>
      </trkpt>
      <trkpt lat="46.429340718314052" lon="8.365881834179163">
        <ele>2268.8499999999999</ele>
        <time>2021-08-01T14:06:52Z</time>
      </trkpt>
      <trkpt lat="46.429363852366805" lon="8.365944949910045">
        <ele>2268.3699999999999</ele>
        <time>2021-08-01T14:07:00Z</time>
      </trkpt>
      <trkpt lat="46.429416071623564" lon="8.365929527208209">
        <ele>2266.9299999999998</ele>
        <time>2021-08-01T14:07:10Z</time>
      </trkpt>
      <trkpt lat="46.429454125463963" lon="8.365925336256623">
        <ele>2265</ele>
        <time>2021-08-01T14:07:19Z</time>
      </trkpt>
      <trkpt lat="46.42950676381588" lon="8.36592324078083">
        <ele>2264.04</ele>
        <time>2021-08-01T14:07:28Z</time>
      </trkpt>
      <trkpt lat="46.429544985294342" lon="8.365979734808207">
        <ele>2262.5999999999999</ele>
        <time>2021-08-01T14:07:37Z</time>
      </trkpt>
      <trkpt lat="46.429558480158448" lon="8.365966323763132">
        <ele>2261.1599999999999</ele>
        <time>2021-08-01T14:07:47Z</time>
      </trkpt>
      <trkpt lat="46.429593851789832" lon="8.365965066477656">
        <ele>2261.6399999999999</ele>
        <time>2021-08-01T14:08:00Z</time>
      </trkpt>
      <trkpt lat="46.429639030247927" lon="8.365997923538089">
        <ele>2260.1999999999998</ele>
        <time>2021-08-01T14:08:10Z</time>
      </trkpt>
      <trkpt lat="46.42968119122088" lon="8.365985183045268">
        <ele>2258.75</ele>
        <time>2021-08-01T14:08:19Z</time>
      </trkpt>
      <trkpt lat="46.42974472604692" lon="8.36598233319819">
        <ele>2258.27</ele>
        <time>2021-08-01T14:08:30Z</time>
      </trkpt>
      <trkpt lat="46.429780852049589" lon="8.366009490564466">
        <ele>2257.79</ele>
        <time>2021-08-01T14:08:41Z</time>
      </trkpt>
      <trkpt lat="46.429810440167785" lon="8.365981830283999">
        <ele>2257.3099999999999</ele>
        <time>2021-08-01T14:08:48Z</time>
      </trkpt>
      <trkpt lat="46.429842626675963" lon="8.366000521928072">
        <ele>2255.3899999999999</ele>
        <time>2021-08-01T14:08:56Z</time>
      </trkpt>
      <trkpt lat="46.429860144853592" lon="8.366001527756453">
        <ele>2253.9499999999998</ele>
        <time>2021-08-01T14:09:06Z</time>
      </trkpt>
      <trkpt lat="46.429893588647246" lon="8.365981578826904">
        <ele>2252.5100000000002</ele>
        <time>2021-08-01T14:09:16Z</time>
      </trkpt>
      <trkpt lat="46.429932899773121" lon="8.365972777828574">
        <ele>2251.54</ele>
        <time>2021-08-01T14:09:25Z</time>
      </trkpt>
      <trkpt lat="46.430002553388476" lon="8.365987865254283">
        <ele>2249.6199999999999</ele>
        <time>2021-08-01T14:09:38Z</time>
      </trkpt>
      <trkpt lat="46.430043457075953" lon="8.365992391481996">
        <ele>2248.6599999999999</ele>
        <time>2021-08-01T14:09:46Z</time>
      </trkpt>
      <trkpt lat="46.430068518966436" lon="8.366019297391176">
        <ele>2247.6999999999998</ele>
        <time>2021-08-01T14:09:58Z</time>
      </trkpt>
      <trkpt lat="46.430127359926701" lon="8.366071935743094">
        <ele>2246.2600000000002</ele>
        <time>2021-08-01T14:10:09Z</time>
      </trkpt>
      <trkpt lat="46.430191481485963" lon="8.366058776155114">
        <ele>2244.8200000000002</ele>
        <time>2021-08-01T14:10:19Z</time>
      </trkpt>
      <trkpt lat="46.430217130109668" lon="8.366058357059956">
        <ele>2243.3699999999999</ele>
        <time>2021-08-01T14:10:27Z</time>
      </trkpt>
      <trkpt lat="46.430250573903322" lon="8.366095321252942">
        <ele>2242.4099999999999</ele>
        <time>2021-08-01T14:10:41Z</time>
      </trkpt>
      <trkpt lat="46.43029298633337" lon="8.366183582693338">
        <ele>2240.9699999999998</ele>
        <time>2021-08-01T14:10:52Z</time>
      </trkpt>
      <trkpt lat="46.430309750139713" lon="8.366290368139744">
        <ele>2240.0100000000002</ele>
        <time>2021-08-01T14:11:03Z</time>
      </trkpt>
      <trkpt lat="46.430328357964754" lon="8.366346778348088">
        <ele>2238.5700000000002</ele>
        <time>2021-08-01T14:11:12Z</time>
      </trkpt>
      <trkpt lat="46.43034428358078" lon="8.366383658722043">
        <ele>2237.6100000000001</ele>
        <time>2021-08-01T14:11:22Z</time>
      </trkpt>
      <trkpt lat="46.430374374613166" lon="8.366411738097668">
        <ele>2237.6100000000001</ele>
        <time>2021-08-01T14:11:31Z</time>
      </trkpt>
      <trkpt lat="46.43039608374238" lon="8.366410229355097">
        <ele>2236.1599999999999</ele>
        <time>2021-08-01T14:11:42Z</time>
      </trkpt>
      <trkpt lat="46.430437993258238" lon="8.366425568237901">
        <ele>2235.1999999999998</ele>
        <time>2021-08-01T14:11:51Z</time>
      </trkpt>
      <trkpt lat="46.430454757064581" lon="8.36643629707396">
        <ele>2233.2800000000002</ele>
        <time>2021-08-01T14:12:02Z</time>
      </trkpt>
      <trkpt lat="46.430501779541373" lon="8.36644752882421">
        <ele>2232.8000000000002</ele>
        <time>2021-08-01T14:12:11Z</time>
      </trkpt>
      <trkpt lat="46.430513681843877" lon="8.366488264873624">
        <ele>2231.3600000000001</ele>
        <time>2021-08-01T14:12:20Z</time>
      </trkpt>
      <trkpt lat="46.430548634380102" lon="8.366500418633223">
        <ele>2229.4299999999998</ele>
        <time>2021-08-01T14:12:33Z</time>
      </trkpt>
      <trkpt lat="46.430559698492289" lon="8.366529168561101">
        <ele>2228.4699999999998</ele>
        <time>2021-08-01T14:12:41Z</time>
      </trkpt>
      <trkpt lat="46.430578473955393" lon="8.366529336199164">
        <ele>2227.0300000000002</ele>
        <time>2021-08-01T14:12:52Z</time>
      </trkpt>
      <trkpt lat="46.430616779252887" lon="8.366505363956094">
        <ele>2226.0700000000002</ele>
        <time>2021-08-01T14:13:03Z</time>
      </trkpt>
      <trkpt lat="46.430646451190114" lon="8.36652958765626">
        <ele>2225.5900000000001</ele>
        <time>2021-08-01T14:13:11Z</time>
      </trkpt>
      <trkpt lat="46.430656425654888" lon="8.366532437503338">
        <ele>2225.5900000000001</ele>
        <time>2021-08-01T14:13:13Z</time>
      </trkpt>
      <trkpt lat="46.430684924125671" lon="8.366538221016526">
        <ele>2225.1100000000001</ele>
        <time>2021-08-01T14:13:19Z</time>
      </trkpt>
      <trkpt lat="46.430723648518324" lon="8.366543333977461">
        <ele>2224.6300000000001</ele>
        <time>2021-08-01T14:13:28Z</time>
      </trkpt>
      <trkpt lat="46.430725492537022" lon="8.366518272086978">
        <ele>2225.1100000000001</ele>
        <time>2021-08-01T14:13:42Z</time>
      </trkpt>
      <trkpt lat="46.430746363475919" lon="8.366542160511017">
        <ele>2225.5900000000001</ele>
        <time>2021-08-01T14:13:50Z</time>
      </trkpt>
      <trkpt lat="46.430779388174415" lon="8.366557918488979">
        <ele>2226.5500000000002</ele>
        <time>2021-08-01T14:13:58Z</time>
      </trkpt>
      <trkpt lat="46.430791122838855" lon="8.366650622338057">
        <ele>2227.9899999999998</ele>
        <time>2021-08-01T14:14:07Z</time>
      </trkpt>
      <trkpt lat="46.430798582732677" lon="8.366742320358753">
        <ele>2229.4299999999998</ele>
        <time>2021-08-01T14:14:15Z</time>
      </trkpt>
      <trkpt lat="46.430851388722658" lon="8.366808872669935">
        <ele>2230.4000000000001</ele>
        <time>2021-08-01T14:14:23Z</time>
      </trkpt>
      <trkpt lat="46.430905954912305" lon="8.366893194615841">
        <ele>2231.3600000000001</ele>
        <time>2021-08-01T14:14:32Z</time>
      </trkpt>
      <trkpt lat="46.430950546637177" lon="8.367023197934032">
        <ele>2230.8800000000001</ele>
        <time>2021-08-01T14:14:44Z</time>
      </trkpt>
      <trkpt lat="46.430981978774071" lon="8.367117075249553">
        <ele>2230.4000000000001</ele>
        <time>2021-08-01T14:14:54Z</time>
      </trkpt>
      <trkpt lat="46.431017685681581" lon="8.367252191528678">
        <ele>2227.9899999999998</ele>
        <time>2021-08-01T14:15:07Z</time>
      </trkpt>
      <trkpt lat="46.431021373718977" lon="8.367389738559723">
        <ele>2226.5500000000002</ele>
        <time>2021-08-01T14:15:18Z</time>
      </trkpt>
      <trkpt lat="46.431029420346022" lon="8.367434497922659">
        <ele>2226.0700000000002</ele>
        <time>2021-08-01T14:15:22Z</time>
      </trkpt>
      <trkpt lat="46.431034952402115" lon="8.367445562034845">
        <ele>2226.0700000000002</ele>
        <time>2021-08-01T14:15:23Z</time>
      </trkpt>
      <trkpt lat="46.431068647652864" lon="8.367473976686597">
        <ele>2225.5900000000001</ele>
        <time>2021-08-01T14:15:28Z</time>
      </trkpt>
      <trkpt lat="46.43115003593266" lon="8.367458721622825">
        <ele>2224.1500000000001</ele>
        <time>2021-08-01T14:15:37Z</time>
      </trkpt>
      <trkpt lat="46.431211475282907" lon="8.367461571469903">
        <ele>2223.6700000000001</ele>
        <time>2021-08-01T14:15:44Z</time>
      </trkpt>
      <trkpt lat="46.43123016692698" lon="8.367469534277916">
        <ele>2223.6700000000001</ele>
        <time>2021-08-01T14:15:46Z</time>
      </trkpt>
      <trkpt lat="46.431302418932319" lon="8.367580091580749">
        <ele>2223.1900000000001</ele>
        <time>2021-08-01T14:15:57Z</time>
      </trkpt>
      <trkpt lat="46.43135623075068" lon="8.367681177332997">
        <ele>2224.1500000000001</ele>
        <time>2021-08-01T14:16:08Z</time>
      </trkpt>
      <trkpt lat="46.431386657059193" lon="8.367747645825148">
        <ele>2226.5500000000002</ele>
        <time>2021-08-01T14:16:17Z</time>
      </trkpt>
      <trkpt lat="46.431406270712614" lon="8.367799781262875">
        <ele>2228.4699999999998</ele>
        <time>2021-08-01T14:16:26Z</time>
      </trkpt>
      <trkpt lat="46.431434685364366" lon="8.367886282503605">
        <ele>2230.4000000000001</ele>
        <time>2021-08-01T14:16:37Z</time>
      </trkpt>
      <trkpt lat="46.431442396715283" lon="8.367949733510613">
        <ele>2231.8400000000001</ele>
        <time>2021-08-01T14:16:44Z</time>
      </trkpt>
      <trkpt lat="46.431436697021127" lon="8.368012262508273">
        <ele>2233.2800000000002</ele>
        <time>2021-08-01T14:16:52Z</time>
      </trkpt>
      <trkpt lat="46.431455472484231" lon="8.36805316619575">
        <ele>2234.7199999999998</ele>
        <time>2021-08-01T14:17:01Z</time>
      </trkpt>
      <trkpt lat="46.431481037288904" lon="8.368114270269871">
        <ele>2235.6799999999998</ele>
        <time>2021-08-01T14:17:11Z</time>
      </trkpt>
      <trkpt lat="46.431509954854846" lon="8.368161879479885">
        <ele>2237.6100000000001</ele>
        <time>2021-08-01T14:17:21Z</time>
      </trkpt>
      <trkpt lat="46.431529652327299" lon="8.368249135091901">
        <ele>2240.0100000000002</ele>
        <time>2021-08-01T14:17:31Z</time>
      </trkpt>
      <trkpt lat="46.431537196040154" lon="8.36828819476068">
        <ele>2240.9699999999998</ele>
        <time>2021-08-01T14:17:35Z</time>
      </trkpt>
      <trkpt lat="46.431552618741989" lon="8.368382323533297">
        <ele>2242.4099999999999</ele>
        <time>2021-08-01T14:17:44Z</time>
      </trkpt>
      <trkpt lat="46.431568628177047" lon="8.368494221940637">
        <ele>2243.8499999999999</ele>
        <time>2021-08-01T14:17:56Z</time>
      </trkpt>
      <trkpt lat="46.431615147739649" lon="8.368604946881533">
        <ele>2246.2600000000002</ele>
        <time>2021-08-01T14:18:08Z</time>
      </trkpt>
      <trkpt lat="46.431638617068529" lon="8.368652136996388">
        <ele>2248.1799999999998</ele>
        <time>2021-08-01T14:18:18Z</time>
      </trkpt>
      <trkpt lat="46.431663930416107" lon="8.368706535547972">
        <ele>2248.1799999999998</ele>
        <time>2021-08-01T14:18:30Z</time>
      </trkpt>
      <trkpt lat="46.431678766384721" lon="8.368745343759656">
        <ele>2250.5799999999999</ele>
        <time>2021-08-01T14:18:43Z</time>
      </trkpt>
      <trkpt lat="46.431673569604754" lon="8.368754899129272">
        <ele>2251.54</ele>
        <time>2021-08-01T14:18:59Z</time>
      </trkpt>
      <trkpt lat="46.431672899052501" lon="8.368758335709572">
        <ele>2252.5100000000002</ele>
        <time>2021-08-01T14:19:19Z</time>
      </trkpt>
      <trkpt lat="46.431671222671866" lon="8.368817176669836">
        <ele>2252.9899999999998</ele>
        <time>2021-08-01T14:19:30Z</time>
      </trkpt>
      <trkpt lat="46.431686645373702" lon="8.368993028998375">
        <ele>2252.9899999999998</ele>
        <time>2021-08-01T14:19:41Z</time>
      </trkpt>
      <trkpt lat="46.431705420836806" lon="8.369133090600371">
        <ele>2255.3899999999999</ele>
        <time>2021-08-01T14:19:51Z</time>
      </trkpt>
      <trkpt lat="46.431737272068858" lon="8.369304584339261">
        <ele>2253.4699999999998</ele>
        <time>2021-08-01T14:20:03Z</time>
      </trkpt>
      <trkpt lat="46.43177549354732" lon="8.369423858821392">
        <ele>2252.0300000000002</ele>
        <time>2021-08-01T14:20:14Z</time>
      </trkpt>
      <trkpt lat="46.431800555437803" lon="8.369486639276147">
        <ele>2251.0599999999999</ele>
        <time>2021-08-01T14:20:23Z</time>
      </trkpt>
      <trkpt lat="46.431807763874531" lon="8.369502732530236">
        <ele>2250.5799999999999</ele>
        <time>2021-08-01T14:20:25Z</time>
      </trkpt>
      <trkpt lat="46.43182729370892" lon="8.369619660079479">
        <ele>2248.1799999999998</ele>
        <time>2021-08-01T14:20:36Z</time>
      </trkpt>
      <trkpt lat="46.431845650076866" lon="8.369683027267456">
        <ele>2246.2600000000002</ele>
        <time>2021-08-01T14:20:46Z</time>
      </trkpt>
      <trkpt lat="46.43184581771493" lon="8.369721416383982">
        <ele>2245.3000000000002</ele>
        <time>2021-08-01T14:20:54Z</time>
      </trkpt>
      <trkpt lat="46.431849086657166" lon="8.36982493288815">
        <ele>2244.3299999999999</ele>
        <time>2021-08-01T14:21:03Z</time>
      </trkpt>
      <trkpt lat="46.431870963424444" lon="8.369958875700831">
        <ele>2243.3699999999999</ele>
        <time>2021-08-01T14:21:15Z</time>
      </trkpt>
      <trkpt lat="46.431866688653827" lon="8.370056357234716">
        <ele>2241.4499999999998</ele>
        <time>2021-08-01T14:21:26Z</time>
      </trkpt>
      <trkpt lat="46.431879596784711" lon="8.370115365833044">
        <ele>2240.0100000000002</ele>
        <time>2021-08-01T14:21:34Z</time>
      </trkpt>
      <trkpt lat="46.431876998394728" lon="8.370185690000653">
        <ele>2238.5700000000002</ele>
        <time>2021-08-01T14:21:42Z</time>
      </trkpt>
      <trkpt lat="46.431904239580035" lon="8.370224079117179">
        <ele>2237.6100000000001</ele>
        <time>2021-08-01T14:21:50Z</time>
      </trkpt>
      <trkpt lat="46.43190449103713" lon="8.370267497375608">
        <ele>2236.1599999999999</ele>
        <time>2021-08-01T14:21:58Z</time>
      </trkpt>
      <trkpt lat="46.431915890425444" lon="8.370301276445389">
        <ele>2235.1999999999998</ele>
        <time>2021-08-01T14:22:06Z</time>
      </trkpt>
      <trkpt lat="46.43193474970758" lon="8.370358273386955">
        <ele>2233.7600000000002</ele>
        <time>2021-08-01T14:22:13Z</time>
      </trkpt>
      <trkpt lat="46.431955453008413" lon="8.370490288361907">
        <ele>2232.3200000000002</ele>
        <time>2021-08-01T14:22:24Z</time>
      </trkpt>
      <trkpt lat="46.431948244571686" lon="8.370625572279096">
        <ele>2230.8800000000001</ele>
        <time>2021-08-01T14:22:36Z</time>
      </trkpt>
      <trkpt lat="46.431942125782371" lon="8.370699416846037">
        <ele>2229.4299999999998</ele>
        <time>2021-08-01T14:22:44Z</time>
      </trkpt>
      <trkpt lat="46.431990321725607" lon="8.370799329131842">
        <ele>2227.5100000000002</ele>
        <time>2021-08-01T14:22:55Z</time>
      </trkpt>
      <trkpt lat="46.431999374181032" lon="8.370890775695443">
        <ele>2225.5900000000001</ele>
        <time>2021-08-01T14:23:05Z</time>
      </trkpt>
      <trkpt lat="46.432008929550648" lon="8.371004099026322">
        <ele>2223.6700000000001</ele>
        <time>2021-08-01T14:23:16Z</time>
      </trkpt>
      <trkpt lat="46.432013874873519" lon="8.371122451499105">
        <ele>2222.71</ele>
        <time>2021-08-01T14:23:26Z</time>
      </trkpt>
      <trkpt lat="46.432032734155655" lon="8.371182968840003">
        <ele>2222.2199999999998</ele>
        <time>2021-08-01T14:23:33Z</time>
      </trkpt>
      <trkpt lat="46.432049665600061" lon="8.371254131197929">
        <ele>2220.7800000000002</ele>
        <time>2021-08-01T14:23:41Z</time>
      </trkpt>
      <trkpt lat="46.43206475302577" lon="8.371314061805606">
        <ele>2218.3800000000001</ele>
        <time>2021-08-01T14:23:50Z</time>
      </trkpt>
      <trkpt lat="46.432072464376688" lon="8.371342644095421">
        <ele>2217.9000000000001</ele>
        <time>2021-08-01T14:24:13Z</time>
      </trkpt>
      <trkpt lat="46.432083277031779" lon="8.371382961049676">
        <ele>2217.4200000000001</ele>
        <time>2021-08-01T14:24:21Z</time>
      </trkpt>
      <trkpt lat="46.432079588994384" lon="8.371387235820293">
        <ele>2217.4200000000001</ele>
        <time>2021-08-01T14:24:50Z</time>
      </trkpt>
      <trkpt lat="46.432075733318925" lon="8.371400060132146">
        <ele>2217.4200000000001</ele>
        <time>2021-08-01T14:25:03Z</time>
      </trkpt>
      <trkpt lat="46.432073637843132" lon="8.371406262740493">
        <ele>2215.98</ele>
        <time>2021-08-01T14:25:26Z</time>
      </trkpt>
      <trkpt lat="46.432090569287539" lon="8.371463594958186">
        <ele>2215.98</ele>
        <time>2021-08-01T14:25:38Z</time>
      </trkpt>
      <trkpt lat="46.432095933705568" lon="8.371505672112107">
        <ele>2215.0100000000002</ele>
        <time>2021-08-01T14:25:47Z</time>
      </trkpt>
      <trkpt lat="46.432112278416753" lon="8.371600052341819">
        <ele>2214.5300000000002</ele>
        <time>2021-08-01T14:25:56Z</time>
      </trkpt>
      <trkpt lat="46.432109763845801" lon="8.371725864708424">
        <ele>2214.0500000000002</ele>
        <time>2021-08-01T14:26:06Z</time>
      </trkpt>
      <trkpt lat="46.432115882635117" lon="8.37176769040525">
        <ele>2213.5700000000002</ele>
        <time>2021-08-01T14:26:10Z</time>
      </trkpt>
      <trkpt lat="46.432130634784698" lon="8.371841199696064">
        <ele>2213.0900000000001</ele>
        <time>2021-08-01T14:26:18Z</time>
      </trkpt>
      <trkpt lat="46.432142034173012" lon="8.371890066191554">
        <ele>2212.6100000000001</ele>
        <time>2021-08-01T14:26:23Z</time>
      </trkpt>
      <trkpt lat="46.432147230952978" lon="8.371904231607914">
        <ele>2212.6100000000001</ele>
        <time>2021-08-01T14:26:24Z</time>
      </trkpt>
      <trkpt lat="46.432153265923262" lon="8.371920241042972">
        <ele>2212.6100000000001</ele>
        <time>2021-08-01T14:26:25Z</time>
      </trkpt>
      <trkpt lat="46.432168437168002" lon="8.371963491663337">
        <ele>2212.1300000000001</ele>
        <time>2021-08-01T14:26:28Z</time>
      </trkpt>
      <trkpt lat="46.432178076356649" lon="8.372091483324766">
        <ele>2210.21</ele>
        <time>2021-08-01T14:26:37Z</time>
      </trkpt>
      <trkpt lat="46.43217422068119" lon="8.372132135555148">
        <ele>2209.73</ele>
        <time>2021-08-01T14:26:40Z</time>
      </trkpt>
      <trkpt lat="46.432177992537618" lon="8.372146217152476">
        <ele>2209.73</ele>
        <time>2021-08-01T14:26:41Z</time>
      </trkpt>
      <trkpt lat="46.432182267308235" lon="8.372162561863661">
        <ele>2209.73</ele>
        <time>2021-08-01T14:26:42Z</time>
      </trkpt>
      <trkpt lat="46.432184865698218" lon="8.372179158031941">
        <ele>2209.25</ele>
        <time>2021-08-01T14:26:43Z</time>
      </trkpt>
      <trkpt lat="46.432189894840121" lon="8.372207656502724">
        <ele>2209.25</ele>
        <time>2021-08-01T14:26:45Z</time>
      </trkpt>
      <trkpt lat="46.432193834334612" lon="8.372221235185862">
        <ele>2208.77</ele>
        <time>2021-08-01T14:26:46Z</time>
      </trkpt>
      <trkpt lat="46.432196851819754" lon="8.37223581969738">
        <ele>2208.77</ele>
        <time>2021-08-01T14:26:47Z</time>
      </trkpt>
      <trkpt lat="46.432198528200388" lon="8.372250823304057">
        <ele>2208.77</ele>
        <time>2021-08-01T14:26:48Z</time>
      </trkpt>
      <trkpt lat="46.432198528200388" lon="8.372266916558147">
        <ele>2208.77</ele>
        <time>2021-08-01T14:26:49Z</time>
      </trkpt>
      <trkpt lat="46.432198025286198" lon="8.372283596545458">
        <ele>2208.29</ele>
        <time>2021-08-01T14:26:50Z</time>
      </trkpt>
      <trkpt lat="46.432209927588701" lon="8.372406391426921">
        <ele>2207.3200000000002</ele>
        <time>2021-08-01T14:26:58Z</time>
      </trkpt>
      <trkpt lat="46.432228032499552" lon="8.372534886002541">
        <ele>2205.4000000000001</ele>
        <time>2021-08-01T14:27:08Z</time>
      </trkpt>
      <trkpt lat="46.432239934802055" lon="8.372553493827581">
        <ele>2205.4000000000001</ele>
        <time>2021-08-01T14:27:10Z</time>
      </trkpt>
      <trkpt lat="46.432255441322923" lon="8.372623063623905">
        <ele>2203.96</ele>
        <time>2021-08-01T14:27:17Z</time>
      </trkpt>
      <trkpt lat="46.432261979207397" lon="8.372695064172149">
        <ele>2203.48</ele>
        <time>2021-08-01T14:27:23Z</time>
      </trkpt>
      <trkpt lat="46.43227924592793" lon="8.372796149924398">
        <ele>2202.04</ele>
        <time>2021-08-01T14:27:33Z</time>
      </trkpt>
      <trkpt lat="46.432297518476844" lon="8.372906120494008">
        <ele>2201.0799999999999</ele>
        <time>2021-08-01T14:27:42Z</time>
      </trkpt>
      <trkpt lat="46.432313024997711" lon="8.372931685298681">
        <ele>2201.0799999999999</ele>
        <time>2021-08-01T14:27:45Z</time>
      </trkpt>
      <trkpt lat="46.432320652529597" lon="8.372964542359114">
        <ele>2200.5900000000001</ele>
        <time>2021-08-01T14:27:48Z</time>
      </trkpt>
      <trkpt lat="46.432320736348629" lon="8.373001841828227">
        <ele>2199.6300000000001</ele>
        <time>2021-08-01T14:27:51Z</time>
      </trkpt>
      <trkpt lat="46.432338086888194" lon="8.373126061633229">
        <ele>2198.1900000000001</ele>
        <time>2021-08-01T14:28:00Z</time>
      </trkpt>
      <trkpt lat="46.432343535125256" lon="8.373154727742076">
        <ele>2198.1900000000001</ele>
        <time>2021-08-01T14:28:02Z</time>
      </trkpt>
      <trkpt lat="46.43236474134028" lon="8.373276852071285">
        <ele>2197.71</ele>
        <time>2021-08-01T14:28:12Z</time>
      </trkpt>
      <trkpt lat="46.432366836816072" lon="8.373290933668613">
        <ele>2197.23</ele>
        <time>2021-08-01T14:28:13Z</time>
      </trkpt>
      <trkpt lat="46.432394245639443" lon="8.373447675257921">
        <ele>2196.27</ele>
        <time>2021-08-01T14:28:23Z</time>
      </trkpt>
      <trkpt lat="46.432432970032096" lon="8.373576840385795">
        <ele>2195.3099999999999</ele>
        <time>2021-08-01T14:28:31Z</time>
      </trkpt>
      <trkpt lat="46.432463144883513" lon="8.373762750998139">
        <ele>2193.8699999999999</ele>
        <time>2021-08-01T14:28:43Z</time>
      </trkpt>
      <trkpt lat="46.432443195953965" lon="8.373798793181777">
        <ele>2193.3899999999999</ele>
        <time>2021-08-01T14:28:49Z</time>
      </trkpt>
      <trkpt lat="46.432461384683847" lon="8.3738546166569">
        <ele>2192.4200000000001</ele>
        <time>2021-08-01T14:28:59Z</time>
      </trkpt>
      <trkpt lat="46.432465575635433" lon="8.37387565523386">
        <ele>2190.98</ele>
        <time>2021-08-01T14:29:11Z</time>
      </trkpt>
      <trkpt lat="46.432463647797704" lon="8.373899292200804">
        <ele>2190.5</ele>
        <time>2021-08-01T14:29:21Z</time>
      </trkpt>
      <trkpt lat="46.432487452402711" lon="8.373960396274924">
        <ele>2190.02</ele>
        <time>2021-08-01T14:29:30Z</time>
      </trkpt>
      <trkpt lat="46.432489296421409" lon="8.37397824972868">
        <ele>2188.0999999999999</ele>
        <time>2021-08-01T14:29:44Z</time>
      </trkpt>
      <trkpt lat="46.432516872882843" lon="8.374007334932685">
        <ele>2188.0999999999999</ele>
        <time>2021-08-01T14:29:56Z</time>
      </trkpt>
      <trkpt lat="46.43254654482007" lon="8.374084196984768">
        <ele>2186.6599999999999</ele>
        <time>2021-08-01T14:30:07Z</time>
      </trkpt>
      <trkpt lat="46.43254897557199" lon="8.374113198369741">
        <ele>2185.21</ele>
        <time>2021-08-01T14:30:17Z</time>
      </trkpt>
      <trkpt lat="46.432556854560971" lon="8.374140691012144">
        <ele>2184.25</ele>
        <time>2021-08-01T14:30:27Z</time>
      </trkpt>
      <trkpt lat="46.432547718286514" lon="8.374171452596784">
        <ele>2183.29</ele>
        <time>2021-08-01T14:30:40Z</time>
      </trkpt>
      <trkpt lat="46.432550651952624" lon="8.374233143404126">
        <ele>2182.3299999999999</ele>
        <time>2021-08-01T14:30:49Z</time>
      </trkpt>
      <trkpt lat="46.432554088532925" lon="8.374249236658216">
        <ele>2182.3299999999999</ele>
        <time>2021-08-01T14:30:51Z</time>
      </trkpt>
      <trkpt lat="46.432558950036764" lon="8.374262396246195">
        <ele>2181.8499999999999</ele>
        <time>2021-08-01T14:30:52Z</time>
      </trkpt>
      <trkpt lat="46.432574121281505" lon="8.374325763434172">
        <ele>2181.3699999999999</ele>
        <time>2021-08-01T14:31:00Z</time>
      </trkpt>
      <trkpt lat="46.432565152645111" lon="8.37434085085988">
        <ele>2179.9299999999998</ele>
        <time>2021-08-01T14:31:13Z</time>
      </trkpt>
      <trkpt lat="46.432581748813391" lon="8.374408157542348">
        <ele>2178.9699999999998</ele>
        <time>2021-08-01T14:31:22Z</time>
      </trkpt>
      <trkpt lat="46.432596752420068" lon="8.374457694590092">
        <ele>2178.48</ele>
        <time>2021-08-01T14:31:27Z</time>
      </trkpt>
      <trkpt lat="46.432616785168648" lon="8.374525923281908">
        <ele>2177.52</ele>
        <time>2021-08-01T14:31:35Z</time>
      </trkpt>
      <trkpt lat="46.432623658329248" lon="8.374550398439169">
        <ele>2176.5599999999999</ele>
        <time>2021-08-01T14:31:44Z</time>
      </trkpt>
      <trkpt lat="46.432618461549282" lon="8.374595660716295">
        <ele>2176.0799999999999</ele>
        <time>2021-08-01T14:31:51Z</time>
      </trkpt>
      <trkpt lat="46.432625753805041" lon="8.374607563018799">
        <ele>2174.6399999999999</ele>
        <time>2021-08-01T14:32:02Z</time>
      </trkpt>
      <trkpt lat="46.432630363851786" lon="8.374632960185409">
        <ele>2174.1599999999999</ele>
        <time>2021-08-01T14:32:10Z</time>
      </trkpt>
      <trkpt lat="46.432621646672487" lon="8.374686185270548">
        <ele>2172.7199999999998</ele>
        <time>2021-08-01T14:32:28Z</time>
      </trkpt>
      <trkpt lat="46.432632291689515" lon="8.374728597700596">
        <ele>2172.2399999999998</ele>
        <time>2021-08-01T14:32:41Z</time>
      </trkpt>
      <trkpt lat="46.432638745754957" lon="8.374786684289575">
        <ele>2171.27</ele>
        <time>2021-08-01T14:32:49Z</time>
      </trkpt>
      <trkpt lat="46.432652492076159" lon="8.374828258529306">
        <ele>2170.3099999999999</ele>
        <time>2021-08-01T14:32:58Z</time>
      </trkpt>
      <trkpt lat="46.432655677199364" lon="8.374860528856516">
        <ele>2168.8699999999999</ele>
        <time>2021-08-01T14:33:05Z</time>
      </trkpt>
      <trkpt lat="46.432652240619063" lon="8.374888859689236">
        <ele>2167.9099999999999</ele>
        <time>2021-08-01T14:33:14Z</time>
      </trkpt>
      <trkpt lat="46.432673782110214" lon="8.374931355938315">
        <ele>2167.4299999999998</ele>
        <time>2021-08-01T14:33:20Z</time>
      </trkpt>
      <trkpt lat="46.432687863707542" lon="8.374993298202753">
        <ele>2165.9899999999998</ele>
        <time>2021-08-01T14:33:31Z</time>
      </trkpt>
      <trkpt lat="46.432693898677826" lon="8.37502489797771">
        <ele>2165.0300000000002</ele>
        <time>2021-08-01T14:33:40Z</time>
      </trkpt>
      <trkpt lat="46.432707644999027" lon="8.375060269609094">
        <ele>2164.5500000000002</ele>
        <time>2021-08-01T14:33:47Z</time>
      </trkpt>
      <trkpt lat="46.432687696069479" lon="8.375090276822448">
        <ele>2163.5799999999999</ele>
        <time>2021-08-01T14:33:54Z</time>
      </trkpt>
      <trkpt lat="46.432697921991348" lon="8.375123972073197">
        <ele>2162.6199999999999</ele>
        <time>2021-08-01T14:34:00Z</time>
      </trkpt>
      <trkpt lat="46.432702699676156" lon="8.375125480815768">
        <ele>2162.6199999999999</ele>
        <time>2021-08-01T14:34:01Z</time>
      </trkpt>
      <trkpt lat="46.432723486796021" lon="8.37518272921443">
        <ele>2161.6599999999999</ele>
        <time>2021-08-01T14:34:08Z</time>
      </trkpt>
      <trkpt lat="46.432730024680495" lon="8.375197565183044">
        <ele>2160.6999999999998</ele>
        <time>2021-08-01T14:34:20Z</time>
      </trkpt>
      <trkpt lat="46.432739747688174" lon="8.375200666487217">
        <ele>2160.2199999999998</ele>
        <time>2021-08-01T14:34:39Z</time>
      </trkpt>
      <trkpt lat="46.432767156511545" lon="8.375226063653827">
        <ele>2160.2199999999998</ele>
        <time>2021-08-01T14:34:51Z</time>
      </trkpt>
      <trkpt lat="46.432794062420726" lon="8.375248778611422">
        <ele>2160.6999999999998</ele>
        <time>2021-08-01T14:35:00Z</time>
      </trkpt>
      <trkpt lat="46.43279917538166" lon="8.375281635671854">
        <ele>2160.6999999999998</ele>
        <time>2021-08-01T14:35:10Z</time>
      </trkpt>
      <trkpt lat="46.432817531749606" lon="8.375325640663505">
        <ele>2160.6999999999998</ele>
        <time>2021-08-01T14:35:22Z</time>
      </trkpt>
      <trkpt lat="46.43282113596797" lon="8.375353049486876">
        <ele>2160.6999999999998</ele>
        <time>2021-08-01T14:35:35Z</time>
      </trkpt>
      <trkpt lat="46.432837061583996" lon="8.375372579321265">
        <ele>2160.6999999999998</ele>
        <time>2021-08-01T14:35:48Z</time>
      </trkpt>
      <trkpt lat="46.432826332747936" lon="8.375385822728276">
        <ele>2160.6999999999998</ele>
        <time>2021-08-01T14:36:02Z</time>
      </trkpt>
      <trkpt lat="46.432808898389339" lon="8.375386158004403">
        <ele>2155.8899999999999</ele>
        <time>2021-08-01T14:36:09Z</time>
      </trkpt>
      <trkpt lat="46.432810742408037" lon="8.375396467745304">
        <ele>2155.4099999999999</ele>
        <time>2021-08-01T14:36:10Z</time>
      </trkpt>
      <trkpt lat="46.432815184816718" lon="8.375465534627438">
        <ele>2154.9299999999998</ele>
        <time>2021-08-01T14:36:17Z</time>
      </trkpt>
      <trkpt lat="46.432814681902528" lon="8.375526890158653">
        <ele>2153.0100000000002</ele>
        <time>2021-08-01T14:36:24Z</time>
      </trkpt>
      <trkpt lat="46.4328299369663" lon="8.375561255961657">
        <ele>2150.6100000000001</ele>
        <time>2021-08-01T14:36:34Z</time>
      </trkpt>
      <trkpt lat="46.432848293334246" lon="8.375604590401053">
        <ele>2149.1599999999999</ele>
        <time>2021-08-01T14:36:44Z</time>
      </trkpt>
      <trkpt lat="46.432826919481158" lon="8.375623617321253">
        <ele>2147.7199999999998</ele>
        <time>2021-08-01T14:36:53Z</time>
      </trkpt>
      <trkpt lat="46.432837899774313" lon="8.375656055286527">
        <ele>2146.7600000000002</ele>
        <time>2021-08-01T14:37:02Z</time>
      </trkpt>
      <trkpt lat="46.432836642488837" lon="8.375678518787026">
        <ele>2145.8000000000002</ele>
        <time>2021-08-01T14:37:10Z</time>
      </trkpt>
      <trkpt lat="46.432836893945932" lon="8.375691762194037">
        <ele>2144.8400000000001</ele>
        <time>2021-08-01T14:37:24Z</time>
      </trkpt>
      <trkpt lat="46.432849047705531" lon="8.375717326998711">
        <ele>2144.3600000000001</ele>
        <time>2021-08-01T14:37:34Z</time>
      </trkpt>
      <trkpt lat="46.432859022170305" lon="8.375737192109227">
        <ele>2143.4000000000001</ele>
        <time>2021-08-01T14:37:44Z</time>
      </trkpt>
      <trkpt lat="46.432870840653777" lon="8.375757476314902">
        <ele>2142.4400000000001</ele>
        <time>2021-08-01T14:37:55Z</time>
      </trkpt>
      <trkpt lat="46.432864973321557" lon="8.375788070261478">
        <ele>2141.4699999999998</ele>
        <time>2021-08-01T14:38:07Z</time>
      </trkpt>
      <trkpt lat="46.432880479842424" lon="8.375817742198706">
        <ele>2140.5100000000002</ele>
        <time>2021-08-01T14:38:18Z</time>
      </trkpt>
      <trkpt lat="46.432870086282492" lon="8.375840540975332">
        <ele>2140.5100000000002</ele>
        <time>2021-08-01T14:38:27Z</time>
      </trkpt>
      <trkpt lat="46.432854328304529" lon="8.375870967283845">
        <ele>2139.0700000000002</ele>
        <time>2021-08-01T14:38:36Z</time>
      </trkpt>
      <trkpt lat="46.432874193415046" lon="8.375888736918569">
        <ele>2138.5900000000001</ele>
        <time>2021-08-01T14:38:44Z</time>
      </trkpt>
      <trkpt lat="46.432887520641088" lon="8.375923354178667">
        <ele>2137.6300000000001</ele>
        <time>2021-08-01T14:38:53Z</time>
      </trkpt>
      <trkpt lat="46.432893890887499" lon="8.375954534858465">
        <ele>2136.1900000000001</ele>
        <time>2021-08-01T14:39:02Z</time>
      </trkpt>
      <trkpt lat="46.432903362438083" lon="8.375977165997028">
        <ele>2135.71</ele>
        <time>2021-08-01T14:39:08Z</time>
      </trkpt>
      <trkpt lat="46.432934375479817" lon="8.376017063856125">
        <ele>2135.23</ele>
        <time>2021-08-01T14:39:15Z</time>
      </trkpt>
      <trkpt lat="46.43295549787581" lon="8.376053022220731">
        <ele>2134.2600000000002</ele>
        <time>2021-08-01T14:39:23Z</time>
      </trkpt>
      <trkpt lat="46.43297066912055" lon="8.376078251749277">
        <ele>2132.8200000000002</ele>
        <time>2021-08-01T14:39:34Z</time>
      </trkpt>
      <trkpt lat="46.432976871728897" lon="8.376110689714551">
        <ele>2131.8600000000001</ele>
        <time>2021-08-01T14:39:43Z</time>
      </trkpt>
      <trkpt lat="46.432997742667794" lon="8.376155532896519">
        <ele>2129.9400000000001</ele>
        <time>2021-08-01T14:39:56Z</time>
      </trkpt>
      <trkpt lat="46.433003190904856" lon="8.376178331673145">
        <ele>2128.98</ele>
        <time>2021-08-01T14:40:05Z</time>
      </trkpt>
      <trkpt lat="46.433014590293169" lon="8.376205656677485">
        <ele>2127.5300000000002</ele>
        <time>2021-08-01T14:40:20Z</time>
      </trkpt>
      <trkpt lat="46.433002939447761" lon="8.376206662505865">
        <ele>2126.5700000000002</ele>
        <time>2021-08-01T14:40:31Z</time>
      </trkpt>
      <trkpt lat="46.43300486728549" lon="8.376239435747266">
        <ele>2125.6100000000001</ele>
        <time>2021-08-01T14:40:42Z</time>
      </trkpt>
      <trkpt lat="46.433004448190331" lon="8.376259719952941">
        <ele>2124.1700000000001</ele>
        <time>2021-08-01T14:40:52Z</time>
      </trkpt>
      <trkpt lat="46.433005034923553" lon="8.376273550093174">
        <ele>2123.21</ele>
        <time>2021-08-01T14:41:02Z</time>
      </trkpt>
      <trkpt lat="46.43299899995327" lon="8.376286625862122">
        <ele>2122.25</ele>
        <time>2021-08-01T14:41:17Z</time>
      </trkpt>
      <trkpt lat="46.43301023170352" lon="8.376304982230067">
        <ele>2120.8099999999999</ele>
        <time>2021-08-01T14:41:27Z</time>
      </trkpt>
      <trkpt lat="46.433000424876809" lon="8.376341694965959">
        <ele>2119.3600000000001</ele>
        <time>2021-08-01T14:41:39Z</time>
      </trkpt>
      <trkpt lat="46.432994557544589" lon="8.376349657773972">
        <ele>2118.4000000000001</ele>
        <time>2021-08-01T14:41:55Z</time>
      </trkpt>
      <trkpt lat="46.433005621656775" lon="8.376370780169964">
        <ele>2117.4400000000001</ele>
        <time>2021-08-01T14:42:07Z</time>
      </trkpt>
      <trkpt lat="46.433005286380649" lon="8.376380084082484">
        <ele>2116</ele>
        <time>2021-08-01T14:42:19Z</time>
      </trkpt>
      <trkpt lat="46.432997826486826" lon="8.376377737149596">
        <ele>2116</ele>
        <time>2021-08-01T14:42:37Z</time>
      </trkpt>
      <trkpt lat="46.433004280552268" lon="8.376401457935572">
        <ele>2115.04</ele>
        <time>2021-08-01T14:42:48Z</time>
      </trkpt>
      <trkpt lat="46.432992378249764" lon="8.376416126266122">
        <ele>2114.0799999999999</ele>
        <time>2021-08-01T14:42:59Z</time>
      </trkpt>
      <trkpt lat="46.433017691597342" lon="8.376431129872799">
        <ele>2113.5999999999999</ele>
        <time>2021-08-01T14:43:08Z</time>
      </trkpt>
      <trkpt lat="46.433054069057107" lon="8.376450827345252">
        <ele>2112.1500000000001</ele>
        <time>2021-08-01T14:43:16Z</time>
      </trkpt>
      <trkpt lat="46.433076867833734" lon="8.376463986933231">
        <ele>2111.1900000000001</ele>
        <time>2021-08-01T14:43:25Z</time>
      </trkpt>
      <trkpt lat="46.433083238080144" lon="8.376497766003013">
        <ele>2110.23</ele>
        <time>2021-08-01T14:43:34Z</time>
      </trkpt>
      <trkpt lat="46.433069491758943" lon="8.376496089622378">
        <ele>2108.79</ele>
        <time>2021-08-01T14:43:48Z</time>
      </trkpt>
      <trkpt lat="46.433049878105521" lon="8.376510171219707">
        <ele>2107.8299999999999</ele>
        <time>2021-08-01T14:43:57Z</time>
      </trkpt>
      <trkpt lat="46.43305859528482" lon="8.376522157341242">
        <ele>2107.3499999999999</ele>
        <time>2021-08-01T14:44:08Z</time>
      </trkpt>
      <trkpt lat="46.433078544214368" lon="8.376540262252092">
        <ele>2106.3899999999999</ele>
        <time>2021-08-01T14:44:18Z</time>
      </trkpt>
      <trkpt lat="46.433083824813366" lon="8.376561049371958">
        <ele>2105.4200000000001</ele>
        <time>2021-08-01T14:44:29Z</time>
      </trkpt>
      <trkpt lat="46.43306253477931" lon="8.376557193696499">
        <ele>2104.46</ele>
        <time>2021-08-01T14:44:39Z</time>
      </trkpt>
      <trkpt lat="46.433044597506523" lon="8.376559540629387">
        <ele>2103.98</ele>
        <time>2021-08-01T14:44:52Z</time>
      </trkpt>
      <trkpt lat="46.433030096814036" lon="8.376586362719536">
        <ele>2103.02</ele>
        <time>2021-08-01T14:45:02Z</time>
      </trkpt>
      <trkpt lat="46.433057757094502" lon="8.376584937795997">
        <ele>2102.0599999999999</ele>
        <time>2021-08-01T14:45:11Z</time>
      </trkpt>
      <trkpt lat="46.433067983016372" lon="8.37658803910017">
        <ele>2101.5799999999999</ele>
        <time>2021-08-01T14:45:24Z</time>
      </trkpt>
      <trkpt lat="46.433063289150596" lon="8.376591391861439">
        <ele>2101.0999999999999</ele>
        <time>2021-08-01T14:45:39Z</time>
      </trkpt>
      <trkpt lat="46.433059768751264" lon="8.37660807184875">
        <ele>2100.6199999999999</ele>
        <time>2021-08-01T14:45:49Z</time>
      </trkpt>
      <trkpt lat="46.433077538385987" lon="8.376603461802006">
        <ele>2100.1399999999999</ele>
        <time>2021-08-01T14:45:58Z</time>
      </trkpt>
      <trkpt lat="46.433090530335903" lon="8.37662173435092">
        <ele>2099.1799999999998</ele>
        <time>2021-08-01T14:46:09Z</time>
      </trkpt>
      <trkpt lat="46.433090446516871" lon="8.376645455136895">
        <ele>2098.21</ele>
        <time>2021-08-01T14:46:17Z</time>
      </trkpt>
      <trkpt lat="46.433082148432732" lon="8.376644868403673">
        <ele>2097.73</ele>
        <time>2021-08-01T14:46:26Z</time>
      </trkpt>
      <trkpt lat="46.433092877268791" lon="8.376658530905843">
        <ele>2096.77</ele>
        <time>2021-08-01T14:46:32Z</time>
      </trkpt>
      <trkpt lat="46.433116681873798" lon="8.376676132902503">
        <ele>2095.8099999999999</ele>
        <time>2021-08-01T14:46:42Z</time>
      </trkpt>
      <trkpt lat="46.433121375739574" lon="8.376700188964605">
        <ele>2093.8899999999999</ele>
        <time>2021-08-01T14:46:54Z</time>
      </trkpt>
      <trkpt lat="46.433125650510192" lon="8.376720473170281">
        <ele>2093.4099999999999</ele>
        <time>2021-08-01T14:47:05Z</time>
      </trkpt>
      <trkpt lat="46.433152053505182" lon="8.37676883675158">
        <ele>2092.9299999999998</ele>
        <time>2021-08-01T14:47:14Z</time>
      </trkpt>
      <trkpt lat="46.433163033798337" lon="8.376795826479793">
        <ele>2091.9699999999998</ele>
        <time>2021-08-01T14:47:25Z</time>
      </trkpt>
      <trkpt lat="46.433157417923212" lon="8.376793060451746">
        <ele>2091.4899999999998</ele>
        <time>2021-08-01T14:47:47Z</time>
      </trkpt>
      <trkpt lat="46.433160016313195" lon="8.376791886985302">
        <ele>2091</ele>
        <time>2021-08-01T14:48:02Z</time>
      </trkpt>
      <trkpt lat="46.433159178122878" lon="8.37679666467011">
        <ele>2091</ele>
        <time>2021-08-01T14:48:28Z</time>
      </trkpt>
      <trkpt lat="46.433158339932561" lon="8.37679909542203">
        <ele>2091</ele>
        <time>2021-08-01T14:48:51Z</time>
      </trkpt>
      <trkpt lat="46.433161525055766" lon="8.37679959833622">
        <ele>2091.4899999999998</ele>
        <time>2021-08-01T14:49:17Z</time>
      </trkpt>
      <trkpt lat="46.433185832574964" lon="8.376827342435718">
        <ele>2091.9699999999998</ele>
        <time>2021-08-01T14:49:28Z</time>
      </trkpt>
      <trkpt lat="46.433215085417032" lon="8.376898923888803">
        <ele>2091</ele>
        <time>2021-08-01T14:49:38Z</time>
      </trkpt>
      <trkpt lat="46.433243751525879" lon="8.376980731263757">
        <ele>2089.5599999999999</ele>
        <time>2021-08-01T14:49:50Z</time>
      </trkpt>
      <trkpt lat="46.433285241946578" lon="8.377042086794972">
        <ele>2086.6799999999998</ele>
        <time>2021-08-01T14:50:01Z</time>
      </trkpt>
      <trkpt lat="46.433336287736893" lon="8.377113752067089">
        <ele>2083.79</ele>
        <time>2021-08-01T14:50:13Z</time>
      </trkpt>
      <trkpt lat="46.433355649933219" lon="8.377134120091796">
        <ele>2083.3099999999999</ele>
        <time>2021-08-01T14:50:16Z</time>
      </trkpt>
      <trkpt lat="46.433388087898493" lon="8.377158595249057">
        <ele>2081.3899999999999</ele>
        <time>2021-08-01T14:50:24Z</time>
      </trkpt>
      <trkpt lat="46.433397894725204" lon="8.377185249701142">
        <ele>2080.4299999999998</ele>
        <time>2021-08-01T14:50:31Z</time>
      </trkpt>
      <trkpt lat="46.433399738743901" lon="8.377194134518504">
        <ele>2079.9499999999998</ele>
        <time>2021-08-01T14:50:32Z</time>
      </trkpt>
      <trkpt lat="46.433409797027707" lon="8.377213077619672">
        <ele>2079.4699999999998</ele>
        <time>2021-08-01T14:50:34Z</time>
      </trkpt>
      <trkpt lat="46.433437876403332" lon="8.37727501988411">
        <ele>2077.5500000000002</ele>
        <time>2021-08-01T14:50:43Z</time>
      </trkpt>
      <trkpt lat="46.433410299941897" lon="8.37728189304471">
        <ele>2076.5900000000001</ele>
        <time>2021-08-01T14:50:52Z</time>
      </trkpt>
      <trkpt lat="46.433401079848409" lon="8.377281557768583">
        <ele>2076.0999999999999</ele>
        <time>2021-08-01T14:50:53Z</time>
      </trkpt>
      <trkpt lat="46.433335365727544" lon="8.377246353775263">
        <ele>2074.6599999999999</ele>
        <time>2021-08-01T14:51:01Z</time>
      </trkpt>
      <trkpt lat="46.433306448161602" lon="8.377249455079436">
        <ele>2074.1799999999998</ele>
        <time>2021-08-01T14:51:10Z</time>
      </trkpt>
      <trkpt lat="46.433245344087481" lon="8.377274433150888">
        <ele>2071.7800000000002</ele>
        <time>2021-08-01T14:51:20Z</time>
      </trkpt>
      <trkpt lat="46.433230340480804" lon="8.377279629930854">
        <ele>2071.7800000000002</ele>
        <time>2021-08-01T14:51:22Z</time>
      </trkpt>
      <trkpt lat="46.43318273127079" lon="8.377266637980938">
        <ele>2070.8200000000002</ele>
        <time>2021-08-01T14:51:30Z</time>
      </trkpt>
      <trkpt lat="46.433165380731225" lon="8.377301171422005">
        <ele>2069.3800000000001</ele>
        <time>2021-08-01T14:51:40Z</time>
      </trkpt>
      <trkpt lat="46.43312749452889" lon="8.377330675721169">
        <ele>2068.4099999999999</ele>
        <time>2021-08-01T14:51:49Z</time>
      </trkpt>
      <trkpt lat="46.433141576126218" lon="8.377355737611651">
        <ele>2067.4499999999998</ele>
        <time>2021-08-01T14:51:58Z</time>
      </trkpt>
      <trkpt lat="46.433182647451758" lon="8.377390941604972">
        <ele>2066.4899999999998</ele>
        <time>2021-08-01T14:52:07Z</time>
      </trkpt>
      <trkpt lat="46.433175271376967" lon="8.37741382420063">
        <ele>2065.5300000000002</ele>
        <time>2021-08-01T14:52:16Z</time>
      </trkpt>
      <trkpt lat="46.433155490085483" lon="8.377417763695121">
        <ele>2064.5700000000002</ele>
        <time>2021-08-01T14:52:26Z</time>
      </trkpt>
      <trkpt lat="46.433163871988654" lon="8.377456236630678">
        <ele>2064.0900000000001</ele>
        <time>2021-08-01T14:52:33Z</time>
      </trkpt>
      <trkpt lat="46.433155573904514" lon="8.37748808786273">
        <ele>2062.1700000000001</ele>
        <time>2021-08-01T14:52:45Z</time>
      </trkpt>
      <trkpt lat="46.433152640238404" lon="8.377540726214647">
        <ele>2061.1999999999998</ele>
        <time>2021-08-01T14:52:53Z</time>
      </trkpt>
      <trkpt lat="46.433146689087152" lon="8.377570565789938">
        <ele>2060.7199999999998</ele>
        <time>2021-08-01T14:53:05Z</time>
      </trkpt>
      <trkpt lat="46.433160016313195" lon="8.377612642943859">
        <ele>2059.7600000000002</ele>
        <time>2021-08-01T14:53:16Z</time>
      </trkpt>
      <trkpt lat="46.433188347145915" lon="8.377605685964227">
        <ele>2058.8000000000002</ele>
        <time>2021-08-01T14:53:24Z</time>
      </trkpt>
      <trkpt lat="46.433195890858769" lon="8.377591017633677">
        <ele>2058.3200000000002</ele>
        <time>2021-08-01T14:53:36Z</time>
      </trkpt>
      <trkpt lat="46.433207122609019" lon="8.377603590488434">
        <ele>2058.8000000000002</ele>
        <time>2021-08-01T14:53:49Z</time>
      </trkpt>
      <trkpt lat="46.433225646615028" lon="8.377587161958218">
        <ele>2057.8400000000001</ele>
        <time>2021-08-01T14:54:00Z</time>
      </trkpt>
      <trkpt lat="46.433248361572623" lon="8.377615660429001">
        <ele>2056.4000000000001</ele>
        <time>2021-08-01T14:54:13Z</time>
      </trkpt>
      <trkpt lat="46.433270489796996" lon="8.377637453377247">
        <ele>2055.4400000000001</ele>
        <time>2021-08-01T14:54:24Z</time>
      </trkpt>
      <trkpt lat="46.433284487575293" lon="8.377676429226995">
        <ele>2053.9899999999998</ele>
        <time>2021-08-01T14:54:33Z</time>
      </trkpt>
      <trkpt lat="46.433322876691818" lon="8.377728397026658">
        <ele>2053.0300000000002</ele>
        <time>2021-08-01T14:54:43Z</time>
      </trkpt>
      <trkpt lat="46.433340143412352" lon="8.377741975709796">
        <ele>2051.5900000000001</ele>
        <time>2021-08-01T14:54:58Z</time>
      </trkpt>
      <trkpt lat="46.43334005959332" lon="8.377767456695437">
        <ele>2051.5900000000001</ele>
        <time>2021-08-01T14:55:06Z</time>
      </trkpt>
      <trkpt lat="46.433347770944238" lon="8.377802493050695">
        <ele>2051.1100000000001</ele>
        <time>2021-08-01T14:55:12Z</time>
      </trkpt>
      <trkpt lat="46.433361349627376" lon="8.377853455021977">
        <ele>2049.6700000000001</ele>
        <time>2021-08-01T14:55:22Z</time>
      </trkpt>
      <trkpt lat="46.433342741802335" lon="8.377866866067052">
        <ele>2048.71</ele>
        <time>2021-08-01T14:55:29Z</time>
      </trkpt>
      <trkpt lat="46.433341484516859" lon="8.377916067838669">
        <ele>2047.75</ele>
        <time>2021-08-01T14:55:36Z</time>
      </trkpt>
      <trkpt lat="46.433369982987642" lon="8.37794054299593">
        <ele>2045.8199999999999</ele>
        <time>2021-08-01T14:55:49Z</time>
      </trkpt>
      <trkpt lat="46.433383980765939" lon="8.377985721454024">
        <ele>2044.8599999999999</ele>
        <time>2021-08-01T14:55:55Z</time>
      </trkpt>
      <trkpt lat="46.433387249708176" lon="8.378037353977561">
        <ele>2043.9000000000001</ele>
        <time>2021-08-01T14:56:02Z</time>
      </trkpt>
      <trkpt lat="46.433386327698827" lon="8.378068450838327">
        <ele>2042.9400000000001</ele>
        <time>2021-08-01T14:56:16Z</time>
      </trkpt>
      <trkpt lat="46.433381382375956" lon="8.378091836348176">
        <ele>2042.46</ele>
        <time>2021-08-01T14:56:26Z</time>
      </trkpt>
      <trkpt lat="46.433388171717525" lon="8.378116562962532">
        <ele>2041.98</ele>
        <time>2021-08-01T14:56:37Z</time>
      </trkpt>
      <trkpt lat="46.43338892608881" lon="8.37813064455986">
        <ele>2041.5</ele>
        <time>2021-08-01T14:56:53Z</time>
      </trkpt>
      <trkpt lat="46.433404767885804" lon="8.378190323710442">
        <ele>2041.02</ele>
        <time>2021-08-01T14:57:01Z</time>
      </trkpt>
      <trkpt lat="46.433406192809343" lon="8.378204489126802">
        <ele>2040.54</ele>
        <time>2021-08-01T14:57:02Z</time>
      </trkpt>
      <trkpt lat="46.433436786755919" lon="8.378256456926465">
        <ele>2039.0899999999999</ele>
        <time>2021-08-01T14:57:08Z</time>
      </trkpt>
      <trkpt lat="46.433438630774617" lon="8.378265677019954">
        <ele>2038.1300000000001</ele>
        <time>2021-08-01T14:57:27Z</time>
      </trkpt>
      <trkpt lat="46.433466039597988" lon="8.378265928477049">
        <ele>2037.1700000000001</ele>
        <time>2021-08-01T14:57:39Z</time>
      </trkpt>
      <trkpt lat="46.433510547503829" lon="8.378325272351503">
        <ele>2036.6900000000001</ele>
        <time>2021-08-01T14:57:48Z</time>
      </trkpt>
      <trkpt lat="46.433536196127534" lon="8.378348490223289">
        <ele>2036.21</ele>
        <time>2021-08-01T14:57:57Z</time>
      </trkpt>
      <trkpt lat="46.43357458524406" lon="8.378380173817277">
        <ele>2034.77</ele>
        <time>2021-08-01T14:58:05Z</time>
      </trkpt>
      <trkpt lat="46.433608029037714" lon="8.378440774977207">
        <ele>2032.8399999999999</ele>
        <time>2021-08-01T14:58:15Z</time>
      </trkpt>
      <trkpt lat="46.433625295758247" lon="8.378500789403915">
        <ele>2031.4000000000001</ele>
        <time>2021-08-01T14:58:25Z</time>
      </trkpt>
      <trkpt lat="46.433630995452404" lon="8.378543285652995">
        <ele>2029.96</ele>
        <time>2021-08-01T14:58:35Z</time>
      </trkpt>
      <trkpt lat="46.433645747601986" lon="8.378577483817935">
        <ele>2028.52</ele>
        <time>2021-08-01T14:58:45Z</time>
      </trkpt>
      <trkpt lat="46.433671228587627" lon="8.378561725839973">
        <ele>2027.5599999999999</ele>
        <time>2021-08-01T14:58:57Z</time>
      </trkpt>
      <trkpt lat="46.433687070384622" lon="8.378586117178202">
        <ele>2026.5999999999999</ele>
        <time>2021-08-01T14:59:06Z</time>
      </trkpt>
      <trkpt lat="46.433703834190965" lon="8.378620650619268">
        <ele>2026.1199999999999</ele>
        <time>2021-08-01T14:59:18Z</time>
      </trkpt>
      <trkpt lat="46.433709785342216" lon="8.378674797713757">
        <ele>2024.6700000000001</ele>
        <time>2021-08-01T14:59:28Z</time>
      </trkpt>
      <trkpt lat="46.433746749535203" lon="8.378654345870018">
        <ele>2023.23</ele>
        <time>2021-08-01T14:59:37Z</time>
      </trkpt>
      <trkpt lat="46.433767033740878" lon="8.378664655610919">
        <ele>2022.27</ele>
        <time>2021-08-01T14:59:47Z</time>
      </trkpt>
      <trkpt lat="46.433771224692464" lon="8.378654848784208">
        <ele>2022.27</ele>
        <time>2021-08-01T14:59:58Z</time>
      </trkpt>
      <trkpt lat="46.433797627687454" lon="8.378667840734124">
        <ele>2021.3099999999999</ele>
        <time>2021-08-01T15:00:08Z</time>
      </trkpt>
      <trkpt lat="46.433811457827687" lon="8.378690639510751">
        <ele>2020.8299999999999</ele>
        <time>2021-08-01T15:00:21Z</time>
      </trkpt>
      <trkpt lat="46.433816822245717" lon="8.378720562905073">
        <ele>2020.3499999999999</ele>
        <time>2021-08-01T15:00:35Z</time>
      </trkpt>
      <trkpt lat="46.433804668486118" lon="8.378743445500732">
        <ele>2019.8699999999999</ele>
        <time>2021-08-01T15:00:43Z</time>
      </trkpt>
      <trkpt lat="46.433812882751226" lon="8.378753755241633">
        <ele>2019.8699999999999</ele>
        <time>2021-08-01T15:00:58Z</time>
      </trkpt>
      <trkpt lat="46.433808691799641" lon="8.378793820738792">
        <ele>2019.8699999999999</ele>
        <time>2021-08-01T15:01:06Z</time>
      </trkpt>
      <trkpt lat="46.433824868872762" lon="8.378806980326772">
        <ele>2019.8699999999999</ele>
        <time>2021-08-01T15:01:16Z</time>
      </trkpt>
      <trkpt lat="46.433835849165916" lon="8.378830868750811">
        <ele>2019.8699999999999</ele>
        <time>2021-08-01T15:01:24Z</time>
      </trkpt>
      <trkpt lat="46.433864096179605" lon="8.378848470747471">
        <ele>2019.8699999999999</ele>
        <time>2021-08-01T15:01:33Z</time>
      </trkpt>
      <trkpt lat="46.433875495567918" lon="8.378856768831611">
        <ele>2014.0999999999999</ele>
        <time>2021-08-01T15:01:39Z</time>
      </trkpt>
      <trkpt lat="46.433873232454062" lon="8.378858948126435">
        <ele>2014.0999999999999</ele>
        <time>2021-08-01T15:01:40Z</time>
      </trkpt>
      <trkpt lat="46.433860156685114" lon="8.378923488780856">
        <ele>2013.6199999999999</ele>
        <time>2021-08-01T15:01:50Z</time>
      </trkpt>
      <trkpt lat="46.43386728130281" lon="8.378957267850637">
        <ele>2012.6600000000001</ele>
        <time>2021-08-01T15:01:57Z</time>
      </trkpt>
      <trkpt lat="46.433887062594295" lon="8.378924494609237">
        <ele>2012.1800000000001</ele>
        <time>2021-08-01T15:02:05Z</time>
      </trkpt>
      <trkpt lat="46.433902150020003" lon="8.378956764936447">
        <ele>2011.22</ele>
        <time>2021-08-01T15:02:13Z</time>
      </trkpt>
      <trkpt lat="46.433913297951221" lon="8.378935726359487">
        <ele>2010.25</ele>
        <time>2021-08-01T15:02:25Z</time>
      </trkpt>
      <trkpt lat="46.433930480852723" lon="8.378962045535445">
        <ele>2009.77</ele>
        <time>2021-08-01T15:02:33Z</time>
      </trkpt>
      <trkpt lat="46.433940790593624" lon="8.37899942882359">
        <ele>2008.8099999999999</ele>
        <time>2021-08-01T15:02:42Z</time>
      </trkpt>
      <trkpt lat="46.433990998193622" lon="8.379008481279016">
        <ele>2006.8900000000001</ele>
        <time>2021-08-01T15:02:51Z</time>
      </trkpt>
      <trkpt lat="46.434009270742536" lon="8.37901359423995">
        <ele>2004.97</ele>
        <time>2021-08-01T15:03:03Z</time>
      </trkpt>
      <trkpt lat="46.434037685394287" lon="8.379040332511067">
        <ele>2004.97</ele>
        <time>2021-08-01T15:03:10Z</time>
      </trkpt>
      <trkpt lat="46.4340749848634" lon="8.379071345552802">
        <ele>2003.04</ele>
        <time>2021-08-01T15:03:20Z</time>
      </trkpt>
      <trkpt lat="46.434094263240695" lon="8.379086852073669">
        <ele>2001.5999999999999</ele>
        <time>2021-08-01T15:03:28Z</time>
      </trkpt>
      <trkpt lat="46.434109518304467" lon="8.379107555374503">
        <ele>2000.1600000000001</ele>
        <time>2021-08-01T15:03:37Z</time>
      </trkpt>
      <trkpt lat="46.434121588245034" lon="8.379120463505387">
        <ele>1999.6800000000001</ele>
        <time>2021-08-01T15:03:46Z</time>
      </trkpt>
      <trkpt lat="46.434150924906135" lon="8.379153069108725">
        <ele>1999.2</ele>
        <time>2021-08-01T15:03:55Z</time>
      </trkpt>
      <trkpt lat="46.434179926291108" lon="8.379225069656968">
        <ele>1999.2</ele>
        <time>2021-08-01T15:04:04Z</time>
      </trkpt>
      <trkpt lat="46.434186464175582" lon="8.379232529550791">
        <ele>1999.2</ele>
        <time>2021-08-01T15:04:05Z</time>
      </trkpt>
      <trkpt lat="46.434193337336183" lon="8.379241833463311">
        <ele>1999.2</ele>
        <time>2021-08-01T15:04:06Z</time>
      </trkpt>
      <trkpt lat="46.434255447238684" lon="8.379309056326747">
        <ele>1998.72</ele>
        <time>2021-08-01T15:04:15Z</time>
      </trkpt>
      <trkpt lat="46.434282688423991" lon="8.379366053268313">
        <ele>1998.24</ele>
        <time>2021-08-01T15:04:25Z</time>
      </trkpt>
      <trkpt lat="46.434300877153873" lon="8.379387762397528">
        <ele>1998.24</ele>
        <time>2021-08-01T15:04:32Z</time>
      </trkpt>
      <trkpt lat="46.434301799163222" lon="8.379389774054289">
        <ele>1997.76</ele>
        <time>2021-08-01T15:04:50Z</time>
      </trkpt>
      <trkpt lat="46.434332225471735" lon="8.379407543689013">
        <ele>1996.8</ele>
        <time>2021-08-01T15:05:00Z</time>
      </trkpt>
      <trkpt lat="46.434377236291766" lon="8.379455823451281">
        <ele>1996.3199999999999</ele>
        <time>2021-08-01T15:05:09Z</time>
      </trkpt>
      <trkpt lat="46.434420989826322" lon="8.379483735188842">
        <ele>1995.3499999999999</ele>
        <time>2021-08-01T15:05:18Z</time>
      </trkpt>
      <trkpt lat="46.434462647885084" lon="8.379522459581494">
        <ele>1993.9100000000001</ele>
        <time>2021-08-01T15:05:28Z</time>
      </trkpt>
      <trkpt lat="46.4345049764961" lon="8.379580043256283">
        <ele>1991.99</ele>
        <time>2021-08-01T15:05:39Z</time>
      </trkpt>
      <trkpt lat="46.434515537694097" lon="8.379615750163794">
        <ele>1991.03</ele>
        <time>2021-08-01T15:05:45Z</time>
      </trkpt>
      <trkpt lat="46.434534648433328" lon="8.379661934450269">
        <ele>1990.0699999999999</ele>
        <time>2021-08-01T15:05:51Z</time>
      </trkpt>
      <trkpt lat="46.434548059478402" lon="8.379709543660283">
        <ele>1988.6199999999999</ele>
        <time>2021-08-01T15:06:02Z</time>
      </trkpt>
      <trkpt lat="46.434551496058702" lon="8.37972404435277">
        <ele>1988.1400000000001</ele>
        <time>2021-08-01T15:06:09Z</time>
      </trkpt>
      <trkpt lat="46.434599356725812" lon="8.379727061837912">
        <ele>1987.6600000000001</ele>
        <time>2021-08-01T15:06:18Z</time>
      </trkpt>
      <trkpt lat="46.434646965935826" lon="8.379792021587491">
        <ele>1986.7</ele>
        <time>2021-08-01T15:06:28Z</time>
      </trkpt>
      <trkpt lat="46.434715446084738" lon="8.37982228025794">
        <ele>1985.26</ele>
        <time>2021-08-01T15:06:39Z</time>
      </trkpt>
      <trkpt lat="46.434746542945504" lon="8.379882629960775">
        <ele>1983.8199999999999</ele>
        <time>2021-08-01T15:06:50Z</time>
      </trkpt>
      <trkpt lat="46.4348054677248" lon="8.379938453435898">
        <ele>1982.8599999999999</ele>
        <time>2021-08-01T15:07:00Z</time>
      </trkpt>
      <trkpt lat="46.434854418039322" lon="8.379989080131054">
        <ele>1980.9300000000001</ele>
        <time>2021-08-01T15:07:11Z</time>
      </trkpt>
      <trkpt lat="46.434903116896749" lon="8.380043730139732">
        <ele>1979.97</ele>
        <time>2021-08-01T15:07:21Z</time>
      </trkpt>
      <trkpt lat="46.434965562075377" lon="8.380074743181467">
        <ele>1979.01</ele>
        <time>2021-08-01T15:07:32Z</time>
      </trkpt>
      <trkpt lat="46.434967825189233" lon="8.380131488665938">
        <ele>1977.5699999999999</ele>
        <time>2021-08-01T15:07:40Z</time>
      </trkpt>
      <trkpt lat="46.434978386387229" lon="8.380196280777454">
        <ele>1976.1300000000001</ele>
        <time>2021-08-01T15:07:49Z</time>
      </trkpt>
      <trkpt lat="46.435003280639648" lon="8.380245147272945">
        <ele>1975.1700000000001</ele>
        <time>2021-08-01T15:07:58Z</time>
      </trkpt>
      <trkpt lat="46.43501945771277" lon="8.380331983789802">
        <ele>1974.2</ele>
        <time>2021-08-01T15:08:08Z</time>
      </trkpt>
      <trkpt lat="46.435050470754504" lon="8.380444049835205">
        <ele>1972.76</ele>
        <time>2021-08-01T15:08:20Z</time>
      </trkpt>
      <trkpt lat="46.435070084407926" lon="8.380499370396137">
        <ele>1971.8</ele>
        <time>2021-08-01T15:08:26Z</time>
      </trkpt>
      <trkpt lat="46.435093889012933" lon="8.380587128922343">
        <ele>1970.8399999999999</ele>
        <time>2021-08-01T15:08:35Z</time>
      </trkpt>
      <trkpt lat="46.435106378048658" lon="8.380645886063576">
        <ele>1969.8800000000001</ele>
        <time>2021-08-01T15:08:43Z</time>
      </trkpt>
      <trkpt lat="46.435123896226287" lon="8.380684275180101">
        <ele>1969.4000000000001</ele>
        <time>2021-08-01T15:08:54Z</time>
      </trkpt>
      <trkpt lat="46.435128254815936" lon="8.38075652718544">
        <ele>1968.4400000000001</ele>
        <time>2021-08-01T15:09:02Z</time>
      </trkpt>
      <trkpt lat="46.435145940631628" lon="8.380855685099959">
        <ele>1967.48</ele>
        <time>2021-08-01T15:09:10Z</time>
      </trkpt>
      <trkpt lat="46.435163458809257" lon="8.380896672606468">
        <ele>1966.03</ele>
        <time>2021-08-01T15:09:20Z</time>
      </trkpt>
      <trkpt lat="46.435189694166183" lon="8.380963979288936">
        <ele>1965.55</ele>
        <time>2021-08-01T15:09:29Z</time>
      </trkpt>
      <trkpt lat="46.435205452144146" lon="8.380990130826831">
        <ele>1965.55</ele>
        <time>2021-08-01T15:09:32Z</time>
      </trkpt>
      <trkpt lat="46.43521006219089" lon="8.381002536043525">
        <ele>1965.55</ele>
        <time>2021-08-01T15:09:33Z</time>
      </trkpt>
      <trkpt lat="46.435207882896066" lon="8.381060790270567">
        <ele>1965.55</ele>
        <time>2021-08-01T15:09:38Z</time>
      </trkpt>
      <trkpt lat="46.435206038877368" lon="8.381091887131333">
        <ele>1965.55</ele>
        <time>2021-08-01T15:09:40Z</time>
      </trkpt>
      <trkpt lat="46.435226825997233" lon="8.381195571273565">
        <ele>1964.5899999999999</ele>
        <time>2021-08-01T15:09:49Z</time>
      </trkpt>
      <trkpt lat="46.435284577310085" lon="8.381274025887251">
        <ele>1964.1099999999999</ele>
        <time>2021-08-01T15:10:00Z</time>
      </trkpt>
      <trkpt lat="46.435320368036628" lon="8.381288358941674">
        <ele>1963.6300000000001</ele>
        <time>2021-08-01T15:10:05Z</time>
      </trkpt>
      <trkpt lat="46.435330426320434" lon="8.381292130798101">
        <ele>1963.1500000000001</ele>
        <time>2021-08-01T15:10:06Z</time>
      </trkpt>
      <trkpt lat="46.435340149328113" lon="8.381299255415797">
        <ele>1963.1500000000001</ele>
        <time>2021-08-01T15:10:07Z</time>
      </trkpt>
      <trkpt lat="46.435406785458326" lon="8.381386762484908">
        <ele>1961.23</ele>
        <time>2021-08-01T15:10:17Z</time>
      </trkpt>
      <trkpt lat="46.43546118400991" lon="8.381478963419795">
        <ele>1959.78</ele>
        <time>2021-08-01T15:10:29Z</time>
      </trkpt>
      <trkpt lat="46.435488928109407" lon="8.381544845178723">
        <ele>1958.3399999999999</ele>
        <time>2021-08-01T15:10:37Z</time>
      </trkpt>
      <trkpt lat="46.435505943372846" lon="8.381641656160355">
        <ele>1956.9000000000001</ele>
        <time>2021-08-01T15:10:45Z</time>
      </trkpt>
      <trkpt lat="46.435543578118086" lon="8.381674597039819">
        <ele>1955.9400000000001</ele>
        <time>2021-08-01T15:10:51Z</time>
      </trkpt>
      <trkpt lat="46.435553468763828" lon="8.381676860153675">
        <ele>1955.9400000000001</ele>
        <time>2021-08-01T15:10:52Z</time>
      </trkpt>
      <trkpt lat="46.435563359409571" lon="8.381681721657515">
        <ele>1955.46</ele>
        <time>2021-08-01T15:10:53Z</time>
      </trkpt>
      <trkpt lat="46.435572579503059" lon="8.381690019741654">
        <ele>1955.46</ele>
        <time>2021-08-01T15:10:54Z</time>
      </trkpt>
      <trkpt lat="46.435581464320421" lon="8.381701251491904">
        <ele>1954.98</ele>
        <time>2021-08-01T15:10:55Z</time>
      </trkpt>
      <trkpt lat="46.435602167621255" lon="8.381771827116609">
        <ele>1954.02</ele>
        <time>2021-08-01T15:11:01Z</time>
      </trkpt>
      <trkpt lat="46.435604179278016" lon="8.381785489618778">
        <ele>1954.02</ele>
        <time>2021-08-01T15:11:02Z</time>
      </trkpt>
      <trkpt lat="46.435605185106397" lon="8.381801499053836">
        <ele>1954.02</ele>
        <time>2021-08-01T15:11:03Z</time>
      </trkpt>
      <trkpt lat="46.435592947527766" lon="8.381887581199408">
        <ele>1953.0599999999999</ele>
        <time>2021-08-01T15:11:10Z</time>
      </trkpt>
      <trkpt lat="46.43559655174613" lon="8.381916331127286">
        <ele>1953.0599999999999</ele>
        <time>2021-08-01T15:11:14Z</time>
      </trkpt>
      <trkpt lat="46.435600155964494" lon="8.381931418552995">
        <ele>1952.5699999999999</ele>
        <time>2021-08-01T15:11:15Z</time>
      </trkpt>
      <trkpt lat="46.435602586716413" lon="8.381948349997401">
        <ele>1952.5699999999999</ele>
        <time>2021-08-01T15:11:16Z</time>
      </trkpt>
      <trkpt lat="46.435610046610236" lon="8.381997216492891">
        <ele>1952.0899999999999</ele>
        <time>2021-08-01T15:11:19Z</time>
      </trkpt>
      <trkpt lat="46.435615159571171" lon="8.382012639194727">
        <ele>1952.0899999999999</ele>
        <time>2021-08-01T15:11:20Z</time>
      </trkpt>
      <trkpt lat="46.435621865093708" lon="8.382027139887214">
        <ele>1952.0899999999999</ele>
        <time>2021-08-01T15:11:21Z</time>
      </trkpt>
      <trkpt lat="46.435696547850966" lon="8.38209486566484">
        <ele>1951.1300000000001</ele>
        <time>2021-08-01T15:11:32Z</time>
      </trkpt>
      <trkpt lat="46.435705265030265" lon="8.382096961140633">
        <ele>1951.1300000000001</ele>
        <time>2021-08-01T15:11:33Z</time>
      </trkpt>
      <trkpt lat="46.435723956674337" lon="8.382109282538295">
        <ele>1951.1300000000001</ele>
        <time>2021-08-01T15:11:35Z</time>
      </trkpt>
      <trkpt lat="46.435719849541783" lon="8.382195280864835">
        <ele>1950.1700000000001</ele>
        <time>2021-08-01T15:11:42Z</time>
      </trkpt>
      <trkpt lat="46.435710964724422" lon="8.382219588384032">
        <ele>1950.1700000000001</ele>
        <time>2021-08-01T15:11:44Z</time>
      </trkpt>
      <trkpt lat="46.435724459588528" lon="8.382329475134611">
        <ele>1949.6900000000001</ele>
        <time>2021-08-01T15:11:53Z</time>
      </trkpt>
      <trkpt lat="46.435760417953134" lon="8.38236995972693">
        <ele>1948.25</ele>
        <time>2021-08-01T15:12:01Z</time>
      </trkpt>
      <trkpt lat="46.435785731300712" lon="8.382363840937614">
        <ele>1947.77</ele>
        <time>2021-08-01T15:12:10Z</time>
      </trkpt>
      <trkpt lat="46.43580618314445" lon="8.382356381043792">
        <ele>1947.29</ele>
        <time>2021-08-01T15:12:21Z</time>
      </trkpt>
      <trkpt lat="46.43582864664495" lon="8.38238119147718">
        <ele>1947.29</ele>
        <time>2021-08-01T15:12:31Z</time>
      </trkpt>
      <trkpt lat="46.43584867939353" lon="8.382431818172336">
        <ele>1946.8099999999999</ele>
        <time>2021-08-01T15:12:39Z</time>
      </trkpt>
      <trkpt lat="46.435837866738439" lon="8.382477918639779">
        <ele>1946.8099999999999</ele>
        <time>2021-08-01T15:12:48Z</time>
      </trkpt>
      <trkpt lat="46.435830825939775" lon="8.382475823163986">
        <ele>1944.8800000000001</ele>
        <time>2021-08-01T15:13:10Z</time>
      </trkpt>
      <trkpt lat="46.435827137902379" lon="8.382496861740947">
        <ele>1945.3599999999999</ele>
        <time>2021-08-01T15:13:39Z</time>
      </trkpt>
      <trkpt lat="46.435813643038273" lon="8.382556289434433">
        <ele>1944.8800000000001</ele>
        <time>2021-08-01T15:13:47Z</time>
      </trkpt>
      <trkpt lat="46.435809871181846" lon="8.382589397951961">
        <ele>1944.8800000000001</ele>
        <time>2021-08-01T15:13:54Z</time>
      </trkpt>
      <trkpt lat="46.43580517731607" lon="8.382628625258803">
        <ele>1944.8800000000001</ele>
        <time>2021-08-01T15:13:59Z</time>
      </trkpt>
      <trkpt lat="46.435783384367824" lon="8.382714875042439">
        <ele>1944.8800000000001</ele>
        <time>2021-08-01T15:14:08Z</time>
      </trkpt>
      <trkpt lat="46.435745162889361" lon="8.382767764851451">
        <ele>1944.4000000000001</ele>
        <time>2021-08-01T15:14:18Z</time>
      </trkpt>
      <trkpt lat="46.43574608489871" lon="8.382854769006372">
        <ele>1942.96</ele>
        <time>2021-08-01T15:14:27Z</time>
      </trkpt>
      <trkpt lat="46.435759579762816" lon="8.382881926372647">
        <ele>1942.48</ele>
        <time>2021-08-01T15:14:30Z</time>
      </trkpt>
      <trkpt lat="46.435764273628592" lon="8.382895085960627">
        <ele>1942</ele>
        <time>2021-08-01T15:14:31Z</time>
      </trkpt>
      <trkpt lat="46.435786066576838" lon="8.382998183369637">
        <ele>1941.04</ele>
        <time>2021-08-01T15:14:39Z</time>
      </trkpt>
      <trkpt lat="46.435777433216572" lon="8.383058533072472">
        <ele>1939.5999999999999</ele>
        <time>2021-08-01T15:14:46Z</time>
      </trkpt>
      <trkpt lat="46.435761423781514" lon="8.38307848200202">
        <ele>1938.6400000000001</ele>
        <time>2021-08-01T15:14:55Z</time>
      </trkpt>
      <trkpt lat="46.435762261971831" lon="8.38310387916863">
        <ele>1938.6400000000001</ele>
        <time>2021-08-01T15:15:07Z</time>
      </trkpt>
      <trkpt lat="46.435725381597877" lon="8.38318744674325">
        <ele>1938.6400000000001</ele>
        <time>2021-08-01T15:15:17Z</time>
      </trkpt>
      <trkpt lat="46.435689171776175" lon="8.383260872215033">
        <ele>1938.1600000000001</ele>
        <time>2021-08-01T15:15:26Z</time>
      </trkpt>
      <trkpt lat="46.435652375221252" lon="8.383306050673127">
        <ele>1935.75</ele>
        <time>2021-08-01T15:15:35Z</time>
      </trkpt>
      <trkpt lat="46.435617338865995" lon="8.38336774148047">
        <ele>1934.79</ele>
        <time>2021-08-01T15:15:42Z</time>
      </trkpt>
      <trkpt lat="46.435601077973843" lon="8.383422391489148">
        <ele>1933.8299999999999</ele>
        <time>2021-08-01T15:15:47Z</time>
      </trkpt>
      <trkpt lat="46.435577441006899" lon="8.383512077853084">
        <ele>1932.8699999999999</ele>
        <time>2021-08-01T15:15:54Z</time>
      </trkpt>
      <trkpt lat="46.435555396601558" lon="8.383601680397987">
        <ele>1931.9100000000001</ele>
        <time>2021-08-01T15:16:02Z</time>
      </trkpt>
      <trkpt lat="46.435526227578521" lon="8.383690277114511">
        <ele>1930.46</ele>
        <time>2021-08-01T15:16:10Z</time>
      </trkpt>
      <trkpt lat="46.435501165688038" lon="8.38377577252686">
        <ele>1928.54</ele>
        <time>2021-08-01T15:16:19Z</time>
      </trkpt>
      <trkpt lat="46.435498232021928" lon="8.383859172463417">
        <ele>1927.5799999999999</ele>
        <time>2021-08-01T15:16:28Z</time>
      </trkpt>
      <trkpt lat="46.435501668602228" lon="8.383952965959907">
        <ele>1927.0999999999999</ele>
        <time>2021-08-01T15:16:36Z</time>
      </trkpt>
      <trkpt lat="46.435504434630275" lon="8.384018847718835">
        <ele>1926.1400000000001</ele>
        <time>2021-08-01T15:16:43Z</time>
      </trkpt>
      <trkpt lat="46.435505440458655" lon="8.384080957621336">
        <ele>1924.7</ele>
        <time>2021-08-01T15:16:51Z</time>
      </trkpt>
      <trkpt lat="46.435500159859657" lon="8.384108953177929">
        <ele>1924.22</ele>
        <time>2021-08-01T15:16:58Z</time>
      </trkpt>
      <trkpt lat="46.435498148202896" lon="8.384123956784606">
        <ele>1923.25</ele>
        <time>2021-08-01T15:17:13Z</time>
      </trkpt>
      <trkpt lat="46.43546218983829" lon="8.38421112857759">
        <ele>1922.29</ele>
        <time>2021-08-01T15:17:23Z</time>
      </trkpt>
      <trkpt lat="46.43543042242527" lon="8.384278938174248">
        <ele>1920.3699999999999</ele>
        <time>2021-08-01T15:17:32Z</time>
      </trkpt>
      <trkpt lat="46.435389770194888" lon="8.384366696700454">
        <ele>1918.9300000000001</ele>
        <time>2021-08-01T15:17:42Z</time>
      </trkpt>
      <trkpt lat="46.435384573414922" lon="8.384466860443354">
        <ele>1917.01</ele>
        <time>2021-08-01T15:17:52Z</time>
      </trkpt>
      <trkpt lat="46.435361439362168" lon="8.384526371955872">
        <ele>1916.04</ele>
        <time>2021-08-01T15:18:02Z</time>
      </trkpt>
      <trkpt lat="46.435362445190549" lon="8.384596193209291">
        <ele>1914.5999999999999</ele>
        <time>2021-08-01T15:18:14Z</time>
      </trkpt>
      <trkpt lat="46.435365630313754" lon="8.384666098281741">
        <ele>1913.6400000000001</ele>
        <time>2021-08-01T15:18:22Z</time>
      </trkpt>
      <trkpt lat="46.435391530394554" lon="8.384714126586914">
        <ele>1912.6800000000001</ele>
        <time>2021-08-01T15:18:31Z</time>
      </trkpt>
      <trkpt lat="46.435395050793886" lon="8.384803896769881">
        <ele>1911.24</ele>
        <time>2021-08-01T15:18:42Z</time>
      </trkpt>
      <trkpt lat="46.435358338057995" lon="8.384864833205938">
        <ele>1909.8</ele>
        <time>2021-08-01T15:18:50Z</time>
      </trkpt>
      <trkpt lat="46.435332857072353" lon="8.384928368031979">
        <ele>1909.3199999999999</ele>
        <time>2021-08-01T15:18:57Z</time>
      </trkpt>
      <trkpt lat="46.435332857072353" lon="8.385010929778218">
        <ele>1907.8699999999999</ele>
        <time>2021-08-01T15:19:05Z</time>
      </trkpt>
      <trkpt lat="46.435337299481034" lon="8.385081337764859">
        <ele>1906.9100000000001</ele>
        <time>2021-08-01T15:19:11Z</time>
      </trkpt>
      <trkpt lat="46.435344675555825" lon="8.385122325271368">
        <ele>1905.95</ele>
        <time>2021-08-01T15:19:15Z</time>
      </trkpt>
      <trkpt lat="46.435338389128447" lon="8.385162055492401">
        <ele>1904.99</ele>
        <time>2021-08-01T15:19:22Z</time>
      </trkpt>
      <trkpt lat="46.435343837365508" lon="8.385172868147492">
        <ele>1904.03</ele>
        <time>2021-08-01T15:19:36Z</time>
      </trkpt>
      <trkpt lat="46.435353895649314" lon="8.38522064499557">
        <ele>1904.03</ele>
        <time>2021-08-01T15:19:44Z</time>
      </trkpt>
      <trkpt lat="46.43531802110374" lon="8.385297255590558">
        <ele>1902.5899999999999</ele>
        <time>2021-08-01T15:19:52Z</time>
      </trkpt>
      <trkpt lat="46.435328163206577" lon="8.385316282510757">
        <ele>1901.1400000000001</ele>
        <time>2021-08-01T15:20:01Z</time>
      </trkpt>
      <trkpt lat="46.435346435755491" lon="8.385324664413929">
        <ele>1900.1800000000001</ele>
        <time>2021-08-01T15:20:11Z</time>
      </trkpt>
      <trkpt lat="46.435395888984203" lon="8.385330699384213">
        <ele>1899.22</ele>
        <time>2021-08-01T15:20:18Z</time>
      </trkpt>
      <trkpt lat="46.435406198725104" lon="8.385343356058002">
        <ele>1898.74</ele>
        <time>2021-08-01T15:20:24Z</time>
      </trkpt>
      <trkpt lat="46.435423549264669" lon="8.385363221168518">
        <ele>1897.3</ele>
        <time>2021-08-01T15:20:37Z</time>
      </trkpt>
      <trkpt lat="46.435430590063334" lon="8.385365316644311">
        <ele>1897.3</ele>
        <time>2021-08-01T15:20:50Z</time>
      </trkpt>
      <trkpt lat="46.435445593670011" lon="8.385381996631622">
        <ele>1896.8199999999999</ele>
        <time>2021-08-01T15:21:04Z</time>
      </trkpt>
      <trkpt lat="46.435442576184869" lon="8.385409992188215">
        <ele>1896.8199999999999</ele>
        <time>2021-08-01T15:21:15Z</time>
      </trkpt>
      <trkpt lat="46.435420447960496" lon="8.385466318577528">
        <ele>1897.3</ele>
        <time>2021-08-01T15:21:22Z</time>
      </trkpt>
      <trkpt lat="46.43540795892477" lon="8.385553490370512">
        <ele>1897.78</ele>
        <time>2021-08-01T15:21:31Z</time>
      </trkpt>
      <trkpt lat="46.43540452234447" lon="8.385560363531113">
        <ele>1897.78</ele>
        <time>2021-08-01T15:21:32Z</time>
      </trkpt>
      <trkpt lat="46.435361774638295" lon="8.385631274431944">
        <ele>1899.22</ele>
        <time>2021-08-01T15:21:40Z</time>
      </trkpt>
      <trkpt lat="46.435351883992553" lon="8.385645188391209">
        <ele>1900.1800000000001</ele>
        <time>2021-08-01T15:21:43Z</time>
      </trkpt>
      <trkpt lat="46.435342747718096" lon="8.385696653276682">
        <ele>1900.6600000000001</ele>
        <time>2021-08-01T15:21:55Z</time>
      </trkpt>
      <trkpt lat="46.435348447412252" lon="8.385707465931773">
        <ele>1900.6600000000001</ele>
        <time>2021-08-01T15:21:56Z</time>
      </trkpt>
      <trkpt lat="46.435352470725775" lon="8.385722050443292">
        <ele>1900.1800000000001</ele>
        <time>2021-08-01T15:21:57Z</time>
      </trkpt>
      <trkpt lat="46.435340316966176" lon="8.385781142860651">
        <ele>1899.22</ele>
        <time>2021-08-01T15:22:04Z</time>
      </trkpt>
      <trkpt lat="46.43532439135015" lon="8.385788770392537">
        <ele>1899.22</ele>
        <time>2021-08-01T15:22:14Z</time>
      </trkpt>
      <trkpt lat="46.435293797403574" lon="8.385815424844623">
        <ele>1899.22</ele>
        <time>2021-08-01T15:22:31Z</time>
      </trkpt>
      <trkpt lat="46.435279967263341" lon="8.385854065418243">
        <ele>1898.26</ele>
        <time>2021-08-01T15:22:40Z</time>
      </trkpt>
      <trkpt lat="46.435228586196899" lon="8.385885916650295">
        <ele>1897.78</ele>
        <time>2021-08-01T15:22:49Z</time>
      </trkpt>
      <trkpt lat="46.4351543225348" lon="8.385911565274">
        <ele>1894.9000000000001</ele>
        <time>2021-08-01T15:22:59Z</time>
      </trkpt>
      <trkpt lat="46.43512305803597" lon="8.385927574709058">
        <ele>1893.45</ele>
        <time>2021-08-01T15:23:06Z</time>
      </trkpt>
      <trkpt lat="46.43509523011744" lon="8.385957917198539">
        <ele>1892.49</ele>
        <time>2021-08-01T15:23:10Z</time>
      </trkpt>
      <trkpt lat="46.435084920376539" lon="8.385960264131427">
        <ele>1892.49</ele>
        <time>2021-08-01T15:23:11Z</time>
      </trkpt>
      <trkpt lat="46.435037143528461" lon="8.385918270796537">
        <ele>1892.01</ele>
        <time>2021-08-01T15:23:17Z</time>
      </trkpt>
      <trkpt lat="46.434998922049999" lon="8.385900417342782">
        <ele>1891.53</ele>
        <time>2021-08-01T15:23:26Z</time>
      </trkpt>
      <trkpt lat="46.4350057952106" lon="8.38588323444128">
        <ele>1890.5699999999999</ele>
        <time>2021-08-01T15:23:50Z</time>
      </trkpt>
      <trkpt lat="46.434978386387229" lon="8.385877031832933">
        <ele>1890.5699999999999</ele>
        <time>2021-08-01T15:24:01Z</time>
      </trkpt>
      <trkpt lat="46.434969920665026" lon="8.385874265804887">
        <ele>1890.5699999999999</ele>
        <time>2021-08-01T15:24:02Z</time>
      </trkpt>
      <trkpt lat="46.434960616752505" lon="8.385872589424253">
        <ele>1890.5699999999999</ele>
        <time>2021-08-01T15:24:03Z</time>
      </trkpt>
      <trkpt lat="46.434887442737818" lon="8.385868482291699">
        <ele>1890.0899999999999</ele>
        <time>2021-08-01T15:24:12Z</time>
      </trkpt>
      <trkpt lat="46.434810496866703" lon="8.385850545018911">
        <ele>1889.6099999999999</ele>
        <time>2021-08-01T15:24:23Z</time>
      </trkpt>
      <trkpt lat="46.434805383905768" lon="8.385849120095372">
        <ele>1889.6099999999999</ele>
        <time>2021-08-01T15:24:26Z</time>
      </trkpt>
      <trkpt lat="46.434769341722131" lon="8.385846186429262">
        <ele>1888.6500000000001</ele>
        <time>2021-08-01T15:24:30Z</time>
      </trkpt>
      <trkpt lat="46.434758696705103" lon="8.385841995477676">
        <ele>1888.6500000000001</ele>
        <time>2021-08-01T15:24:31Z</time>
      </trkpt>
      <trkpt lat="46.434748554602265" lon="8.385835122317076">
        <ele>1888.1700000000001</ele>
        <time>2021-08-01T15:24:32Z</time>
      </trkpt>
      <trkpt lat="46.434739334508777" lon="8.385826740413904">
        <ele>1888.1700000000001</ele>
        <time>2021-08-01T15:24:33Z</time>
      </trkpt>
      <trkpt lat="46.434731455519795" lon="8.385817017406225">
        <ele>1888.1700000000001</ele>
        <time>2021-08-01T15:24:34Z</time>
      </trkpt>
      <trkpt lat="46.434634393081069" lon="8.385744681581855">
        <ele>1887.21</ele>
        <time>2021-08-01T15:24:44Z</time>
      </trkpt>
      <trkpt lat="46.434528362005949" lon="8.385741328820586">
        <ele>1887.6900000000001</ele>
        <time>2021-08-01T15:24:55Z</time>
      </trkpt>
      <trkpt lat="46.434430880472064" lon="8.385667819529772">
        <ele>1885.76</ele>
        <time>2021-08-01T15:25:06Z</time>
      </trkpt>
      <trkpt lat="46.434393329545856" lon="8.385649295523763">
        <ele>1884.8</ele>
        <time>2021-08-01T15:25:11Z</time>
      </trkpt>
      <trkpt lat="46.434383522719145" lon="8.385651977732778">
        <ele>1884.8</ele>
        <time>2021-08-01T15:25:12Z</time>
      </trkpt>
      <trkpt lat="46.434310432523489" lon="8.385614678263664">
        <ele>1882.4000000000001</ele>
        <time>2021-08-01T15:25:20Z</time>
      </trkpt>
      <trkpt lat="46.434281766414642" lon="8.385575199499726">
        <ele>1880.48</ele>
        <time>2021-08-01T15:25:28Z</time>
      </trkpt>
      <trkpt lat="46.434234492480755" lon="8.385557346045971">
        <ele>1879.51</ele>
        <time>2021-08-01T15:25:35Z</time>
      </trkpt>
      <trkpt lat="46.434196773916483" lon="8.385563045740128">
        <ele>1879.03</ele>
        <time>2021-08-01T15:25:39Z</time>
      </trkpt>
      <trkpt lat="46.434186883270741" lon="8.385561117902398">
        <ele>1879.03</ele>
        <time>2021-08-01T15:25:40Z</time>
      </trkpt>
      <trkpt lat="46.434101723134518" lon="8.385505462065339">
        <ele>1878.0699999999999</ele>
        <time>2021-08-01T15:25:50Z</time>
      </trkpt>
      <trkpt lat="46.43404514528811" lon="8.385480651631951">
        <ele>1877.1099999999999</ele>
        <time>2021-08-01T15:25:59Z</time>
      </trkpt>
      <trkpt lat="46.434019831940532" lon="8.385479645803571">
        <ele>1876.6300000000001</ele>
        <time>2021-08-01T15:26:04Z</time>
      </trkpt>
      <trkpt lat="46.433957638218999" lon="8.385473778471351">
        <ele>1876.1500000000001</ele>
        <time>2021-08-01T15:26:11Z</time>
      </trkpt>
      <trkpt lat="46.433855798095465" lon="8.385473359376192">
        <ele>1874.23</ele>
        <time>2021-08-01T15:26:21Z</time>
      </trkpt>
      <trkpt lat="46.433758148923516" lon="8.385539073497057">
        <ele>1872.3</ele>
        <time>2021-08-01T15:26:32Z</time>
      </trkpt>
      <trkpt lat="46.433678017929196" lon="8.385621383786202">
        <ele>1871.8199999999999</ele>
        <time>2021-08-01T15:26:43Z</time>
      </trkpt>
      <trkpt lat="46.433661924675107" lon="8.385612750425935">
        <ele>1871.8199999999999</ele>
        <time>2021-08-01T15:26:45Z</time>
      </trkpt>
      <trkpt lat="46.433618925511837" lon="8.385621551424265">
        <ele>1871.3399999999999</ele>
        <time>2021-08-01T15:26:53Z</time>
      </trkpt>
      <trkpt lat="46.43354726023972" lon="8.385647619143128">
        <ele>1870.8599999999999</ele>
        <time>2021-08-01T15:27:03Z</time>
      </trkpt>
      <trkpt lat="46.433515325188637" lon="8.385681817308068">
        <ele>1870.8599999999999</ele>
        <time>2021-08-01T15:27:09Z</time>
      </trkpt>
      <trkpt lat="46.433471655473113" lon="8.385781897231937">
        <ele>1871.3399999999999</ele>
        <time>2021-08-01T15:27:19Z</time>
      </trkpt>
      <trkpt lat="46.433464698493481" lon="8.385800672695041">
        <ele>1871.3399999999999</ele>
        <time>2021-08-01T15:27:21Z</time>
      </trkpt>
      <trkpt lat="46.433458160609007" lon="8.385810982435942">
        <ele>1871.3399999999999</ele>
        <time>2021-08-01T15:27:22Z</time>
      </trkpt>
      <trkpt lat="46.433367384597659" lon="8.385938555002213">
        <ele>1871.3399999999999</ele>
        <time>2021-08-01T15:27:34Z</time>
      </trkpt>
      <trkpt lat="46.433269148692489" lon="8.386082723736763">
        <ele>1870.8599999999999</ele>
        <time>2021-08-01T15:27:47Z</time>
      </trkpt>
      <trkpt lat="46.433169571682811" lon="8.386239297688007">
        <ele>1870.3800000000001</ele>
        <time>2021-08-01T15:28:01Z</time>
      </trkpt>
      <trkpt lat="46.433070246130228" lon="8.386392099782825">
        <ele>1869.4200000000001</ele>
        <time>2021-08-01T15:28:14Z</time>
      </trkpt>
      <trkpt lat="46.432971758767962" lon="8.38654481805861">
        <ele>1868.46</ele>
        <time>2021-08-01T15:28:27Z</time>
      </trkpt>
      <trkpt lat="46.432877378538251" lon="8.386688232421875">
        <ele>1869.4200000000001</ele>
        <time>2021-08-01T15:28:39Z</time>
      </trkpt>
      <trkpt lat="46.432770425453782" lon="8.386877663433552">
        <ele>1869.4200000000001</ele>
        <time>2021-08-01T15:28:53Z</time>
      </trkpt>
      <trkpt lat="46.432670261710882" lon="8.387046055868268">
        <ele>1867.98</ele>
        <time>2021-08-01T15:29:06Z</time>
      </trkpt>
      <trkpt lat="46.432566661387682" lon="8.387257950380445">
        <ele>1867.98</ele>
        <time>2021-08-01T15:29:21Z</time>
      </trkpt>
      <trkpt lat="46.432494828477502" lon="8.387420726940036">
        <ele>1867.98</ele>
        <time>2021-08-01T15:29:32Z</time>
      </trkpt>
      <trkpt lat="46.432372033596039" lon="8.38762616738677">
        <ele>1867.98</ele>
        <time>2021-08-01T15:29:47Z</time>
      </trkpt>
      <trkpt lat="46.432283353060484" lon="8.387734042480588">
        <ele>1867.02</ele>
        <time>2021-08-01T15:29:57Z</time>
      </trkpt>
      <trkpt lat="46.432201629504561" lon="8.387829847633839">
        <ele>1867.02</ele>
        <time>2021-08-01T15:30:06Z</time>
      </trkpt>
      <trkpt lat="46.432108171284199" lon="8.387963036075234">
        <ele>1866.0599999999999</ele>
        <time>2021-08-01T15:30:17Z</time>
      </trkpt>
      <trkpt lat="46.431976491585374" lon="8.388144839555025">
        <ele>1865.0899999999999</ele>
        <time>2021-08-01T15:30:32Z</time>
      </trkpt>
      <trkpt lat="46.431875070556998" lon="8.388326223939657">
        <ele>1864.6099999999999</ele>
        <time>2021-08-01T15:30:45Z</time>
      </trkpt>
      <trkpt lat="46.431792676448822" lon="8.388538453727961">
        <ele>1864.1300000000001</ele>
        <time>2021-08-01T15:30:59Z</time>
      </trkpt>
      <trkpt lat="46.431707683950663" lon="8.388735596090555">
        <ele>1863.1700000000001</ele>
        <time>2021-08-01T15:31:12Z</time>
      </trkpt>
      <trkpt lat="46.431608945131302" lon="8.388899294659495">
        <ele>1863.1700000000001</ele>
        <time>2021-08-01T15:31:24Z</time>
      </trkpt>
      <trkpt lat="46.431529819965363" lon="8.389076068997383">
        <ele>1862.6900000000001</ele>
        <time>2021-08-01T15:31:36Z</time>
      </trkpt>
      <trkpt lat="46.431434266269207" lon="8.389247562736273">
        <ele>1862.21</ele>
        <time>2021-08-01T15:31:48Z</time>
      </trkpt>
      <trkpt lat="46.431344747543335" lon="8.389425594359636">
        <ele>1861.73</ele>
        <time>2021-08-01T15:32:00Z</time>
      </trkpt>
      <trkpt lat="46.431285571306944" lon="8.38956062681973">
        <ele>1860.77</ele>
        <time>2021-08-01T15:32:10Z</time>
      </trkpt>
      <trkpt lat="46.43120376393199" lon="8.389703622087836">
        <ele>1860.77</ele>
        <time>2021-08-01T15:32:21Z</time>
      </trkpt>
      <trkpt lat="46.431126482784748" lon="8.389806216582656">
        <ele>1859.8099999999999</ele>
        <time>2021-08-01T15:32:32Z</time>
      </trkpt>
      <trkpt lat="46.431121956557035" lon="8.38981811888516">
        <ele>1859.8099999999999</ele>
        <time>2021-08-01T15:32:33Z</time>
      </trkpt>
      <trkpt lat="46.431112652644515" lon="8.389846449717879">
        <ele>1859.8099999999999</ele>
        <time>2021-08-01T15:32:35Z</time>
      </trkpt>
      <trkpt lat="46.431107874959707" lon="8.389860028401017">
        <ele>1859.8099999999999</ele>
        <time>2021-08-01T15:32:36Z</time>
      </trkpt>
      <trkpt lat="46.431079627946019" lon="8.389912499114871">
        <ele>1859.3299999999999</ele>
        <time>2021-08-01T15:32:41Z</time>
      </trkpt>
      <trkpt lat="46.431073090061545" lon="8.389923144131899">
        <ele>1859.3299999999999</ele>
        <time>2021-08-01T15:32:42Z</time>
      </trkpt>
      <trkpt lat="46.431065630167723" lon="8.389934375882149">
        <ele>1859.3299999999999</ele>
        <time>2021-08-01T15:32:43Z</time>
      </trkpt>
      <trkpt lat="46.430975776165724" lon="8.390062870457768">
        <ele>1858.3699999999999</ele>
        <time>2021-08-01T15:32:56Z</time>
      </trkpt>
      <trkpt lat="46.430968567728996" lon="8.39008592069149">
        <ele>1858.3699999999999</ele>
        <time>2021-08-01T15:33:02Z</time>
      </trkpt>
      <trkpt lat="46.43096286803484" lon="8.390098661184311">
        <ele>1858.3699999999999</ele>
        <time>2021-08-01T15:33:03Z</time>
      </trkpt>
      <trkpt lat="46.430955324321985" lon="8.390111485496163">
        <ele>1858.3699999999999</ele>
        <time>2021-08-01T15:33:04Z</time>
      </trkpt>
      <trkpt lat="46.430826326832175" lon="8.390266299247742">
        <ele>1858.3699999999999</ele>
        <time>2021-08-01T15:33:18Z</time>
      </trkpt>
      <trkpt lat="46.43067603930831" lon="8.390443492680788">
        <ele>1856.9200000000001</ele>
        <time>2021-08-01T15:33:35Z</time>
      </trkpt>
      <trkpt lat="46.430587442591786" lon="8.390581542626023">
        <ele>1856.9200000000001</ele>
        <time>2021-08-01T15:33:47Z</time>
      </trkpt>
      <trkpt lat="46.43049038015306" lon="8.39071623980999">
        <ele>1855</ele>
        <time>2021-08-01T15:34:00Z</time>
      </trkpt>
      <trkpt lat="46.430481243878603" lon="8.390727220103145">
        <ele>1854.52</ele>
        <time>2021-08-01T15:34:02Z</time>
      </trkpt>
      <trkpt lat="46.430472694337368" lon="8.390736859291792">
        <ele>1854.52</ele>
        <time>2021-08-01T15:34:03Z</time>
      </trkpt>
      <trkpt lat="46.430448554456234" lon="8.390764519572258">
        <ele>1854.52</ele>
        <time>2021-08-01T15:34:10Z</time>
      </trkpt>
      <trkpt lat="46.430409997701645" lon="8.390817074105144">
        <ele>1853.5599999999999</ele>
        <time>2021-08-01T15:34:16Z</time>
      </trkpt>
      <trkpt lat="46.430317042395473" lon="8.390946323052049">
        <ele>1853.0799999999999</ele>
        <time>2021-08-01T15:34:27Z</time>
      </trkpt>
      <trkpt lat="46.430197264999151" lon="8.391095688566566">
        <ele>1852.5999999999999</ele>
        <time>2021-08-01T15:34:40Z</time>
      </trkpt>
      <trkpt lat="46.430087797343731" lon="8.391262069344521">
        <ele>1851.6400000000001</ele>
        <time>2021-08-01T15:34:53Z</time>
      </trkpt>
      <trkpt lat="46.429974138736725" lon="8.391406992450357">
        <ele>1850.6800000000001</ele>
        <time>2021-08-01T15:35:06Z</time>
      </trkpt>
      <trkpt lat="46.429872382432222" lon="8.391510089859366">
        <ele>1850.1900000000001</ele>
        <time>2021-08-01T15:35:17Z</time>
      </trkpt>
      <trkpt lat="46.429762076586485" lon="8.391627939417958">
        <ele>1849.71</ele>
        <time>2021-08-01T15:35:29Z</time>
      </trkpt>
      <trkpt lat="46.42968513071537" lon="8.391702538356185">
        <ele>1849.23</ele>
        <time>2021-08-01T15:35:37Z</time>
      </trkpt>
      <trkpt lat="46.4295868948102" lon="8.391825333237648">
        <ele>1847.79</ele>
        <time>2021-08-01T15:35:48Z</time>
      </trkpt>
      <trkpt lat="46.429511457681656" lon="8.39194955304265">
        <ele>1848.75</ele>
        <time>2021-08-01T15:35:58Z</time>
      </trkpt>
      <trkpt lat="46.429426297545433" lon="8.392092883586884">
        <ele>1846.8299999999999</ele>
        <time>2021-08-01T15:36:09Z</time>
      </trkpt>
      <trkpt lat="46.42933719791472" lon="8.39222464710474">
        <ele>1845.8699999999999</ele>
        <time>2021-08-01T15:36:20Z</time>
      </trkpt>
      <trkpt lat="46.429312722757459" lon="8.392257085070014">
        <ele>1844.4300000000001</ele>
        <time>2021-08-01T15:36:23Z</time>
      </trkpt>
      <trkpt lat="46.429206188768148" lon="8.392380550503731">
        <ele>1845.8699999999999</ele>
        <time>2021-08-01T15:36:35Z</time>
      </trkpt>
      <trkpt lat="46.429109629243612" lon="8.392453053966165">
        <ele>1844.4300000000001</ele>
        <time>2021-08-01T15:36:45Z</time>
      </trkpt>
      <trkpt lat="46.429007286205888" lon="8.392504351213574">
        <ele>1844.9100000000001</ele>
        <time>2021-08-01T15:36:55Z</time>
      </trkpt>
      <trkpt lat="46.428874852135777" lon="8.392586493864656">
        <ele>1843.47</ele>
        <time>2021-08-01T15:37:08Z</time>
      </trkpt>
      <trkpt lat="46.428747279569507" lon="8.392660170793533">
        <ele>1843.95</ele>
        <time>2021-08-01T15:37:20Z</time>
      </trkpt>
      <trkpt lat="46.428640075027943" lon="8.392748599871993">
        <ele>1843.95</ele>
        <time>2021-08-01T15:37:31Z</time>
      </trkpt>
      <trkpt lat="46.428541168570518" lon="8.392842141911387">
        <ele>1843.47</ele>
        <time>2021-08-01T15:37:41Z</time>
      </trkpt>
      <trkpt lat="46.42845525406301" lon="8.392943730577827">
        <ele>1843.95</ele>
        <time>2021-08-01T15:37:51Z</time>
      </trkpt>
      <trkpt lat="46.428362466394901" lon="8.393080355599523">
        <ele>1842.5</ele>
        <time>2021-08-01T15:38:03Z</time>
      </trkpt>
      <trkpt lat="46.428295243531466" lon="8.393211448565126">
        <ele>1843.47</ele>
        <time>2021-08-01T15:38:13Z</time>
      </trkpt>
      <trkpt lat="46.428273869678378" lon="8.393252855166793">
        <ele>1843.47</ele>
        <time>2021-08-01T15:38:16Z</time>
      </trkpt>
      <trkpt lat="46.42826515249908" lon="8.393266182392836">
        <ele>1843.47</ele>
        <time>2021-08-01T15:38:17Z</time>
      </trkpt>
      <trkpt lat="46.428238665685058" lon="8.393304236233234">
        <ele>1843.95</ele>
        <time>2021-08-01T15:38:20Z</time>
      </trkpt>
      <trkpt lat="46.428230619058013" lon="8.393317731097341">
        <ele>1843.95</ele>
        <time>2021-08-01T15:38:21Z</time>
      </trkpt>
      <trkpt lat="46.42817186191678" lon="8.393433149904013">
        <ele>1842.5</ele>
        <time>2021-08-01T15:38:30Z</time>
      </trkpt>
      <trkpt lat="46.428119139745831" lon="8.393563237041235">
        <ele>1843.95</ele>
        <time>2021-08-01T15:38:40Z</time>
      </trkpt>
      <trkpt lat="46.428060550242662" lon="8.393725678324699">
        <ele>1843.47</ele>
        <time>2021-08-01T15:38:50Z</time>
      </trkpt>
      <trkpt lat="46.427972540259361" lon="8.393889963626862">
        <ele>1842.02</ele>
        <time>2021-08-01T15:39:02Z</time>
      </trkpt>
      <trkpt lat="46.427899533882737" lon="8.394041676074266">
        <ele>1842.02</ele>
        <time>2021-08-01T15:39:13Z</time>
      </trkpt>
      <trkpt lat="46.427842956036329" lon="8.394227754324675">
        <ele>1841.0599999999999</ele>
        <time>2021-08-01T15:39:25Z</time>
      </trkpt>
      <trkpt lat="46.427768524736166" lon="8.39442347176373">
        <ele>1840.5799999999999</ele>
        <time>2021-08-01T15:39:38Z</time>
      </trkpt>
      <trkpt lat="46.427694680169225" lon="8.394611142575741">
        <ele>1840.0999999999999</ele>
        <time>2021-08-01T15:39:51Z</time>
      </trkpt>
      <trkpt lat="46.427627122029662" lon="8.394774673506618">
        <ele>1839.6199999999999</ele>
        <time>2021-08-01T15:40:02Z</time>
      </trkpt>
      <trkpt lat="46.427556127309799" lon="8.394932169467211">
        <ele>1839.6199999999999</ele>
        <time>2021-08-01T15:40:13Z</time>
      </trkpt>
      <trkpt lat="46.427483540028334" lon="8.39505965821445">
        <ele>1838.6600000000001</ele>
        <time>2021-08-01T15:40:23Z</time>
      </trkpt>
      <trkpt lat="46.427380526438355" lon="8.395228469744325">
        <ele>1839.1400000000001</ele>
        <time>2021-08-01T15:40:36Z</time>
      </trkpt>
      <trkpt lat="46.427293187007308" lon="8.395405830815435">
        <ele>1839.1400000000001</ele>
        <time>2021-08-01T15:40:49Z</time>
      </trkpt>
      <trkpt lat="46.427224539220333" lon="8.395587299019098">
        <ele>1839.1400000000001</ele>
        <time>2021-08-01T15:41:01Z</time>
      </trkpt>
      <trkpt lat="46.427142899483442" lon="8.395780250430107">
        <ele>1838.1800000000001</ele>
        <time>2021-08-01T15:41:14Z</time>
      </trkpt>
      <trkpt lat="46.427069138735533" lon="8.395939758047462">
        <ele>1838.1800000000001</ele>
        <time>2021-08-01T15:41:25Z</time>
      </trkpt>
      <trkpt lat="46.426984649151564" lon="8.396106641739607">
        <ele>1838.1800000000001</ele>
        <time>2021-08-01T15:41:37Z</time>
      </trkpt>
      <trkpt lat="46.426868895068765" lon="8.396298084408045">
        <ele>1838.6600000000001</ele>
        <time>2021-08-01T15:41:52Z</time>
      </trkpt>
      <trkpt lat="46.426781974732876" lon="8.396462621167302">
        <ele>1839.1400000000001</ele>
        <time>2021-08-01T15:42:04Z</time>
      </trkpt>
      <trkpt lat="46.426692456007004" lon="8.396660936996341">
        <ele>1839.1400000000001</ele>
        <time>2021-08-01T15:42:18Z</time>
      </trkpt>
      <trkpt lat="46.426653480157256" lon="8.396832179278135">
        <ele>1839.1400000000001</ele>
        <time>2021-08-01T15:42:29Z</time>
      </trkpt>
      <trkpt lat="46.426620371639729" lon="8.397068716585636">
        <ele>1839.1400000000001</ele>
        <time>2021-08-01T15:42:43Z</time>
      </trkpt>
      <trkpt lat="46.426576031371951" lon="8.39724188670516">
        <ele>1838.6600000000001</ele>
        <time>2021-08-01T15:42:54Z</time>
      </trkpt>
      <trkpt lat="46.426555328071117" lon="8.397469287738204">
        <ele>1839.1400000000001</ele>
        <time>2021-08-01T15:43:06Z</time>
      </trkpt>
      <trkpt lat="46.42657209187746" lon="8.397656036540866">
        <ele>1838.6600000000001</ele>
        <time>2021-08-01T15:43:16Z</time>
      </trkpt>
      <trkpt lat="46.426560273393989" lon="8.3979098405689">
        <ele>1836.26</ele>
        <time>2021-08-01T15:43:30Z</time>
      </trkpt>
      <trkpt lat="46.426518782973289" lon="8.398124082013965">
        <ele>1836.74</ele>
        <time>2021-08-01T15:43:42Z</time>
      </trkpt>
      <trkpt lat="46.426513753831387" lon="8.398156017065048">
        <ele>1837.22</ele>
        <time>2021-08-01T15:43:44Z</time>
      </trkpt>
      <trkpt lat="46.426514256745577" lon="8.398173786699772">
        <ele>1837.22</ele>
        <time>2021-08-01T15:43:45Z</time>
      </trkpt>
      <trkpt lat="46.426514843478799" lon="8.398193567991257">
        <ele>1837.22</ele>
        <time>2021-08-01T15:43:46Z</time>
      </trkpt>
      <trkpt lat="46.426513586193323" lon="8.398214187473059">
        <ele>1837.22</ele>
        <time>2021-08-01T15:43:47Z</time>
      </trkpt>
      <trkpt lat="46.426511239260435" lon="8.398234471678734">
        <ele>1837.22</ele>
        <time>2021-08-01T15:43:48Z</time>
      </trkpt>
      <trkpt lat="46.426508640870452" lon="8.398253163322806">
        <ele>1837.22</ele>
        <time>2021-08-01T15:43:49Z</time>
      </trkpt>
      <trkpt lat="46.42650512047112" lon="8.398271771147847">
        <ele>1837.22</ele>
        <time>2021-08-01T15:43:50Z</time>
      </trkpt>
      <trkpt lat="46.426500845700502" lon="8.398290295153856">
        <ele>1837.22</ele>
        <time>2021-08-01T15:43:51Z</time>
      </trkpt>
      <trkpt lat="46.426495816558599" lon="8.398308148607612">
        <ele>1837.22</ele>
        <time>2021-08-01T15:43:52Z</time>
      </trkpt>
      <trkpt lat="46.426494978368282" lon="8.398525826632977">
        <ele>1837.22</ele>
        <time>2021-08-01T15:44:05Z</time>
      </trkpt>
      <trkpt lat="46.426555998623371" lon="8.398713832721114">
        <ele>1836.74</ele>
        <time>2021-08-01T15:44:17Z</time>
      </trkpt>
      <trkpt lat="46.426588017493486" lon="8.39888071641326">
        <ele>1836.74</ele>
        <time>2021-08-01T15:44:27Z</time>
      </trkpt>
      <trkpt lat="46.426572594791651" lon="8.399049025028944">
        <ele>1836.26</ele>
        <time>2021-08-01T15:44:37Z</time>
      </trkpt>
      <trkpt lat="46.426507383584976" lon="8.399276593700051">
        <ele>1836.26</ele>
        <time>2021-08-01T15:44:51Z</time>
      </trkpt>
      <trkpt lat="46.426425827667117" lon="8.399470383301377">
        <ele>1835.77</ele>
        <time>2021-08-01T15:45:04Z</time>
      </trkpt>
      <trkpt lat="46.426351144909859" lon="8.399593681097031">
        <ele>1835.77</ele>
        <time>2021-08-01T15:45:14Z</time>
      </trkpt>
      <trkpt lat="46.426258943974972" lon="8.399720834568143">
        <ele>1834.8099999999999</ele>
        <time>2021-08-01T15:45:24Z</time>
      </trkpt>
      <trkpt lat="46.426205886527896" lon="8.399855783209205">
        <ele>1835.29</ele>
        <time>2021-08-01T15:45:34Z</time>
      </trkpt>
      <trkpt lat="46.426227260380983" lon="8.399889394640923">
        <ele>1835.77</ele>
        <time>2021-08-01T15:45:39Z</time>
      </trkpt>
      <trkpt lat="46.426235223188996" lon="8.399899955838919">
        <ele>1835.77</ele>
        <time>2021-08-01T15:45:40Z</time>
      </trkpt>
      <trkpt lat="46.426379894837737" lon="8.40001629665494">
        <ele>1835.77</ele>
        <time>2021-08-01T15:45:55Z</time>
      </trkpt>
      <trkpt lat="46.426455331966281" lon="8.400138253346086">
        <ele>1836.74</ele>
        <time>2021-08-01T15:46:05Z</time>
      </trkpt>
      <trkpt lat="46.4265510533005" lon="8.400304047390819">
        <ele>1836.74</ele>
        <time>2021-08-01T15:46:18Z</time>
      </trkpt>
      <trkpt lat="46.42665222287178" lon="8.4005122538656">
        <ele>1836.26</ele>
        <time>2021-08-01T15:46:32Z</time>
      </trkpt>
      <trkpt lat="46.426760852336884" lon="8.400737894698978">
        <ele>1836.74</ele>
        <time>2021-08-01T15:46:48Z</time>
      </trkpt>
      <trkpt lat="46.426801420748234" lon="8.400867562741041">
        <ele>1836.26</ele>
        <time>2021-08-01T15:46:56Z</time>
      </trkpt>
      <trkpt lat="46.426802175119519" lon="8.400884494185448">
        <ele>1835.77</ele>
        <time>2021-08-01T15:46:57Z</time>
      </trkpt>
      <trkpt lat="46.426726067438722" lon="8.401049952954054">
        <ele>1835.77</ele>
        <time>2021-08-01T15:47:09Z</time>
      </trkpt>
      <trkpt lat="46.42667812295258" lon="8.401249274611473">
        <ele>1834.3299999999999</ele>
        <time>2021-08-01T15:47:22Z</time>
      </trkpt>
      <trkpt lat="46.426661191508174" lon="8.401345079764724">
        <ele>1832.4100000000001</ele>
        <time>2021-08-01T15:47:31Z</time>
      </trkpt>
      <trkpt lat="46.42665658146143" lon="8.401378858834505">
        <ele>1832.4100000000001</ele>
        <time>2021-08-01T15:47:36Z</time>
      </trkpt>
      <trkpt lat="46.42665658146143" lon="8.401394030079246">
        <ele>1832.4100000000001</ele>
        <time>2021-08-01T15:47:37Z</time>
      </trkpt>
      <trkpt lat="46.426655827090144" lon="8.401409788057208">
        <ele>1831.9300000000001</ele>
        <time>2021-08-01T15:47:38Z</time>
      </trkpt>
      <trkpt lat="46.426605619490147" lon="8.401651354506612">
        <ele>1830.01</ele>
        <time>2021-08-01T15:47:53Z</time>
      </trkpt>
      <trkpt lat="46.426516938954592" lon="8.401687061414123">
        <ele>1829.05</ele>
        <time>2021-08-01T15:48:01Z</time>
      </trkpt>
      <trkpt lat="46.426456589251757" lon="8.401560829952359">
        <ele>1828.5599999999999</ele>
        <time>2021-08-01T15:48:10Z</time>
      </trkpt>
      <trkpt lat="46.426447788253427" lon="8.401326555758715">
        <ele>1826.1600000000001</ele>
        <time>2021-08-01T15:48:24Z</time>
      </trkpt>
      <trkpt lat="46.426400598138571" lon="8.401300236582756">
        <ele>1825.6800000000001</ele>
        <time>2021-08-01T15:48:31Z</time>
      </trkpt>
      <trkpt lat="46.426384756341577" lon="8.401310546323657">
        <ele>1825.2</ele>
        <time>2021-08-01T15:48:33Z</time>
      </trkpt>
      <trkpt lat="46.426309989765286" lon="8.401357149705291">
        <ele>1823.76</ele>
        <time>2021-08-01T15:48:42Z</time>
      </trkpt>
      <trkpt lat="46.426217285916209" lon="8.401462426409125">
        <ele>1820.8699999999999</ele>
        <time>2021-08-01T15:48:53Z</time>
      </trkpt>
      <trkpt lat="46.426180824637413" lon="8.401577761396766">
        <ele>1819.4300000000001</ele>
        <time>2021-08-01T15:49:04Z</time>
      </trkpt>
      <trkpt lat="46.426155930384994" lon="8.401593854650855">
        <ele>1817.99</ele>
        <time>2021-08-01T15:49:12Z</time>
      </trkpt>
      <trkpt lat="46.426140759140253" lon="8.401633249595761">
        <ele>1816.0699999999999</ele>
        <time>2021-08-01T15:49:20Z</time>
      </trkpt>
      <trkpt lat="46.426110751926899" lon="8.401703573763371">
        <ele>1814.1500000000001</ele>
        <time>2021-08-01T15:49:30Z</time>
      </trkpt>
      <trkpt lat="46.426057191565633" lon="8.40179979801178">
        <ele>1811.74</ele>
        <time>2021-08-01T15:49:41Z</time>
      </trkpt>
      <trkpt lat="46.425997596234083" lon="8.401918653398752">
        <ele>1809.3399999999999</ele>
        <time>2021-08-01T15:49:51Z</time>
      </trkpt>
      <trkpt lat="46.425904892385006" lon="8.402038430795074">
        <ele>1805.97</ele>
        <time>2021-08-01T15:50:02Z</time>
      </trkpt>
      <trkpt lat="46.42586256377399" lon="8.402110682800412">
        <ele>1805.01</ele>
        <time>2021-08-01T15:50:10Z</time>
      </trkpt>
      <trkpt lat="46.425860468298197" lon="8.402125099673867">
        <ele>1804.53</ele>
        <time>2021-08-01T15:50:11Z</time>
      </trkpt>
      <trkpt lat="46.425857450813055" lon="8.402139851823449">
        <ele>1804.53</ele>
        <time>2021-08-01T15:50:12Z</time>
      </trkpt>
      <trkpt lat="46.425853092223406" lon="8.402156699448824">
        <ele>1804.05</ele>
        <time>2021-08-01T15:50:13Z</time>
      </trkpt>
      <trkpt lat="46.425847727805376" lon="8.402173044160008">
        <ele>1803.5699999999999</ele>
        <time>2021-08-01T15:50:14Z</time>
      </trkpt>
      <trkpt lat="46.425842363387346" lon="8.402189556509256">
        <ele>1803.5699999999999</ele>
        <time>2021-08-01T15:50:15Z</time>
      </trkpt>
      <trkpt lat="46.425835825502872" lon="8.40220388956368">
        <ele>1803.0899999999999</ele>
        <time>2021-08-01T15:50:16Z</time>
      </trkpt>
      <trkpt lat="46.425828617066145" lon="8.402218138799071">
        <ele>1802.6099999999999</ele>
        <time>2021-08-01T15:50:17Z</time>
      </trkpt>
      <trkpt lat="46.425821995362639" lon="8.402232639491558">
        <ele>1802.6099999999999</ele>
        <time>2021-08-01T15:50:18Z</time>
      </trkpt>
      <trkpt lat="46.425816044211388" lon="8.402248648926616">
        <ele>1802.1300000000001</ele>
        <time>2021-08-01T15:50:19Z</time>
      </trkpt>
      <trkpt lat="46.425756029784679" lon="8.402305394411087">
        <ele>1800.6900000000001</ele>
        <time>2021-08-01T15:50:26Z</time>
      </trkpt>
      <trkpt lat="46.425747899338603" lon="8.402297347784042">
        <ele>1800.21</ele>
        <time>2021-08-01T15:50:47Z</time>
      </trkpt>
      <trkpt lat="46.425757789984345" lon="8.402298940345645">
        <ele>1799.73</ele>
        <time>2021-08-01T15:51:04Z</time>
      </trkpt>
      <trkpt lat="46.425780588760972" lon="8.402312938123941">
        <ele>1799.73</ele>
        <time>2021-08-01T15:51:06Z</time>
      </trkpt>
      <trkpt lat="46.425789725035429" lon="8.402323666960001">
        <ele>1799.73</ele>
        <time>2021-08-01T15:51:07Z</time>
      </trkpt>
      <trkpt lat="46.425795173272491" lon="8.40233632363379">
        <ele>1799.24</ele>
        <time>2021-08-01T15:51:08Z</time>
      </trkpt>
      <trkpt lat="46.425795424729586" lon="8.402350740507245">
        <ele>1799.24</ele>
        <time>2021-08-01T15:51:09Z</time>
      </trkpt>
      <trkpt lat="46.425790227949619" lon="8.402366079390049">
        <ele>1799.24</ele>
        <time>2021-08-01T15:51:10Z</time>
      </trkpt>
      <trkpt lat="46.425737086683512" lon="8.402494490146637">
        <ele>1798.28</ele>
        <time>2021-08-01T15:51:19Z</time>
      </trkpt>
      <trkpt lat="46.425736080855131" lon="8.402510667219758">
        <ele>1798.28</ele>
        <time>2021-08-01T15:51:20Z</time>
      </trkpt>
      <trkpt lat="46.425735577940941" lon="8.402527598664165">
        <ele>1798.28</ele>
        <time>2021-08-01T15:51:21Z</time>
      </trkpt>
      <trkpt lat="46.425742534920573" lon="8.402724238112569">
        <ele>1797.3199999999999</ele>
        <time>2021-08-01T15:51:33Z</time>
      </trkpt>
      <trkpt lat="46.425753850489855" lon="8.402869496494532">
        <ele>1795.4000000000001</ele>
        <time>2021-08-01T15:51:42Z</time>
      </trkpt>
      <trkpt lat="46.42577363178134" lon="8.403026070445776">
        <ele>1793</ele>
        <time>2021-08-01T15:51:52Z</time>
      </trkpt>
      <trkpt lat="46.425777738913894" lon="8.403162276372314">
        <ele>1792.03</ele>
        <time>2021-08-01T15:52:01Z</time>
      </trkpt>
      <trkpt lat="46.425774469971657" lon="8.40329454280436">
        <ele>1790.5899999999999</ele>
        <time>2021-08-01T15:52:10Z</time>
      </trkpt>
      <trkpt lat="46.425771955400705" lon="8.403462432324886">
        <ele>1788.1900000000001</ele>
        <time>2021-08-01T15:52:22Z</time>
      </trkpt>
      <trkpt lat="46.425779582932591" lon="8.40360919944942">
        <ele>1786.75</ele>
        <time>2021-08-01T15:52:32Z</time>
      </trkpt>
      <trkpt lat="46.425779918208718" lon="8.403752697631717">
        <ele>1785.79</ele>
        <time>2021-08-01T15:52:42Z</time>
      </trkpt>
      <trkpt lat="46.425789138302207" lon="8.403866356238723">
        <ele>1784.3399999999999</ele>
        <time>2021-08-01T15:52:51Z</time>
      </trkpt>
      <trkpt lat="46.425802297890186" lon="8.404005831107497">
        <ele>1782.9000000000001</ele>
        <time>2021-08-01T15:53:00Z</time>
      </trkpt>
      <trkpt lat="46.425797855481505" lon="8.404160225763917">
        <ele>1781.46</ele>
        <time>2021-08-01T15:53:10Z</time>
      </trkpt>
      <trkpt lat="46.425736164674163" lon="8.404258545488119">
        <ele>1780.5</ele>
        <time>2021-08-01T15:53:20Z</time>
      </trkpt>
      <trkpt lat="46.425750078633428" lon="8.404281092807651">
        <ele>1780.5</ele>
        <time>2021-08-01T15:53:34Z</time>
      </trkpt>
      <trkpt lat="46.425741529092193" lon="8.404314620420337">
        <ele>1779.0599999999999</ele>
        <time>2021-08-01T15:53:43Z</time>
      </trkpt>
      <trkpt lat="46.425700038671494" lon="8.404336161911488">
        <ele>1777.6099999999999</ele>
        <time>2021-08-01T15:54:01Z</time>
      </trkpt>
      <trkpt lat="46.425661398097873" lon="8.404402546584606">
        <ele>1775.6900000000001</ele>
        <time>2021-08-01T15:54:11Z</time>
      </trkpt>
      <trkpt lat="46.425629882141948" lon="8.40450338087976">
        <ele>1773.77</ele>
        <time>2021-08-01T15:54:20Z</time>
      </trkpt>
      <trkpt lat="46.425565760582685" lon="8.404606897383928">
        <ele>1771.3699999999999</ele>
        <time>2021-08-01T15:54:32Z</time>
      </trkpt>
      <trkpt lat="46.42553323879838" lon="8.404640424996615">
        <ele>1770.4100000000001</ele>
        <time>2021-08-01T15:54:40Z</time>
      </trkpt>
      <trkpt lat="46.425521671772003" lon="8.404654674232006">
        <ele>1769.9200000000001</ele>
        <time>2021-08-01T15:54:42Z</time>
      </trkpt>
      <trkpt lat="46.425453359261155" lon="8.404701696708798">
        <ele>1768</ele>
        <time>2021-08-01T15:54:51Z</time>
      </trkpt>
      <trkpt lat="46.425444222986698" lon="8.404711587354541">
        <ele>1768</ele>
        <time>2021-08-01T15:54:53Z</time>
      </trkpt>
      <trkpt lat="46.42543307505548" lon="8.404731117188931">
        <ele>1767.52</ele>
        <time>2021-08-01T15:54:55Z</time>
      </trkpt>
      <trkpt lat="46.425426537171006" lon="8.404741426929832">
        <ele>1767.52</ele>
        <time>2021-08-01T15:54:56Z</time>
      </trkpt>
      <trkpt lat="46.425383286550641" lon="8.404773278161883">
        <ele>1767.04</ele>
        <time>2021-08-01T15:55:01Z</time>
      </trkpt>
      <trkpt lat="46.425377083942294" lon="8.404784761369228">
        <ele>1767.04</ele>
        <time>2021-08-01T15:55:02Z</time>
      </trkpt>
      <trkpt lat="46.425343388691545" lon="8.404844189062715">
        <ele>1766.5599999999999</ele>
        <time>2021-08-01T15:55:10Z</time>
      </trkpt>
      <trkpt lat="46.425337186083198" lon="8.40485617518425">
        <ele>1766.0799999999999</ele>
        <time>2021-08-01T15:55:11Z</time>
      </trkpt>
      <trkpt lat="46.425330648198724" lon="8.404868496581912">
        <ele>1766.0799999999999</ele>
        <time>2021-08-01T15:55:12Z</time>
      </trkpt>
      <trkpt lat="46.425219671800733" lon="8.405067399144173">
        <ele>1764.1600000000001</ele>
        <time>2021-08-01T15:55:27Z</time>
      </trkpt>
      <trkpt lat="46.425084723159671" lon="8.40528323315084">
        <ele>1761.27</ele>
        <time>2021-08-01T15:55:43Z</time>
      </trkpt>
      <trkpt lat="46.425048178061843" lon="8.405335871502757">
        <ele>1760.79</ele>
        <time>2021-08-01T15:55:50Z</time>
      </trkpt>
      <trkpt lat="46.425040969625115" lon="8.405345594510436">
        <ele>1760.79</ele>
        <time>2021-08-01T15:55:51Z</time>
      </trkpt>
      <trkpt lat="46.42503434792161" lon="8.40535799972713">
        <ele>1760.79</ele>
        <time>2021-08-01T15:55:52Z</time>
      </trkpt>
      <trkpt lat="46.424995120614767" lon="8.405524464324117">
        <ele>1759.8299999999999</ele>
        <time>2021-08-01T15:56:04Z</time>
      </trkpt>
      <trkpt lat="46.425000568851829" lon="8.4055270627141">
        <ele>1759.8299999999999</ele>
        <time>2021-08-01T15:56:20Z</time>
      </trkpt>
      <trkpt lat="46.424997132271528" lon="8.405527397990227">
        <ele>1758.8699999999999</ele>
        <time>2021-08-01T15:56:50Z</time>
      </trkpt>
      <trkpt lat="46.424996126443148" lon="8.405531672760844">
        <ele>1758.3900000000001</ele>
        <time>2021-08-01T15:57:13Z</time>
      </trkpt>
      <trkpt lat="46.424997970461845" lon="8.405528487637639">
        <ele>1758.8699999999999</ele>
        <time>2021-08-01T15:57:26Z</time>
      </trkpt>
      <trkpt lat="46.424999227747321" lon="8.405534941703081">
        <ele>1758.8699999999999</ele>
        <time>2021-08-01T15:57:47Z</time>
      </trkpt>
      <trkpt lat="46.425023032352328" lon="8.405557656660676">
        <ele>1759.3499999999999</ele>
        <time>2021-08-01T15:57:53Z</time>
      </trkpt>
      <trkpt lat="46.425001574680209" lon="8.405558997765183">
        <ele>1759.3499999999999</ele>
        <time>2021-08-01T15:58:00Z</time>
      </trkpt>
      <trkpt lat="46.424994617700577" lon="8.405523123219609">
        <ele>1759.8299999999999</ele>
        <time>2021-08-01T15:58:06Z</time>
      </trkpt>
      <trkpt lat="46.424995036795735" lon="8.405520860105753">
        <ele>1758.8699999999999</ele>
        <time>2021-08-01T15:58:18Z</time>
      </trkpt>
      <trkpt lat="46.425001071766019" lon="8.405506443232298">
        <ele>1759.3499999999999</ele>
        <time>2021-08-01T15:58:26Z</time>
      </trkpt>
      <trkpt lat="46.425006687641144" lon="8.405510382726789">
        <ele>1758.3900000000001</ele>
        <time>2021-08-01T15:58:38Z</time>
      </trkpt>
      <trkpt lat="46.425018254667521" lon="8.405517926439643">
        <ele>1760.3099999999999</ele>
        <time>2021-08-01T15:59:13Z</time>
      </trkpt>
    </trkseg>
  </trk>

</gpx>